<?xml version="1.0" encoding="UTF-8" standalone="no" ?>
<gpx xmlns="http://www.topografix.com/GPX/1/1" xmlns:xsi="http://www.w3.org/2001/XMLSchema-instance" xsi:schemaLocation="http://www.topografix.com/GPX/1/1 http://www.topografix.com/GPX/1/1/gpx.xsd" version="1.1" creator="VisuGPX - https://www.visugpx.com">
  <metadata>
    <name>Breil: Sentier valléen en direction de Libre</name>
    <desc><![CDATA[Sentier valléen en direction de Libre en allée-retour]]></desc>
  </metadata>
  <trk>
    <name><![CDATA[Breil: Sentier valléen en direction de Libre_1]]></name>
    <trkseg>
      <trkpt lat="43.93892" lon="7.51469">
        <ele>314.2</ele>
        <time>2014-09-30T08:40:32Z</time>
      </trkpt>
      <trkpt lat="43.93901" lon="7.51466">
        <ele>314.2</ele>
        <time>2014-09-30T08:40:36Z</time>
      </trkpt>
      <trkpt lat="43.93901" lon="7.51467">
        <ele>300.1863</ele>
        <time>2014-09-30T08:41:01Z</time>
      </trkpt>
      <trkpt lat="43.939" lon="7.51467">
        <ele>300.1863</ele>
        <time>2014-09-30T08:41:06Z</time>
      </trkpt>
      <trkpt lat="43.93901" lon="7.51466">
        <ele>300.1863</ele>
        <time>2014-09-30T08:41:11Z</time>
      </trkpt>
      <trkpt lat="43.93901" lon="7.51463">
        <ele>300.1863</ele>
        <time>2014-09-30T08:41:16Z</time>
      </trkpt>
      <trkpt lat="43.93901" lon="7.5146">
        <ele>300.1863</ele>
        <time>2014-09-30T08:41:21Z</time>
      </trkpt>
      <trkpt lat="43.93896" lon="7.51453">
        <ele>300.11566</ele>
        <time>2014-09-30T08:41:26Z</time>
      </trkpt>
      <trkpt lat="43.9389" lon="7.51448">
        <ele>300.11566</ele>
        <time>2014-09-30T08:41:31Z</time>
      </trkpt>
      <trkpt lat="43.9389" lon="7.51443">
        <ele>300.56268</ele>
        <time>2014-09-30T08:41:36Z</time>
      </trkpt>
      <trkpt lat="43.93889" lon="7.51436">
        <ele>300.56268</ele>
        <time>2014-09-30T08:41:41Z</time>
      </trkpt>
      <trkpt lat="43.93886" lon="7.51429">
        <ele>301.1854</ele>
        <time>2014-09-30T08:41:46Z</time>
      </trkpt>
      <trkpt lat="43.93883" lon="7.51424">
        <ele>301.1854</ele>
        <time>2014-09-30T08:41:51Z</time>
      </trkpt>
      <trkpt lat="43.93881" lon="7.51421">
        <ele>301.1854</ele>
        <time>2014-09-30T08:41:56Z</time>
      </trkpt>
      <trkpt lat="43.93879" lon="7.51417">
        <ele>301.33115</ele>
        <time>2014-09-30T08:42:01Z</time>
      </trkpt>
      <trkpt lat="43.93878" lon="7.5141">
        <ele>301.33115</ele>
        <time>2014-09-30T08:42:06Z</time>
      </trkpt>
      <trkpt lat="43.93877" lon="7.51404">
        <ele>301.5425</ele>
        <time>2014-09-30T08:42:11Z</time>
      </trkpt>
      <trkpt lat="43.93874" lon="7.51396">
        <ele>301.5425</ele>
        <time>2014-09-30T08:42:16Z</time>
      </trkpt>
      <trkpt lat="43.93869" lon="7.51391">
        <ele>301.56964</ele>
        <time>2014-09-30T08:42:21Z</time>
      </trkpt>
      <trkpt lat="43.93866" lon="7.51386">
        <ele>301.56964</ele>
        <time>2014-09-30T08:42:26Z</time>
      </trkpt>
      <trkpt lat="43.93862" lon="7.51381">
        <ele>301.2843</ele>
        <time>2014-09-30T08:42:31Z</time>
      </trkpt>
      <trkpt lat="43.9386" lon="7.51374">
        <ele>301.2843</ele>
        <time>2014-09-30T08:42:36Z</time>
      </trkpt>
      <trkpt lat="43.93856" lon="7.51366">
        <ele>300.80112</ele>
        <time>2014-09-30T08:42:41Z</time>
      </trkpt>
      <trkpt lat="43.93853" lon="7.51359">
        <ele>300.80112</ele>
        <time>2014-09-30T08:42:47Z</time>
      </trkpt>
      <trkpt lat="43.93852" lon="7.51351">
        <ele>300.16144</ele>
        <time>2014-09-30T08:42:51Z</time>
      </trkpt>
      <trkpt lat="43.93852" lon="7.51342">
        <ele>300.16144</ele>
        <time>2014-09-30T08:42:56Z</time>
      </trkpt>
      <trkpt lat="43.9385" lon="7.51337">
        <ele>299.4644</ele>
        <time>2014-09-30T08:43:01Z</time>
      </trkpt>
      <trkpt lat="43.93846" lon="7.51332">
        <ele>299.4644</ele>
        <time>2014-09-30T08:43:06Z</time>
      </trkpt>
      <trkpt lat="43.93841" lon="7.5133">
        <ele>298.70502</ele>
        <time>2014-09-30T08:43:11Z</time>
      </trkpt>
      <trkpt lat="43.93838" lon="7.5133">
        <ele>298.70502</ele>
        <time>2014-09-30T08:43:16Z</time>
      </trkpt>
      <trkpt lat="43.93836" lon="7.51334">
        <ele>298.70502</ele>
        <time>2014-09-30T08:43:21Z</time>
      </trkpt>
      <trkpt lat="43.93835" lon="7.51332">
        <ele>298.70502</ele>
        <time>2014-09-30T08:43:26Z</time>
      </trkpt>
      <trkpt lat="43.93834" lon="7.51333">
        <ele>298.1743</ele>
        <time>2014-09-30T08:43:31Z</time>
      </trkpt>
      <trkpt lat="43.93831" lon="7.51345">
        <ele>298.1743</ele>
        <time>2014-09-30T08:43:36Z</time>
      </trkpt>
      <trkpt lat="43.93829" lon="7.51353">
        <ele>297.6237</ele>
        <time>2014-09-30T08:43:42Z</time>
      </trkpt>
      <trkpt lat="43.93826" lon="7.51357">
        <ele>297.6237</ele>
        <time>2014-09-30T08:43:47Z</time>
      </trkpt>
      <trkpt lat="43.93823" lon="7.51361">
        <ele>297.6237</ele>
        <time>2014-09-30T08:43:51Z</time>
      </trkpt>
      <trkpt lat="43.93821" lon="7.51367">
        <ele>297.1583</ele>
        <time>2014-09-30T08:43:56Z</time>
      </trkpt>
      <trkpt lat="43.93818" lon="7.51373">
        <ele>297.1583</ele>
        <time>2014-09-30T08:44:01Z</time>
      </trkpt>
      <trkpt lat="43.93815" lon="7.51377">
        <ele>296.7047</ele>
        <time>2014-09-30T08:44:06Z</time>
      </trkpt>
      <trkpt lat="43.93811" lon="7.51378">
        <ele>296.7047</ele>
        <time>2014-09-30T08:44:11Z</time>
      </trkpt>
      <trkpt lat="43.93806" lon="7.5138">
        <ele>296.40668</ele>
        <time>2014-09-30T08:44:16Z</time>
      </trkpt>
      <trkpt lat="43.93802" lon="7.5138">
        <ele>296.40668</ele>
        <time>2014-09-30T08:44:21Z</time>
      </trkpt>
      <trkpt lat="43.93799" lon="7.51379">
        <ele>296.40668</ele>
        <time>2014-09-30T08:44:26Z</time>
      </trkpt>
      <trkpt lat="43.93799" lon="7.51379">
        <ele>296.40668</ele>
        <time>2014-09-30T08:44:31Z</time>
      </trkpt>
      <trkpt lat="43.93799" lon="7.51379">
        <ele>296.40668</ele>
        <time>2014-09-30T08:44:36Z</time>
      </trkpt>
      <trkpt lat="43.93797" lon="7.51381">
        <ele>296.19333</ele>
        <time>2014-09-30T08:44:41Z</time>
      </trkpt>
      <trkpt lat="43.93797" lon="7.51381">
        <ele>296.19333</ele>
        <time>2014-09-30T08:44:46Z</time>
      </trkpt>
      <trkpt lat="43.93794" lon="7.5138">
        <ele>296.19333</ele>
        <time>2014-09-30T08:44:51Z</time>
      </trkpt>
      <trkpt lat="43.93787" lon="7.51379">
        <ele>295.95135</ele>
        <time>2014-09-30T08:44:56Z</time>
      </trkpt>
      <trkpt lat="43.9378" lon="7.51377">
        <ele>295.95135</ele>
        <time>2014-09-30T08:45:01Z</time>
      </trkpt>
      <trkpt lat="43.93772" lon="7.51375">
        <ele>295.65857</ele>
        <time>2014-09-30T08:45:06Z</time>
      </trkpt>
      <trkpt lat="43.93765" lon="7.51376">
        <ele>295.65857</ele>
        <time>2014-09-30T08:45:11Z</time>
      </trkpt>
      <trkpt lat="43.93758" lon="7.51374">
        <ele>295.2482</ele>
        <time>2014-09-30T08:45:16Z</time>
      </trkpt>
      <trkpt lat="43.93752" lon="7.51371">
        <ele>295.2482</ele>
        <time>2014-09-30T08:45:22Z</time>
      </trkpt>
      <trkpt lat="43.93746" lon="7.51368">
        <ele>294.8896</ele>
        <time>2014-09-30T08:45:26Z</time>
      </trkpt>
      <trkpt lat="43.93742" lon="7.5137">
        <ele>294.8896</ele>
        <time>2014-09-30T08:45:31Z</time>
      </trkpt>
      <trkpt lat="43.93741" lon="7.51371">
        <ele>294.8896</ele>
        <time>2014-09-30T08:45:36Z</time>
      </trkpt>
      <trkpt lat="43.93741" lon="7.51372">
        <ele>294.8896</ele>
        <time>2014-09-30T08:45:41Z</time>
      </trkpt>
      <trkpt lat="43.93741" lon="7.51372">
        <ele>294.8896</ele>
        <time>2014-09-30T08:45:46Z</time>
      </trkpt>
      <trkpt lat="43.93734" lon="7.51369">
        <ele>294.83405</ele>
        <time>2014-09-30T08:45:51Z</time>
      </trkpt>
      <trkpt lat="43.93728" lon="7.51374">
        <ele>294.83405</ele>
        <time>2014-09-30T08:45:56Z</time>
      </trkpt>
      <trkpt lat="43.93719" lon="7.51384">
        <ele>294.9748</ele>
        <time>2014-09-30T08:46:01Z</time>
      </trkpt>
      <trkpt lat="43.93709" lon="7.51393">
        <ele>295.07196</ele>
        <time>2014-09-30T08:46:06Z</time>
      </trkpt>
      <trkpt lat="43.93698" lon="7.51397">
        <ele>295.21628</ele>
        <time>2014-09-30T08:46:11Z</time>
      </trkpt>
      <trkpt lat="43.93692" lon="7.51393">
        <ele>295.21628</ele>
        <time>2014-09-30T08:46:16Z</time>
      </trkpt>
      <trkpt lat="43.93686" lon="7.5139">
        <ele>295.43103</ele>
        <time>2014-09-30T08:46:21Z</time>
      </trkpt>
      <trkpt lat="43.93681" lon="7.51388">
        <ele>295.43103</ele>
        <time>2014-09-30T08:46:26Z</time>
      </trkpt>
      <trkpt lat="43.93675" lon="7.51386">
        <ele>295.66635</ele>
        <time>2014-09-30T08:46:32Z</time>
      </trkpt>
      <trkpt lat="43.93669" lon="7.51385">
        <ele>295.66635</ele>
        <time>2014-09-30T08:46:36Z</time>
      </trkpt>
      <trkpt lat="43.93663" lon="7.51386">
        <ele>295.98972</ele>
        <time>2014-09-30T08:46:41Z</time>
      </trkpt>
      <trkpt lat="43.93656" lon="7.51384">
        <ele>295.98972</ele>
        <time>2014-09-30T08:46:46Z</time>
      </trkpt>
      <trkpt lat="43.9365" lon="7.51383">
        <ele>296.43445</ele>
        <time>2014-09-30T08:46:51Z</time>
      </trkpt>
      <trkpt lat="43.93644" lon="7.51382">
        <ele>296.43445</ele>
        <time>2014-09-30T08:46:56Z</time>
      </trkpt>
      <trkpt lat="43.93637" lon="7.51382">
        <ele>297.1566</ele>
        <time>2014-09-30T08:47:01Z</time>
      </trkpt>
      <trkpt lat="43.93635" lon="7.51382">
        <ele>297.1566</ele>
        <time>2014-09-30T08:47:07Z</time>
      </trkpt>
      <trkpt lat="43.93633" lon="7.51383">
        <ele>297.1566</ele>
        <time>2014-09-30T08:47:11Z</time>
      </trkpt>
      <trkpt lat="43.93625" lon="7.51388">
        <ele>298.06436</ele>
        <time>2014-09-30T08:47:16Z</time>
      </trkpt>
      <trkpt lat="43.93623" lon="7.51388">
        <ele>298.06436</ele>
        <time>2014-09-30T08:47:21Z</time>
      </trkpt>
      <trkpt lat="43.93623" lon="7.51389">
        <ele>298.06436</ele>
        <time>2014-09-30T08:47:26Z</time>
      </trkpt>
      <trkpt lat="43.93622" lon="7.51389">
        <ele>298.06436</ele>
        <time>2014-09-30T08:47:31Z</time>
      </trkpt>
      <trkpt lat="43.93621" lon="7.51388">
        <ele>298.06436</ele>
        <time>2014-09-30T08:47:36Z</time>
      </trkpt>
      <trkpt lat="43.93622" lon="7.51386">
        <ele>298.06436</ele>
        <time>2014-09-30T08:47:41Z</time>
      </trkpt>
      <trkpt lat="43.93621" lon="7.51385">
        <ele>298.06436</ele>
        <time>2014-09-30T08:47:46Z</time>
      </trkpt>
      <trkpt lat="43.93619" lon="7.51382">
        <ele>299.49033</ele>
        <time>2014-09-30T08:47:51Z</time>
      </trkpt>
      <trkpt lat="43.93619" lon="7.51381">
        <ele>299.49033</ele>
        <time>2014-09-30T08:47:56Z</time>
      </trkpt>
      <trkpt lat="43.93619" lon="7.5138">
        <ele>299.49033</ele>
        <time>2014-09-30T08:48:01Z</time>
      </trkpt>
      <trkpt lat="43.93619" lon="7.5138">
        <ele>299.49033</ele>
        <time>2014-09-30T08:48:06Z</time>
      </trkpt>
      <trkpt lat="43.93618" lon="7.51363">
        <ele>296.3215</ele>
        <time>2014-09-30T08:50:51Z</time>
      </trkpt>
      <trkpt lat="43.93618" lon="7.51363">
        <ele>296.3215</ele>
        <time>2014-09-30T08:50:56Z</time>
      </trkpt>
      <trkpt lat="43.93622" lon="7.51374">
        <ele>295.1509</ele>
        <time>2014-09-30T08:51:16Z</time>
      </trkpt>
      <trkpt lat="43.93623" lon="7.51376">
        <ele>293.9803</ele>
        <time>2014-09-30T08:51:21Z</time>
      </trkpt>
      <trkpt lat="43.93624" lon="7.51378">
        <ele>293.9803</ele>
        <time>2014-09-30T08:51:26Z</time>
      </trkpt>
      <trkpt lat="43.93624" lon="7.51384">
        <ele>293.9803</ele>
        <time>2014-09-30T08:51:31Z</time>
      </trkpt>
      <trkpt lat="43.93623" lon="7.51388">
        <ele>292.09613</ele>
        <time>2014-09-30T08:51:36Z</time>
      </trkpt>
      <trkpt lat="43.93621" lon="7.51391">
        <ele>292.09613</ele>
        <time>2014-09-30T08:51:41Z</time>
      </trkpt>
      <trkpt lat="43.93621" lon="7.51391">
        <ele>292.09613</ele>
        <time>2014-09-30T08:51:46Z</time>
      </trkpt>
      <trkpt lat="43.9362" lon="7.51392">
        <ele>292.09613</ele>
        <time>2014-09-30T08:51:51Z</time>
      </trkpt>
      <trkpt lat="43.93619" lon="7.51395">
        <ele>292.09613</ele>
        <time>2014-09-30T08:51:56Z</time>
      </trkpt>
      <trkpt lat="43.93618" lon="7.51395">
        <ele>292.09613</ele>
        <time>2014-09-30T08:52:01Z</time>
      </trkpt>
      <trkpt lat="43.93613" lon="7.51397">
        <ele>291.54782</ele>
        <time>2014-09-30T08:52:07Z</time>
      </trkpt>
      <trkpt lat="43.93613" lon="7.51397">
        <ele>291.54782</ele>
        <time>2014-09-30T08:52:11Z</time>
      </trkpt>
      <trkpt lat="43.93608" lon="7.51403">
        <ele>291.54782</ele>
        <time>2014-09-30T08:52:16Z</time>
      </trkpt>
      <trkpt lat="43.93604" lon="7.5141">
        <ele>291.42352</ele>
        <time>2014-09-30T08:52:21Z</time>
      </trkpt>
      <trkpt lat="43.93601" lon="7.51412">
        <ele>291.42352</ele>
        <time>2014-09-30T08:52:26Z</time>
      </trkpt>
      <trkpt lat="43.93596" lon="7.51412">
        <ele>291.42352</ele>
        <time>2014-09-30T08:52:31Z</time>
      </trkpt>
      <trkpt lat="43.93591" lon="7.51414">
        <ele>291.68607</ele>
        <time>2014-09-30T08:52:36Z</time>
      </trkpt>
      <trkpt lat="43.93587" lon="7.51419">
        <ele>291.68607</ele>
        <time>2014-09-30T08:52:41Z</time>
      </trkpt>
      <trkpt lat="43.93586" lon="7.51422">
        <ele>291.68607</ele>
        <time>2014-09-30T08:52:46Z</time>
      </trkpt>
      <trkpt lat="43.93586" lon="7.51422">
        <ele>291.68607</ele>
        <time>2014-09-30T08:52:51Z</time>
      </trkpt>
      <trkpt lat="43.93583" lon="7.51423">
        <ele>291.9543</ele>
        <time>2014-09-30T08:52:56Z</time>
      </trkpt>
      <trkpt lat="43.93579" lon="7.51427">
        <ele>291.9543</ele>
        <time>2014-09-30T08:53:01Z</time>
      </trkpt>
      <trkpt lat="43.93576" lon="7.5143">
        <ele>291.9543</ele>
        <time>2014-09-30T08:53:06Z</time>
      </trkpt>
      <trkpt lat="43.93571" lon="7.51436">
        <ele>292.60394</ele>
        <time>2014-09-30T08:53:11Z</time>
      </trkpt>
      <trkpt lat="43.93566" lon="7.51441">
        <ele>292.60394</ele>
        <time>2014-09-30T08:53:16Z</time>
      </trkpt>
      <trkpt lat="43.93564" lon="7.51446">
        <ele>293.20337</ele>
        <time>2014-09-30T08:53:22Z</time>
      </trkpt>
      <trkpt lat="43.93565" lon="7.51453">
        <ele>293.20337</ele>
        <time>2014-09-30T08:53:26Z</time>
      </trkpt>
      <trkpt lat="43.93562" lon="7.51463">
        <ele>293.70966</ele>
        <time>2014-09-30T08:53:31Z</time>
      </trkpt>
      <trkpt lat="43.93559" lon="7.51472">
        <ele>293.70966</ele>
        <time>2014-09-30T08:53:36Z</time>
      </trkpt>
      <trkpt lat="43.9356" lon="7.5148">
        <ele>294.11194</ele>
        <time>2014-09-30T08:53:42Z</time>
      </trkpt>
      <trkpt lat="43.93561" lon="7.51487">
        <ele>294.11194</ele>
        <time>2014-09-30T08:53:46Z</time>
      </trkpt>
      <trkpt lat="43.93561" lon="7.51494">
        <ele>294.41553</ele>
        <time>2014-09-30T08:53:51Z</time>
      </trkpt>
      <trkpt lat="43.93562" lon="7.515">
        <ele>294.41553</ele>
        <time>2014-09-30T08:53:56Z</time>
      </trkpt>
      <trkpt lat="43.93567" lon="7.51504">
        <ele>294.56635</ele>
        <time>2014-09-30T08:54:01Z</time>
      </trkpt>
      <trkpt lat="43.93568" lon="7.51509">
        <ele>294.56635</ele>
        <time>2014-09-30T08:54:06Z</time>
      </trkpt>
      <trkpt lat="43.9357" lon="7.51515">
        <ele>294.56635</ele>
        <time>2014-09-30T08:54:11Z</time>
      </trkpt>
      <trkpt lat="43.93571" lon="7.5152">
        <ele>294.82864</ele>
        <time>2014-09-30T08:54:16Z</time>
      </trkpt>
      <trkpt lat="43.93573" lon="7.51526">
        <ele>294.82864</ele>
        <time>2014-09-30T08:54:21Z</time>
      </trkpt>
      <trkpt lat="43.93578" lon="7.51533">
        <ele>295.23956</ele>
        <time>2014-09-30T08:54:26Z</time>
      </trkpt>
      <trkpt lat="43.93582" lon="7.5154">
        <ele>295.23956</ele>
        <time>2014-09-30T08:54:31Z</time>
      </trkpt>
      <trkpt lat="43.93585" lon="7.51543">
        <ele>295.547</ele>
        <time>2014-09-30T08:54:36Z</time>
      </trkpt>
      <trkpt lat="43.93589" lon="7.51542">
        <ele>295.547</ele>
        <time>2014-09-30T08:54:41Z</time>
      </trkpt>
      <trkpt lat="43.93591" lon="7.51539">
        <ele>295.547</ele>
        <time>2014-09-30T08:54:46Z</time>
      </trkpt>
      <trkpt lat="43.93592" lon="7.51539">
        <ele>295.547</ele>
        <time>2014-09-30T08:54:51Z</time>
      </trkpt>
      <trkpt lat="43.93595" lon="7.51542">
        <ele>295.77274</ele>
        <time>2014-09-30T08:54:56Z</time>
      </trkpt>
      <trkpt lat="43.93598" lon="7.51549">
        <ele>295.77274</ele>
        <time>2014-09-30T08:55:01Z</time>
      </trkpt>
      <trkpt lat="43.93601" lon="7.51556">
        <ele>295.92252</ele>
        <time>2014-09-30T08:55:06Z</time>
      </trkpt>
      <trkpt lat="43.93604" lon="7.51563">
        <ele>295.92252</ele>
        <time>2014-09-30T08:55:11Z</time>
      </trkpt>
      <trkpt lat="43.93606" lon="7.51568">
        <ele>296.138</ele>
        <time>2014-09-30T08:55:16Z</time>
      </trkpt>
      <trkpt lat="43.9361" lon="7.51574">
        <ele>296.138</ele>
        <time>2014-09-30T08:55:21Z</time>
      </trkpt>
      <trkpt lat="43.93616" lon="7.51578">
        <ele>296.38382</ele>
        <time>2014-09-30T08:55:26Z</time>
      </trkpt>
      <trkpt lat="43.93618" lon="7.51587">
        <ele>296.38382</ele>
        <time>2014-09-30T08:55:31Z</time>
      </trkpt>
      <trkpt lat="43.9362" lon="7.51591">
        <ele>296.59705</ele>
        <time>2014-09-30T08:55:36Z</time>
      </trkpt>
      <trkpt lat="43.93624" lon="7.51596">
        <ele>296.59705</ele>
        <time>2014-09-30T08:55:41Z</time>
      </trkpt>
      <trkpt lat="43.93627" lon="7.516">
        <ele>296.6444</ele>
        <time>2014-09-30T08:55:46Z</time>
      </trkpt>
      <trkpt lat="43.93632" lon="7.51603">
        <ele>296.6444</ele>
        <time>2014-09-30T08:55:51Z</time>
      </trkpt>
      <trkpt lat="43.93634" lon="7.51608">
        <ele>296.59982</ele>
        <time>2014-09-30T08:55:57Z</time>
      </trkpt>
      <trkpt lat="43.9364" lon="7.51616">
        <ele>296.59982</ele>
        <time>2014-09-30T08:56:01Z</time>
      </trkpt>
      <trkpt lat="43.93642" lon="7.51621">
        <ele>296.42633</ele>
        <time>2014-09-30T08:56:06Z</time>
      </trkpt>
      <trkpt lat="43.93644" lon="7.51627">
        <ele>296.42633</ele>
        <time>2014-09-30T08:56:11Z</time>
      </trkpt>
      <trkpt lat="43.93647" lon="7.51635">
        <ele>296.10556</ele>
        <time>2014-09-30T08:56:16Z</time>
      </trkpt>
      <trkpt lat="43.93652" lon="7.51642">
        <ele>296.10556</ele>
        <time>2014-09-30T08:56:21Z</time>
      </trkpt>
      <trkpt lat="43.93655" lon="7.51647">
        <ele>295.69592</ele>
        <time>2014-09-30T08:56:26Z</time>
      </trkpt>
      <trkpt lat="43.93659" lon="7.51653">
        <ele>295.69592</ele>
        <time>2014-09-30T08:56:31Z</time>
      </trkpt>
      <trkpt lat="43.93663" lon="7.51657">
        <ele>295.2214</ele>
        <time>2014-09-30T08:56:37Z</time>
      </trkpt>
      <trkpt lat="43.93667" lon="7.51659">
        <ele>295.2214</ele>
        <time>2014-09-30T08:56:41Z</time>
      </trkpt>
      <trkpt lat="43.9367" lon="7.51663">
        <ele>295.2214</ele>
        <time>2014-09-30T08:56:46Z</time>
      </trkpt>
      <trkpt lat="43.9367" lon="7.51673">
        <ele>294.6892</ele>
        <time>2014-09-30T08:56:51Z</time>
      </trkpt>
      <trkpt lat="43.93672" lon="7.51678">
        <ele>294.6892</ele>
        <time>2014-09-30T08:56:56Z</time>
      </trkpt>
      <trkpt lat="43.93677" lon="7.51683">
        <ele>293.92767</ele>
        <time>2014-09-30T08:57:01Z</time>
      </trkpt>
      <trkpt lat="43.93681" lon="7.51689">
        <ele>293.92767</ele>
        <time>2014-09-30T08:57:06Z</time>
      </trkpt>
      <trkpt lat="43.93685" lon="7.51696">
        <ele>293.0322</ele>
        <time>2014-09-30T08:57:11Z</time>
      </trkpt>
      <trkpt lat="43.93689" lon="7.51699">
        <ele>293.0322</ele>
        <time>2014-09-30T08:57:16Z</time>
      </trkpt>
      <trkpt lat="43.93692" lon="7.51704">
        <ele>292.09045</ele>
        <time>2014-09-30T08:57:21Z</time>
      </trkpt>
      <trkpt lat="43.93696" lon="7.51709">
        <ele>292.09045</ele>
        <time>2014-09-30T08:57:26Z</time>
      </trkpt>
      <trkpt lat="43.93698" lon="7.51716">
        <ele>291.19748</ele>
        <time>2014-09-30T08:57:31Z</time>
      </trkpt>
      <trkpt lat="43.93699" lon="7.51723">
        <ele>291.19748</ele>
        <time>2014-09-30T08:57:36Z</time>
      </trkpt>
      <trkpt lat="43.93703" lon="7.51728">
        <ele>290.21957</ele>
        <time>2014-09-30T08:57:41Z</time>
      </trkpt>
      <trkpt lat="43.93705" lon="7.51733">
        <ele>290.21957</ele>
        <time>2014-09-30T08:57:46Z</time>
      </trkpt>
      <trkpt lat="43.93707" lon="7.51737">
        <ele>290.21957</ele>
        <time>2014-09-30T08:57:51Z</time>
      </trkpt>
      <trkpt lat="43.9371" lon="7.51741">
        <ele>289.16632</ele>
        <time>2014-09-30T08:57:56Z</time>
      </trkpt>
      <trkpt lat="43.93713" lon="7.51745">
        <ele>289.16632</ele>
        <time>2014-09-30T08:58:01Z</time>
      </trkpt>
      <trkpt lat="43.93717" lon="7.51751">
        <ele>288.59918</ele>
        <time>2014-09-30T08:58:06Z</time>
      </trkpt>
      <trkpt lat="43.93721" lon="7.51756">
        <ele>288.03204</ele>
        <time>2014-09-30T08:58:11Z</time>
      </trkpt>
      <trkpt lat="43.93726" lon="7.51763">
        <ele>288.03204</ele>
        <time>2014-09-30T08:58:16Z</time>
      </trkpt>
      <trkpt lat="43.93726" lon="7.51769">
        <ele>286.98706</ele>
        <time>2014-09-30T08:58:21Z</time>
      </trkpt>
      <trkpt lat="43.93727" lon="7.51771">
        <ele>286.98706</ele>
        <time>2014-09-30T08:58:26Z</time>
      </trkpt>
      <trkpt lat="43.93728" lon="7.51776">
        <ele>286.98706</ele>
        <time>2014-09-30T08:58:32Z</time>
      </trkpt>
      <trkpt lat="43.93729" lon="7.51779">
        <ele>286.98706</ele>
        <time>2014-09-30T08:58:36Z</time>
      </trkpt>
      <trkpt lat="43.9373" lon="7.51783">
        <ele>285.96863</ele>
        <time>2014-09-30T08:58:41Z</time>
      </trkpt>
      <trkpt lat="43.93731" lon="7.51787">
        <ele>285.96863</ele>
        <time>2014-09-30T08:58:46Z</time>
      </trkpt>
      <trkpt lat="43.93731" lon="7.5179">
        <ele>285.96863</ele>
        <time>2014-09-30T08:58:51Z</time>
      </trkpt>
      <trkpt lat="43.93737" lon="7.51792">
        <ele>285.05017</ele>
        <time>2014-09-30T08:58:56Z</time>
      </trkpt>
      <trkpt lat="43.93742" lon="7.51794">
        <ele>285.05017</ele>
        <time>2014-09-30T08:59:01Z</time>
      </trkpt>
      <trkpt lat="43.93745" lon="7.51798">
        <ele>284.2262</ele>
        <time>2014-09-30T08:59:07Z</time>
      </trkpt>
      <trkpt lat="43.93748" lon="7.51801">
        <ele>284.2262</ele>
        <time>2014-09-30T08:59:11Z</time>
      </trkpt>
      <trkpt lat="43.93746" lon="7.51806">
        <ele>284.2262</ele>
        <time>2014-09-30T08:59:16Z</time>
      </trkpt>
      <trkpt lat="43.93747" lon="7.5181">
        <ele>283.6221</ele>
        <time>2014-09-30T08:59:21Z</time>
      </trkpt>
      <trkpt lat="43.93747" lon="7.51814">
        <ele>283.6221</ele>
        <time>2014-09-30T08:59:26Z</time>
      </trkpt>
      <trkpt lat="43.93748" lon="7.51817">
        <ele>283.6221</ele>
        <time>2014-09-30T08:59:32Z</time>
      </trkpt>
      <trkpt lat="43.93752" lon="7.51821">
        <ele>283.2513</ele>
        <time>2014-09-30T08:59:36Z</time>
      </trkpt>
      <trkpt lat="43.93752" lon="7.51831">
        <ele>283.2513</ele>
        <time>2014-09-30T08:59:42Z</time>
      </trkpt>
      <trkpt lat="43.93752" lon="7.51838">
        <ele>283.11127</ele>
        <time>2014-09-30T08:59:46Z</time>
      </trkpt>
      <trkpt lat="43.93756" lon="7.51842">
        <ele>283.11127</ele>
        <time>2014-09-30T08:59:51Z</time>
      </trkpt>
      <trkpt lat="43.93754" lon="7.51849">
        <ele>283.2568</ele>
        <time>2014-09-30T08:59:56Z</time>
      </trkpt>
      <trkpt lat="43.93752" lon="7.5185">
        <ele>283.2568</ele>
        <time>2014-09-30T09:00:01Z</time>
      </trkpt>
      <trkpt lat="43.9375" lon="7.5185">
        <ele>283.2568</ele>
        <time>2014-09-30T09:00:06Z</time>
      </trkpt>
      <trkpt lat="43.93749" lon="7.51852">
        <ele>283.2568</ele>
        <time>2014-09-30T09:00:11Z</time>
      </trkpt>
      <trkpt lat="43.93746" lon="7.51854">
        <ele>283.2568</ele>
        <time>2014-09-30T09:00:17Z</time>
      </trkpt>
      <trkpt lat="43.93745" lon="7.51854">
        <ele>284.05606</ele>
        <time>2014-09-30T09:00:21Z</time>
      </trkpt>
      <trkpt lat="43.93741" lon="7.51859">
        <ele>284.05606</ele>
        <time>2014-09-30T09:00:26Z</time>
      </trkpt>
      <trkpt lat="43.93738" lon="7.51862">
        <ele>284.05606</ele>
        <time>2014-09-30T09:00:32Z</time>
      </trkpt>
      <trkpt lat="43.93737" lon="7.51863">
        <ele>284.89362</ele>
        <time>2014-09-30T09:00:37Z</time>
      </trkpt>
      <trkpt lat="43.93732" lon="7.51866">
        <ele>284.89362</ele>
        <time>2014-09-30T09:00:41Z</time>
      </trkpt>
      <trkpt lat="43.93728" lon="7.51869">
        <ele>285.61963</ele>
        <time>2014-09-30T09:00:46Z</time>
      </trkpt>
      <trkpt lat="43.93721" lon="7.51874">
        <ele>285.61963</ele>
        <time>2014-09-30T09:00:51Z</time>
      </trkpt>
      <trkpt lat="43.93716" lon="7.51876">
        <ele>286.28345</ele>
        <time>2014-09-30T09:00:56Z</time>
      </trkpt>
      <trkpt lat="43.93708" lon="7.51878">
        <ele>286.28345</ele>
        <time>2014-09-30T09:01:01Z</time>
      </trkpt>
      <trkpt lat="43.93704" lon="7.5188">
        <ele>286.94522</ele>
        <time>2014-09-30T09:01:06Z</time>
      </trkpt>
      <trkpt lat="43.93704" lon="7.5188">
        <ele>286.94522</ele>
        <time>2014-09-30T09:01:11Z</time>
      </trkpt>
      <trkpt lat="43.93701" lon="7.5188">
        <ele>286.94522</ele>
        <time>2014-09-30T09:01:16Z</time>
      </trkpt>
      <trkpt lat="43.93701" lon="7.5188">
        <ele>286.94522</ele>
        <time>2014-09-30T09:01:21Z</time>
      </trkpt>
      <trkpt lat="43.937" lon="7.51883">
        <ele>286.94522</ele>
        <time>2014-09-30T09:01:36Z</time>
      </trkpt>
      <trkpt lat="43.937" lon="7.51883">
        <ele>286.94522</ele>
        <time>2014-09-30T09:01:41Z</time>
      </trkpt>
      <trkpt lat="43.93698" lon="7.51886">
        <ele>286.94522</ele>
        <time>2014-09-30T09:01:51Z</time>
      </trkpt>
      <trkpt lat="43.93698" lon="7.51886">
        <ele>286.94522</ele>
        <time>2014-09-30T09:01:56Z</time>
      </trkpt>
      <trkpt lat="43.93697" lon="7.51889">
        <ele>287.0691</ele>
        <time>2014-09-30T09:02:16Z</time>
      </trkpt>
      <trkpt lat="43.93695" lon="7.51895">
        <ele>287.0691</ele>
        <time>2014-09-30T09:02:21Z</time>
      </trkpt>
      <trkpt lat="43.93692" lon="7.51897">
        <ele>287.0691</ele>
        <time>2014-09-30T09:02:26Z</time>
      </trkpt>
      <trkpt lat="43.93691" lon="7.51898">
        <ele>287.0691</ele>
        <time>2014-09-30T09:02:31Z</time>
      </trkpt>
      <trkpt lat="43.9369" lon="7.51897">
        <ele>287.24216</ele>
        <time>2014-09-30T09:02:36Z</time>
      </trkpt>
      <trkpt lat="43.93689" lon="7.51896">
        <ele>287.24216</ele>
        <time>2014-09-30T09:02:41Z</time>
      </trkpt>
      <trkpt lat="43.93689" lon="7.51896">
        <ele>287.24216</ele>
        <time>2014-09-30T09:02:46Z</time>
      </trkpt>
      <trkpt lat="43.9369" lon="7.51896">
        <ele>287.24216</ele>
        <time>2014-09-30T09:02:51Z</time>
      </trkpt>
      <trkpt lat="43.93688" lon="7.51898">
        <ele>287.24216</ele>
        <time>2014-09-30T09:02:56Z</time>
      </trkpt>
      <trkpt lat="43.93684" lon="7.51903">
        <ele>287.7193</ele>
        <time>2014-09-30T09:03:01Z</time>
      </trkpt>
      <trkpt lat="43.93681" lon="7.51905">
        <ele>287.7193</ele>
        <time>2014-09-30T09:03:06Z</time>
      </trkpt>
      <trkpt lat="43.93676" lon="7.51907">
        <ele>287.7193</ele>
        <time>2014-09-30T09:03:11Z</time>
      </trkpt>
      <trkpt lat="43.93675" lon="7.51909">
        <ele>288.50513</ele>
        <time>2014-09-30T09:03:16Z</time>
      </trkpt>
      <trkpt lat="43.93674" lon="7.51913">
        <ele>288.50513</ele>
        <time>2014-09-30T09:03:22Z</time>
      </trkpt>
      <trkpt lat="43.93674" lon="7.51914">
        <ele>288.50513</ele>
        <time>2014-09-30T09:03:26Z</time>
      </trkpt>
      <trkpt lat="43.93674" lon="7.51913">
        <ele>288.50513</ele>
        <time>2014-09-30T09:03:31Z</time>
      </trkpt>
      <trkpt lat="43.93675" lon="7.51915">
        <ele>288.50513</ele>
        <time>2014-09-30T09:03:36Z</time>
      </trkpt>
      <trkpt lat="43.93677" lon="7.51913">
        <ele>288.50513</ele>
        <time>2014-09-30T09:03:41Z</time>
      </trkpt>
      <trkpt lat="43.93677" lon="7.51911">
        <ele>288.50513</ele>
        <time>2014-09-30T09:03:46Z</time>
      </trkpt>
      <trkpt lat="43.93675" lon="7.51914">
        <ele>289.77597</ele>
        <time>2014-09-30T09:03:51Z</time>
      </trkpt>
      <trkpt lat="43.9367" lon="7.5192">
        <ele>289.77597</ele>
        <time>2014-09-30T09:03:56Z</time>
      </trkpt>
      <trkpt lat="43.93668" lon="7.51926">
        <ele>291.44885</ele>
        <time>2014-09-30T09:04:01Z</time>
      </trkpt>
      <trkpt lat="43.93665" lon="7.51932">
        <ele>291.44885</ele>
        <time>2014-09-30T09:04:07Z</time>
      </trkpt>
      <trkpt lat="43.93664" lon="7.51937">
        <ele>291.44885</ele>
        <time>2014-09-30T09:04:11Z</time>
      </trkpt>
      <trkpt lat="43.93663" lon="7.51944">
        <ele>293.24402</ele>
        <time>2014-09-30T09:04:16Z</time>
      </trkpt>
      <trkpt lat="43.93662" lon="7.51951">
        <ele>293.24402</ele>
        <time>2014-09-30T09:04:21Z</time>
      </trkpt>
      <trkpt lat="43.9366" lon="7.51959">
        <ele>294.8586</ele>
        <time>2014-09-30T09:04:26Z</time>
      </trkpt>
      <trkpt lat="43.93658" lon="7.51964">
        <ele>294.8586</ele>
        <time>2014-09-30T09:04:31Z</time>
      </trkpt>
      <trkpt lat="43.93655" lon="7.51969">
        <ele>296.3154</ele>
        <time>2014-09-30T09:04:36Z</time>
      </trkpt>
      <trkpt lat="43.93652" lon="7.51971">
        <ele>296.3154</ele>
        <time>2014-09-30T09:04:41Z</time>
      </trkpt>
      <trkpt lat="43.9365" lon="7.51968">
        <ele>296.3154</ele>
        <time>2014-09-30T09:04:46Z</time>
      </trkpt>
      <trkpt lat="43.93647" lon="7.51964">
        <ele>297.6359</ele>
        <time>2014-09-30T09:04:52Z</time>
      </trkpt>
      <trkpt lat="43.93645" lon="7.51962">
        <ele>297.6359</ele>
        <time>2014-09-30T09:04:56Z</time>
      </trkpt>
      <trkpt lat="43.93642" lon="7.51961">
        <ele>297.6359</ele>
        <time>2014-09-30T09:05:01Z</time>
      </trkpt>
      <trkpt lat="43.93642" lon="7.51962">
        <ele>297.6359</ele>
        <time>2014-09-30T09:05:06Z</time>
      </trkpt>
      <trkpt lat="43.93642" lon="7.5196">
        <ele>297.6359</ele>
        <time>2014-09-30T09:05:11Z</time>
      </trkpt>
      <trkpt lat="43.93641" lon="7.51957">
        <ele>298.5522</ele>
        <time>2014-09-30T09:05:16Z</time>
      </trkpt>
      <trkpt lat="43.9364" lon="7.51953">
        <ele>298.5522</ele>
        <time>2014-09-30T09:05:21Z</time>
      </trkpt>
      <trkpt lat="43.93637" lon="7.51952">
        <ele>298.5522</ele>
        <time>2014-09-30T09:05:26Z</time>
      </trkpt>
      <trkpt lat="43.93635" lon="7.51948">
        <ele>299.36508</ele>
        <time>2014-09-30T09:05:31Z</time>
      </trkpt>
      <trkpt lat="43.93635" lon="7.51944">
        <ele>299.36508</ele>
        <time>2014-09-30T09:05:36Z</time>
      </trkpt>
      <trkpt lat="43.93635" lon="7.51944">
        <ele>299.36508</ele>
        <time>2014-09-30T09:05:41Z</time>
      </trkpt>
      <trkpt lat="43.93635" lon="7.51943">
        <ele>299.36508</ele>
        <time>2014-09-30T09:05:46Z</time>
      </trkpt>
      <trkpt lat="43.93634" lon="7.51945">
        <ele>299.36508</ele>
        <time>2014-09-30T09:05:52Z</time>
      </trkpt>
      <trkpt lat="43.9363" lon="7.51948">
        <ele>300.09418</ele>
        <time>2014-09-30T09:05:56Z</time>
      </trkpt>
      <trkpt lat="43.93627" lon="7.51951">
        <ele>300.09418</ele>
        <time>2014-09-30T09:06:01Z</time>
      </trkpt>
      <trkpt lat="43.93625" lon="7.51953">
        <ele>300.09418</ele>
        <time>2014-09-30T09:06:06Z</time>
      </trkpt>
      <trkpt lat="43.93624" lon="7.51951">
        <ele>300.09418</ele>
        <time>2014-09-30T09:06:11Z</time>
      </trkpt>
      <trkpt lat="43.93622" lon="7.51945">
        <ele>300.74353</ele>
        <time>2014-09-30T09:06:16Z</time>
      </trkpt>
      <trkpt lat="43.93622" lon="7.51944">
        <ele>300.74353</ele>
        <time>2014-09-30T09:06:21Z</time>
      </trkpt>
      <trkpt lat="43.93619" lon="7.51944">
        <ele>300.74353</ele>
        <time>2014-09-30T09:06:26Z</time>
      </trkpt>
      <trkpt lat="43.93615" lon="7.51945">
        <ele>300.74353</ele>
        <time>2014-09-30T09:06:31Z</time>
      </trkpt>
      <trkpt lat="43.93612" lon="7.51946">
        <ele>301.08643</ele>
        <time>2014-09-30T09:06:36Z</time>
      </trkpt>
      <trkpt lat="43.93608" lon="7.51948">
        <ele>301.08643</ele>
        <time>2014-09-30T09:06:42Z</time>
      </trkpt>
      <trkpt lat="43.93604" lon="7.5195">
        <ele>301.08643</ele>
        <time>2014-09-30T09:06:46Z</time>
      </trkpt>
      <trkpt lat="43.93598" lon="7.51949">
        <ele>301.08682</ele>
        <time>2014-09-30T09:06:51Z</time>
      </trkpt>
      <trkpt lat="43.93594" lon="7.51945">
        <ele>301.08682</ele>
        <time>2014-09-30T09:06:57Z</time>
      </trkpt>
      <trkpt lat="43.93588" lon="7.51943">
        <ele>301.10184</ele>
        <time>2014-09-30T09:07:01Z</time>
      </trkpt>
      <trkpt lat="43.93586" lon="7.5194">
        <ele>301.10184</ele>
        <time>2014-09-30T09:07:06Z</time>
      </trkpt>
      <trkpt lat="43.93584" lon="7.51939">
        <ele>301.10184</ele>
        <time>2014-09-30T09:07:12Z</time>
      </trkpt>
      <trkpt lat="43.93577" lon="7.5194">
        <ele>301.08737</ele>
        <time>2014-09-30T09:07:17Z</time>
      </trkpt>
      <trkpt lat="43.93575" lon="7.51941">
        <ele>301.08737</ele>
        <time>2014-09-30T09:07:21Z</time>
      </trkpt>
      <trkpt lat="43.93572" lon="7.51941">
        <ele>301.08737</ele>
        <time>2014-09-30T09:07:26Z</time>
      </trkpt>
      <trkpt lat="43.93569" lon="7.51941">
        <ele>301.08737</ele>
        <time>2014-09-30T09:07:31Z</time>
      </trkpt>
      <trkpt lat="43.93567" lon="7.51941">
        <ele>301.37772</ele>
        <time>2014-09-30T09:07:37Z</time>
      </trkpt>
      <trkpt lat="43.93567" lon="7.5194">
        <ele>301.37772</ele>
        <time>2014-09-30T09:07:41Z</time>
      </trkpt>
      <trkpt lat="43.93567" lon="7.51939">
        <ele>301.37772</ele>
        <time>2014-09-30T09:07:46Z</time>
      </trkpt>
      <trkpt lat="43.93566" lon="7.51939">
        <ele>301.37772</ele>
        <time>2014-09-30T09:07:52Z</time>
      </trkpt>
      <trkpt lat="43.93564" lon="7.51941">
        <ele>301.37772</ele>
        <time>2014-09-30T09:07:56Z</time>
      </trkpt>
      <trkpt lat="43.93563" lon="7.51944">
        <ele>301.37772</ele>
        <time>2014-09-30T09:08:01Z</time>
      </trkpt>
      <trkpt lat="43.93563" lon="7.51945">
        <ele>301.61826</ele>
        <time>2014-09-30T09:08:06Z</time>
      </trkpt>
      <trkpt lat="43.93562" lon="7.51944">
        <ele>301.61826</ele>
        <time>2014-09-30T09:08:11Z</time>
      </trkpt>
      <trkpt lat="43.93563" lon="7.51942">
        <ele>301.63013</ele>
        <time>2014-09-30T09:08:16Z</time>
      </trkpt>
      <trkpt lat="43.93567" lon="7.51939">
        <ele>301.64197</ele>
        <time>2014-09-30T09:08:21Z</time>
      </trkpt>
      <trkpt lat="43.93569" lon="7.51932">
        <ele>301.65384</ele>
        <time>2014-09-30T09:08:26Z</time>
      </trkpt>
      <trkpt lat="43.9357" lon="7.51925">
        <ele>301.65384</ele>
        <time>2014-09-30T09:08:31Z</time>
      </trkpt>
      <trkpt lat="43.93569" lon="7.51919">
        <ele>301.65384</ele>
        <time>2014-09-30T09:08:36Z</time>
      </trkpt>
      <trkpt lat="43.9357" lon="7.51916">
        <ele>301.54315</ele>
        <time>2014-09-30T09:08:41Z</time>
      </trkpt>
      <trkpt lat="43.93569" lon="7.51913">
        <ele>301.54315</ele>
        <time>2014-09-30T09:08:46Z</time>
      </trkpt>
      <trkpt lat="43.9357" lon="7.51911">
        <ele>301.54315</ele>
        <time>2014-09-30T09:08:51Z</time>
      </trkpt>
      <trkpt lat="43.9357" lon="7.51911">
        <ele>301.54315</ele>
        <time>2014-09-30T09:08:56Z</time>
      </trkpt>
      <trkpt lat="43.9357" lon="7.51911">
        <ele>301.54315</ele>
        <time>2014-09-30T09:09:01Z</time>
      </trkpt>
      <trkpt lat="43.93568" lon="7.51912">
        <ele>301.54315</ele>
        <time>2014-09-30T09:09:06Z</time>
      </trkpt>
      <trkpt lat="43.93568" lon="7.51912">
        <ele>301.54315</ele>
        <time>2014-09-30T09:09:11Z</time>
      </trkpt>
      <trkpt lat="43.93569" lon="7.51912">
        <ele>301.54315</ele>
        <time>2014-09-30T09:09:31Z</time>
      </trkpt>
      <trkpt lat="43.93569" lon="7.51912">
        <ele>301.54315</ele>
        <time>2014-09-30T09:09:36Z</time>
      </trkpt>
      <trkpt lat="43.93569" lon="7.51913">
        <ele>301.54315</ele>
        <time>2014-09-30T09:10:01Z</time>
      </trkpt>
      <trkpt lat="43.93569" lon="7.51913">
        <ele>301.54315</ele>
        <time>2014-09-30T09:10:06Z</time>
      </trkpt>
      <trkpt lat="43.93564" lon="7.51926">
        <ele>302.52383</ele>
        <time>2014-09-30T09:10:26Z</time>
      </trkpt>
      <trkpt lat="43.93565" lon="7.51932">
        <ele>302.52383</ele>
        <time>2014-09-30T09:10:31Z</time>
      </trkpt>
      <trkpt lat="43.93564" lon="7.51936">
        <ele>302.52383</ele>
        <time>2014-09-30T09:10:36Z</time>
      </trkpt>
      <trkpt lat="43.93564" lon="7.51937">
        <ele>302.52383</ele>
        <time>2014-09-30T09:10:41Z</time>
      </trkpt>
      <trkpt lat="43.93564" lon="7.51937">
        <ele>302.52383</ele>
        <time>2014-09-30T09:10:46Z</time>
      </trkpt>
      <trkpt lat="43.93562" lon="7.51936">
        <ele>303.48938</ele>
        <time>2014-09-30T09:10:51Z</time>
      </trkpt>
      <trkpt lat="43.9356" lon="7.51935">
        <ele>303.48938</ele>
        <time>2014-09-30T09:10:56Z</time>
      </trkpt>
      <trkpt lat="43.93557" lon="7.51933">
        <ele>303.48938</ele>
        <time>2014-09-30T09:11:01Z</time>
      </trkpt>
      <trkpt lat="43.93555" lon="7.51932">
        <ele>303.48938</ele>
        <time>2014-09-30T09:11:06Z</time>
      </trkpt>
      <trkpt lat="43.93554" lon="7.51932">
        <ele>303.48938</ele>
        <time>2014-09-30T09:11:11Z</time>
      </trkpt>
      <trkpt lat="43.93552" lon="7.51931">
        <ele>303.76096</ele>
        <time>2014-09-30T09:11:16Z</time>
      </trkpt>
      <trkpt lat="43.93548" lon="7.51932">
        <ele>303.76096</ele>
        <time>2014-09-30T09:11:21Z</time>
      </trkpt>
      <trkpt lat="43.93546" lon="7.51931">
        <ele>303.76096</ele>
        <time>2014-09-30T09:11:26Z</time>
      </trkpt>
      <trkpt lat="43.93544" lon="7.5193">
        <ele>303.76096</ele>
        <time>2014-09-30T09:11:31Z</time>
      </trkpt>
      <trkpt lat="43.9354" lon="7.51928">
        <ele>303.3896</ele>
        <time>2014-09-30T09:11:36Z</time>
      </trkpt>
      <trkpt lat="43.93535" lon="7.51926">
        <ele>303.3896</ele>
        <time>2014-09-30T09:11:42Z</time>
      </trkpt>
      <trkpt lat="43.93528" lon="7.51921">
        <ele>302.90027</ele>
        <time>2014-09-30T09:11:46Z</time>
      </trkpt>
      <trkpt lat="43.93524" lon="7.51917">
        <ele>302.90027</ele>
        <time>2014-09-30T09:11:51Z</time>
      </trkpt>
      <trkpt lat="43.93521" lon="7.51916">
        <ele>302.90027</ele>
        <time>2014-09-30T09:11:56Z</time>
      </trkpt>
      <trkpt lat="43.93519" lon="7.51914">
        <ele>302.33267</ele>
        <time>2014-09-30T09:12:01Z</time>
      </trkpt>
      <trkpt lat="43.93515" lon="7.5191">
        <ele>302.33267</ele>
        <time>2014-09-30T09:12:06Z</time>
      </trkpt>
      <trkpt lat="43.93512" lon="7.51908">
        <ele>302.33267</ele>
        <time>2014-09-30T09:12:11Z</time>
      </trkpt>
      <trkpt lat="43.93511" lon="7.51905">
        <ele>301.96887</ele>
        <time>2014-09-30T09:12:16Z</time>
      </trkpt>
      <trkpt lat="43.93509" lon="7.51903">
        <ele>301.96887</ele>
        <time>2014-09-30T09:12:21Z</time>
      </trkpt>
      <trkpt lat="43.93506" lon="7.51902">
        <ele>301.96887</ele>
        <time>2014-09-30T09:12:26Z</time>
      </trkpt>
      <trkpt lat="43.93505" lon="7.519">
        <ele>301.96887</ele>
        <time>2014-09-30T09:12:31Z</time>
      </trkpt>
      <trkpt lat="43.93504" lon="7.51901">
        <ele>301.96887</ele>
        <time>2014-09-30T09:12:36Z</time>
      </trkpt>
      <trkpt lat="43.93502" lon="7.51903">
        <ele>301.73804</ele>
        <time>2014-09-30T09:12:41Z</time>
      </trkpt>
      <trkpt lat="43.93501" lon="7.51901">
        <ele>301.73804</ele>
        <time>2014-09-30T09:12:46Z</time>
      </trkpt>
      <trkpt lat="43.93498" lon="7.51899">
        <ele>301.73804</ele>
        <time>2014-09-30T09:12:51Z</time>
      </trkpt>
      <trkpt lat="43.93494" lon="7.51898">
        <ele>301.5453</ele>
        <time>2014-09-30T09:12:56Z</time>
      </trkpt>
      <trkpt lat="43.93488" lon="7.51894">
        <ele>301.5453</ele>
        <time>2014-09-30T09:13:01Z</time>
      </trkpt>
      <trkpt lat="43.93482" lon="7.51891">
        <ele>301.4757</ele>
        <time>2014-09-30T09:13:06Z</time>
      </trkpt>
      <trkpt lat="43.93476" lon="7.51886">
        <ele>301.4757</ele>
        <time>2014-09-30T09:13:11Z</time>
      </trkpt>
      <trkpt lat="43.93468" lon="7.51885">
        <ele>301.40588</ele>
        <time>2014-09-30T09:13:16Z</time>
      </trkpt>
      <trkpt lat="43.93463" lon="7.51881">
        <ele>301.40588</ele>
        <time>2014-09-30T09:13:21Z</time>
      </trkpt>
      <trkpt lat="43.9346" lon="7.51881">
        <ele>301.40588</ele>
        <time>2014-09-30T09:13:26Z</time>
      </trkpt>
      <trkpt lat="43.93455" lon="7.51882">
        <ele>301.42337</ele>
        <time>2014-09-30T09:13:31Z</time>
      </trkpt>
      <trkpt lat="43.9345" lon="7.51881">
        <ele>301.42337</ele>
        <time>2014-09-30T09:13:36Z</time>
      </trkpt>
      <trkpt lat="43.93446" lon="7.51884">
        <ele>301.40714</ele>
        <time>2014-09-30T09:13:41Z</time>
      </trkpt>
      <trkpt lat="43.9344" lon="7.51884">
        <ele>301.40714</ele>
        <time>2014-09-30T09:13:46Z</time>
      </trkpt>
      <trkpt lat="43.93435" lon="7.51885">
        <ele>301.47586</ele>
        <time>2014-09-30T09:13:51Z</time>
      </trkpt>
      <trkpt lat="43.9343" lon="7.51881">
        <ele>301.47586</ele>
        <time>2014-09-30T09:13:56Z</time>
      </trkpt>
      <trkpt lat="43.93427" lon="7.51878">
        <ele>301.5518</ele>
        <time>2014-09-30T09:14:01Z</time>
      </trkpt>
      <trkpt lat="43.93423" lon="7.51879">
        <ele>301.5518</ele>
        <time>2014-09-30T09:14:06Z</time>
      </trkpt>
      <trkpt lat="43.93418" lon="7.51881">
        <ele>301.5518</ele>
        <time>2014-09-30T09:14:11Z</time>
      </trkpt>
      <trkpt lat="43.93415" lon="7.51882">
        <ele>301.7359</ele>
        <time>2014-09-30T09:14:16Z</time>
      </trkpt>
      <trkpt lat="43.93412" lon="7.51881">
        <ele>301.7359</ele>
        <time>2014-09-30T09:14:21Z</time>
      </trkpt>
      <trkpt lat="43.93406" lon="7.51881">
        <ele>301.7359</ele>
        <time>2014-09-30T09:14:26Z</time>
      </trkpt>
      <trkpt lat="43.93401" lon="7.51882">
        <ele>301.9484</ele>
        <time>2014-09-30T09:14:31Z</time>
      </trkpt>
      <trkpt lat="43.93397" lon="7.51877">
        <ele>301.9484</ele>
        <time>2014-09-30T09:14:37Z</time>
      </trkpt>
      <trkpt lat="43.93392" lon="7.51877">
        <ele>302.0432</ele>
        <time>2014-09-30T09:14:41Z</time>
      </trkpt>
      <trkpt lat="43.93387" lon="7.51875">
        <ele>302.0432</ele>
        <time>2014-09-30T09:14:46Z</time>
      </trkpt>
      <trkpt lat="43.93383" lon="7.51873">
        <ele>302.11597</ele>
        <time>2014-09-30T09:14:51Z</time>
      </trkpt>
      <trkpt lat="43.93382" lon="7.51873">
        <ele>302.11597</ele>
        <time>2014-09-30T09:14:56Z</time>
      </trkpt>
      <trkpt lat="43.93381" lon="7.51877">
        <ele>302.11597</ele>
        <time>2014-09-30T09:15:01Z</time>
      </trkpt>
      <trkpt lat="43.93377" lon="7.51882">
        <ele>302.29855</ele>
        <time>2014-09-30T09:15:06Z</time>
      </trkpt>
      <trkpt lat="43.93373" lon="7.51885">
        <ele>302.29855</ele>
        <time>2014-09-30T09:15:11Z</time>
      </trkpt>
      <trkpt lat="43.93368" lon="7.51883">
        <ele>302.20834</ele>
        <time>2014-09-30T09:15:16Z</time>
      </trkpt>
      <trkpt lat="43.93363" lon="7.5188">
        <ele>302.20834</ele>
        <time>2014-09-30T09:15:21Z</time>
      </trkpt>
      <trkpt lat="43.93362" lon="7.51876">
        <ele>302.20834</ele>
        <time>2014-09-30T09:15:26Z</time>
      </trkpt>
      <trkpt lat="43.93361" lon="7.51869">
        <ele>301.92407</ele>
        <time>2014-09-30T09:15:31Z</time>
      </trkpt>
      <trkpt lat="43.9336" lon="7.51866">
        <ele>301.92407</ele>
        <time>2014-09-30T09:15:36Z</time>
      </trkpt>
      <trkpt lat="43.93359" lon="7.51864">
        <ele>301.92407</ele>
        <time>2014-09-30T09:15:41Z</time>
      </trkpt>
      <trkpt lat="43.93358" lon="7.51858">
        <ele>301.92407</ele>
        <time>2014-09-30T09:15:46Z</time>
      </trkpt>
      <trkpt lat="43.93358" lon="7.51853">
        <ele>301.70645</ele>
        <time>2014-09-30T09:15:51Z</time>
      </trkpt>
      <trkpt lat="43.93358" lon="7.51852">
        <ele>301.70645</ele>
        <time>2014-09-30T09:15:56Z</time>
      </trkpt>
      <trkpt lat="43.93359" lon="7.51853">
        <ele>301.70645</ele>
        <time>2014-09-30T09:16:01Z</time>
      </trkpt>
      <trkpt lat="43.93361" lon="7.51856">
        <ele>301.70645</ele>
        <time>2014-09-30T09:16:06Z</time>
      </trkpt>
      <trkpt lat="43.9336" lon="7.5186">
        <ele>301.70645</ele>
        <time>2014-09-30T09:16:11Z</time>
      </trkpt>
      <trkpt lat="43.93359" lon="7.51866">
        <ele>301.04745</ele>
        <time>2014-09-30T09:16:16Z</time>
      </trkpt>
      <trkpt lat="43.93357" lon="7.51866">
        <ele>301.04745</ele>
        <time>2014-09-30T09:16:21Z</time>
      </trkpt>
      <trkpt lat="43.93357" lon="7.51866">
        <ele>301.04745</ele>
        <time>2014-09-30T09:16:26Z</time>
      </trkpt>
      <trkpt lat="43.93356" lon="7.51868">
        <ele>301.04745</ele>
        <time>2014-09-30T09:16:31Z</time>
      </trkpt>
      <trkpt lat="43.93357" lon="7.51869">
        <ele>301.04745</ele>
        <time>2014-09-30T09:16:36Z</time>
      </trkpt>
      <trkpt lat="43.93359" lon="7.51873">
        <ele>301.04745</ele>
        <time>2014-09-30T09:16:41Z</time>
      </trkpt>
      <trkpt lat="43.93361" lon="7.51872">
        <ele>299.83792</ele>
        <time>2014-09-30T09:16:46Z</time>
      </trkpt>
      <trkpt lat="43.93365" lon="7.51865">
        <ele>299.83792</ele>
        <time>2014-09-30T09:16:51Z</time>
      </trkpt>
      <trkpt lat="43.9337" lon="7.51869">
        <ele>298.51144</ele>
        <time>2014-09-30T09:16:56Z</time>
      </trkpt>
      <trkpt lat="43.9337" lon="7.51863">
        <ele>298.51144</ele>
        <time>2014-09-30T09:17:01Z</time>
      </trkpt>
      <trkpt lat="43.93369" lon="7.5186">
        <ele>298.51144</ele>
        <time>2014-09-30T09:17:06Z</time>
      </trkpt>
      <trkpt lat="43.93368" lon="7.5186">
        <ele>298.51144</ele>
        <time>2014-09-30T09:17:11Z</time>
      </trkpt>
      <trkpt lat="43.93368" lon="7.5186">
        <ele>298.51144</ele>
        <time>2014-09-30T09:17:16Z</time>
      </trkpt>
      <trkpt lat="43.93366" lon="7.51859">
        <ele>297.06647</ele>
        <time>2014-09-30T09:17:21Z</time>
      </trkpt>
      <trkpt lat="43.93366" lon="7.51859">
        <ele>297.06647</ele>
        <time>2014-09-30T09:17:26Z</time>
      </trkpt>
      <trkpt lat="43.93366" lon="7.51859">
        <ele>297.06647</ele>
        <time>2014-09-30T09:17:31Z</time>
      </trkpt>
      <trkpt lat="43.93367" lon="7.51861">
        <ele>297.06647</ele>
        <time>2014-09-30T09:17:36Z</time>
      </trkpt>
      <trkpt lat="43.93366" lon="7.5186">
        <ele>297.06647</ele>
        <time>2014-09-30T09:17:41Z</time>
      </trkpt>
      <trkpt lat="43.93365" lon="7.51858">
        <ele>297.06647</ele>
        <time>2014-09-30T09:17:46Z</time>
      </trkpt>
      <trkpt lat="43.93365" lon="7.51858">
        <ele>297.06647</ele>
        <time>2014-09-30T09:17:52Z</time>
      </trkpt>
      <trkpt lat="43.93364" lon="7.51852">
        <ele>296.5972</ele>
        <time>2014-09-30T09:17:56Z</time>
      </trkpt>
      <trkpt lat="43.93364" lon="7.51848">
        <ele>296.5972</ele>
        <time>2014-09-30T09:18:01Z</time>
      </trkpt>
      <trkpt lat="43.93363" lon="7.51847">
        <ele>296.5972</ele>
        <time>2014-09-30T09:18:06Z</time>
      </trkpt>
      <trkpt lat="43.93361" lon="7.51844">
        <ele>296.5972</ele>
        <time>2014-09-30T09:18:11Z</time>
      </trkpt>
      <trkpt lat="43.93358" lon="7.51837">
        <ele>298.08572</ele>
        <time>2014-09-30T09:18:17Z</time>
      </trkpt>
      <trkpt lat="43.93359" lon="7.51829">
        <ele>298.08572</ele>
        <time>2014-09-30T09:18:21Z</time>
      </trkpt>
      <trkpt lat="43.93361" lon="7.51823">
        <ele>299.87137</ele>
        <time>2014-09-30T09:18:27Z</time>
      </trkpt>
      <trkpt lat="43.93362" lon="7.51823">
        <ele>299.87137</ele>
        <time>2014-09-30T09:18:31Z</time>
      </trkpt>
      <trkpt lat="43.93364" lon="7.51834">
        <ele>299.87137</ele>
        <time>2014-09-30T09:18:36Z</time>
      </trkpt>
      <trkpt lat="43.93364" lon="7.51854">
        <ele>301.6827</ele>
        <time>2014-09-30T09:18:41Z</time>
      </trkpt>
      <trkpt lat="43.9336" lon="7.51858">
        <ele>301.6827</ele>
        <time>2014-09-30T09:18:46Z</time>
      </trkpt>
      <trkpt lat="43.9336" lon="7.51859">
        <ele>301.6827</ele>
        <time>2014-09-30T09:18:51Z</time>
      </trkpt>
      <trkpt lat="43.93358" lon="7.5186">
        <ele>301.6827</ele>
        <time>2014-09-30T09:18:56Z</time>
      </trkpt>
      <trkpt lat="43.93354" lon="7.51856">
        <ele>303.35458</ele>
        <time>2014-09-30T09:19:01Z</time>
      </trkpt>
      <trkpt lat="43.93353" lon="7.51854">
        <ele>303.35458</ele>
        <time>2014-09-30T09:19:06Z</time>
      </trkpt>
      <trkpt lat="43.93351" lon="7.51852">
        <ele>303.35458</ele>
        <time>2014-09-30T09:19:11Z</time>
      </trkpt>
      <trkpt lat="43.93348" lon="7.5185">
        <ele>303.35458</ele>
        <time>2014-09-30T09:19:17Z</time>
      </trkpt>
      <trkpt lat="43.93347" lon="7.5185">
        <ele>303.35458</ele>
        <time>2014-09-30T09:19:21Z</time>
      </trkpt>
      <trkpt lat="43.93346" lon="7.51847">
        <ele>304.3742</ele>
        <time>2014-09-30T09:19:26Z</time>
      </trkpt>
      <trkpt lat="43.93344" lon="7.51843">
        <ele>304.3742</ele>
        <time>2014-09-30T09:19:31Z</time>
      </trkpt>
      <trkpt lat="43.9334" lon="7.51843">
        <ele>304.3742</ele>
        <time>2014-09-30T09:19:36Z</time>
      </trkpt>
      <trkpt lat="43.93338" lon="7.5184">
        <ele>304.98868</ele>
        <time>2014-09-30T09:19:41Z</time>
      </trkpt>
      <trkpt lat="43.93335" lon="7.51837">
        <ele>304.98868</ele>
        <time>2014-09-30T09:19:46Z</time>
      </trkpt>
      <trkpt lat="43.93333" lon="7.51833">
        <ele>304.98868</ele>
        <time>2014-09-30T09:19:51Z</time>
      </trkpt>
      <trkpt lat="43.9333" lon="7.51833">
        <ele>305.2409</ele>
        <time>2014-09-30T09:19:56Z</time>
      </trkpt>
      <trkpt lat="43.9333" lon="7.51833">
        <ele>305.2409</ele>
        <time>2014-09-30T09:20:01Z</time>
      </trkpt>
      <trkpt lat="43.93328" lon="7.51834">
        <ele>305.2409</ele>
        <time>2014-09-30T09:20:06Z</time>
      </trkpt>
      <trkpt lat="43.93327" lon="7.51834">
        <ele>305.2409</ele>
        <time>2014-09-30T09:20:11Z</time>
      </trkpt>
      <trkpt lat="43.93325" lon="7.51834">
        <ele>305.2409</ele>
        <time>2014-09-30T09:20:16Z</time>
      </trkpt>
      <trkpt lat="43.93322" lon="7.51835">
        <ele>305.2409</ele>
        <time>2014-09-30T09:20:21Z</time>
      </trkpt>
      <trkpt lat="43.9332" lon="7.51835">
        <ele>305.1859</ele>
        <time>2014-09-30T09:20:26Z</time>
      </trkpt>
      <trkpt lat="43.93319" lon="7.51835">
        <ele>305.1859</ele>
        <time>2014-09-30T09:20:31Z</time>
      </trkpt>
      <trkpt lat="43.93315" lon="7.51834">
        <ele>305.1859</ele>
        <time>2014-09-30T09:20:36Z</time>
      </trkpt>
      <trkpt lat="43.93315" lon="7.51833">
        <ele>305.1859</ele>
        <time>2014-09-30T09:20:41Z</time>
      </trkpt>
      <trkpt lat="43.93314" lon="7.51834">
        <ele>305.1859</ele>
        <time>2014-09-30T09:20:46Z</time>
      </trkpt>
      <trkpt lat="43.93313" lon="7.51838">
        <ele>304.2993</ele>
        <time>2014-09-30T09:20:51Z</time>
      </trkpt>
      <trkpt lat="43.9331" lon="7.51844">
        <ele>304.2993</ele>
        <time>2014-09-30T09:20:56Z</time>
      </trkpt>
      <trkpt lat="43.93309" lon="7.51852">
        <ele>303.12054</ele>
        <time>2014-09-30T09:21:01Z</time>
      </trkpt>
      <trkpt lat="43.93308" lon="7.51861">
        <ele>303.12054</ele>
        <time>2014-09-30T09:21:06Z</time>
      </trkpt>
      <trkpt lat="43.93308" lon="7.51864">
        <ele>303.12054</ele>
        <time>2014-09-30T09:21:11Z</time>
      </trkpt>
      <trkpt lat="43.93307" lon="7.51866">
        <ele>301.70367</ele>
        <time>2014-09-30T09:21:16Z</time>
      </trkpt>
      <trkpt lat="43.93306" lon="7.51872">
        <ele>301.70367</ele>
        <time>2014-09-30T09:21:21Z</time>
      </trkpt>
      <trkpt lat="43.93305" lon="7.51876">
        <ele>301.70367</ele>
        <time>2014-09-30T09:21:26Z</time>
      </trkpt>
      <trkpt lat="43.93307" lon="7.51881">
        <ele>300.25793</ele>
        <time>2014-09-30T09:21:31Z</time>
      </trkpt>
      <trkpt lat="43.93306" lon="7.51882">
        <ele>300.25793</ele>
        <time>2014-09-30T09:21:36Z</time>
      </trkpt>
      <trkpt lat="43.93304" lon="7.5188">
        <ele>300.25793</ele>
        <time>2014-09-30T09:21:41Z</time>
      </trkpt>
      <trkpt lat="43.93304" lon="7.51879">
        <ele>300.25793</ele>
        <time>2014-09-30T09:21:46Z</time>
      </trkpt>
      <trkpt lat="43.93306" lon="7.5188">
        <ele>300.25793</ele>
        <time>2014-09-30T09:21:51Z</time>
      </trkpt>
      <trkpt lat="43.93305" lon="7.51881">
        <ele>300.25793</ele>
        <time>2014-09-30T09:21:56Z</time>
      </trkpt>
      <trkpt lat="43.93303" lon="7.51886">
        <ele>299.02045</ele>
        <time>2014-09-30T09:22:01Z</time>
      </trkpt>
      <trkpt lat="43.93301" lon="7.51886">
        <ele>299.02045</ele>
        <time>2014-09-30T09:22:06Z</time>
      </trkpt>
      <trkpt lat="43.93297" lon="7.51888">
        <ele>299.02045</ele>
        <time>2014-09-30T09:22:12Z</time>
      </trkpt>
      <trkpt lat="43.93295" lon="7.51891">
        <ele>299.02045</ele>
        <time>2014-09-30T09:22:16Z</time>
      </trkpt>
      <trkpt lat="43.93294" lon="7.51899">
        <ele>298.00858</ele>
        <time>2014-09-30T09:22:21Z</time>
      </trkpt>
      <trkpt lat="43.93294" lon="7.51905">
        <ele>298.00858</ele>
        <time>2014-09-30T09:22:27Z</time>
      </trkpt>
      <trkpt lat="43.93293" lon="7.51909">
        <ele>298.00858</ele>
        <time>2014-09-30T09:22:31Z</time>
      </trkpt>
      <trkpt lat="43.93292" lon="7.51913">
        <ele>296.9927</ele>
        <time>2014-09-30T09:22:36Z</time>
      </trkpt>
      <trkpt lat="43.93291" lon="7.51922">
        <ele>296.9927</ele>
        <time>2014-09-30T09:22:41Z</time>
      </trkpt>
      <trkpt lat="43.93291" lon="7.51928">
        <ele>296.09152</ele>
        <time>2014-09-30T09:22:46Z</time>
      </trkpt>
      <trkpt lat="43.93286" lon="7.51934">
        <ele>296.09152</ele>
        <time>2014-09-30T09:22:51Z</time>
      </trkpt>
      <trkpt lat="43.93285" lon="7.51938">
        <ele>295.40024</ele>
        <time>2014-09-30T09:22:56Z</time>
      </trkpt>
      <trkpt lat="43.93285" lon="7.51944">
        <ele>295.40024</ele>
        <time>2014-09-30T09:23:01Z</time>
      </trkpt>
      <trkpt lat="43.93283" lon="7.5195">
        <ele>294.90552</ele>
        <time>2014-09-30T09:23:06Z</time>
      </trkpt>
      <trkpt lat="43.93282" lon="7.51955">
        <ele>294.90552</ele>
        <time>2014-09-30T09:23:12Z</time>
      </trkpt>
      <trkpt lat="43.93282" lon="7.51958">
        <ele>294.90552</ele>
        <time>2014-09-30T09:23:16Z</time>
      </trkpt>
      <trkpt lat="43.93281" lon="7.51964">
        <ele>294.81058</ele>
        <time>2014-09-30T09:23:21Z</time>
      </trkpt>
      <trkpt lat="43.93279" lon="7.51969">
        <ele>294.81058</ele>
        <time>2014-09-30T09:23:26Z</time>
      </trkpt>
      <trkpt lat="43.93277" lon="7.51973">
        <ele>294.81058</ele>
        <time>2014-09-30T09:23:31Z</time>
      </trkpt>
      <trkpt lat="43.93273" lon="7.51977">
        <ele>295.10074</ele>
        <time>2014-09-30T09:23:36Z</time>
      </trkpt>
      <trkpt lat="43.93272" lon="7.5198">
        <ele>295.10074</ele>
        <time>2014-09-30T09:23:41Z</time>
      </trkpt>
      <trkpt lat="43.9327" lon="7.51986">
        <ele>295.10074</ele>
        <time>2014-09-30T09:23:46Z</time>
      </trkpt>
      <trkpt lat="43.93266" lon="7.51993">
        <ele>295.68927</ele>
        <time>2014-09-30T09:23:51Z</time>
      </trkpt>
      <trkpt lat="43.93265" lon="7.52">
        <ele>295.68927</ele>
        <time>2014-09-30T09:23:56Z</time>
      </trkpt>
      <trkpt lat="43.93263" lon="7.52008">
        <ele>296.55252</ele>
        <time>2014-09-30T09:24:01Z</time>
      </trkpt>
      <trkpt lat="43.93261" lon="7.52014">
        <ele>296.55252</ele>
        <time>2014-09-30T09:24:06Z</time>
      </trkpt>
      <trkpt lat="43.93257" lon="7.52021">
        <ele>297.5525</ele>
        <time>2014-09-30T09:24:11Z</time>
      </trkpt>
      <trkpt lat="43.93254" lon="7.52029">
        <ele>297.5525</ele>
        <time>2014-09-30T09:24:16Z</time>
      </trkpt>
      <trkpt lat="43.93251" lon="7.52037">
        <ele>298.66177</ele>
        <time>2014-09-30T09:24:21Z</time>
      </trkpt>
      <trkpt lat="43.93248" lon="7.52044">
        <ele>298.66177</ele>
        <time>2014-09-30T09:24:26Z</time>
      </trkpt>
      <trkpt lat="43.93244" lon="7.52049">
        <ele>299.69614</ele>
        <time>2014-09-30T09:24:31Z</time>
      </trkpt>
      <trkpt lat="43.93239" lon="7.52054">
        <ele>299.69614</ele>
        <time>2014-09-30T09:24:36Z</time>
      </trkpt>
      <trkpt lat="43.93234" lon="7.52059">
        <ele>300.55716</ele>
        <time>2014-09-30T09:24:41Z</time>
      </trkpt>
      <trkpt lat="43.93232" lon="7.52065">
        <ele>300.55716</ele>
        <time>2014-09-30T09:24:46Z</time>
      </trkpt>
      <trkpt lat="43.93228" lon="7.52069">
        <ele>301.12527</ele>
        <time>2014-09-30T09:24:51Z</time>
      </trkpt>
      <trkpt lat="43.93224" lon="7.52072">
        <ele>301.12527</ele>
        <time>2014-09-30T09:24:56Z</time>
      </trkpt>
      <trkpt lat="43.93223" lon="7.52074">
        <ele>301.12527</ele>
        <time>2014-09-30T09:25:01Z</time>
      </trkpt>
      <trkpt lat="43.93219" lon="7.52074">
        <ele>301.47794</ele>
        <time>2014-09-30T09:25:06Z</time>
      </trkpt>
      <trkpt lat="43.93216" lon="7.52073">
        <ele>301.47794</ele>
        <time>2014-09-30T09:25:12Z</time>
      </trkpt>
      <trkpt lat="43.93211" lon="7.52074">
        <ele>301.47794</ele>
        <time>2014-09-30T09:25:16Z</time>
      </trkpt>
      <trkpt lat="43.93207" lon="7.52079">
        <ele>301.6442</ele>
        <time>2014-09-30T09:25:21Z</time>
      </trkpt>
      <trkpt lat="43.93207" lon="7.52079">
        <ele>301.6442</ele>
        <time>2014-09-30T09:25:26Z</time>
      </trkpt>
      <trkpt lat="43.93205" lon="7.52081">
        <ele>301.6442</ele>
        <time>2014-09-30T09:25:31Z</time>
      </trkpt>
      <trkpt lat="43.93201" lon="7.52086">
        <ele>301.6442</ele>
        <time>2014-09-30T09:25:36Z</time>
      </trkpt>
      <trkpt lat="43.93198" lon="7.52092">
        <ele>302.32895</ele>
        <time>2014-09-30T09:25:41Z</time>
      </trkpt>
      <trkpt lat="43.93197" lon="7.52093">
        <ele>302.32895</ele>
        <time>2014-09-30T09:25:46Z</time>
      </trkpt>
      <trkpt lat="43.93196" lon="7.52097">
        <ele>302.32895</ele>
        <time>2014-09-30T09:25:51Z</time>
      </trkpt>
      <trkpt lat="43.93194" lon="7.52099">
        <ele>302.32895</ele>
        <time>2014-09-30T09:25:56Z</time>
      </trkpt>
      <trkpt lat="43.93195" lon="7.521">
        <ele>302.32895</ele>
        <time>2014-09-30T09:26:01Z</time>
      </trkpt>
      <trkpt lat="43.93194" lon="7.52102">
        <ele>302.80032</ele>
        <time>2014-09-30T09:26:07Z</time>
      </trkpt>
      <trkpt lat="43.93193" lon="7.52103">
        <ele>302.80032</ele>
        <time>2014-09-30T09:26:11Z</time>
      </trkpt>
      <trkpt lat="43.9319" lon="7.52106">
        <ele>302.80032</ele>
        <time>2014-09-30T09:26:16Z</time>
      </trkpt>
      <trkpt lat="43.93185" lon="7.5211">
        <ele>302.91403</ele>
        <time>2014-09-30T09:26:21Z</time>
      </trkpt>
      <trkpt lat="43.93181" lon="7.52111">
        <ele>302.91403</ele>
        <time>2014-09-30T09:26:26Z</time>
      </trkpt>
      <trkpt lat="43.93181" lon="7.52111">
        <ele>302.91403</ele>
        <time>2014-09-30T09:26:31Z</time>
      </trkpt>
      <trkpt lat="43.93177" lon="7.52112">
        <ele>302.91403</ele>
        <time>2014-09-30T09:26:36Z</time>
      </trkpt>
      <trkpt lat="43.93177" lon="7.52112">
        <ele>302.91403</ele>
        <time>2014-09-30T09:26:41Z</time>
      </trkpt>
      <trkpt lat="43.93177" lon="7.52113">
        <ele>302.32132</ele>
        <time>2014-09-30T09:26:47Z</time>
      </trkpt>
      <trkpt lat="43.93176" lon="7.52124">
        <ele>302.32132</ele>
        <time>2014-09-30T09:26:51Z</time>
      </trkpt>
      <trkpt lat="43.93176" lon="7.5213">
        <ele>301.3783</ele>
        <time>2014-09-30T09:26:56Z</time>
      </trkpt>
      <trkpt lat="43.93176" lon="7.52133">
        <ele>301.3783</ele>
        <time>2014-09-30T09:27:01Z</time>
      </trkpt>
      <trkpt lat="43.93175" lon="7.52136">
        <ele>301.3783</ele>
        <time>2014-09-30T09:27:06Z</time>
      </trkpt>
      <trkpt lat="43.93176" lon="7.52139">
        <ele>301.3783</ele>
        <time>2014-09-30T09:27:11Z</time>
      </trkpt>
      <trkpt lat="43.93177" lon="7.52143">
        <ele>299.92603</ele>
        <time>2014-09-30T09:27:16Z</time>
      </trkpt>
      <trkpt lat="43.93177" lon="7.52149">
        <ele>299.92603</ele>
        <time>2014-09-30T09:27:21Z</time>
      </trkpt>
      <trkpt lat="43.93176" lon="7.52154">
        <ele>299.92603</ele>
        <time>2014-09-30T09:27:26Z</time>
      </trkpt>
      <trkpt lat="43.93177" lon="7.52161">
        <ele>298.42383</ele>
        <time>2014-09-30T09:27:31Z</time>
      </trkpt>
      <trkpt lat="43.93178" lon="7.52165">
        <ele>298.42383</ele>
        <time>2014-09-30T09:27:36Z</time>
      </trkpt>
      <trkpt lat="43.9318" lon="7.52171">
        <ele>298.42383</ele>
        <time>2014-09-30T09:27:41Z</time>
      </trkpt>
      <trkpt lat="43.93183" lon="7.52175">
        <ele>296.98044</ele>
        <time>2014-09-30T09:27:46Z</time>
      </trkpt>
      <trkpt lat="43.93183" lon="7.52179">
        <ele>296.98044</ele>
        <time>2014-09-30T09:27:51Z</time>
      </trkpt>
      <trkpt lat="43.93185" lon="7.5218">
        <ele>296.98044</ele>
        <time>2014-09-30T09:27:56Z</time>
      </trkpt>
      <trkpt lat="43.93186" lon="7.52181">
        <ele>296.98044</ele>
        <time>2014-09-30T09:28:01Z</time>
      </trkpt>
      <trkpt lat="43.93187" lon="7.52183">
        <ele>296.98044</ele>
        <time>2014-09-30T09:28:06Z</time>
      </trkpt>
      <trkpt lat="43.93187" lon="7.52184">
        <ele>295.53793</ele>
        <time>2014-09-30T09:28:11Z</time>
      </trkpt>
      <trkpt lat="43.93188" lon="7.52184">
        <ele>295.53793</ele>
        <time>2014-09-30T09:28:16Z</time>
      </trkpt>
      <trkpt lat="43.93188" lon="7.5218">
        <ele>295.53793</ele>
        <time>2014-09-30T09:28:21Z</time>
      </trkpt>
      <trkpt lat="43.93185" lon="7.52182">
        <ele>295.53793</ele>
        <time>2014-09-30T09:28:26Z</time>
      </trkpt>
      <trkpt lat="43.93185" lon="7.52182">
        <ele>295.53793</ele>
        <time>2014-09-30T09:28:32Z</time>
      </trkpt>
      <trkpt lat="43.93185" lon="7.52182">
        <ele>295.53793</ele>
        <time>2014-09-30T09:28:36Z</time>
      </trkpt>
      <trkpt lat="43.93186" lon="7.52186">
        <ele>294.4749</ele>
        <time>2014-09-30T09:28:41Z</time>
      </trkpt>
      <trkpt lat="43.9319" lon="7.52195">
        <ele>294.4749</ele>
        <time>2014-09-30T09:28:46Z</time>
      </trkpt>
      <trkpt lat="43.93193" lon="7.522">
        <ele>293.93927</ele>
        <time>2014-09-30T09:28:52Z</time>
      </trkpt>
      <trkpt lat="43.93193" lon="7.52203">
        <ele>293.93927</ele>
        <time>2014-09-30T09:28:56Z</time>
      </trkpt>
      <trkpt lat="43.9319" lon="7.52207">
        <ele>293.93927</ele>
        <time>2014-09-30T09:29:01Z</time>
      </trkpt>
      <trkpt lat="43.93195" lon="7.52211">
        <ele>294.2251</ele>
        <time>2014-09-30T09:29:06Z</time>
      </trkpt>
      <trkpt lat="43.93197" lon="7.52212">
        <ele>294.2251</ele>
        <time>2014-09-30T09:29:11Z</time>
      </trkpt>
      <trkpt lat="43.93198" lon="7.52212">
        <ele>294.2251</ele>
        <time>2014-09-30T09:29:16Z</time>
      </trkpt>
      <trkpt lat="43.93201" lon="7.52212">
        <ele>294.2251</ele>
        <time>2014-09-30T09:29:21Z</time>
      </trkpt>
      <trkpt lat="43.93202" lon="7.52215">
        <ele>294.2251</ele>
        <time>2014-09-30T09:29:26Z</time>
      </trkpt>
      <trkpt lat="43.93203" lon="7.52221">
        <ele>296.5104</ele>
        <time>2014-09-30T09:29:31Z</time>
      </trkpt>
      <trkpt lat="43.93207" lon="7.52221">
        <ele>296.5104</ele>
        <time>2014-09-30T09:29:36Z</time>
      </trkpt>
      <trkpt lat="43.9321" lon="7.52221">
        <ele>296.5104</ele>
        <time>2014-09-30T09:29:41Z</time>
      </trkpt>
      <trkpt lat="43.93211" lon="7.5222">
        <ele>296.5104</ele>
        <time>2014-09-30T09:29:46Z</time>
      </trkpt>
      <trkpt lat="43.93213" lon="7.52222">
        <ele>299.6906</ele>
        <time>2014-09-30T09:29:51Z</time>
      </trkpt>
      <trkpt lat="43.93212" lon="7.52226">
        <ele>299.6906</ele>
        <time>2014-09-30T09:29:56Z</time>
      </trkpt>
      <trkpt lat="43.93211" lon="7.52227">
        <ele>299.6906</ele>
        <time>2014-09-30T09:30:01Z</time>
      </trkpt>
      <trkpt lat="43.93211" lon="7.52228">
        <ele>299.6906</ele>
        <time>2014-09-30T09:30:06Z</time>
      </trkpt>
      <trkpt lat="43.9321" lon="7.52228">
        <ele>299.6906</ele>
        <time>2014-09-30T09:30:11Z</time>
      </trkpt>
      <trkpt lat="43.93211" lon="7.52227">
        <ele>299.6906</ele>
        <time>2014-09-30T09:30:46Z</time>
      </trkpt>
      <trkpt lat="43.93211" lon="7.52227">
        <ele>299.6906</ele>
        <time>2014-09-30T09:30:51Z</time>
      </trkpt>
      <trkpt lat="43.93211" lon="7.52227">
        <ele>299.6906</ele>
        <time>2014-09-30T09:30:56Z</time>
      </trkpt>
      <trkpt lat="43.9321" lon="7.52228">
        <ele>299.6906</ele>
        <time>2014-09-30T09:31:01Z</time>
      </trkpt>
      <trkpt lat="43.93208" lon="7.52228">
        <ele>301.03912</ele>
        <time>2014-09-30T09:31:06Z</time>
      </trkpt>
      <trkpt lat="43.93207" lon="7.52228">
        <ele>301.03912</ele>
        <time>2014-09-30T09:31:11Z</time>
      </trkpt>
      <trkpt lat="43.93206" lon="7.52228">
        <ele>301.03912</ele>
        <time>2014-09-30T09:31:16Z</time>
      </trkpt>
      <trkpt lat="43.93207" lon="7.52229">
        <ele>301.03912</ele>
        <time>2014-09-30T09:31:21Z</time>
      </trkpt>
      <trkpt lat="43.93208" lon="7.5223">
        <ele>301.03912</ele>
        <time>2014-09-30T09:31:26Z</time>
      </trkpt>
      <trkpt lat="43.9321" lon="7.52225">
        <ele>301.03912</ele>
        <time>2014-09-30T09:31:31Z</time>
      </trkpt>
      <trkpt lat="43.93213" lon="7.52225">
        <ele>300.57123</ele>
        <time>2014-09-30T09:31:36Z</time>
      </trkpt>
      <trkpt lat="43.93216" lon="7.52224">
        <ele>300.57123</ele>
        <time>2014-09-30T09:31:41Z</time>
      </trkpt>
      <trkpt lat="43.93216" lon="7.52223">
        <ele>300.57123</ele>
        <time>2014-09-30T09:31:46Z</time>
      </trkpt>
      <trkpt lat="43.93221" lon="7.52218">
        <ele>299.44467</ele>
        <time>2014-09-30T09:31:51Z</time>
      </trkpt>
      <trkpt lat="43.93223" lon="7.52217">
        <ele>299.44467</ele>
        <time>2014-09-30T09:31:56Z</time>
      </trkpt>
      <trkpt lat="43.93227" lon="7.52216">
        <ele>299.44467</ele>
        <time>2014-09-30T09:32:01Z</time>
      </trkpt>
      <trkpt lat="43.93229" lon="7.5222">
        <ele>298.02786</ele>
        <time>2014-09-30T09:32:06Z</time>
      </trkpt>
      <trkpt lat="43.93228" lon="7.52222">
        <ele>298.02786</ele>
        <time>2014-09-30T09:32:11Z</time>
      </trkpt>
      <trkpt lat="43.9323" lon="7.52227">
        <ele>298.02786</ele>
        <time>2014-09-30T09:32:16Z</time>
      </trkpt>
      <trkpt lat="43.93231" lon="7.52227">
        <ele>298.02786</ele>
        <time>2014-09-30T09:32:21Z</time>
      </trkpt>
      <trkpt lat="43.93233" lon="7.52228">
        <ele>298.02786</ele>
        <time>2014-09-30T09:32:26Z</time>
      </trkpt>
      <trkpt lat="43.93234" lon="7.52229">
        <ele>296.5332</ele>
        <time>2014-09-30T09:32:31Z</time>
      </trkpt>
      <trkpt lat="43.93236" lon="7.52232">
        <ele>296.5332</ele>
        <time>2014-09-30T09:32:36Z</time>
      </trkpt>
      <trkpt lat="43.93235" lon="7.52234">
        <ele>296.5332</ele>
        <time>2014-09-30T09:32:41Z</time>
      </trkpt>
      <trkpt lat="43.93237" lon="7.52236">
        <ele>296.5332</ele>
        <time>2014-09-30T09:32:46Z</time>
      </trkpt>
      <trkpt lat="43.93237" lon="7.52236">
        <ele>296.5332</ele>
        <time>2014-09-30T09:32:51Z</time>
      </trkpt>
      <trkpt lat="43.93234" lon="7.52235">
        <ele>296.5332</ele>
        <time>2014-09-30T09:32:57Z</time>
      </trkpt>
      <trkpt lat="43.93233" lon="7.52236">
        <ele>295.35953</ele>
        <time>2014-09-30T09:33:01Z</time>
      </trkpt>
      <trkpt lat="43.93233" lon="7.52236">
        <ele>295.35953</ele>
        <time>2014-09-30T09:33:06Z</time>
      </trkpt>
      <trkpt lat="43.93232" lon="7.52236">
        <ele>295.35953</ele>
        <time>2014-09-30T09:33:11Z</time>
      </trkpt>
      <trkpt lat="43.93232" lon="7.52236">
        <ele>295.35953</ele>
        <time>2014-09-30T09:33:16Z</time>
      </trkpt>
      <trkpt lat="43.93232" lon="7.52237">
        <ele>295.35953</ele>
        <time>2014-09-30T09:33:21Z</time>
      </trkpt>
      <trkpt lat="43.93232" lon="7.52238">
        <ele>295.35953</ele>
        <time>2014-09-30T09:33:26Z</time>
      </trkpt>
      <trkpt lat="43.93232" lon="7.52238">
        <ele>295.35953</ele>
        <time>2014-09-30T09:33:31Z</time>
      </trkpt>
      <trkpt lat="43.9323" lon="7.52238">
        <ele>295.35953</ele>
        <time>2014-09-30T09:33:36Z</time>
      </trkpt>
      <trkpt lat="43.93231" lon="7.52238">
        <ele>295.35953</ele>
        <time>2014-09-30T09:33:41Z</time>
      </trkpt>
      <trkpt lat="43.9323" lon="7.52243">
        <ele>295.35953</ele>
        <time>2014-09-30T09:33:46Z</time>
      </trkpt>
      <trkpt lat="43.9323" lon="7.52244">
        <ele>294.52963</ele>
        <time>2014-09-30T09:33:51Z</time>
      </trkpt>
      <trkpt lat="43.93229" lon="7.52245">
        <ele>294.52963</ele>
        <time>2014-09-30T09:33:56Z</time>
      </trkpt>
      <trkpt lat="43.93228" lon="7.52247">
        <ele>294.52963</ele>
        <time>2014-09-30T09:34:01Z</time>
      </trkpt>
      <trkpt lat="43.93227" lon="7.52247">
        <ele>294.52963</ele>
        <time>2014-09-30T09:34:06Z</time>
      </trkpt>
      <trkpt lat="43.93227" lon="7.52247">
        <ele>294.52963</ele>
        <time>2014-09-30T09:34:11Z</time>
      </trkpt>
      <trkpt lat="43.93227" lon="7.52248">
        <ele>294.52963</ele>
        <time>2014-09-30T09:34:21Z</time>
      </trkpt>
      <trkpt lat="43.93226" lon="7.52255">
        <ele>293.78973</ele>
        <time>2014-09-30T09:34:26Z</time>
      </trkpt>
      <trkpt lat="43.93223" lon="7.52257">
        <ele>293.78973</ele>
        <time>2014-09-30T09:34:31Z</time>
      </trkpt>
      <trkpt lat="43.93222" lon="7.52257">
        <ele>293.78973</ele>
        <time>2014-09-30T09:34:36Z</time>
      </trkpt>
      <trkpt lat="43.93222" lon="7.52257">
        <ele>293.78973</ele>
        <time>2014-09-30T09:34:41Z</time>
      </trkpt>
      <trkpt lat="43.93223" lon="7.52255">
        <ele>293.78973</ele>
        <time>2014-09-30T09:34:46Z</time>
      </trkpt>
      <trkpt lat="43.93225" lon="7.52251">
        <ele>293.13507</ele>
        <time>2014-09-30T09:34:51Z</time>
      </trkpt>
      <trkpt lat="43.93223" lon="7.52249">
        <ele>293.13507</ele>
        <time>2014-09-30T09:34:56Z</time>
      </trkpt>
      <trkpt lat="43.93219" lon="7.52247">
        <ele>293.13507</ele>
        <time>2014-09-30T09:35:01Z</time>
      </trkpt>
      <trkpt lat="43.93216" lon="7.52247">
        <ele>292.6186</ele>
        <time>2014-09-30T09:35:06Z</time>
      </trkpt>
      <trkpt lat="43.93215" lon="7.52246">
        <ele>292.6186</ele>
        <time>2014-09-30T09:35:11Z</time>
      </trkpt>
      <trkpt lat="43.93216" lon="7.52244">
        <ele>292.6186</ele>
        <time>2014-09-30T09:35:16Z</time>
      </trkpt>
      <trkpt lat="43.93214" lon="7.52242">
        <ele>292.6186</ele>
        <time>2014-09-30T09:35:21Z</time>
      </trkpt>
      <trkpt lat="43.93211" lon="7.52242">
        <ele>292.6186</ele>
        <time>2014-09-30T09:35:26Z</time>
      </trkpt>
      <trkpt lat="43.9321" lon="7.52242">
        <ele>292.6186</ele>
        <time>2014-09-30T09:35:31Z</time>
      </trkpt>
      <trkpt lat="43.93212" lon="7.52235">
        <ele>292.18805</ele>
        <time>2014-09-30T09:35:36Z</time>
      </trkpt>
      <trkpt lat="43.93213" lon="7.52229">
        <ele>292.18805</ele>
        <time>2014-09-30T09:35:41Z</time>
      </trkpt>
      <trkpt lat="43.93212" lon="7.52229">
        <ele>292.18805</ele>
        <time>2014-09-30T09:35:46Z</time>
      </trkpt>
      <trkpt lat="43.93212" lon="7.52229">
        <ele>292.18805</ele>
        <time>2014-09-30T09:35:51Z</time>
      </trkpt>
      <trkpt lat="43.93212" lon="7.52229">
        <ele>292.18805</ele>
        <time>2014-09-30T09:35:56Z</time>
      </trkpt>
      <trkpt lat="43.93206" lon="7.52225">
        <ele>291.8761</ele>
        <time>2014-09-30T09:36:01Z</time>
      </trkpt>
      <trkpt lat="43.93204" lon="7.52224">
        <ele>291.56415</ele>
        <time>2014-09-30T09:36:06Z</time>
      </trkpt>
      <trkpt lat="43.93204" lon="7.52224">
        <ele>291.56415</ele>
        <time>2014-09-30T09:36:11Z</time>
      </trkpt>
      <trkpt lat="43.93204" lon="7.52225">
        <ele>291.56415</ele>
        <time>2014-09-30T09:36:21Z</time>
      </trkpt>
      <trkpt lat="43.93204" lon="7.52229">
        <ele>291.56415</ele>
        <time>2014-09-30T09:36:26Z</time>
      </trkpt>
      <trkpt lat="43.93204" lon="7.52232">
        <ele>291.56415</ele>
        <time>2014-09-30T09:36:31Z</time>
      </trkpt>
      <trkpt lat="43.93205" lon="7.52237">
        <ele>291.20926</ele>
        <time>2014-09-30T09:36:37Z</time>
      </trkpt>
      <trkpt lat="43.93203" lon="7.52239">
        <ele>291.20926</ele>
        <time>2014-09-30T09:36:41Z</time>
      </trkpt>
      <trkpt lat="43.93202" lon="7.52239">
        <ele>291.20926</ele>
        <time>2014-09-30T09:36:46Z</time>
      </trkpt>
      <trkpt lat="43.93202" lon="7.52241">
        <ele>291.20926</ele>
        <time>2014-09-30T09:36:51Z</time>
      </trkpt>
      <trkpt lat="43.93203" lon="7.52246">
        <ele>291.20926</ele>
        <time>2014-09-30T09:36:57Z</time>
      </trkpt>
      <trkpt lat="43.93204" lon="7.52253">
        <ele>291.2483</ele>
        <time>2014-09-30T09:37:02Z</time>
      </trkpt>
      <trkpt lat="43.93203" lon="7.52256">
        <ele>291.2483</ele>
        <time>2014-09-30T09:37:06Z</time>
      </trkpt>
      <trkpt lat="43.932" lon="7.52252">
        <ele>291.2483</ele>
        <time>2014-09-30T09:37:11Z</time>
      </trkpt>
      <trkpt lat="43.932" lon="7.52252">
        <ele>291.2483</ele>
        <time>2014-09-30T09:37:16Z</time>
      </trkpt>
      <trkpt lat="43.932" lon="7.52258">
        <ele>291.89673</ele>
        <time>2014-09-30T09:37:21Z</time>
      </trkpt>
      <trkpt lat="43.932" lon="7.52259">
        <ele>291.89673</ele>
        <time>2014-09-30T09:37:26Z</time>
      </trkpt>
      <trkpt lat="43.93203" lon="7.52264">
        <ele>291.89673</ele>
        <time>2014-09-30T09:37:31Z</time>
      </trkpt>
      <trkpt lat="43.93203" lon="7.52267">
        <ele>291.89673</ele>
        <time>2014-09-30T09:37:36Z</time>
      </trkpt>
      <trkpt lat="43.93202" lon="7.5227">
        <ele>292.51666</ele>
        <time>2014-09-30T09:37:41Z</time>
      </trkpt>
      <trkpt lat="43.93201" lon="7.52272">
        <ele>292.51666</ele>
        <time>2014-09-30T09:37:46Z</time>
      </trkpt>
      <trkpt lat="43.93201" lon="7.52276">
        <ele>292.51666</ele>
        <time>2014-09-30T09:37:51Z</time>
      </trkpt>
      <trkpt lat="43.93207" lon="7.52284">
        <ele>293.2665</ele>
        <time>2014-09-30T09:37:56Z</time>
      </trkpt>
      <trkpt lat="43.93208" lon="7.52288">
        <ele>293.2665</ele>
        <time>2014-09-30T09:38:01Z</time>
      </trkpt>
      <trkpt lat="43.93208" lon="7.52291">
        <ele>293.2665</ele>
        <time>2014-09-30T09:38:06Z</time>
      </trkpt>
      <trkpt lat="43.93206" lon="7.52291">
        <ele>293.2665</ele>
        <time>2014-09-30T09:38:11Z</time>
      </trkpt>
      <trkpt lat="43.93206" lon="7.52289">
        <ele>293.2665</ele>
        <time>2014-09-30T09:38:16Z</time>
      </trkpt>
      <trkpt lat="43.93204" lon="7.52287">
        <ele>294.24933</ele>
        <time>2014-09-30T09:38:22Z</time>
      </trkpt>
      <trkpt lat="43.93203" lon="7.52286">
        <ele>294.24933</ele>
        <time>2014-09-30T09:38:26Z</time>
      </trkpt>
      <trkpt lat="43.93201" lon="7.52284">
        <ele>294.24933</ele>
        <time>2014-09-30T09:38:31Z</time>
      </trkpt>
      <trkpt lat="43.93201" lon="7.52284">
        <ele>294.24933</ele>
        <time>2014-09-30T09:38:36Z</time>
      </trkpt>
      <trkpt lat="43.93197" lon="7.52285">
        <ele>294.24933</ele>
        <time>2014-09-30T09:38:41Z</time>
      </trkpt>
      <trkpt lat="43.93192" lon="7.52285">
        <ele>295.6754</ele>
        <time>2014-09-30T09:38:46Z</time>
      </trkpt>
      <trkpt lat="43.93188" lon="7.52286">
        <ele>295.6754</ele>
        <time>2014-09-30T09:38:52Z</time>
      </trkpt>
      <trkpt lat="43.93189" lon="7.52286">
        <ele>295.6754</ele>
        <time>2014-09-30T09:38:56Z</time>
      </trkpt>
      <trkpt lat="43.9319" lon="7.52286">
        <ele>295.6754</ele>
        <time>2014-09-30T09:39:01Z</time>
      </trkpt>
      <trkpt lat="43.9319" lon="7.52287">
        <ele>295.6754</ele>
        <time>2014-09-30T09:39:06Z</time>
      </trkpt>
      <trkpt lat="43.9319" lon="7.52286">
        <ele>295.6754</ele>
        <time>2014-09-30T09:39:11Z</time>
      </trkpt>
      <trkpt lat="43.9319" lon="7.52286">
        <ele>295.6754</ele>
        <time>2014-09-30T09:39:17Z</time>
      </trkpt>
      <trkpt lat="43.93191" lon="7.52287">
        <ele>297.78143</ele>
        <time>2014-09-30T09:39:21Z</time>
      </trkpt>
      <trkpt lat="43.93191" lon="7.52287">
        <ele>297.78143</ele>
        <time>2014-09-30T09:39:27Z</time>
      </trkpt>
      <trkpt lat="43.93191" lon="7.52287">
        <ele>297.78143</ele>
        <time>2014-09-30T09:39:46Z</time>
      </trkpt>
      <trkpt lat="43.93192" lon="7.52287">
        <ele>297.78143</ele>
        <time>2014-09-30T09:39:51Z</time>
      </trkpt>
      <trkpt lat="43.9319" lon="7.52286">
        <ele>297.78143</ele>
        <time>2014-09-30T09:39:56Z</time>
      </trkpt>
      <trkpt lat="43.93187" lon="7.52286">
        <ele>297.78143</ele>
        <time>2014-09-30T09:40:01Z</time>
      </trkpt>
      <trkpt lat="43.93185" lon="7.52287">
        <ele>297.78143</ele>
        <time>2014-09-30T09:40:07Z</time>
      </trkpt>
      <trkpt lat="43.93183" lon="7.52286">
        <ele>300.20847</ele>
        <time>2014-09-30T09:40:11Z</time>
      </trkpt>
      <trkpt lat="43.93183" lon="7.52286">
        <ele>300.20847</ele>
        <time>2014-09-30T09:40:16Z</time>
      </trkpt>
      <trkpt lat="43.93183" lon="7.52286">
        <ele>300.20847</ele>
        <time>2014-09-30T09:40:26Z</time>
      </trkpt>
      <trkpt lat="43.93183" lon="7.52286">
        <ele>300.20847</ele>
        <time>2014-09-30T09:40:31Z</time>
      </trkpt>
      <trkpt lat="43.93183" lon="7.52286">
        <ele>300.20847</ele>
        <time>2014-09-30T09:40:36Z</time>
      </trkpt>
      <trkpt lat="43.93183" lon="7.52287">
        <ele>300.20847</ele>
        <time>2014-09-30T09:40:51Z</time>
      </trkpt>
      <trkpt lat="43.93183" lon="7.52287">
        <ele>300.20847</ele>
        <time>2014-09-30T09:40:56Z</time>
      </trkpt>
      <trkpt lat="43.93182" lon="7.52288">
        <ele>300.20847</ele>
        <time>2014-09-30T09:41:01Z</time>
      </trkpt>
      <trkpt lat="43.93182" lon="7.52288">
        <ele>300.20847</ele>
        <time>2014-09-30T09:41:06Z</time>
      </trkpt>
      <trkpt lat="43.93182" lon="7.52287">
        <ele>300.20847</ele>
        <time>2014-09-30T09:41:16Z</time>
      </trkpt>
      <trkpt lat="43.93183" lon="7.52287">
        <ele>300.20847</ele>
        <time>2014-09-30T09:41:36Z</time>
      </trkpt>
      <trkpt lat="43.93183" lon="7.52287">
        <ele>300.20847</ele>
        <time>2014-09-30T09:41:41Z</time>
      </trkpt>
      <trkpt lat="43.93183" lon="7.52287">
        <ele>300.20847</ele>
        <time>2014-09-30T09:41:46Z</time>
      </trkpt>
      <trkpt lat="43.93183" lon="7.52287">
        <ele>300.20847</ele>
        <time>2014-09-30T09:42:01Z</time>
      </trkpt>
      <trkpt lat="43.93183" lon="7.52289">
        <ele>300.20847</ele>
        <time>2014-09-30T09:42:06Z</time>
      </trkpt>
      <trkpt lat="43.93183" lon="7.52289">
        <ele>300.20847</ele>
        <time>2014-09-30T09:42:11Z</time>
      </trkpt>
      <trkpt lat="43.93183" lon="7.52287">
        <ele>300.20847</ele>
        <time>2014-09-30T09:42:17Z</time>
      </trkpt>
      <trkpt lat="43.93183" lon="7.52287">
        <ele>300.20847</ele>
        <time>2014-09-30T09:42:21Z</time>
      </trkpt>
      <trkpt lat="43.93184" lon="7.52287">
        <ele>303.0842</ele>
        <time>2014-09-30T09:42:31Z</time>
      </trkpt>
      <trkpt lat="43.93185" lon="7.52288">
        <ele>303.0842</ele>
        <time>2014-09-30T09:43:41Z</time>
      </trkpt>
      <trkpt lat="43.93185" lon="7.52288">
        <ele>303.0842</ele>
        <time>2014-09-30T09:43:46Z</time>
      </trkpt>
      <trkpt lat="43.93185" lon="7.52289">
        <ele>303.0842</ele>
        <time>2014-09-30T09:43:56Z</time>
      </trkpt>
      <trkpt lat="43.93186" lon="7.52289">
        <ele>303.0842</ele>
        <time>2014-09-30T09:44:01Z</time>
      </trkpt>
      <trkpt lat="43.93186" lon="7.52291">
        <ele>303.0842</ele>
        <time>2014-09-30T09:44:06Z</time>
      </trkpt>
      <trkpt lat="43.93185" lon="7.52293">
        <ele>303.0842</ele>
        <time>2014-09-30T09:44:11Z</time>
      </trkpt>
      <trkpt lat="43.93185" lon="7.52292">
        <ele>303.0842</ele>
        <time>2014-09-30T09:44:16Z</time>
      </trkpt>
      <trkpt lat="43.93185" lon="7.52292">
        <ele>303.0842</ele>
        <time>2014-09-30T09:44:21Z</time>
      </trkpt>
      <trkpt lat="43.93185" lon="7.52291">
        <ele>303.0842</ele>
        <time>2014-09-30T09:44:31Z</time>
      </trkpt>
      <trkpt lat="43.93185" lon="7.52291">
        <ele>303.0842</ele>
        <time>2014-09-30T09:44:36Z</time>
      </trkpt>
      <trkpt lat="43.93184" lon="7.5229">
        <ele>303.0842</ele>
        <time>2014-09-30T09:44:46Z</time>
      </trkpt>
      <trkpt lat="43.93184" lon="7.52289">
        <ele>303.0842</ele>
        <time>2014-09-30T09:44:51Z</time>
      </trkpt>
      <trkpt lat="43.93184" lon="7.52289">
        <ele>303.0842</ele>
        <time>2014-09-30T09:44:56Z</time>
      </trkpt>
      <trkpt lat="43.93185" lon="7.52288">
        <ele>303.0842</ele>
        <time>2014-09-30T09:45:06Z</time>
      </trkpt>
      <trkpt lat="43.93185" lon="7.52288">
        <ele>305.06436</ele>
        <time>2014-09-30T09:45:11Z</time>
      </trkpt>
      <trkpt lat="43.93185" lon="7.52289">
        <ele>307.04456</ele>
        <time>2014-09-30T09:45:16Z</time>
      </trkpt>
      <trkpt lat="43.93184" lon="7.52289">
        <ele>307.04456</ele>
        <time>2014-09-30T09:45:21Z</time>
      </trkpt>
      <trkpt lat="43.93184" lon="7.5229">
        <ele>307.04456</ele>
        <time>2014-09-30T09:45:26Z</time>
      </trkpt>
      <trkpt lat="43.93184" lon="7.52287">
        <ele>307.04456</ele>
        <time>2014-09-30T09:45:31Z</time>
      </trkpt>
      <trkpt lat="43.93183" lon="7.52287">
        <ele>307.04456</ele>
        <time>2014-09-30T09:45:36Z</time>
      </trkpt>
      <trkpt lat="43.93183" lon="7.52286">
        <ele>307.04456</ele>
        <time>2014-09-30T09:45:41Z</time>
      </trkpt>
      <trkpt lat="43.93184" lon="7.52282">
        <ele>310.11057</ele>
        <time>2014-09-30T09:45:46Z</time>
      </trkpt>
      <trkpt lat="43.93186" lon="7.52281">
        <ele>310.11057</ele>
        <time>2014-09-30T09:45:51Z</time>
      </trkpt>
      <trkpt lat="43.93187" lon="7.52281">
        <ele>310.11057</ele>
        <time>2014-09-30T09:45:56Z</time>
      </trkpt>
      <trkpt lat="43.93189" lon="7.52282">
        <ele>310.11057</ele>
        <time>2014-09-30T09:46:02Z</time>
      </trkpt>
      <trkpt lat="43.93188" lon="7.52287">
        <ele>312.56973</ele>
        <time>2014-09-30T09:46:07Z</time>
      </trkpt>
      <trkpt lat="43.93185" lon="7.52291">
        <ele>312.56973</ele>
        <time>2014-09-30T09:46:11Z</time>
      </trkpt>
      <trkpt lat="43.93179" lon="7.52293">
        <ele>314.34436</ele>
        <time>2014-09-30T09:46:16Z</time>
      </trkpt>
      <trkpt lat="43.93179" lon="7.52293">
        <ele>314.34436</ele>
        <time>2014-09-30T09:46:21Z</time>
      </trkpt>
      <trkpt lat="43.93177" lon="7.52292">
        <ele>314.34436</ele>
        <time>2014-09-30T09:46:26Z</time>
      </trkpt>
      <trkpt lat="43.93175" lon="7.52292">
        <ele>314.34436</ele>
        <time>2014-09-30T09:46:31Z</time>
      </trkpt>
      <trkpt lat="43.93175" lon="7.52292">
        <ele>314.34436</ele>
        <time>2014-09-30T09:46:36Z</time>
      </trkpt>
      <trkpt lat="43.93177" lon="7.52293">
        <ele>314.34436</ele>
        <time>2014-09-30T09:46:41Z</time>
      </trkpt>
      <trkpt lat="43.93178" lon="7.52292">
        <ele>314.34436</ele>
        <time>2014-09-30T09:46:46Z</time>
      </trkpt>
      <trkpt lat="43.93178" lon="7.52288">
        <ele>315.42218</ele>
        <time>2014-09-30T09:46:51Z</time>
      </trkpt>
      <trkpt lat="43.93178" lon="7.52288">
        <ele>315.42218</ele>
        <time>2014-09-30T09:46:56Z</time>
      </trkpt>
      <trkpt lat="43.93177" lon="7.52285">
        <ele>315.42218</ele>
        <time>2014-09-30T09:47:01Z</time>
      </trkpt>
      <trkpt lat="43.93176" lon="7.52283">
        <ele>315.42218</ele>
        <time>2014-09-30T09:47:07Z</time>
      </trkpt>
      <trkpt lat="43.93175" lon="7.52282">
        <ele>315.42218</ele>
        <time>2014-09-30T09:47:11Z</time>
      </trkpt>
      <trkpt lat="43.93174" lon="7.52283">
        <ele>315.42218</ele>
        <time>2014-09-30T09:47:16Z</time>
      </trkpt>
      <trkpt lat="43.93175" lon="7.52284">
        <ele>315.42218</ele>
        <time>2014-09-30T09:47:21Z</time>
      </trkpt>
      <trkpt lat="43.93173" lon="7.52287">
        <ele>316.0677</ele>
        <time>2014-09-30T09:47:27Z</time>
      </trkpt>
      <trkpt lat="43.93173" lon="7.5229">
        <ele>316.0677</ele>
        <time>2014-09-30T09:47:31Z</time>
      </trkpt>
      <trkpt lat="43.93173" lon="7.52291">
        <ele>316.0677</ele>
        <time>2014-09-30T09:47:36Z</time>
      </trkpt>
      <trkpt lat="43.93173" lon="7.52292">
        <ele>316.0677</ele>
        <time>2014-09-30T09:47:41Z</time>
      </trkpt>
      <trkpt lat="43.93172" lon="7.52291">
        <ele>316.0677</ele>
        <time>2014-09-30T09:47:46Z</time>
      </trkpt>
      <trkpt lat="43.93172" lon="7.52289">
        <ele>316.0677</ele>
        <time>2014-09-30T09:47:51Z</time>
      </trkpt>
      <trkpt lat="43.93171" lon="7.52287">
        <ele>316.0677</ele>
        <time>2014-09-30T09:47:56Z</time>
      </trkpt>
      <trkpt lat="43.93167" lon="7.52284">
        <ele>317.1182</ele>
        <time>2014-09-30T09:48:01Z</time>
      </trkpt>
      <trkpt lat="43.93164" lon="7.52276">
        <ele>317.1182</ele>
        <time>2014-09-30T09:48:06Z</time>
      </trkpt>
      <trkpt lat="43.93161" lon="7.52273">
        <ele>318.3541</ele>
        <time>2014-09-30T09:48:11Z</time>
      </trkpt>
      <trkpt lat="43.93159" lon="7.5227">
        <ele>318.3541</ele>
        <time>2014-09-30T09:48:16Z</time>
      </trkpt>
      <trkpt lat="43.93157" lon="7.5227">
        <ele>318.3541</ele>
        <time>2014-09-30T09:48:21Z</time>
      </trkpt>
      <trkpt lat="43.93154" lon="7.5227">
        <ele>318.3541</ele>
        <time>2014-09-30T09:48:26Z</time>
      </trkpt>
      <trkpt lat="43.93154" lon="7.52272">
        <ele>320.01828</ele>
        <time>2014-09-30T09:48:31Z</time>
      </trkpt>
      <trkpt lat="43.93155" lon="7.52273">
        <ele>320.01828</ele>
        <time>2014-09-30T09:48:36Z</time>
      </trkpt>
      <trkpt lat="43.9315" lon="7.52275">
        <ele>320.01828</ele>
        <time>2014-09-30T09:48:41Z</time>
      </trkpt>
      <trkpt lat="43.93147" lon="7.52277">
        <ele>322.10422</ele>
        <time>2014-09-30T09:48:46Z</time>
      </trkpt>
      <trkpt lat="43.93146" lon="7.52279">
        <ele>322.10422</ele>
        <time>2014-09-30T09:48:51Z</time>
      </trkpt>
      <trkpt lat="43.93147" lon="7.52282">
        <ele>322.10422</ele>
        <time>2014-09-30T09:48:56Z</time>
      </trkpt>
      <trkpt lat="43.93151" lon="7.52285">
        <ele>324.07153</ele>
        <time>2014-09-30T09:49:01Z</time>
      </trkpt>
      <trkpt lat="43.93153" lon="7.52286">
        <ele>324.07153</ele>
        <time>2014-09-30T09:49:07Z</time>
      </trkpt>
      <trkpt lat="43.93156" lon="7.52285">
        <ele>324.07153</ele>
        <time>2014-09-30T09:49:11Z</time>
      </trkpt>
      <trkpt lat="43.93157" lon="7.52284">
        <ele>324.07153</ele>
        <time>2014-09-30T09:49:16Z</time>
      </trkpt>
      <trkpt lat="43.93156" lon="7.52285">
        <ele>324.07153</ele>
        <time>2014-09-30T09:49:21Z</time>
      </trkpt>
      <trkpt lat="43.93155" lon="7.52286">
        <ele>325.982</ele>
        <time>2014-09-30T09:49:26Z</time>
      </trkpt>
      <trkpt lat="43.93153" lon="7.52287">
        <ele>325.982</ele>
        <time>2014-09-30T09:49:32Z</time>
      </trkpt>
      <trkpt lat="43.93153" lon="7.52287">
        <ele>325.982</ele>
        <time>2014-09-30T09:49:36Z</time>
      </trkpt>
      <trkpt lat="43.93153" lon="7.52289">
        <ele>325.982</ele>
        <time>2014-09-30T09:49:41Z</time>
      </trkpt>
      <trkpt lat="43.93152" lon="7.5229">
        <ele>325.982</ele>
        <time>2014-09-30T09:49:46Z</time>
      </trkpt>
      <trkpt lat="43.93151" lon="7.52288">
        <ele>325.982</ele>
        <time>2014-09-30T09:49:51Z</time>
      </trkpt>
      <trkpt lat="43.93151" lon="7.52286">
        <ele>325.982</ele>
        <time>2014-09-30T09:49:56Z</time>
      </trkpt>
      <trkpt lat="43.93148" lon="7.52292">
        <ele>328.4985</ele>
        <time>2014-09-30T09:50:01Z</time>
      </trkpt>
      <trkpt lat="43.93147" lon="7.52293">
        <ele>328.4985</ele>
        <time>2014-09-30T09:50:06Z</time>
      </trkpt>
      <trkpt lat="43.93146" lon="7.52297">
        <ele>328.4985</ele>
        <time>2014-09-30T09:50:11Z</time>
      </trkpt>
      <trkpt lat="43.93145" lon="7.52299">
        <ele>328.4985</ele>
        <time>2014-09-30T09:50:16Z</time>
      </trkpt>
      <trkpt lat="43.93145" lon="7.523">
        <ele>328.4985</ele>
        <time>2014-09-30T09:50:21Z</time>
      </trkpt>
      <trkpt lat="43.93143" lon="7.52302">
        <ele>328.4985</ele>
        <time>2014-09-30T09:50:26Z</time>
      </trkpt>
      <trkpt lat="43.9314" lon="7.52305">
        <ele>331.03757</ele>
        <time>2014-09-30T09:50:31Z</time>
      </trkpt>
      <trkpt lat="43.93139" lon="7.52309">
        <ele>331.03757</ele>
        <time>2014-09-30T09:50:36Z</time>
      </trkpt>
      <trkpt lat="43.93136" lon="7.5231">
        <ele>331.03757</ele>
        <time>2014-09-30T09:50:41Z</time>
      </trkpt>
      <trkpt lat="43.93136" lon="7.5231">
        <ele>331.03757</ele>
        <time>2014-09-30T09:50:46Z</time>
      </trkpt>
      <trkpt lat="43.93133" lon="7.52312">
        <ele>333.2027</ele>
        <time>2014-09-30T09:50:51Z</time>
      </trkpt>
      <trkpt lat="43.93131" lon="7.52314">
        <ele>333.2027</ele>
        <time>2014-09-30T09:50:56Z</time>
      </trkpt>
      <trkpt lat="43.93129" lon="7.52316">
        <ele>333.2027</ele>
        <time>2014-09-30T09:51:01Z</time>
      </trkpt>
      <trkpt lat="43.93128" lon="7.52317">
        <ele>333.2027</ele>
        <time>2014-09-30T09:51:06Z</time>
      </trkpt>
      <trkpt lat="43.93124" lon="7.52318">
        <ele>335.6077</ele>
        <time>2014-09-30T09:51:11Z</time>
      </trkpt>
      <trkpt lat="43.93124" lon="7.52323">
        <ele>335.6077</ele>
        <time>2014-09-30T09:51:16Z</time>
      </trkpt>
      <trkpt lat="43.93122" lon="7.52327">
        <ele>335.6077</ele>
        <time>2014-09-30T09:51:21Z</time>
      </trkpt>
      <trkpt lat="43.93121" lon="7.52331">
        <ele>337.985</ele>
        <time>2014-09-30T09:51:26Z</time>
      </trkpt>
      <trkpt lat="43.93121" lon="7.52332">
        <ele>337.985</ele>
        <time>2014-09-30T09:51:31Z</time>
      </trkpt>
      <trkpt lat="43.9312" lon="7.52334">
        <ele>337.985</ele>
        <time>2014-09-30T09:51:36Z</time>
      </trkpt>
      <trkpt lat="43.93118" lon="7.52336">
        <ele>337.985</ele>
        <time>2014-09-30T09:51:41Z</time>
      </trkpt>
      <trkpt lat="43.93115" lon="7.5234">
        <ele>337.985</ele>
        <time>2014-09-30T09:51:46Z</time>
      </trkpt>
      <trkpt lat="43.93112" lon="7.52346">
        <ele>341.08118</ele>
        <time>2014-09-30T09:51:51Z</time>
      </trkpt>
      <trkpt lat="43.93111" lon="7.52348">
        <ele>341.08118</ele>
        <time>2014-09-30T09:51:56Z</time>
      </trkpt>
      <trkpt lat="43.9311" lon="7.52348">
        <ele>341.08118</ele>
        <time>2014-09-30T09:52:01Z</time>
      </trkpt>
      <trkpt lat="43.9311" lon="7.52348">
        <ele>341.08118</ele>
        <time>2014-09-30T09:52:06Z</time>
      </trkpt>
      <trkpt lat="43.9311" lon="7.52348">
        <ele>341.08118</ele>
        <time>2014-09-30T09:52:12Z</time>
      </trkpt>
      <trkpt lat="43.93109" lon="7.52349">
        <ele>341.08118</ele>
        <time>2014-09-30T09:52:16Z</time>
      </trkpt>
      <trkpt lat="43.93107" lon="7.52351">
        <ele>341.08118</ele>
        <time>2014-09-30T09:52:21Z</time>
      </trkpt>
      <trkpt lat="43.93104" lon="7.52353">
        <ele>344.30362</ele>
        <time>2014-09-30T09:52:26Z</time>
      </trkpt>
      <trkpt lat="43.93103" lon="7.52353">
        <ele>344.30362</ele>
        <time>2014-09-30T09:52:31Z</time>
      </trkpt>
      <trkpt lat="43.93103" lon="7.52353">
        <ele>344.30362</ele>
        <time>2014-09-30T09:52:36Z</time>
      </trkpt>
      <trkpt lat="43.93102" lon="7.52354">
        <ele>344.30362</ele>
        <time>2014-09-30T09:52:41Z</time>
      </trkpt>
      <trkpt lat="43.93101" lon="7.52354">
        <ele>344.30362</ele>
        <time>2014-09-30T09:52:46Z</time>
      </trkpt>
      <trkpt lat="43.93101" lon="7.52354">
        <ele>344.30362</ele>
        <time>2014-09-30T09:52:51Z</time>
      </trkpt>
      <trkpt lat="43.93098" lon="7.52355">
        <ele>344.30362</ele>
        <time>2014-09-30T09:52:57Z</time>
      </trkpt>
      <trkpt lat="43.93094" lon="7.52355">
        <ele>347.43448</ele>
        <time>2014-09-30T09:53:01Z</time>
      </trkpt>
      <trkpt lat="43.93094" lon="7.52355">
        <ele>347.43448</ele>
        <time>2014-09-30T09:53:06Z</time>
      </trkpt>
      <trkpt lat="43.93091" lon="7.52354">
        <ele>347.43448</ele>
        <time>2014-09-30T09:53:12Z</time>
      </trkpt>
      <trkpt lat="43.9309" lon="7.52354">
        <ele>347.43448</ele>
        <time>2014-09-30T09:53:16Z</time>
      </trkpt>
      <trkpt lat="43.93089" lon="7.52354">
        <ele>348.61563</ele>
        <time>2014-09-30T09:53:26Z</time>
      </trkpt>
      <trkpt lat="43.93082" lon="7.52355">
        <ele>349.79678</ele>
        <time>2014-09-30T09:53:32Z</time>
      </trkpt>
      <trkpt lat="43.93077" lon="7.52354">
        <ele>349.79678</ele>
        <time>2014-09-30T09:53:36Z</time>
      </trkpt>
      <trkpt lat="43.93076" lon="7.52353">
        <ele>349.79678</ele>
        <time>2014-09-30T09:53:41Z</time>
      </trkpt>
      <trkpt lat="43.93075" lon="7.52352">
        <ele>349.79678</ele>
        <time>2014-09-30T09:53:47Z</time>
      </trkpt>
      <trkpt lat="43.93075" lon="7.52352">
        <ele>349.79678</ele>
        <time>2014-09-30T09:53:51Z</time>
      </trkpt>
      <trkpt lat="43.93075" lon="7.52351">
        <ele>349.79678</ele>
        <time>2014-09-30T09:53:57Z</time>
      </trkpt>
      <trkpt lat="43.93074" lon="7.5235">
        <ele>351.63025</ele>
        <time>2014-09-30T09:54:36Z</time>
      </trkpt>
      <trkpt lat="43.93074" lon="7.5235">
        <ele>351.63025</ele>
        <time>2014-09-30T09:54:41Z</time>
      </trkpt>
      <trkpt lat="43.93075" lon="7.52349">
        <ele>351.63025</ele>
        <time>2014-09-30T09:55:01Z</time>
      </trkpt>
      <trkpt lat="43.93075" lon="7.52348">
        <ele>351.63025</ele>
        <time>2014-09-30T09:55:06Z</time>
      </trkpt>
      <trkpt lat="43.93075" lon="7.52348">
        <ele>351.63025</ele>
        <time>2014-09-30T09:55:11Z</time>
      </trkpt>
      <trkpt lat="43.93075" lon="7.52347">
        <ele>351.63025</ele>
        <time>2014-09-30T09:55:16Z</time>
      </trkpt>
      <trkpt lat="43.93075" lon="7.52347">
        <ele>351.63025</ele>
        <time>2014-09-30T09:55:22Z</time>
      </trkpt>
      <trkpt lat="43.93075" lon="7.52348">
        <ele>351.63025</ele>
        <time>2014-09-30T09:55:31Z</time>
      </trkpt>
      <trkpt lat="43.93075" lon="7.52348">
        <ele>351.63025</ele>
        <time>2014-09-30T09:55:36Z</time>
      </trkpt>
      <trkpt lat="43.93075" lon="7.52349">
        <ele>351.63025</ele>
        <time>2014-09-30T09:55:41Z</time>
      </trkpt>
      <trkpt lat="43.93074" lon="7.52352">
        <ele>351.63025</ele>
        <time>2014-09-30T09:55:46Z</time>
      </trkpt>
      <trkpt lat="43.93074" lon="7.52352">
        <ele>351.63025</ele>
        <time>2014-09-30T09:55:51Z</time>
      </trkpt>
      <trkpt lat="43.93073" lon="7.52354">
        <ele>351.63025</ele>
        <time>2014-09-30T09:56:01Z</time>
      </trkpt>
      <trkpt lat="43.93073" lon="7.52357">
        <ele>353.1155</ele>
        <time>2014-09-30T09:56:06Z</time>
      </trkpt>
      <trkpt lat="43.93072" lon="7.5236">
        <ele>353.1155</ele>
        <time>2014-09-30T09:56:11Z</time>
      </trkpt>
      <trkpt lat="43.93071" lon="7.52364">
        <ele>353.1155</ele>
        <time>2014-09-30T09:56:16Z</time>
      </trkpt>
      <trkpt lat="43.93071" lon="7.52367">
        <ele>353.1155</ele>
        <time>2014-09-30T09:56:21Z</time>
      </trkpt>
      <trkpt lat="43.9307" lon="7.52368">
        <ele>353.1155</ele>
        <time>2014-09-30T09:56:26Z</time>
      </trkpt>
      <trkpt lat="43.93069" lon="7.5237">
        <ele>355.55942</ele>
        <time>2014-09-30T09:56:31Z</time>
      </trkpt>
      <trkpt lat="43.93068" lon="7.52373">
        <ele>355.55942</ele>
        <time>2014-09-30T09:56:36Z</time>
      </trkpt>
      <trkpt lat="43.93067" lon="7.52375">
        <ele>355.55942</ele>
        <time>2014-09-30T09:56:41Z</time>
      </trkpt>
      <trkpt lat="43.93067" lon="7.52376">
        <ele>355.55942</ele>
        <time>2014-09-30T09:56:46Z</time>
      </trkpt>
      <trkpt lat="43.93066" lon="7.52377">
        <ele>355.55942</ele>
        <time>2014-09-30T09:56:51Z</time>
      </trkpt>
      <trkpt lat="43.93065" lon="7.52376">
        <ele>355.55942</ele>
        <time>2014-09-30T09:56:56Z</time>
      </trkpt>
      <trkpt lat="43.93065" lon="7.52377">
        <ele>355.55942</ele>
        <time>2014-09-30T09:57:01Z</time>
      </trkpt>
      <trkpt lat="43.93065" lon="7.52383">
        <ele>358.31143</ele>
        <time>2014-09-30T09:57:06Z</time>
      </trkpt>
      <trkpt lat="43.93066" lon="7.52387">
        <ele>358.31143</ele>
        <time>2014-09-30T09:57:11Z</time>
      </trkpt>
      <trkpt lat="43.93067" lon="7.52389">
        <ele>358.31143</ele>
        <time>2014-09-30T09:57:16Z</time>
      </trkpt>
      <trkpt lat="43.93066" lon="7.52393">
        <ele>358.31143</ele>
        <time>2014-09-30T09:57:21Z</time>
      </trkpt>
      <trkpt lat="43.93063" lon="7.52396">
        <ele>360.9409</ele>
        <time>2014-09-30T09:57:26Z</time>
      </trkpt>
      <trkpt lat="43.93062" lon="7.52396">
        <ele>360.9409</ele>
        <time>2014-09-30T09:57:31Z</time>
      </trkpt>
      <trkpt lat="43.9306" lon="7.52396">
        <ele>360.9409</ele>
        <time>2014-09-30T09:57:36Z</time>
      </trkpt>
      <trkpt lat="43.93059" lon="7.52397">
        <ele>360.9409</ele>
        <time>2014-09-30T09:57:41Z</time>
      </trkpt>
      <trkpt lat="43.93057" lon="7.52398">
        <ele>360.9409</ele>
        <time>2014-09-30T09:57:46Z</time>
      </trkpt>
      <trkpt lat="43.93056" lon="7.524">
        <ele>360.9409</ele>
        <time>2014-09-30T09:57:51Z</time>
      </trkpt>
      <trkpt lat="43.93054" lon="7.52402">
        <ele>364.47607</ele>
        <time>2014-09-30T09:57:56Z</time>
      </trkpt>
      <trkpt lat="43.93051" lon="7.52403">
        <ele>364.47607</ele>
        <time>2014-09-30T09:58:01Z</time>
      </trkpt>
      <trkpt lat="43.9305" lon="7.52404">
        <ele>364.47607</ele>
        <time>2014-09-30T09:58:06Z</time>
      </trkpt>
      <trkpt lat="43.93048" lon="7.52403">
        <ele>364.47607</ele>
        <time>2014-09-30T09:58:11Z</time>
      </trkpt>
      <trkpt lat="43.93047" lon="7.52406">
        <ele>364.47607</ele>
        <time>2014-09-30T09:58:16Z</time>
      </trkpt>
      <trkpt lat="43.93047" lon="7.52408">
        <ele>368.45502</ele>
        <time>2014-09-30T09:58:22Z</time>
      </trkpt>
      <trkpt lat="43.93045" lon="7.52411">
        <ele>368.45502</ele>
        <time>2014-09-30T09:58:26Z</time>
      </trkpt>
      <trkpt lat="43.93043" lon="7.52415">
        <ele>368.45502</ele>
        <time>2014-09-30T09:58:31Z</time>
      </trkpt>
      <trkpt lat="43.93042" lon="7.52416">
        <ele>368.45502</ele>
        <time>2014-09-30T09:58:36Z</time>
      </trkpt>
      <trkpt lat="43.93041" lon="7.52415">
        <ele>368.45502</ele>
        <time>2014-09-30T09:58:41Z</time>
      </trkpt>
      <trkpt lat="43.93041" lon="7.52415">
        <ele>368.45502</ele>
        <time>2014-09-30T09:58:46Z</time>
      </trkpt>
      <trkpt lat="43.93041" lon="7.52416">
        <ele>368.45502</ele>
        <time>2014-09-30T09:58:51Z</time>
      </trkpt>
      <trkpt lat="43.93041" lon="7.52416">
        <ele>368.45502</ele>
        <time>2014-09-30T09:58:56Z</time>
      </trkpt>
      <trkpt lat="43.9304" lon="7.52419">
        <ele>372.636</ele>
        <time>2014-09-30T09:59:01Z</time>
      </trkpt>
      <trkpt lat="43.93039" lon="7.5242">
        <ele>372.636</ele>
        <time>2014-09-30T09:59:06Z</time>
      </trkpt>
      <trkpt lat="43.93038" lon="7.52421">
        <ele>372.636</ele>
        <time>2014-09-30T09:59:11Z</time>
      </trkpt>
      <trkpt lat="43.93037" lon="7.52421">
        <ele>372.636</ele>
        <time>2014-09-30T09:59:16Z</time>
      </trkpt>
      <trkpt lat="43.93036" lon="7.52421">
        <ele>372.636</ele>
        <time>2014-09-30T09:59:21Z</time>
      </trkpt>
      <trkpt lat="43.93035" lon="7.52423">
        <ele>372.636</ele>
        <time>2014-09-30T09:59:26Z</time>
      </trkpt>
      <trkpt lat="43.93033" lon="7.52421">
        <ele>376.4199</ele>
        <time>2014-09-30T09:59:31Z</time>
      </trkpt>
      <trkpt lat="43.93028" lon="7.52416">
        <ele>376.4199</ele>
        <time>2014-09-30T09:59:36Z</time>
      </trkpt>
      <trkpt lat="43.93025" lon="7.52416">
        <ele>376.4199</ele>
        <time>2014-09-30T09:59:41Z</time>
      </trkpt>
      <trkpt lat="43.93021" lon="7.5242">
        <ele>379.8439</ele>
        <time>2014-09-30T09:59:46Z</time>
      </trkpt>
      <trkpt lat="43.93019" lon="7.5242">
        <ele>379.8439</ele>
        <time>2014-09-30T09:59:51Z</time>
      </trkpt>
      <trkpt lat="43.93018" lon="7.52423">
        <ele>379.8439</ele>
        <time>2014-09-30T09:59:56Z</time>
      </trkpt>
      <trkpt lat="43.93017" lon="7.52425">
        <ele>379.8439</ele>
        <time>2014-09-30T10:00:01Z</time>
      </trkpt>
      <trkpt lat="43.93016" lon="7.52426">
        <ele>379.8439</ele>
        <time>2014-09-30T10:00:06Z</time>
      </trkpt>
      <trkpt lat="43.93014" lon="7.52427">
        <ele>382.87146</ele>
        <time>2014-09-30T10:00:11Z</time>
      </trkpt>
      <trkpt lat="43.93011" lon="7.52427">
        <ele>382.87146</ele>
        <time>2014-09-30T10:00:16Z</time>
      </trkpt>
      <trkpt lat="43.93009" lon="7.52427">
        <ele>382.87146</ele>
        <time>2014-09-30T10:00:21Z</time>
      </trkpt>
      <trkpt lat="43.9301" lon="7.52426">
        <ele>382.87146</ele>
        <time>2014-09-30T10:00:26Z</time>
      </trkpt>
      <trkpt lat="43.93012" lon="7.52426">
        <ele>382.87146</ele>
        <time>2014-09-30T10:00:31Z</time>
      </trkpt>
      <trkpt lat="43.93015" lon="7.52426">
        <ele>385.75836</ele>
        <time>2014-09-30T10:00:36Z</time>
      </trkpt>
      <trkpt lat="43.93017" lon="7.52428">
        <ele>385.75836</ele>
        <time>2014-09-30T10:00:41Z</time>
      </trkpt>
      <trkpt lat="43.93018" lon="7.5243">
        <ele>385.75836</ele>
        <time>2014-09-30T10:00:47Z</time>
      </trkpt>
      <trkpt lat="43.93019" lon="7.52433">
        <ele>385.75836</ele>
        <time>2014-09-30T10:00:52Z</time>
      </trkpt>
      <trkpt lat="43.9302" lon="7.52434">
        <ele>385.75836</ele>
        <time>2014-09-30T10:00:56Z</time>
      </trkpt>
      <trkpt lat="43.9302" lon="7.52433">
        <ele>385.75836</ele>
        <time>2014-09-30T10:01:01Z</time>
      </trkpt>
      <trkpt lat="43.93019" lon="7.52433">
        <ele>385.75836</ele>
        <time>2014-09-30T10:01:06Z</time>
      </trkpt>
      <trkpt lat="43.93019" lon="7.52432">
        <ele>388.55475</ele>
        <time>2014-09-30T10:01:11Z</time>
      </trkpt>
      <trkpt lat="43.93021" lon="7.52429">
        <ele>388.55475</ele>
        <time>2014-09-30T10:01:16Z</time>
      </trkpt>
      <trkpt lat="43.93022" lon="7.52424">
        <ele>388.55475</ele>
        <time>2014-09-30T10:01:21Z</time>
      </trkpt>
      <trkpt lat="43.93024" lon="7.52422">
        <ele>391.06262</ele>
        <time>2014-09-30T10:01:26Z</time>
      </trkpt>
      <trkpt lat="43.93025" lon="7.5242">
        <ele>391.06262</ele>
        <time>2014-09-30T10:01:31Z</time>
      </trkpt>
      <trkpt lat="43.93024" lon="7.52423">
        <ele>391.06262</ele>
        <time>2014-09-30T10:01:36Z</time>
      </trkpt>
      <trkpt lat="43.93025" lon="7.52426">
        <ele>391.06262</ele>
        <time>2014-09-30T10:01:42Z</time>
      </trkpt>
      <trkpt lat="43.93027" lon="7.52425">
        <ele>391.06262</ele>
        <time>2014-09-30T10:01:46Z</time>
      </trkpt>
      <trkpt lat="43.93028" lon="7.52422">
        <ele>393.43088</ele>
        <time>2014-09-30T10:01:51Z</time>
      </trkpt>
      <trkpt lat="43.93028" lon="7.52419">
        <ele>393.43088</ele>
        <time>2014-09-30T10:01:56Z</time>
      </trkpt>
      <trkpt lat="43.93032" lon="7.52416">
        <ele>393.43088</ele>
        <time>2014-09-30T10:02:01Z</time>
      </trkpt>
      <trkpt lat="43.93035" lon="7.52413">
        <ele>395.5531</ele>
        <time>2014-09-30T10:02:06Z</time>
      </trkpt>
      <trkpt lat="43.93035" lon="7.5241">
        <ele>395.5531</ele>
        <time>2014-09-30T10:02:11Z</time>
      </trkpt>
      <trkpt lat="43.93034" lon="7.52409">
        <ele>395.5531</ele>
        <time>2014-09-30T10:02:16Z</time>
      </trkpt>
      <trkpt lat="43.93033" lon="7.52409">
        <ele>395.5531</ele>
        <time>2014-09-30T10:02:22Z</time>
      </trkpt>
      <trkpt lat="43.93032" lon="7.52409">
        <ele>395.5531</ele>
        <time>2014-09-30T10:02:26Z</time>
      </trkpt>
      <trkpt lat="43.9303" lon="7.52411">
        <ele>395.5531</ele>
        <time>2014-09-30T10:02:31Z</time>
      </trkpt>
      <trkpt lat="43.93029" lon="7.52412">
        <ele>395.5531</ele>
        <time>2014-09-30T10:02:36Z</time>
      </trkpt>
      <trkpt lat="43.93029" lon="7.52413">
        <ele>397.37482</ele>
        <time>2014-09-30T10:02:41Z</time>
      </trkpt>
      <trkpt lat="43.93029" lon="7.52414">
        <ele>397.37482</ele>
        <time>2014-09-30T10:02:46Z</time>
      </trkpt>
      <trkpt lat="43.9303" lon="7.52417">
        <ele>397.37482</ele>
        <time>2014-09-30T10:02:51Z</time>
      </trkpt>
      <trkpt lat="43.93031" lon="7.52424">
        <ele>397.37482</ele>
        <time>2014-09-30T10:02:57Z</time>
      </trkpt>
      <trkpt lat="43.93032" lon="7.52428">
        <ele>398.8321</ele>
        <time>2014-09-30T10:03:02Z</time>
      </trkpt>
      <trkpt lat="43.93032" lon="7.52429">
        <ele>398.8321</ele>
        <time>2014-09-30T10:03:06Z</time>
      </trkpt>
      <trkpt lat="43.93032" lon="7.52426">
        <ele>398.8321</ele>
        <time>2014-09-30T10:03:11Z</time>
      </trkpt>
      <trkpt lat="43.93032" lon="7.52426">
        <ele>398.8321</ele>
        <time>2014-09-30T10:03:17Z</time>
      </trkpt>
      <trkpt lat="43.93031" lon="7.52424">
        <ele>398.8321</ele>
        <time>2014-09-30T10:03:21Z</time>
      </trkpt>
      <trkpt lat="43.93031" lon="7.52422">
        <ele>398.8321</ele>
        <time>2014-09-30T10:03:26Z</time>
      </trkpt>
      <trkpt lat="43.9303" lon="7.52421">
        <ele>398.8321</ele>
        <time>2014-09-30T10:03:31Z</time>
      </trkpt>
      <trkpt lat="43.93029" lon="7.5242">
        <ele>398.8321</ele>
        <time>2014-09-30T10:03:36Z</time>
      </trkpt>
      <trkpt lat="43.93029" lon="7.52421">
        <ele>398.8321</ele>
        <time>2014-09-30T10:03:41Z</time>
      </trkpt>
      <trkpt lat="43.93029" lon="7.52423">
        <ele>400.03976</ele>
        <time>2014-09-30T10:03:46Z</time>
      </trkpt>
      <trkpt lat="43.93028" lon="7.52425">
        <ele>400.03976</ele>
        <time>2014-09-30T10:03:52Z</time>
      </trkpt>
      <trkpt lat="43.93029" lon="7.52425">
        <ele>400.03976</ele>
        <time>2014-09-30T10:03:56Z</time>
      </trkpt>
      <trkpt lat="43.9303" lon="7.52425">
        <ele>400.03976</ele>
        <time>2014-09-30T10:04:01Z</time>
      </trkpt>
      <trkpt lat="43.93031" lon="7.52424">
        <ele>400.03976</ele>
        <time>2014-09-30T10:04:06Z</time>
      </trkpt>
      <trkpt lat="43.93032" lon="7.52424">
        <ele>400.03976</ele>
        <time>2014-09-30T10:04:11Z</time>
      </trkpt>
      <trkpt lat="43.93032" lon="7.52426">
        <ele>400.03976</ele>
        <time>2014-09-30T10:04:16Z</time>
      </trkpt>
      <trkpt lat="43.93031" lon="7.52428">
        <ele>400.03976</ele>
        <time>2014-09-30T10:04:21Z</time>
      </trkpt>
      <trkpt lat="43.93028" lon="7.5243">
        <ele>400.6151</ele>
        <time>2014-09-30T10:04:26Z</time>
      </trkpt>
      <trkpt lat="43.93027" lon="7.5243">
        <ele>400.6151</ele>
        <time>2014-09-30T10:04:31Z</time>
      </trkpt>
      <trkpt lat="43.93025" lon="7.5243">
        <ele>400.6151</ele>
        <time>2014-09-30T10:04:36Z</time>
      </trkpt>
      <trkpt lat="43.93023" lon="7.52429">
        <ele>400.6151</ele>
        <time>2014-09-30T10:04:41Z</time>
      </trkpt>
      <trkpt lat="43.93023" lon="7.52427">
        <ele>400.6151</ele>
        <time>2014-09-30T10:04:46Z</time>
      </trkpt>
      <trkpt lat="43.93022" lon="7.52426">
        <ele>400.6151</ele>
        <time>2014-09-30T10:04:51Z</time>
      </trkpt>
      <trkpt lat="43.93022" lon="7.52424">
        <ele>401.02686</ele>
        <time>2014-09-30T10:04:56Z</time>
      </trkpt>
      <trkpt lat="43.93022" lon="7.52423">
        <ele>401.02686</ele>
        <time>2014-09-30T10:05:01Z</time>
      </trkpt>
      <trkpt lat="43.93022" lon="7.52424">
        <ele>401.02686</ele>
        <time>2014-09-30T10:05:06Z</time>
      </trkpt>
      <trkpt lat="43.93024" lon="7.52421">
        <ele>401.02686</ele>
        <time>2014-09-30T10:05:11Z</time>
      </trkpt>
      <trkpt lat="43.93026" lon="7.52419">
        <ele>401.02686</ele>
        <time>2014-09-30T10:05:17Z</time>
      </trkpt>
      <trkpt lat="43.93029" lon="7.52417">
        <ele>401.39276</ele>
        <time>2014-09-30T10:05:21Z</time>
      </trkpt>
      <trkpt lat="43.93029" lon="7.52413">
        <ele>401.39276</ele>
        <time>2014-09-30T10:05:26Z</time>
      </trkpt>
      <trkpt lat="43.9303" lon="7.52414">
        <ele>401.39276</ele>
        <time>2014-09-30T10:05:31Z</time>
      </trkpt>
      <trkpt lat="43.9303" lon="7.52416">
        <ele>401.39276</ele>
        <time>2014-09-30T10:05:36Z</time>
      </trkpt>
      <trkpt lat="43.93031" lon="7.52418">
        <ele>401.39276</ele>
        <time>2014-09-30T10:05:41Z</time>
      </trkpt>
      <trkpt lat="43.93031" lon="7.52419">
        <ele>401.39276</ele>
        <time>2014-09-30T10:05:46Z</time>
      </trkpt>
      <trkpt lat="43.9303" lon="7.52417">
        <ele>401.39276</ele>
        <time>2014-09-30T10:05:51Z</time>
      </trkpt>
      <trkpt lat="43.9303" lon="7.52415">
        <ele>401.49072</ele>
        <time>2014-09-30T10:05:57Z</time>
      </trkpt>
      <trkpt lat="43.9303" lon="7.52414">
        <ele>401.49072</ele>
        <time>2014-09-30T10:06:01Z</time>
      </trkpt>
      <trkpt lat="43.9303" lon="7.52415">
        <ele>401.49072</ele>
        <time>2014-09-30T10:06:06Z</time>
      </trkpt>
      <trkpt lat="43.9303" lon="7.52415">
        <ele>401.49072</ele>
        <time>2014-09-30T10:06:11Z</time>
      </trkpt>
      <trkpt lat="43.93032" lon="7.52416">
        <ele>401.49072</ele>
        <time>2014-09-30T10:06:16Z</time>
      </trkpt>
      <trkpt lat="43.93033" lon="7.52415">
        <ele>401.49072</ele>
        <time>2014-09-30T10:06:21Z</time>
      </trkpt>
      <trkpt lat="43.93036" lon="7.52415">
        <ele>401.49072</ele>
        <time>2014-09-30T10:06:26Z</time>
      </trkpt>
      <trkpt lat="43.9304" lon="7.52416">
        <ele>401.25977</ele>
        <time>2014-09-30T10:06:31Z</time>
      </trkpt>
      <trkpt lat="43.93043" lon="7.52415">
        <ele>401.25977</ele>
        <time>2014-09-30T10:06:36Z</time>
      </trkpt>
      <trkpt lat="43.93044" lon="7.52417">
        <ele>401.25977</ele>
        <time>2014-09-30T10:06:41Z</time>
      </trkpt>
      <trkpt lat="43.93044" lon="7.52419">
        <ele>401.25977</ele>
        <time>2014-09-30T10:06:47Z</time>
      </trkpt>
      <trkpt lat="43.93045" lon="7.52418">
        <ele>401.25977</ele>
        <time>2014-09-30T10:06:51Z</time>
      </trkpt>
      <trkpt lat="43.93045" lon="7.52418">
        <ele>401.25977</ele>
        <time>2014-09-30T10:06:56Z</time>
      </trkpt>
      <trkpt lat="43.93044" lon="7.52417">
        <ele>401.25977</ele>
        <time>2014-09-30T10:07:01Z</time>
      </trkpt>
      <trkpt lat="43.93044" lon="7.52417">
        <ele>401.25977</ele>
        <time>2014-09-30T10:07:06Z</time>
      </trkpt>
      <trkpt lat="43.93039" lon="7.52414">
        <ele>400.01035</ele>
        <time>2014-09-30T10:07:31Z</time>
      </trkpt>
      <trkpt lat="43.93039" lon="7.52413">
        <ele>400.01035</ele>
        <time>2014-09-30T10:07:36Z</time>
      </trkpt>
      <trkpt lat="43.93039" lon="7.52413">
        <ele>400.01035</ele>
        <time>2014-09-30T10:07:41Z</time>
      </trkpt>
      <trkpt lat="43.93037" lon="7.52412">
        <ele>400.01035</ele>
        <time>2014-09-30T10:07:46Z</time>
      </trkpt>
      <trkpt lat="43.93034" lon="7.52415">
        <ele>400.01035</ele>
        <time>2014-09-30T10:07:52Z</time>
      </trkpt>
      <trkpt lat="43.93034" lon="7.52415">
        <ele>400.01035</ele>
        <time>2014-09-30T10:07:56Z</time>
      </trkpt>
      <trkpt lat="43.93034" lon="7.52415">
        <ele>400.01035</ele>
        <time>2014-09-30T10:08:11Z</time>
      </trkpt>
      <trkpt lat="43.93034" lon="7.52416">
        <ele>400.01035</ele>
        <time>2014-09-30T10:08:17Z</time>
      </trkpt>
      <trkpt lat="43.93034" lon="7.52416">
        <ele>400.01035</ele>
        <time>2014-09-30T10:08:21Z</time>
      </trkpt>
      <trkpt lat="43.93033" lon="7.52415">
        <ele>400.01035</ele>
        <time>2014-09-30T10:08:26Z</time>
      </trkpt>
      <trkpt lat="43.9303" lon="7.52414">
        <ele>399.35452</ele>
        <time>2014-09-30T10:08:32Z</time>
      </trkpt>
      <trkpt lat="43.93028" lon="7.52411">
        <ele>399.35452</ele>
        <time>2014-09-30T10:08:36Z</time>
      </trkpt>
      <trkpt lat="43.93026" lon="7.52409">
        <ele>399.35452</ele>
        <time>2014-09-30T10:08:41Z</time>
      </trkpt>
      <trkpt lat="43.93026" lon="7.5241">
        <ele>399.35452</ele>
        <time>2014-09-30T10:08:47Z</time>
      </trkpt>
      <trkpt lat="43.93025" lon="7.5241">
        <ele>399.35452</ele>
        <time>2014-09-30T10:08:51Z</time>
      </trkpt>
      <trkpt lat="43.93026" lon="7.52411">
        <ele>399.35452</ele>
        <time>2014-09-30T10:08:56Z</time>
      </trkpt>
      <trkpt lat="43.93027" lon="7.52413">
        <ele>399.35452</ele>
        <time>2014-09-30T10:09:01Z</time>
      </trkpt>
      <trkpt lat="43.9303" lon="7.52417">
        <ele>398.88196</ele>
        <time>2014-09-30T10:09:06Z</time>
      </trkpt>
      <trkpt lat="43.93032" lon="7.52419">
        <ele>398.88196</ele>
        <time>2014-09-30T10:09:11Z</time>
      </trkpt>
      <trkpt lat="43.93032" lon="7.52419">
        <ele>398.88196</ele>
        <time>2014-09-30T10:09:16Z</time>
      </trkpt>
      <trkpt lat="43.93032" lon="7.52417">
        <ele>398.88196</ele>
        <time>2014-09-30T10:09:21Z</time>
      </trkpt>
      <trkpt lat="43.9303" lon="7.52412">
        <ele>398.88196</ele>
        <time>2014-09-30T10:09:26Z</time>
      </trkpt>
      <trkpt lat="43.9303" lon="7.52408">
        <ele>398.1399</ele>
        <time>2014-09-30T10:09:31Z</time>
      </trkpt>
      <trkpt lat="43.93029" lon="7.52406">
        <ele>398.1399</ele>
        <time>2014-09-30T10:09:36Z</time>
      </trkpt>
      <trkpt lat="43.93029" lon="7.52406">
        <ele>398.1399</ele>
        <time>2014-09-30T10:09:41Z</time>
      </trkpt>
      <trkpt lat="43.9303" lon="7.52408">
        <ele>398.1399</ele>
        <time>2014-09-30T10:09:46Z</time>
      </trkpt>
      <trkpt lat="43.9303" lon="7.52408">
        <ele>398.1399</ele>
        <time>2014-09-30T10:09:51Z</time>
      </trkpt>
      <trkpt lat="43.9303" lon="7.52409">
        <ele>398.1399</ele>
        <time>2014-09-30T10:09:56Z</time>
      </trkpt>
      <trkpt lat="43.9303" lon="7.52409">
        <ele>398.1399</ele>
        <time>2014-09-30T10:10:11Z</time>
      </trkpt>
      <trkpt lat="43.9303" lon="7.52409">
        <ele>398.1399</ele>
        <time>2014-09-30T10:10:16Z</time>
      </trkpt>
      <trkpt lat="43.9303" lon="7.5241">
        <ele>398.1399</ele>
        <time>2014-09-30T10:11:16Z</time>
      </trkpt>
      <trkpt lat="43.93029" lon="7.5241">
        <ele>398.1399</ele>
        <time>2014-09-30T10:11:21Z</time>
      </trkpt>
      <trkpt lat="43.9303" lon="7.52409">
        <ele>398.1399</ele>
        <time>2014-09-30T10:11:26Z</time>
      </trkpt>
      <trkpt lat="43.9303" lon="7.52409">
        <ele>398.1399</ele>
        <time>2014-09-30T10:11:31Z</time>
      </trkpt>
      <trkpt lat="43.93029" lon="7.52412">
        <ele>398.1399</ele>
        <time>2014-09-30T10:11:36Z</time>
      </trkpt>
      <trkpt lat="43.93029" lon="7.52416">
        <ele>397.05536</ele>
        <time>2014-09-30T10:11:41Z</time>
      </trkpt>
      <trkpt lat="43.93029" lon="7.52418">
        <ele>397.05536</ele>
        <time>2014-09-30T10:11:46Z</time>
      </trkpt>
      <trkpt lat="43.93028" lon="7.52419">
        <ele>397.05536</ele>
        <time>2014-09-30T10:11:51Z</time>
      </trkpt>
      <trkpt lat="43.93027" lon="7.52422">
        <ele>397.05536</ele>
        <time>2014-09-30T10:11:56Z</time>
      </trkpt>
      <trkpt lat="43.93028" lon="7.52425">
        <ele>397.05536</ele>
        <time>2014-09-30T10:12:01Z</time>
      </trkpt>
      <trkpt lat="43.93027" lon="7.52424">
        <ele>397.05536</ele>
        <time>2014-09-30T10:12:06Z</time>
      </trkpt>
      <trkpt lat="43.9303" lon="7.52424">
        <ele>396.03714</ele>
        <time>2014-09-30T10:12:11Z</time>
      </trkpt>
      <trkpt lat="43.93033" lon="7.52423">
        <ele>396.03714</ele>
        <time>2014-09-30T10:12:16Z</time>
      </trkpt>
      <trkpt lat="43.93034" lon="7.52421">
        <ele>396.03714</ele>
        <time>2014-09-30T10:12:21Z</time>
      </trkpt>
      <trkpt lat="43.93034" lon="7.5242">
        <ele>396.03714</ele>
        <time>2014-09-30T10:12:26Z</time>
      </trkpt>
      <trkpt lat="43.93034" lon="7.52419">
        <ele>396.03714</ele>
        <time>2014-09-30T10:12:31Z</time>
      </trkpt>
      <trkpt lat="43.93033" lon="7.5242">
        <ele>396.03714</ele>
        <time>2014-09-30T10:12:37Z</time>
      </trkpt>
      <trkpt lat="43.93028" lon="7.52424">
        <ele>395.1323</ele>
        <time>2014-09-30T10:12:41Z</time>
      </trkpt>
      <trkpt lat="43.93025" lon="7.52425">
        <ele>395.1323</ele>
        <time>2014-09-30T10:12:46Z</time>
      </trkpt>
      <trkpt lat="43.93027" lon="7.52423">
        <ele>395.1323</ele>
        <time>2014-09-30T10:12:51Z</time>
      </trkpt>
      <trkpt lat="43.93029" lon="7.52422">
        <ele>395.1323</ele>
        <time>2014-09-30T10:12:56Z</time>
      </trkpt>
      <trkpt lat="43.9303" lon="7.52423">
        <ele>395.1323</ele>
        <time>2014-09-30T10:13:01Z</time>
      </trkpt>
      <trkpt lat="43.93031" lon="7.52424">
        <ele>394.29752</ele>
        <time>2014-09-30T10:13:06Z</time>
      </trkpt>
      <trkpt lat="43.93031" lon="7.52425">
        <ele>394.29752</ele>
        <time>2014-09-30T10:13:11Z</time>
      </trkpt>
      <trkpt lat="43.9303" lon="7.52424">
        <ele>394.29752</ele>
        <time>2014-09-30T10:13:16Z</time>
      </trkpt>
      <trkpt lat="43.93029" lon="7.52424">
        <ele>394.29752</ele>
        <time>2014-09-30T10:13:21Z</time>
      </trkpt>
      <trkpt lat="43.93029" lon="7.52424">
        <ele>394.29752</ele>
        <time>2014-09-30T10:13:26Z</time>
      </trkpt>
      <trkpt lat="43.93029" lon="7.52424">
        <ele>394.29752</ele>
        <time>2014-09-30T10:13:31Z</time>
      </trkpt>
      <trkpt lat="43.9303" lon="7.52423">
        <ele>394.29752</ele>
        <time>2014-09-30T10:13:37Z</time>
      </trkpt>
      <trkpt lat="43.93031" lon="7.52423">
        <ele>394.29752</ele>
        <time>2014-09-30T10:13:41Z</time>
      </trkpt>
      <trkpt lat="43.93032" lon="7.52421">
        <ele>394.29752</ele>
        <time>2014-09-30T10:13:46Z</time>
      </trkpt>
      <trkpt lat="43.93033" lon="7.52418">
        <ele>393.43466</ele>
        <time>2014-09-30T10:13:51Z</time>
      </trkpt>
      <trkpt lat="43.93035" lon="7.52415">
        <ele>393.43466</ele>
        <time>2014-09-30T10:13:56Z</time>
      </trkpt>
      <trkpt lat="43.93036" lon="7.52413">
        <ele>393.43466</ele>
        <time>2014-09-30T10:14:01Z</time>
      </trkpt>
      <trkpt lat="43.93036" lon="7.52413">
        <ele>393.43466</ele>
        <time>2014-09-30T10:14:06Z</time>
      </trkpt>
      <trkpt lat="43.93035" lon="7.52411">
        <ele>393.43466</ele>
        <time>2014-09-30T10:14:12Z</time>
      </trkpt>
      <trkpt lat="43.93035" lon="7.5241">
        <ele>393.43466</ele>
        <time>2014-09-30T10:14:16Z</time>
      </trkpt>
      <trkpt lat="43.93037" lon="7.52413">
        <ele>391.7178</ele>
        <time>2014-09-30T10:14:21Z</time>
      </trkpt>
      <trkpt lat="43.93035" lon="7.52416">
        <ele>391.7178</ele>
        <time>2014-09-30T10:14:26Z</time>
      </trkpt>
      <trkpt lat="43.93033" lon="7.52422">
        <ele>391.7178</ele>
        <time>2014-09-30T10:14:31Z</time>
      </trkpt>
      <trkpt lat="43.93032" lon="7.52425">
        <ele>389.4503</ele>
        <time>2014-09-30T10:14:36Z</time>
      </trkpt>
      <trkpt lat="43.93034" lon="7.52426">
        <ele>389.4503</ele>
        <time>2014-09-30T10:14:41Z</time>
      </trkpt>
      <trkpt lat="43.93033" lon="7.52427">
        <ele>389.4503</ele>
        <time>2014-09-30T10:14:46Z</time>
      </trkpt>
      <trkpt lat="43.9303" lon="7.52427">
        <ele>389.4503</ele>
        <time>2014-09-30T10:14:51Z</time>
      </trkpt>
      <trkpt lat="43.93029" lon="7.52429">
        <ele>389.4503</ele>
        <time>2014-09-30T10:14:56Z</time>
      </trkpt>
      <trkpt lat="43.93026" lon="7.52434">
        <ele>387.54868</ele>
        <time>2014-09-30T10:15:01Z</time>
      </trkpt>
      <trkpt lat="43.93024" lon="7.52436">
        <ele>387.54868</ele>
        <time>2014-09-30T10:15:06Z</time>
      </trkpt>
      <trkpt lat="43.93022" lon="7.52437">
        <ele>387.54868</ele>
        <time>2014-09-30T10:15:11Z</time>
      </trkpt>
      <trkpt lat="43.93019" lon="7.52439">
        <ele>387.54868</ele>
        <time>2014-09-30T10:15:16Z</time>
      </trkpt>
      <trkpt lat="43.93017" lon="7.52442">
        <ele>386.2412</ele>
        <time>2014-09-30T10:15:21Z</time>
      </trkpt>
      <trkpt lat="43.9302" lon="7.52444">
        <ele>386.2412</ele>
        <time>2014-09-30T10:15:26Z</time>
      </trkpt>
      <trkpt lat="43.93024" lon="7.52446">
        <ele>386.2412</ele>
        <time>2014-09-30T10:15:31Z</time>
      </trkpt>
      <trkpt lat="43.93026" lon="7.52447">
        <ele>385.46378</ele>
        <time>2014-09-30T10:15:36Z</time>
      </trkpt>
      <trkpt lat="43.93028" lon="7.52449">
        <ele>385.46378</ele>
        <time>2014-09-30T10:15:41Z</time>
      </trkpt>
      <trkpt lat="43.93027" lon="7.52451">
        <ele>385.46378</ele>
        <time>2014-09-30T10:15:46Z</time>
      </trkpt>
      <trkpt lat="43.93025" lon="7.52453">
        <ele>385.46378</ele>
        <time>2014-09-30T10:15:51Z</time>
      </trkpt>
      <trkpt lat="43.93024" lon="7.52454">
        <ele>385.46378</ele>
        <time>2014-09-30T10:15:56Z</time>
      </trkpt>
      <trkpt lat="43.93023" lon="7.52455">
        <ele>385.46378</ele>
        <time>2014-09-30T10:16:01Z</time>
      </trkpt>
      <trkpt lat="43.93022" lon="7.52453">
        <ele>385.3137</ele>
        <time>2014-09-30T10:16:06Z</time>
      </trkpt>
      <trkpt lat="43.9302" lon="7.52453">
        <ele>385.3137</ele>
        <time>2014-09-30T10:16:11Z</time>
      </trkpt>
      <trkpt lat="43.93017" lon="7.52456">
        <ele>385.3137</ele>
        <time>2014-09-30T10:16:16Z</time>
      </trkpt>
      <trkpt lat="43.93016" lon="7.52455">
        <ele>385.3137</ele>
        <time>2014-09-30T10:16:21Z</time>
      </trkpt>
      <trkpt lat="43.93015" lon="7.52455">
        <ele>385.3137</ele>
        <time>2014-09-30T10:16:26Z</time>
      </trkpt>
      <trkpt lat="43.93015" lon="7.52459">
        <ele>385.60538</ele>
        <time>2014-09-30T10:16:31Z</time>
      </trkpt>
      <trkpt lat="43.93016" lon="7.5246">
        <ele>385.60538</ele>
        <time>2014-09-30T10:16:36Z</time>
      </trkpt>
      <trkpt lat="43.93016" lon="7.52461">
        <ele>385.60538</ele>
        <time>2014-09-30T10:16:41Z</time>
      </trkpt>
      <trkpt lat="43.93016" lon="7.52459">
        <ele>385.60538</ele>
        <time>2014-09-30T10:16:46Z</time>
      </trkpt>
      <trkpt lat="43.93017" lon="7.5246">
        <ele>385.60538</ele>
        <time>2014-09-30T10:16:51Z</time>
      </trkpt>
      <trkpt lat="43.93017" lon="7.52463">
        <ele>385.60538</ele>
        <time>2014-09-30T10:16:56Z</time>
      </trkpt>
      <trkpt lat="43.93017" lon="7.52468">
        <ele>386.09335</ele>
        <time>2014-09-30T10:17:01Z</time>
      </trkpt>
      <trkpt lat="43.93017" lon="7.52471">
        <ele>386.09335</ele>
        <time>2014-09-30T10:17:06Z</time>
      </trkpt>
      <trkpt lat="43.93016" lon="7.52474">
        <ele>386.09335</ele>
        <time>2014-09-30T10:17:11Z</time>
      </trkpt>
      <trkpt lat="43.93017" lon="7.52475">
        <ele>386.09335</ele>
        <time>2014-09-30T10:17:16Z</time>
      </trkpt>
      <trkpt lat="43.93018" lon="7.5248">
        <ele>386.09335</ele>
        <time>2014-09-30T10:17:21Z</time>
      </trkpt>
      <trkpt lat="43.93017" lon="7.52484">
        <ele>386.9962</ele>
        <time>2014-09-30T10:17:26Z</time>
      </trkpt>
      <trkpt lat="43.93014" lon="7.52484">
        <ele>386.9962</ele>
        <time>2014-09-30T10:17:31Z</time>
      </trkpt>
      <trkpt lat="43.93013" lon="7.52483">
        <ele>386.9962</ele>
        <time>2014-09-30T10:17:36Z</time>
      </trkpt>
      <trkpt lat="43.93011" lon="7.5248">
        <ele>386.9962</ele>
        <time>2014-09-30T10:17:41Z</time>
      </trkpt>
      <trkpt lat="43.9301" lon="7.52479">
        <ele>386.9962</ele>
        <time>2014-09-30T10:17:46Z</time>
      </trkpt>
      <trkpt lat="43.93009" lon="7.52477">
        <ele>388.2267</ele>
        <time>2014-09-30T10:17:51Z</time>
      </trkpt>
      <trkpt lat="43.93007" lon="7.52474">
        <ele>388.2267</ele>
        <time>2014-09-30T10:17:56Z</time>
      </trkpt>
      <trkpt lat="43.93006" lon="7.52475">
        <ele>388.2267</ele>
        <time>2014-09-30T10:18:02Z</time>
      </trkpt>
      <trkpt lat="43.93005" lon="7.52476">
        <ele>388.2267</ele>
        <time>2014-09-30T10:18:06Z</time>
      </trkpt>
      <trkpt lat="43.93006" lon="7.52477">
        <ele>388.2267</ele>
        <time>2014-09-30T10:18:11Z</time>
      </trkpt>
      <trkpt lat="43.93006" lon="7.5248">
        <ele>388.2267</ele>
        <time>2014-09-30T10:18:16Z</time>
      </trkpt>
      <trkpt lat="43.93006" lon="7.52484">
        <ele>389.8761</ele>
        <time>2014-09-30T10:18:21Z</time>
      </trkpt>
      <trkpt lat="43.93006" lon="7.52489">
        <ele>389.8761</ele>
        <time>2014-09-30T10:18:26Z</time>
      </trkpt>
      <trkpt lat="43.93007" lon="7.52492">
        <ele>389.8761</ele>
        <time>2014-09-30T10:18:31Z</time>
      </trkpt>
      <trkpt lat="43.93008" lon="7.52494">
        <ele>389.8761</ele>
        <time>2014-09-30T10:18:37Z</time>
      </trkpt>
      <trkpt lat="43.93007" lon="7.52494">
        <ele>391.68146</ele>
        <time>2014-09-30T10:18:41Z</time>
      </trkpt>
      <trkpt lat="43.93004" lon="7.52494">
        <ele>391.68146</ele>
        <time>2014-09-30T10:18:46Z</time>
      </trkpt>
      <trkpt lat="43.93" lon="7.52492">
        <ele>391.68146</ele>
        <time>2014-09-30T10:18:51Z</time>
      </trkpt>
      <trkpt lat="43.92998" lon="7.52489">
        <ele>394.06168</ele>
        <time>2014-09-30T10:18:56Z</time>
      </trkpt>
      <trkpt lat="43.92994" lon="7.52486">
        <ele>394.06168</ele>
        <time>2014-09-30T10:19:01Z</time>
      </trkpt>
      <trkpt lat="43.92994" lon="7.52484">
        <ele>394.06168</ele>
        <time>2014-09-30T10:19:06Z</time>
      </trkpt>
      <trkpt lat="43.92995" lon="7.52483">
        <ele>394.06168</ele>
        <time>2014-09-30T10:19:11Z</time>
      </trkpt>
      <trkpt lat="43.92996" lon="7.52483">
        <ele>394.06168</ele>
        <time>2014-09-30T10:19:17Z</time>
      </trkpt>
      <trkpt lat="43.92995" lon="7.52482">
        <ele>396.61035</ele>
        <time>2014-09-30T10:19:21Z</time>
      </trkpt>
      <trkpt lat="43.92994" lon="7.52482">
        <ele>396.61035</ele>
        <time>2014-09-30T10:19:26Z</time>
      </trkpt>
      <trkpt lat="43.92991" lon="7.52484">
        <ele>396.61035</ele>
        <time>2014-09-30T10:19:31Z</time>
      </trkpt>
      <trkpt lat="43.92987" lon="7.52487">
        <ele>396.61035</ele>
        <time>2014-09-30T10:19:36Z</time>
      </trkpt>
      <trkpt lat="43.92987" lon="7.52487">
        <ele>396.61035</ele>
        <time>2014-09-30T10:19:41Z</time>
      </trkpt>
      <trkpt lat="43.92988" lon="7.52488">
        <ele>398.8352</ele>
        <time>2014-09-30T10:19:46Z</time>
      </trkpt>
      <trkpt lat="43.92987" lon="7.5249">
        <ele>398.8352</ele>
        <time>2014-09-30T10:19:51Z</time>
      </trkpt>
      <trkpt lat="43.92987" lon="7.52493">
        <ele>398.8352</ele>
        <time>2014-09-30T10:19:56Z</time>
      </trkpt>
      <trkpt lat="43.92988" lon="7.52496">
        <ele>398.8352</ele>
        <time>2014-09-30T10:20:02Z</time>
      </trkpt>
      <trkpt lat="43.92989" lon="7.52497">
        <ele>398.8352</ele>
        <time>2014-09-30T10:20:06Z</time>
      </trkpt>
      <trkpt lat="43.92992" lon="7.52496">
        <ele>401.24637</ele>
        <time>2014-09-30T10:20:11Z</time>
      </trkpt>
      <trkpt lat="43.92993" lon="7.52501">
        <ele>401.24637</ele>
        <time>2014-09-30T10:20:16Z</time>
      </trkpt>
      <trkpt lat="43.92995" lon="7.52503">
        <ele>401.24637</ele>
        <time>2014-09-30T10:20:21Z</time>
      </trkpt>
      <trkpt lat="43.92996" lon="7.52504">
        <ele>401.24637</ele>
        <time>2014-09-30T10:20:26Z</time>
      </trkpt>
      <trkpt lat="43.92997" lon="7.52504">
        <ele>401.24637</ele>
        <time>2014-09-30T10:20:31Z</time>
      </trkpt>
      <trkpt lat="43.93" lon="7.52505">
        <ele>404.33032</ele>
        <time>2014-09-30T10:20:36Z</time>
      </trkpt>
      <trkpt lat="43.93" lon="7.52503">
        <ele>404.33032</ele>
        <time>2014-09-30T10:20:41Z</time>
      </trkpt>
      <trkpt lat="43.93" lon="7.52502">
        <ele>404.33032</ele>
        <time>2014-09-30T10:20:46Z</time>
      </trkpt>
      <trkpt lat="43.93001" lon="7.52502">
        <ele>404.33032</ele>
        <time>2014-09-30T10:20:51Z</time>
      </trkpt>
      <trkpt lat="43.93" lon="7.52507">
        <ele>404.33032</ele>
        <time>2014-09-30T10:20:56Z</time>
      </trkpt>
      <trkpt lat="43.92999" lon="7.52512">
        <ele>407.26773</ele>
        <time>2014-09-30T10:21:01Z</time>
      </trkpt>
      <trkpt lat="43.92999" lon="7.52517">
        <ele>407.26773</ele>
        <time>2014-09-30T10:21:06Z</time>
      </trkpt>
      <trkpt lat="43.92999" lon="7.52519">
        <ele>407.26773</ele>
        <time>2014-09-30T10:21:11Z</time>
      </trkpt>
      <trkpt lat="43.93001" lon="7.52521">
        <ele>407.26773</ele>
        <time>2014-09-30T10:21:16Z</time>
      </trkpt>
      <trkpt lat="43.93001" lon="7.52524">
        <ele>410.1356</ele>
        <time>2014-09-30T10:21:21Z</time>
      </trkpt>
      <trkpt lat="43.93004" lon="7.52528">
        <ele>410.1356</ele>
        <time>2014-09-30T10:21:26Z</time>
      </trkpt>
      <trkpt lat="43.93002" lon="7.52532">
        <ele>410.1356</ele>
        <time>2014-09-30T10:21:31Z</time>
      </trkpt>
      <trkpt lat="43.93001" lon="7.52535">
        <ele>412.73166</ele>
        <time>2014-09-30T10:21:37Z</time>
      </trkpt>
      <trkpt lat="43.93001" lon="7.52535">
        <ele>412.73166</ele>
        <time>2014-09-30T10:21:41Z</time>
      </trkpt>
      <trkpt lat="43.93" lon="7.52534">
        <ele>412.73166</ele>
        <time>2014-09-30T10:21:46Z</time>
      </trkpt>
      <trkpt lat="43.93" lon="7.52533">
        <ele>412.73166</ele>
        <time>2014-09-30T10:21:52Z</time>
      </trkpt>
      <trkpt lat="43.93002" lon="7.52532">
        <ele>412.73166</ele>
        <time>2014-09-30T10:21:56Z</time>
      </trkpt>
      <trkpt lat="43.93003" lon="7.52532">
        <ele>412.73166</ele>
        <time>2014-09-30T10:22:01Z</time>
      </trkpt>
      <trkpt lat="43.93005" lon="7.52535">
        <ele>412.73166</ele>
        <time>2014-09-30T10:22:07Z</time>
      </trkpt>
      <trkpt lat="43.93004" lon="7.52535">
        <ele>415.05667</ele>
        <time>2014-09-30T10:22:11Z</time>
      </trkpt>
      <trkpt lat="43.93005" lon="7.52535">
        <ele>415.05667</ele>
        <time>2014-09-30T10:22:16Z</time>
      </trkpt>
      <trkpt lat="43.93005" lon="7.52534">
        <ele>415.05667</ele>
        <time>2014-09-30T10:22:21Z</time>
      </trkpt>
      <trkpt lat="43.93004" lon="7.52533">
        <ele>415.05667</ele>
        <time>2014-09-30T10:22:26Z</time>
      </trkpt>
      <trkpt lat="43.93" lon="7.52534">
        <ele>415.05667</ele>
        <time>2014-09-30T10:22:31Z</time>
      </trkpt>
      <trkpt lat="43.92997" lon="7.52534">
        <ele>417.22733</ele>
        <time>2014-09-30T10:22:36Z</time>
      </trkpt>
      <trkpt lat="43.92995" lon="7.52535">
        <ele>417.22733</ele>
        <time>2014-09-30T10:22:41Z</time>
      </trkpt>
      <trkpt lat="43.92996" lon="7.52536">
        <ele>417.22733</ele>
        <time>2014-09-30T10:22:46Z</time>
      </trkpt>
      <trkpt lat="43.92996" lon="7.52537">
        <ele>417.22733</ele>
        <time>2014-09-30T10:22:51Z</time>
      </trkpt>
      <trkpt lat="43.92992" lon="7.52535">
        <ele>417.22733</ele>
        <time>2014-09-30T10:22:56Z</time>
      </trkpt>
      <trkpt lat="43.9299" lon="7.52532">
        <ele>419.7269</ele>
        <time>2014-09-30T10:23:01Z</time>
      </trkpt>
      <trkpt lat="43.9299" lon="7.52532">
        <ele>419.7269</ele>
        <time>2014-09-30T10:23:06Z</time>
      </trkpt>
      <trkpt lat="43.92989" lon="7.52532">
        <ele>419.7269</ele>
        <time>2014-09-30T10:23:11Z</time>
      </trkpt>
      <trkpt lat="43.92989" lon="7.52532">
        <ele>419.7269</ele>
        <time>2014-09-30T10:23:16Z</time>
      </trkpt>
      <trkpt lat="43.92987" lon="7.52531">
        <ele>419.7269</ele>
        <time>2014-09-30T10:23:21Z</time>
      </trkpt>
      <trkpt lat="43.92983" lon="7.5253">
        <ele>419.7269</ele>
        <time>2014-09-30T10:23:26Z</time>
      </trkpt>
      <trkpt lat="43.92979" lon="7.5253">
        <ele>422.71405</ele>
        <time>2014-09-30T10:23:31Z</time>
      </trkpt>
      <trkpt lat="43.92976" lon="7.52528">
        <ele>422.71405</ele>
        <time>2014-09-30T10:23:36Z</time>
      </trkpt>
      <trkpt lat="43.92976" lon="7.52527">
        <ele>422.71405</ele>
        <time>2014-09-30T10:23:41Z</time>
      </trkpt>
      <trkpt lat="43.92976" lon="7.52525">
        <ele>422.71405</ele>
        <time>2014-09-30T10:23:46Z</time>
      </trkpt>
      <trkpt lat="43.92977" lon="7.52524">
        <ele>422.71405</ele>
        <time>2014-09-30T10:23:52Z</time>
      </trkpt>
      <trkpt lat="43.92977" lon="7.52525">
        <ele>422.71405</ele>
        <time>2014-09-30T10:23:56Z</time>
      </trkpt>
      <trkpt lat="43.92973" lon="7.52523">
        <ele>425.31134</ele>
        <time>2014-09-30T10:24:01Z</time>
      </trkpt>
      <trkpt lat="43.92971" lon="7.52522">
        <ele>425.31134</ele>
        <time>2014-09-30T10:24:06Z</time>
      </trkpt>
      <trkpt lat="43.92968" lon="7.52521">
        <ele>425.31134</ele>
        <time>2014-09-30T10:24:11Z</time>
      </trkpt>
      <trkpt lat="43.92966" lon="7.52523">
        <ele>425.31134</ele>
        <time>2014-09-30T10:24:16Z</time>
      </trkpt>
      <trkpt lat="43.92963" lon="7.52522">
        <ele>427.6292</ele>
        <time>2014-09-30T10:24:21Z</time>
      </trkpt>
      <trkpt lat="43.92959" lon="7.52523">
        <ele>427.6292</ele>
        <time>2014-09-30T10:24:26Z</time>
      </trkpt>
      <trkpt lat="43.92955" lon="7.52522">
        <ele>427.6292</ele>
        <time>2014-09-30T10:24:31Z</time>
      </trkpt>
      <trkpt lat="43.92953" lon="7.52523">
        <ele>429.46814</ele>
        <time>2014-09-30T10:24:36Z</time>
      </trkpt>
      <trkpt lat="43.92952" lon="7.52523">
        <ele>429.46814</ele>
        <time>2014-09-30T10:24:41Z</time>
      </trkpt>
      <trkpt lat="43.92949" lon="7.52522">
        <ele>429.46814</ele>
        <time>2014-09-30T10:24:46Z</time>
      </trkpt>
      <trkpt lat="43.92947" lon="7.52522">
        <ele>429.46814</ele>
        <time>2014-09-30T10:24:51Z</time>
      </trkpt>
      <trkpt lat="43.92947" lon="7.52522">
        <ele>429.46814</ele>
        <time>2014-09-30T10:24:56Z</time>
      </trkpt>
      <trkpt lat="43.92947" lon="7.52522">
        <ele>429.46814</ele>
        <time>2014-09-30T10:25:01Z</time>
      </trkpt>
      <trkpt lat="43.92945" lon="7.52523">
        <ele>429.46814</ele>
        <time>2014-09-30T10:25:06Z</time>
      </trkpt>
      <trkpt lat="43.92945" lon="7.52522">
        <ele>430.76007</ele>
        <time>2014-09-30T10:25:11Z</time>
      </trkpt>
      <trkpt lat="43.92945" lon="7.52522">
        <ele>430.76007</ele>
        <time>2014-09-30T10:25:16Z</time>
      </trkpt>
      <trkpt lat="43.92943" lon="7.52523">
        <ele>430.76007</ele>
        <time>2014-09-30T10:25:21Z</time>
      </trkpt>
      <trkpt lat="43.9294" lon="7.52524">
        <ele>430.76007</ele>
        <time>2014-09-30T10:25:26Z</time>
      </trkpt>
      <trkpt lat="43.92935" lon="7.52526">
        <ele>431.83258</ele>
        <time>2014-09-30T10:25:31Z</time>
      </trkpt>
      <trkpt lat="43.92931" lon="7.52527">
        <ele>431.83258</ele>
        <time>2014-09-30T10:25:36Z</time>
      </trkpt>
      <trkpt lat="43.92926" lon="7.5253">
        <ele>432.86023</ele>
        <time>2014-09-30T10:25:41Z</time>
      </trkpt>
      <trkpt lat="43.92923" lon="7.52532">
        <ele>432.86023</ele>
        <time>2014-09-30T10:25:46Z</time>
      </trkpt>
      <trkpt lat="43.92919" lon="7.52534">
        <ele>432.86023</ele>
        <time>2014-09-30T10:25:51Z</time>
      </trkpt>
      <trkpt lat="43.92915" lon="7.52535">
        <ele>433.75992</ele>
        <time>2014-09-30T10:25:56Z</time>
      </trkpt>
      <trkpt lat="43.92911" lon="7.52535">
        <ele>433.75992</ele>
        <time>2014-09-30T10:26:01Z</time>
      </trkpt>
      <trkpt lat="43.92907" lon="7.52536">
        <ele>433.75992</ele>
        <time>2014-09-30T10:26:06Z</time>
      </trkpt>
      <trkpt lat="43.92903" lon="7.52537">
        <ele>434.2101</ele>
        <time>2014-09-30T10:26:11Z</time>
      </trkpt>
      <trkpt lat="43.92896" lon="7.52537">
        <ele>434.2101</ele>
        <time>2014-09-30T10:26:16Z</time>
      </trkpt>
      <trkpt lat="43.92892" lon="7.52536">
        <ele>434.2456</ele>
        <time>2014-09-30T10:26:21Z</time>
      </trkpt>
      <trkpt lat="43.92889" lon="7.52535">
        <ele>434.2456</ele>
        <time>2014-09-30T10:26:26Z</time>
      </trkpt>
      <trkpt lat="43.92886" lon="7.52535">
        <ele>434.2456</ele>
        <time>2014-09-30T10:26:31Z</time>
      </trkpt>
      <trkpt lat="43.92881" lon="7.52536">
        <ele>434.00082</ele>
        <time>2014-09-30T10:26:36Z</time>
      </trkpt>
      <trkpt lat="43.92877" lon="7.52538">
        <ele>434.00082</ele>
        <time>2014-09-30T10:26:41Z</time>
      </trkpt>
      <trkpt lat="43.92873" lon="7.52539">
        <ele>434.00082</ele>
        <time>2014-09-30T10:26:46Z</time>
      </trkpt>
      <trkpt lat="43.92869" lon="7.52538">
        <ele>433.50015</ele>
        <time>2014-09-30T10:26:51Z</time>
      </trkpt>
      <trkpt lat="43.92866" lon="7.52538">
        <ele>433.50015</ele>
        <time>2014-09-30T10:26:57Z</time>
      </trkpt>
      <trkpt lat="43.92861" lon="7.52536">
        <ele>433.50015</ele>
        <time>2014-09-30T10:27:01Z</time>
      </trkpt>
      <trkpt lat="43.92856" lon="7.52537">
        <ele>432.91113</ele>
        <time>2014-09-30T10:27:06Z</time>
      </trkpt>
      <trkpt lat="43.92851" lon="7.52536">
        <ele>432.91113</ele>
        <time>2014-09-30T10:27:11Z</time>
      </trkpt>
      <trkpt lat="43.92845" lon="7.52536">
        <ele>432.1874</ele>
        <time>2014-09-30T10:27:16Z</time>
      </trkpt>
      <trkpt lat="43.92842" lon="7.52538">
        <ele>432.1874</ele>
        <time>2014-09-30T10:27:21Z</time>
      </trkpt>
      <trkpt lat="43.92838" lon="7.52538">
        <ele>432.1874</ele>
        <time>2014-09-30T10:27:26Z</time>
      </trkpt>
      <trkpt lat="43.92834" lon="7.52537">
        <ele>431.38733</ele>
        <time>2014-09-30T10:27:31Z</time>
      </trkpt>
      <trkpt lat="43.9283" lon="7.52535">
        <ele>431.38733</ele>
        <time>2014-09-30T10:27:36Z</time>
      </trkpt>
      <trkpt lat="43.92828" lon="7.52534">
        <ele>431.38733</ele>
        <time>2014-09-30T10:27:41Z</time>
      </trkpt>
      <trkpt lat="43.92825" lon="7.52533">
        <ele>430.5363</ele>
        <time>2014-09-30T10:27:46Z</time>
      </trkpt>
      <trkpt lat="43.9282" lon="7.52533">
        <ele>430.5363</ele>
        <time>2014-09-30T10:27:52Z</time>
      </trkpt>
      <trkpt lat="43.92818" lon="7.52532">
        <ele>430.5363</ele>
        <time>2014-09-30T10:27:56Z</time>
      </trkpt>
      <trkpt lat="43.92815" lon="7.52529">
        <ele>429.26886</ele>
        <time>2014-09-30T10:28:01Z</time>
      </trkpt>
      <trkpt lat="43.92808" lon="7.52529">
        <ele>429.26886</ele>
        <time>2014-09-30T10:28:06Z</time>
      </trkpt>
      <trkpt lat="43.92804" lon="7.52525">
        <ele>427.79517</ele>
        <time>2014-09-30T10:28:11Z</time>
      </trkpt>
      <trkpt lat="43.92798" lon="7.52522">
        <ele>427.79517</ele>
        <time>2014-09-30T10:28:16Z</time>
      </trkpt>
      <trkpt lat="43.92794" lon="7.5252">
        <ele>426.1951</ele>
        <time>2014-09-30T10:28:21Z</time>
      </trkpt>
      <trkpt lat="43.92794" lon="7.52517">
        <ele>426.1951</ele>
        <time>2014-09-30T10:28:26Z</time>
      </trkpt>
      <trkpt lat="43.92789" lon="7.52512">
        <ele>424.6871</ele>
        <time>2014-09-30T10:28:31Z</time>
      </trkpt>
      <trkpt lat="43.92784" lon="7.5251">
        <ele>424.6871</ele>
        <time>2014-09-30T10:28:36Z</time>
      </trkpt>
      <trkpt lat="43.9278" lon="7.52506">
        <ele>423.1706</ele>
        <time>2014-09-30T10:28:41Z</time>
      </trkpt>
      <trkpt lat="43.92776" lon="7.52499">
        <ele>423.1706</ele>
        <time>2014-09-30T10:28:46Z</time>
      </trkpt>
      <trkpt lat="43.92772" lon="7.52496">
        <ele>421.82602</ele>
        <time>2014-09-30T10:28:51Z</time>
      </trkpt>
      <trkpt lat="43.9277" lon="7.52492">
        <ele>421.82602</ele>
        <time>2014-09-30T10:28:56Z</time>
      </trkpt>
      <trkpt lat="43.92766" lon="7.52492">
        <ele>421.82602</ele>
        <time>2014-09-30T10:29:01Z</time>
      </trkpt>
      <trkpt lat="43.92762" lon="7.52487">
        <ele>420.58945</ele>
        <time>2014-09-30T10:29:06Z</time>
      </trkpt>
      <trkpt lat="43.92761" lon="7.52481">
        <ele>420.58945</ele>
        <time>2014-09-30T10:29:11Z</time>
      </trkpt>
      <trkpt lat="43.9276" lon="7.52472">
        <ele>419.60297</ele>
        <time>2014-09-30T10:29:16Z</time>
      </trkpt>
      <trkpt lat="43.92757" lon="7.52466">
        <ele>419.60297</ele>
        <time>2014-09-30T10:29:21Z</time>
      </trkpt>
      <trkpt lat="43.92751" lon="7.52464">
        <ele>418.70914</ele>
        <time>2014-09-30T10:29:26Z</time>
      </trkpt>
      <trkpt lat="43.92748" lon="7.52459">
        <ele>418.70914</ele>
        <time>2014-09-30T10:29:31Z</time>
      </trkpt>
      <trkpt lat="43.92743" lon="7.52455">
        <ele>417.76166</ele>
        <time>2014-09-30T10:29:36Z</time>
      </trkpt>
      <trkpt lat="43.92742" lon="7.52447">
        <ele>417.76166</ele>
        <time>2014-09-30T10:29:41Z</time>
      </trkpt>
      <trkpt lat="43.92734" lon="7.52439">
        <ele>416.76913</ele>
        <time>2014-09-30T10:29:46Z</time>
      </trkpt>
      <trkpt lat="43.92729" lon="7.52438">
        <ele>416.76913</ele>
        <time>2014-09-30T10:29:52Z</time>
      </trkpt>
      <trkpt lat="43.92729" lon="7.52431">
        <ele>415.95566</ele>
        <time>2014-09-30T10:29:56Z</time>
      </trkpt>
      <trkpt lat="43.9273" lon="7.52424">
        <ele>415.95566</ele>
        <time>2014-09-30T10:30:01Z</time>
      </trkpt>
      <trkpt lat="43.9273" lon="7.5242">
        <ele>415.95566</ele>
        <time>2014-09-30T10:30:07Z</time>
      </trkpt>
      <trkpt lat="43.92727" lon="7.52414">
        <ele>415.3841</ele>
        <time>2014-09-30T10:30:12Z</time>
      </trkpt>
      <trkpt lat="43.92727" lon="7.5241">
        <ele>415.3841</ele>
        <time>2014-09-30T10:30:16Z</time>
      </trkpt>
      <trkpt lat="43.9272" lon="7.52409">
        <ele>414.78036</ele>
        <time>2014-09-30T10:30:22Z</time>
      </trkpt>
      <trkpt lat="43.92724" lon="7.52397">
        <ele>414.16437</ele>
        <time>2014-09-30T10:30:26Z</time>
      </trkpt>
      <trkpt lat="43.92722" lon="7.52394">
        <ele>414.16437</ele>
        <time>2014-09-30T10:30:31Z</time>
      </trkpt>
      <trkpt lat="43.92719" lon="7.52386">
        <ele>413.5975</ele>
        <time>2014-09-30T10:30:36Z</time>
      </trkpt>
      <trkpt lat="43.9271" lon="7.52386">
        <ele>413.12213</ele>
        <time>2014-09-30T10:30:41Z</time>
      </trkpt>
      <trkpt lat="43.92703" lon="7.52388">
        <ele>413.12213</ele>
        <time>2014-09-30T10:30:46Z</time>
      </trkpt>
      <trkpt lat="43.92697" lon="7.52386">
        <ele>412.69055</ele>
        <time>2014-09-30T10:30:52Z</time>
      </trkpt>
      <trkpt lat="43.92693" lon="7.52383">
        <ele>412.69055</ele>
        <time>2014-09-30T10:30:56Z</time>
      </trkpt>
      <trkpt lat="43.92688" lon="7.52381">
        <ele>412.30148</ele>
        <time>2014-09-30T10:31:01Z</time>
      </trkpt>
      <trkpt lat="43.92685" lon="7.52379">
        <ele>412.30148</ele>
        <time>2014-09-30T10:31:06Z</time>
      </trkpt>
      <trkpt lat="43.92681" lon="7.52378">
        <ele>412.30148</ele>
        <time>2014-09-30T10:31:11Z</time>
      </trkpt>
      <trkpt lat="43.92677" lon="7.52374">
        <ele>411.89597</ele>
        <time>2014-09-30T10:31:16Z</time>
      </trkpt>
      <trkpt lat="43.92674" lon="7.52371">
        <ele>411.89597</ele>
        <time>2014-09-30T10:31:21Z</time>
      </trkpt>
      <trkpt lat="43.92674" lon="7.52369">
        <ele>411.89597</ele>
        <time>2014-09-30T10:31:26Z</time>
      </trkpt>
      <trkpt lat="43.9267" lon="7.5237">
        <ele>411.40475</ele>
        <time>2014-09-30T10:31:31Z</time>
      </trkpt>
      <trkpt lat="43.92662" lon="7.52368">
        <ele>411.40475</ele>
        <time>2014-09-30T10:31:36Z</time>
      </trkpt>
      <trkpt lat="43.92658" lon="7.52368">
        <ele>410.8936</ele>
        <time>2014-09-30T10:31:41Z</time>
      </trkpt>
      <trkpt lat="43.92653" lon="7.52363">
        <ele>410.8936</ele>
        <time>2014-09-30T10:31:46Z</time>
      </trkpt>
      <trkpt lat="43.92649" lon="7.52361">
        <ele>410.55295</ele>
        <time>2014-09-30T10:31:51Z</time>
      </trkpt>
      <trkpt lat="43.92646" lon="7.5236">
        <ele>410.55295</ele>
        <time>2014-09-30T10:31:56Z</time>
      </trkpt>
      <trkpt lat="43.92639" lon="7.52356">
        <ele>410.35706</ele>
        <time>2014-09-30T10:32:01Z</time>
      </trkpt>
      <trkpt lat="43.92638" lon="7.52351">
        <ele>410.35706</ele>
        <time>2014-09-30T10:32:06Z</time>
      </trkpt>
      <trkpt lat="43.92636" lon="7.52348">
        <ele>410.35706</ele>
        <time>2014-09-30T10:32:11Z</time>
      </trkpt>
      <trkpt lat="43.92632" lon="7.52345">
        <ele>410.2814</ele>
        <time>2014-09-30T10:32:16Z</time>
      </trkpt>
      <trkpt lat="43.9263" lon="7.52342">
        <ele>410.2814</ele>
        <time>2014-09-30T10:32:21Z</time>
      </trkpt>
      <trkpt lat="43.92627" lon="7.52337">
        <ele>410.2814</ele>
        <time>2014-09-30T10:32:26Z</time>
      </trkpt>
      <trkpt lat="43.92624" lon="7.52332">
        <ele>409.9859</ele>
        <time>2014-09-30T10:32:31Z</time>
      </trkpt>
      <trkpt lat="43.92619" lon="7.52328">
        <ele>409.9859</ele>
        <time>2014-09-30T10:32:36Z</time>
      </trkpt>
      <trkpt lat="43.92616" lon="7.52327">
        <ele>409.57376</ele>
        <time>2014-09-30T10:32:41Z</time>
      </trkpt>
      <trkpt lat="43.92612" lon="7.52327">
        <ele>409.57376</ele>
        <time>2014-09-30T10:32:47Z</time>
      </trkpt>
      <trkpt lat="43.92606" lon="7.52329">
        <ele>409.0257</ele>
        <time>2014-09-30T10:32:51Z</time>
      </trkpt>
      <trkpt lat="43.92603" lon="7.52325">
        <ele>409.0257</ele>
        <time>2014-09-30T10:32:56Z</time>
      </trkpt>
      <trkpt lat="43.92597" lon="7.52324">
        <ele>408.35287</ele>
        <time>2014-09-30T10:33:01Z</time>
      </trkpt>
      <trkpt lat="43.92592" lon="7.52322">
        <ele>408.35287</ele>
        <time>2014-09-30T10:33:06Z</time>
      </trkpt>
      <trkpt lat="43.92589" lon="7.52318">
        <ele>407.39294</ele>
        <time>2014-09-30T10:33:11Z</time>
      </trkpt>
      <trkpt lat="43.92584" lon="7.52315">
        <ele>407.39294</ele>
        <time>2014-09-30T10:33:16Z</time>
      </trkpt>
      <trkpt lat="43.92577" lon="7.52316">
        <ele>406.1836</ele>
        <time>2014-09-30T10:33:21Z</time>
      </trkpt>
      <trkpt lat="43.92574" lon="7.52314">
        <ele>406.1836</ele>
        <time>2014-09-30T10:33:26Z</time>
      </trkpt>
      <trkpt lat="43.92567" lon="7.52312">
        <ele>404.84686</ele>
        <time>2014-09-30T10:33:31Z</time>
      </trkpt>
      <trkpt lat="43.92561" lon="7.52314">
        <ele>404.84686</ele>
        <time>2014-09-30T10:33:36Z</time>
      </trkpt>
      <trkpt lat="43.92556" lon="7.52316">
        <ele>403.48157</ele>
        <time>2014-09-30T10:33:41Z</time>
      </trkpt>
      <trkpt lat="43.92554" lon="7.52319">
        <ele>403.48157</ele>
        <time>2014-09-30T10:33:46Z</time>
      </trkpt>
      <trkpt lat="43.92548" lon="7.52323">
        <ele>402.09293</ele>
        <time>2014-09-30T10:33:51Z</time>
      </trkpt>
      <trkpt lat="43.92546" lon="7.52324">
        <ele>402.09293</ele>
        <time>2014-09-30T10:33:56Z</time>
      </trkpt>
      <trkpt lat="43.92539" lon="7.52325">
        <ele>400.62796</ele>
        <time>2014-09-30T10:34:01Z</time>
      </trkpt>
      <trkpt lat="43.92536" lon="7.52322">
        <ele>400.62796</ele>
        <time>2014-09-30T10:34:06Z</time>
      </trkpt>
      <trkpt lat="43.92534" lon="7.52323">
        <ele>400.62796</ele>
        <time>2014-09-30T10:34:11Z</time>
      </trkpt>
      <trkpt lat="43.9253" lon="7.52322">
        <ele>398.90817</ele>
        <time>2014-09-30T10:34:16Z</time>
      </trkpt>
      <trkpt lat="43.92526" lon="7.52322">
        <ele>398.90817</ele>
        <time>2014-09-30T10:34:21Z</time>
      </trkpt>
      <trkpt lat="43.92521" lon="7.52322">
        <ele>397.0569</ele>
        <time>2014-09-30T10:34:26Z</time>
      </trkpt>
      <trkpt lat="43.92513" lon="7.52326">
        <ele>397.0569</ele>
        <time>2014-09-30T10:34:31Z</time>
      </trkpt>
      <trkpt lat="43.92507" lon="7.52326">
        <ele>395.14542</ele>
        <time>2014-09-30T10:34:36Z</time>
      </trkpt>
      <trkpt lat="43.92503" lon="7.52325">
        <ele>395.14542</ele>
        <time>2014-09-30T10:34:41Z</time>
      </trkpt>
      <trkpt lat="43.92499" lon="7.52324">
        <ele>395.14542</ele>
        <time>2014-09-30T10:34:46Z</time>
      </trkpt>
      <trkpt lat="43.92496" lon="7.52324">
        <ele>392.9662</ele>
        <time>2014-09-30T10:34:51Z</time>
      </trkpt>
      <trkpt lat="43.92492" lon="7.52323">
        <ele>392.9662</ele>
        <time>2014-09-30T10:34:56Z</time>
      </trkpt>
      <trkpt lat="43.92489" lon="7.52323">
        <ele>392.9662</ele>
        <time>2014-09-30T10:35:01Z</time>
      </trkpt>
      <trkpt lat="43.92485" lon="7.5232">
        <ele>390.8606</ele>
        <time>2014-09-30T10:35:06Z</time>
      </trkpt>
      <trkpt lat="43.92482" lon="7.52316">
        <ele>390.8606</ele>
        <time>2014-09-30T10:35:12Z</time>
      </trkpt>
      <trkpt lat="43.92479" lon="7.52313">
        <ele>390.8606</ele>
        <time>2014-09-30T10:35:16Z</time>
      </trkpt>
      <trkpt lat="43.92474" lon="7.52309">
        <ele>388.71237</ele>
        <time>2014-09-30T10:35:21Z</time>
      </trkpt>
      <trkpt lat="43.92469" lon="7.52304">
        <ele>388.71237</ele>
        <time>2014-09-30T10:35:26Z</time>
      </trkpt>
      <trkpt lat="43.92465" lon="7.52299">
        <ele>386.73087</ele>
        <time>2014-09-30T10:35:31Z</time>
      </trkpt>
      <trkpt lat="43.9246" lon="7.52298">
        <ele>386.73087</ele>
        <time>2014-09-30T10:35:36Z</time>
      </trkpt>
      <trkpt lat="43.92457" lon="7.52297">
        <ele>386.73087</ele>
        <time>2014-09-30T10:35:41Z</time>
      </trkpt>
      <trkpt lat="43.92454" lon="7.52294">
        <ele>385.03735</ele>
        <time>2014-09-30T10:35:46Z</time>
      </trkpt>
      <trkpt lat="43.92449" lon="7.52289">
        <ele>385.03735</ele>
        <time>2014-09-30T10:35:51Z</time>
      </trkpt>
      <trkpt lat="43.92446" lon="7.52286">
        <ele>383.6424</ele>
        <time>2014-09-30T10:35:56Z</time>
      </trkpt>
      <trkpt lat="43.92443" lon="7.52281">
        <ele>383.6424</ele>
        <time>2014-09-30T10:36:01Z</time>
      </trkpt>
      <trkpt lat="43.9244" lon="7.52278">
        <ele>383.6424</ele>
        <time>2014-09-30T10:36:06Z</time>
      </trkpt>
      <trkpt lat="43.92434" lon="7.52278">
        <ele>382.45395</ele>
        <time>2014-09-30T10:36:11Z</time>
      </trkpt>
      <trkpt lat="43.92431" lon="7.52278">
        <ele>382.45395</ele>
        <time>2014-09-30T10:36:16Z</time>
      </trkpt>
      <trkpt lat="43.92427" lon="7.52281">
        <ele>382.45395</ele>
        <time>2014-09-30T10:36:21Z</time>
      </trkpt>
      <trkpt lat="43.92424" lon="7.52283">
        <ele>381.41486</ele>
        <time>2014-09-30T10:36:26Z</time>
      </trkpt>
      <trkpt lat="43.9242" lon="7.52284">
        <ele>381.41486</ele>
        <time>2014-09-30T10:36:31Z</time>
      </trkpt>
      <trkpt lat="43.92418" lon="7.52287">
        <ele>381.41486</ele>
        <time>2014-09-30T10:36:36Z</time>
      </trkpt>
      <trkpt lat="43.92413" lon="7.5229">
        <ele>380.3852</ele>
        <time>2014-09-30T10:36:41Z</time>
      </trkpt>
      <trkpt lat="43.92408" lon="7.52293">
        <ele>380.3852</ele>
        <time>2014-09-30T10:36:46Z</time>
      </trkpt>
      <trkpt lat="43.92404" lon="7.523">
        <ele>379.20624</ele>
        <time>2014-09-30T10:36:51Z</time>
      </trkpt>
      <trkpt lat="43.924" lon="7.52305">
        <ele>379.20624</ele>
        <time>2014-09-30T10:36:56Z</time>
      </trkpt>
      <trkpt lat="43.92396" lon="7.52308">
        <ele>377.84668</ele>
        <time>2014-09-30T10:37:01Z</time>
      </trkpt>
      <trkpt lat="43.92393" lon="7.52309">
        <ele>377.84668</ele>
        <time>2014-09-30T10:37:06Z</time>
      </trkpt>
      <trkpt lat="43.92388" lon="7.52306">
        <ele>377.84668</ele>
        <time>2014-09-30T10:37:11Z</time>
      </trkpt>
      <trkpt lat="43.92384" lon="7.52305">
        <ele>376.56607</ele>
        <time>2014-09-30T10:37:16Z</time>
      </trkpt>
      <trkpt lat="43.9238" lon="7.523">
        <ele>376.56607</ele>
        <time>2014-09-30T10:37:21Z</time>
      </trkpt>
      <trkpt lat="43.92379" lon="7.52297">
        <ele>376.56607</ele>
        <time>2014-09-30T10:37:26Z</time>
      </trkpt>
      <trkpt lat="43.92375" lon="7.52294">
        <ele>375.3596</ele>
        <time>2014-09-30T10:37:31Z</time>
      </trkpt>
      <trkpt lat="43.9237" lon="7.5229">
        <ele>375.3596</ele>
        <time>2014-09-30T10:37:36Z</time>
      </trkpt>
      <trkpt lat="43.92366" lon="7.52288">
        <ele>374.2945</ele>
        <time>2014-09-30T10:37:41Z</time>
      </trkpt>
      <trkpt lat="43.9236" lon="7.52284">
        <ele>374.2945</ele>
        <time>2014-09-30T10:37:46Z</time>
      </trkpt>
      <trkpt lat="43.92356" lon="7.52278">
        <ele>373.9371</ele>
        <time>2014-09-30T10:37:51Z</time>
      </trkpt>
      <trkpt lat="43.92351" lon="7.52276">
        <ele>373.9371</ele>
        <time>2014-09-30T10:37:56Z</time>
      </trkpt>
      <trkpt lat="43.92353" lon="7.52275">
        <ele>373.9371</ele>
        <time>2014-09-30T10:38:01Z</time>
      </trkpt>
      <trkpt lat="43.92356" lon="7.52276">
        <ele>374.06064</ele>
        <time>2014-09-30T10:38:06Z</time>
      </trkpt>
      <trkpt lat="43.92358" lon="7.52278">
        <ele>374.06064</ele>
        <time>2014-09-30T10:38:11Z</time>
      </trkpt>
      <trkpt lat="43.92358" lon="7.52278">
        <ele>374.06064</ele>
        <time>2014-09-30T10:38:16Z</time>
      </trkpt>
      <trkpt lat="43.92355" lon="7.52274">
        <ele>374.06064</ele>
        <time>2014-09-30T10:38:21Z</time>
      </trkpt>
      <trkpt lat="43.92357" lon="7.52271">
        <ele>374.43912</ele>
        <time>2014-09-30T10:38:26Z</time>
      </trkpt>
      <trkpt lat="43.92358" lon="7.52266">
        <ele>374.43912</ele>
        <time>2014-09-30T10:38:31Z</time>
      </trkpt>
      <trkpt lat="43.9236" lon="7.52257">
        <ele>375.0066</ele>
        <time>2014-09-30T10:38:36Z</time>
      </trkpt>
      <trkpt lat="43.92354" lon="7.52249">
        <ele>375.0066</ele>
        <time>2014-09-30T10:38:41Z</time>
      </trkpt>
      <trkpt lat="43.92349" lon="7.52247">
        <ele>375.60043</ele>
        <time>2014-09-30T10:38:46Z</time>
      </trkpt>
      <trkpt lat="43.92344" lon="7.52245">
        <ele>375.60043</ele>
        <time>2014-09-30T10:38:51Z</time>
      </trkpt>
      <trkpt lat="43.9234" lon="7.52243">
        <ele>376.06995</ele>
        <time>2014-09-30T10:38:57Z</time>
      </trkpt>
      <trkpt lat="43.92333" lon="7.52244">
        <ele>376.06995</ele>
        <time>2014-09-30T10:39:01Z</time>
      </trkpt>
      <trkpt lat="43.92327" lon="7.52242">
        <ele>376.63605</ele>
        <time>2014-09-30T10:39:06Z</time>
      </trkpt>
      <trkpt lat="43.92321" lon="7.5224">
        <ele>376.63605</ele>
        <time>2014-09-30T10:39:11Z</time>
      </trkpt>
      <trkpt lat="43.92316" lon="7.52241">
        <ele>377.3735</ele>
        <time>2014-09-30T10:39:16Z</time>
      </trkpt>
      <trkpt lat="43.92314" lon="7.52242">
        <ele>377.3735</ele>
        <time>2014-09-30T10:39:21Z</time>
      </trkpt>
      <trkpt lat="43.9231" lon="7.52243">
        <ele>377.3735</ele>
        <time>2014-09-30T10:39:26Z</time>
      </trkpt>
      <trkpt lat="43.92306" lon="7.52241">
        <ele>378.5961</ele>
        <time>2014-09-30T10:39:31Z</time>
      </trkpt>
      <trkpt lat="43.92301" lon="7.52238">
        <ele>378.5961</ele>
        <time>2014-09-30T10:39:36Z</time>
      </trkpt>
      <trkpt lat="43.92298" lon="7.52234">
        <ele>379.9448</ele>
        <time>2014-09-30T10:39:41Z</time>
      </trkpt>
      <trkpt lat="43.92298" lon="7.52231">
        <ele>379.9448</ele>
        <time>2014-09-30T10:39:46Z</time>
      </trkpt>
      <trkpt lat="43.92295" lon="7.52227">
        <ele>379.9448</ele>
        <time>2014-09-30T10:39:51Z</time>
      </trkpt>
      <trkpt lat="43.92291" lon="7.52223">
        <ele>381.60538</ele>
        <time>2014-09-30T10:39:56Z</time>
      </trkpt>
      <trkpt lat="43.92286" lon="7.52223">
        <ele>381.60538</ele>
        <time>2014-09-30T10:40:01Z</time>
      </trkpt>
      <trkpt lat="43.92283" lon="7.52224">
        <ele>381.60538</ele>
        <time>2014-09-30T10:40:06Z</time>
      </trkpt>
      <trkpt lat="43.92279" lon="7.52222">
        <ele>383.25925</ele>
        <time>2014-09-30T10:40:11Z</time>
      </trkpt>
      <trkpt lat="43.92274" lon="7.5222">
        <ele>383.25925</ele>
        <time>2014-09-30T10:40:16Z</time>
      </trkpt>
      <trkpt lat="43.92268" lon="7.5222">
        <ele>384.813</ele>
        <time>2014-09-30T10:40:21Z</time>
      </trkpt>
      <trkpt lat="43.92261" lon="7.52218">
        <ele>384.813</ele>
        <time>2014-09-30T10:40:26Z</time>
      </trkpt>
      <trkpt lat="43.92257" lon="7.52216">
        <ele>386.2814</ele>
        <time>2014-09-30T10:40:31Z</time>
      </trkpt>
      <trkpt lat="43.92253" lon="7.52215">
        <ele>386.2814</ele>
        <time>2014-09-30T10:40:36Z</time>
      </trkpt>
      <trkpt lat="43.92249" lon="7.52213">
        <ele>386.2814</ele>
        <time>2014-09-30T10:40:41Z</time>
      </trkpt>
      <trkpt lat="43.92248" lon="7.52213">
        <ele>387.73618</ele>
        <time>2014-09-30T10:40:46Z</time>
      </trkpt>
      <trkpt lat="43.92245" lon="7.52214">
        <ele>387.73618</ele>
        <time>2014-09-30T10:40:51Z</time>
      </trkpt>
      <trkpt lat="43.92241" lon="7.52214">
        <ele>387.73618</ele>
        <time>2014-09-30T10:40:56Z</time>
      </trkpt>
      <trkpt lat="43.92235" lon="7.52213">
        <ele>389.41675</ele>
        <time>2014-09-30T10:41:01Z</time>
      </trkpt>
      <trkpt lat="43.92227" lon="7.52209">
        <ele>389.41675</ele>
        <time>2014-09-30T10:41:06Z</time>
      </trkpt>
      <trkpt lat="43.92222" lon="7.52206">
        <ele>391.1987</ele>
        <time>2014-09-30T10:41:11Z</time>
      </trkpt>
      <trkpt lat="43.92221" lon="7.52203">
        <ele>391.1987</ele>
        <time>2014-09-30T10:41:16Z</time>
      </trkpt>
      <trkpt lat="43.9222" lon="7.52208">
        <ele>391.1987</ele>
        <time>2014-09-30T10:41:21Z</time>
      </trkpt>
      <trkpt lat="43.92216" lon="7.52207">
        <ele>393.2116</ele>
        <time>2014-09-30T10:41:26Z</time>
      </trkpt>
      <trkpt lat="43.92211" lon="7.52205">
        <ele>393.2116</ele>
        <time>2014-09-30T10:41:31Z</time>
      </trkpt>
      <trkpt lat="43.92206" lon="7.52204">
        <ele>395.32996</ele>
        <time>2014-09-30T10:41:36Z</time>
      </trkpt>
      <trkpt lat="43.92201" lon="7.52202">
        <ele>395.32996</ele>
        <time>2014-09-30T10:41:41Z</time>
      </trkpt>
      <trkpt lat="43.92196" lon="7.52202">
        <ele>397.68243</ele>
        <time>2014-09-30T10:41:46Z</time>
      </trkpt>
      <trkpt lat="43.92191" lon="7.52202">
        <ele>397.68243</ele>
        <time>2014-09-30T10:41:51Z</time>
      </trkpt>
      <trkpt lat="43.92185" lon="7.52203">
        <ele>400.20038</ele>
        <time>2014-09-30T10:41:56Z</time>
      </trkpt>
      <trkpt lat="43.9218" lon="7.52202">
        <ele>400.20038</ele>
        <time>2014-09-30T10:42:01Z</time>
      </trkpt>
      <trkpt lat="43.92176" lon="7.52201">
        <ele>402.63254</ele>
        <time>2014-09-30T10:42:06Z</time>
      </trkpt>
      <trkpt lat="43.9217" lon="7.52202">
        <ele>402.63254</ele>
        <time>2014-09-30T10:42:11Z</time>
      </trkpt>
      <trkpt lat="43.92166" lon="7.52203">
        <ele>404.8763</ele>
        <time>2014-09-30T10:42:16Z</time>
      </trkpt>
      <trkpt lat="43.92162" lon="7.52205">
        <ele>404.8763</ele>
        <time>2014-09-30T10:42:21Z</time>
      </trkpt>
      <trkpt lat="43.92159" lon="7.52205">
        <ele>404.8763</ele>
        <time>2014-09-30T10:42:26Z</time>
      </trkpt>
      <trkpt lat="43.92154" lon="7.52204">
        <ele>406.63562</ele>
        <time>2014-09-30T10:42:31Z</time>
      </trkpt>
      <trkpt lat="43.92148" lon="7.52204">
        <ele>406.63562</ele>
        <time>2014-09-30T10:42:36Z</time>
      </trkpt>
      <trkpt lat="43.92145" lon="7.52204">
        <ele>408.04117</ele>
        <time>2014-09-30T10:42:41Z</time>
      </trkpt>
      <trkpt lat="43.9214" lon="7.52206">
        <ele>408.04117</ele>
        <time>2014-09-30T10:42:46Z</time>
      </trkpt>
      <trkpt lat="43.92134" lon="7.52208">
        <ele>409.18646</ele>
        <time>2014-09-30T10:42:51Z</time>
      </trkpt>
      <trkpt lat="43.92127" lon="7.52208">
        <ele>409.18646</ele>
        <time>2014-09-30T10:42:56Z</time>
      </trkpt>
      <trkpt lat="43.92123" lon="7.52209">
        <ele>409.92856</ele>
        <time>2014-09-30T10:43:02Z</time>
      </trkpt>
      <trkpt lat="43.92116" lon="7.52209">
        <ele>409.92856</ele>
        <time>2014-09-30T10:43:06Z</time>
      </trkpt>
      <trkpt lat="43.92109" lon="7.52209">
        <ele>410.30917</ele>
        <time>2014-09-30T10:43:11Z</time>
      </trkpt>
      <trkpt lat="43.92104" lon="7.52212">
        <ele>410.30917</ele>
        <time>2014-09-30T10:43:16Z</time>
      </trkpt>
      <trkpt lat="43.92099" lon="7.52215">
        <ele>410.3971</ele>
        <time>2014-09-30T10:43:21Z</time>
      </trkpt>
      <trkpt lat="43.92094" lon="7.52218">
        <ele>410.3971</ele>
        <time>2014-09-30T10:43:27Z</time>
      </trkpt>
      <trkpt lat="43.92087" lon="7.52216">
        <ele>410.51642</ele>
        <time>2014-09-30T10:43:31Z</time>
      </trkpt>
      <trkpt lat="43.92082" lon="7.5221">
        <ele>410.51642</ele>
        <time>2014-09-30T10:43:36Z</time>
      </trkpt>
      <trkpt lat="43.92075" lon="7.52209">
        <ele>410.73694</ele>
        <time>2014-09-30T10:43:41Z</time>
      </trkpt>
      <trkpt lat="43.9207" lon="7.52205">
        <ele>410.73694</ele>
        <time>2014-09-30T10:43:46Z</time>
      </trkpt>
      <trkpt lat="43.92066" lon="7.52203">
        <ele>411.0656</ele>
        <time>2014-09-30T10:43:51Z</time>
      </trkpt>
      <trkpt lat="43.9206" lon="7.52196">
        <ele>411.0656</ele>
        <time>2014-09-30T10:43:56Z</time>
      </trkpt>
      <trkpt lat="43.92058" lon="7.52195">
        <ele>411.3213</ele>
        <time>2014-09-30T10:44:01Z</time>
      </trkpt>
      <trkpt lat="43.92053" lon="7.52189">
        <ele>411.3213</ele>
        <time>2014-09-30T10:44:06Z</time>
      </trkpt>
      <trkpt lat="43.92056" lon="7.52183">
        <ele>411.3503</ele>
        <time>2014-09-30T10:44:11Z</time>
      </trkpt>
      <trkpt lat="43.92059" lon="7.52178">
        <ele>411.37933</ele>
        <time>2014-09-30T10:44:16Z</time>
      </trkpt>
      <trkpt lat="43.92063" lon="7.52165">
        <ele>411.40836</ele>
        <time>2014-09-30T10:44:21Z</time>
      </trkpt>
      <trkpt lat="43.92064" lon="7.52152">
        <ele>411.43738</ele>
        <time>2014-09-30T10:44:26Z</time>
      </trkpt>
      <trkpt lat="43.92062" lon="7.5214">
        <ele>411.4664</ele>
        <time>2014-09-30T10:44:31Z</time>
      </trkpt>
      <trkpt lat="43.92065" lon="7.52128">
        <ele>411.49545</ele>
        <time>2014-09-30T10:44:36Z</time>
      </trkpt>
      <trkpt lat="43.92065" lon="7.5212">
        <ele>411.52448</ele>
        <time>2014-09-30T10:44:41Z</time>
      </trkpt>
      <trkpt lat="43.92061" lon="7.52114">
        <ele>411.5535</ele>
        <time>2014-09-30T10:44:46Z</time>
      </trkpt>
      <trkpt lat="43.92058" lon="7.52113">
        <ele>411.58252</ele>
        <time>2014-09-30T10:44:51Z</time>
      </trkpt>
      <trkpt lat="43.92054" lon="7.5211">
        <ele>411.61154</ele>
        <time>2014-09-30T10:44:56Z</time>
      </trkpt>
      <trkpt lat="43.92049" lon="7.52108">
        <ele>411.6406</ele>
        <time>2014-09-30T10:45:01Z</time>
      </trkpt>
      <trkpt lat="43.92045" lon="7.52108">
        <ele>411.66962</ele>
        <time>2014-09-30T10:45:06Z</time>
      </trkpt>
      <trkpt lat="43.92042" lon="7.52108">
        <ele>411.69864</ele>
        <time>2014-09-30T10:45:11Z</time>
      </trkpt>
      <trkpt lat="43.92039" lon="7.52106">
        <ele>411.72766</ele>
        <time>2014-09-30T10:45:16Z</time>
      </trkpt>
      <trkpt lat="43.92037" lon="7.52106">
        <ele>411.75668</ele>
        <time>2014-09-30T10:45:21Z</time>
      </trkpt>
      <trkpt lat="43.92033" lon="7.52106">
        <ele>411.78574</ele>
        <time>2014-09-30T10:45:26Z</time>
      </trkpt>
      <trkpt lat="43.9203" lon="7.52108">
        <ele>411.81476</ele>
        <time>2014-09-30T10:45:31Z</time>
      </trkpt>
      <trkpt lat="43.92026" lon="7.52105">
        <ele>411.84378</ele>
        <time>2014-09-30T10:45:36Z</time>
      </trkpt>
      <trkpt lat="43.92024" lon="7.52103">
        <ele>411.8728</ele>
        <time>2014-09-30T10:45:41Z</time>
      </trkpt>
      <trkpt lat="43.92018" lon="7.52098">
        <ele>411.90182</ele>
        <time>2014-09-30T10:45:47Z</time>
      </trkpt>
      <trkpt lat="43.92018" lon="7.52096">
        <ele>411.93088</ele>
        <time>2014-09-30T10:45:51Z</time>
      </trkpt>
      <trkpt lat="43.92017" lon="7.52094">
        <ele>411.9599</ele>
        <time>2014-09-30T10:45:56Z</time>
      </trkpt>
      <trkpt lat="43.92011" lon="7.52093">
        <ele>411.98892</ele>
        <time>2014-09-30T10:46:01Z</time>
      </trkpt>
      <trkpt lat="43.92008" lon="7.52089">
        <ele>412.01794</ele>
        <time>2014-09-30T10:46:06Z</time>
      </trkpt>
      <trkpt lat="43.92005" lon="7.52088">
        <ele>412.04697</ele>
        <time>2014-09-30T10:46:11Z</time>
      </trkpt>
      <trkpt lat="43.92002" lon="7.52086">
        <ele>412.07602</ele>
        <time>2014-09-30T10:46:16Z</time>
      </trkpt>
      <trkpt lat="43.92" lon="7.52081">
        <ele>412.10504</ele>
        <time>2014-09-30T10:46:21Z</time>
      </trkpt>
      <trkpt lat="43.91997" lon="7.52079">
        <ele>412.13406</ele>
        <time>2014-09-30T10:46:26Z</time>
      </trkpt>
      <trkpt lat="43.91995" lon="7.52079">
        <ele>412.1631</ele>
        <time>2014-09-30T10:46:31Z</time>
      </trkpt>
      <trkpt lat="43.91992" lon="7.52077">
        <ele>412.1921</ele>
        <time>2014-09-30T10:46:36Z</time>
      </trkpt>
      <trkpt lat="43.91991" lon="7.52077">
        <ele>412.22116</ele>
        <time>2014-09-30T10:46:41Z</time>
      </trkpt>
      <trkpt lat="43.9199" lon="7.52072">
        <ele>412.25018</ele>
        <time>2014-09-30T10:46:46Z</time>
      </trkpt>
      <trkpt lat="43.91988" lon="7.5207">
        <ele>412.2792</ele>
        <time>2014-09-30T10:46:51Z</time>
      </trkpt>
      <trkpt lat="43.91987" lon="7.5207">
        <ele>412.30823</ele>
        <time>2014-09-30T10:46:56Z</time>
      </trkpt>
      <trkpt lat="43.91984" lon="7.52068">
        <ele>412.33725</ele>
        <time>2014-09-30T10:47:01Z</time>
      </trkpt>
      <trkpt lat="43.91977" lon="7.52066">
        <ele>412.3663</ele>
        <time>2014-09-30T10:47:06Z</time>
      </trkpt>
      <trkpt lat="43.91974" lon="7.52066">
        <ele>412.39532</ele>
        <time>2014-09-30T10:47:11Z</time>
      </trkpt>
      <trkpt lat="43.91971" lon="7.52064">
        <ele>412.42435</ele>
        <time>2014-09-30T10:47:16Z</time>
      </trkpt>
      <trkpt lat="43.91969" lon="7.52062">
        <ele>412.45337</ele>
        <time>2014-09-30T10:47:21Z</time>
      </trkpt>
      <trkpt lat="43.91968" lon="7.52062">
        <ele>412.4824</ele>
        <time>2014-09-30T10:47:26Z</time>
      </trkpt>
      <trkpt lat="43.91967" lon="7.52061">
        <ele>412.51144</ele>
        <time>2014-09-30T10:47:32Z</time>
      </trkpt>
      <trkpt lat="43.91966" lon="7.5206">
        <ele>412.54047</ele>
        <time>2014-09-30T10:47:36Z</time>
      </trkpt>
      <trkpt lat="43.91966" lon="7.52062">
        <ele>412.5695</ele>
        <time>2014-09-30T10:47:41Z</time>
      </trkpt>
      <trkpt lat="43.91962" lon="7.52063">
        <ele>412.5985</ele>
        <time>2014-09-30T10:47:46Z</time>
      </trkpt>
      <trkpt lat="43.91959" lon="7.5206">
        <ele>412.62753</ele>
        <time>2014-09-30T10:47:51Z</time>
      </trkpt>
      <trkpt lat="43.91955" lon="7.52062">
        <ele>412.6566</ele>
        <time>2014-09-30T10:47:56Z</time>
      </trkpt>
      <trkpt lat="43.91949" lon="7.52064">
        <ele>412.6856</ele>
        <time>2014-09-30T10:48:01Z</time>
      </trkpt>
      <trkpt lat="43.91947" lon="7.52065">
        <ele>412.71463</ele>
        <time>2014-09-30T10:48:06Z</time>
      </trkpt>
      <trkpt lat="43.91943" lon="7.52065">
        <ele>412.74365</ele>
        <time>2014-09-30T10:48:11Z</time>
      </trkpt>
      <trkpt lat="43.91937" lon="7.52066">
        <ele>412.77267</ele>
        <time>2014-09-30T10:48:16Z</time>
      </trkpt>
      <trkpt lat="43.91932" lon="7.52067">
        <ele>412.80173</ele>
        <time>2014-09-30T10:48:21Z</time>
      </trkpt>
      <trkpt lat="43.91928" lon="7.52067">
        <ele>412.83075</ele>
        <time>2014-09-30T10:48:26Z</time>
      </trkpt>
      <trkpt lat="43.91926" lon="7.52068">
        <ele>412.85977</ele>
        <time>2014-09-30T10:48:31Z</time>
      </trkpt>
      <trkpt lat="43.91917" lon="7.52071">
        <ele>412.8888</ele>
        <time>2014-09-30T10:48:36Z</time>
      </trkpt>
      <trkpt lat="43.91913" lon="7.5207">
        <ele>412.91782</ele>
        <time>2014-09-30T10:48:41Z</time>
      </trkpt>
      <trkpt lat="43.91911" lon="7.52071">
        <ele>412.94687</ele>
        <time>2014-09-30T10:48:46Z</time>
      </trkpt>
      <trkpt lat="43.91908" lon="7.52074">
        <ele>412.9759</ele>
        <time>2014-09-30T10:48:51Z</time>
      </trkpt>
      <trkpt lat="43.91903" lon="7.52078">
        <ele>413.0049</ele>
        <time>2014-09-30T10:48:56Z</time>
      </trkpt>
      <trkpt lat="43.91899" lon="7.52075">
        <ele>413.03394</ele>
        <time>2014-09-30T10:49:02Z</time>
      </trkpt>
      <trkpt lat="43.91897" lon="7.52072">
        <ele>413.06296</ele>
        <time>2014-09-30T10:49:06Z</time>
      </trkpt>
      <trkpt lat="43.91893" lon="7.52071">
        <ele>413.09198</ele>
        <time>2014-09-30T10:49:11Z</time>
      </trkpt>
      <trkpt lat="43.91888" lon="7.52071">
        <ele>413.12103</ele>
        <time>2014-09-30T10:49:17Z</time>
      </trkpt>
      <trkpt lat="43.91882" lon="7.52071">
        <ele>413.15005</ele>
        <time>2014-09-30T10:49:21Z</time>
      </trkpt>
      <trkpt lat="43.91873" lon="7.52075">
        <ele>413.17908</ele>
        <time>2014-09-30T10:49:26Z</time>
      </trkpt>
      <trkpt lat="43.91867" lon="7.52075">
        <ele>413.2081</ele>
        <time>2014-09-30T10:49:31Z</time>
      </trkpt>
      <trkpt lat="43.91863" lon="7.52073">
        <ele>413.23712</ele>
        <time>2014-09-30T10:49:36Z</time>
      </trkpt>
      <trkpt lat="43.91859" lon="7.52073">
        <ele>413.26617</ele>
        <time>2014-09-30T10:49:41Z</time>
      </trkpt>
      <trkpt lat="43.91853" lon="7.52076">
        <ele>413.2952</ele>
        <time>2014-09-30T10:49:46Z</time>
      </trkpt>
      <trkpt lat="43.91848" lon="7.5208">
        <ele>413.32422</ele>
        <time>2014-09-30T10:49:51Z</time>
      </trkpt>
      <trkpt lat="43.91845" lon="7.5208">
        <ele>413.35324</ele>
        <time>2014-09-30T10:49:56Z</time>
      </trkpt>
      <trkpt lat="43.91839" lon="7.5208">
        <ele>413.38226</ele>
        <time>2014-09-30T10:50:01Z</time>
      </trkpt>
      <trkpt lat="43.91836" lon="7.52078">
        <ele>413.41132</ele>
        <time>2014-09-30T10:50:06Z</time>
      </trkpt>
      <trkpt lat="43.91834" lon="7.52077">
        <ele>413.44034</ele>
        <time>2014-09-30T10:50:11Z</time>
      </trkpt>
      <trkpt lat="43.91831" lon="7.52076">
        <ele>413.46936</ele>
        <time>2014-09-30T10:50:16Z</time>
      </trkpt>
      <trkpt lat="43.91827" lon="7.52081">
        <ele>413.49838</ele>
        <time>2014-09-30T10:50:21Z</time>
      </trkpt>
      <trkpt lat="43.91825" lon="7.52084">
        <ele>413.5274</ele>
        <time>2014-09-30T10:50:26Z</time>
      </trkpt>
      <trkpt lat="43.91817" lon="7.52093">
        <ele>413.55646</ele>
        <time>2014-09-30T10:50:31Z</time>
      </trkpt>
      <trkpt lat="43.91814" lon="7.52099">
        <ele>413.58548</ele>
        <time>2014-09-30T10:50:37Z</time>
      </trkpt>
      <trkpt lat="43.9181" lon="7.52105">
        <ele>413.6145</ele>
        <time>2014-09-30T10:50:41Z</time>
      </trkpt>
      <trkpt lat="43.91805" lon="7.52111">
        <ele>413.64352</ele>
        <time>2014-09-30T10:50:46Z</time>
      </trkpt>
      <trkpt lat="43.91803" lon="7.52114">
        <ele>413.67255</ele>
        <time>2014-09-30T10:50:51Z</time>
      </trkpt>
      <trkpt lat="43.918" lon="7.52114">
        <ele>413.7016</ele>
        <time>2014-09-30T10:50:56Z</time>
      </trkpt>
      <trkpt lat="43.91798" lon="7.52114">
        <ele>413.73062</ele>
        <time>2014-09-30T10:51:01Z</time>
      </trkpt>
      <trkpt lat="43.91795" lon="7.52116">
        <ele>413.75964</ele>
        <time>2014-09-30T10:51:06Z</time>
      </trkpt>
      <trkpt lat="43.9179" lon="7.52121">
        <ele>413.78867</ele>
        <time>2014-09-30T10:51:11Z</time>
      </trkpt>
      <trkpt lat="43.91788" lon="7.52122">
        <ele>413.8177</ele>
        <time>2014-09-30T10:51:16Z</time>
      </trkpt>
      <trkpt lat="43.91786" lon="7.52124">
        <ele>413.84674</ele>
        <time>2014-09-30T10:51:21Z</time>
      </trkpt>
      <trkpt lat="43.91782" lon="7.52126">
        <ele>413.87576</ele>
        <time>2014-09-30T10:51:26Z</time>
      </trkpt>
      <trkpt lat="43.91779" lon="7.52125">
        <ele>413.9048</ele>
        <time>2014-09-30T10:51:31Z</time>
      </trkpt>
      <trkpt lat="43.91776" lon="7.52124">
        <ele>413.9338</ele>
        <time>2014-09-30T10:51:37Z</time>
      </trkpt>
      <trkpt lat="43.91771" lon="7.52125">
        <ele>413.96283</ele>
        <time>2014-09-30T10:51:41Z</time>
      </trkpt>
      <trkpt lat="43.91768" lon="7.52125">
        <ele>413.99188</ele>
        <time>2014-09-30T10:51:46Z</time>
      </trkpt>
      <trkpt lat="43.91764" lon="7.52124">
        <ele>414.0209</ele>
        <time>2014-09-30T10:51:51Z</time>
      </trkpt>
      <trkpt lat="43.9176" lon="7.52128">
        <ele>414.04993</ele>
        <time>2014-09-30T10:51:56Z</time>
      </trkpt>
      <trkpt lat="43.91758" lon="7.52134">
        <ele>414.07895</ele>
        <time>2014-09-30T10:52:01Z</time>
      </trkpt>
      <trkpt lat="43.91755" lon="7.52134">
        <ele>414.10797</ele>
        <time>2014-09-30T10:52:06Z</time>
      </trkpt>
      <trkpt lat="43.91752" lon="7.52138">
        <ele>414.13702</ele>
        <time>2014-09-30T10:52:11Z</time>
      </trkpt>
      <trkpt lat="43.9175" lon="7.52141">
        <ele>414.16605</ele>
        <time>2014-09-30T10:52:16Z</time>
      </trkpt>
      <trkpt lat="43.91743" lon="7.52146">
        <ele>414.19507</ele>
        <time>2014-09-30T10:52:22Z</time>
      </trkpt>
      <trkpt lat="43.91737" lon="7.52144">
        <ele>414.2241</ele>
        <time>2014-09-30T10:52:26Z</time>
      </trkpt>
      <trkpt lat="43.91731" lon="7.52144">
        <ele>414.2531</ele>
        <time>2014-09-30T10:52:31Z</time>
      </trkpt>
      <trkpt lat="43.91729" lon="7.52145">
        <ele>414.28217</ele>
        <time>2014-09-30T10:52:36Z</time>
      </trkpt>
      <trkpt lat="43.91727" lon="7.52148">
        <ele>414.3112</ele>
        <time>2014-09-30T10:52:41Z</time>
      </trkpt>
      <trkpt lat="43.91723" lon="7.52148">
        <ele>414.3402</ele>
        <time>2014-09-30T10:52:46Z</time>
      </trkpt>
      <trkpt lat="43.91717" lon="7.52149">
        <ele>414.36923</ele>
        <time>2014-09-30T10:52:51Z</time>
      </trkpt>
      <trkpt lat="43.91711" lon="7.52149">
        <ele>414.39825</ele>
        <time>2014-09-30T10:52:56Z</time>
      </trkpt>
      <trkpt lat="43.91709" lon="7.52144">
        <ele>414.4273</ele>
        <time>2014-09-30T10:53:01Z</time>
      </trkpt>
      <trkpt lat="43.91705" lon="7.52143">
        <ele>414.45633</ele>
        <time>2014-09-30T10:53:06Z</time>
      </trkpt>
      <trkpt lat="43.91702" lon="7.52141">
        <ele>414.48535</ele>
        <time>2014-09-30T10:53:11Z</time>
      </trkpt>
      <trkpt lat="43.91699" lon="7.52144">
        <ele>414.51437</ele>
        <time>2014-09-30T10:53:16Z</time>
      </trkpt>
      <trkpt lat="43.91696" lon="7.52146">
        <ele>414.5434</ele>
        <time>2014-09-30T10:53:21Z</time>
      </trkpt>
      <trkpt lat="43.91691" lon="7.52148">
        <ele>414.57245</ele>
        <time>2014-09-30T10:53:26Z</time>
      </trkpt>
      <trkpt lat="43.91687" lon="7.52147">
        <ele>414.60147</ele>
        <time>2014-09-30T10:53:31Z</time>
      </trkpt>
      <trkpt lat="43.91681" lon="7.52149">
        <ele>414.6305</ele>
        <time>2014-09-30T10:53:36Z</time>
      </trkpt>
      <trkpt lat="43.91677" lon="7.52147">
        <ele>414.65952</ele>
        <time>2014-09-30T10:53:41Z</time>
      </trkpt>
      <trkpt lat="43.91672" lon="7.52147">
        <ele>414.68854</ele>
        <time>2014-09-30T10:53:46Z</time>
      </trkpt>
      <trkpt lat="43.91667" lon="7.52148">
        <ele>414.71756</ele>
        <time>2014-09-30T10:53:51Z</time>
      </trkpt>
      <trkpt lat="43.91662" lon="7.52152">
        <ele>414.7466</ele>
        <time>2014-09-30T10:53:56Z</time>
      </trkpt>
      <trkpt lat="43.91659" lon="7.52155">
        <ele>414.77563</ele>
        <time>2014-09-30T10:54:01Z</time>
      </trkpt>
      <trkpt lat="43.91656" lon="7.52154">
        <ele>414.80466</ele>
        <time>2014-09-30T10:54:06Z</time>
      </trkpt>
      <trkpt lat="43.91651" lon="7.52152">
        <ele>414.83368</ele>
        <time>2014-09-30T10:54:11Z</time>
      </trkpt>
      <trkpt lat="43.91648" lon="7.52152">
        <ele>414.8627</ele>
        <time>2014-09-30T10:54:16Z</time>
      </trkpt>
      <trkpt lat="43.91646" lon="7.52151">
        <ele>414.89175</ele>
        <time>2014-09-30T10:54:21Z</time>
      </trkpt>
      <trkpt lat="43.91644" lon="7.52153">
        <ele>414.92078</ele>
        <time>2014-09-30T10:54:26Z</time>
      </trkpt>
      <trkpt lat="43.91641" lon="7.52154">
        <ele>414.9498</ele>
        <time>2014-09-30T10:54:31Z</time>
      </trkpt>
      <trkpt lat="43.91636" lon="7.52154">
        <ele>414.97882</ele>
        <time>2014-09-30T10:54:36Z</time>
      </trkpt>
      <trkpt lat="43.91632" lon="7.5215">
        <ele>415.00784</ele>
        <time>2014-09-30T10:54:41Z</time>
      </trkpt>
      <trkpt lat="43.9163" lon="7.52151">
        <ele>415.0369</ele>
        <time>2014-09-30T10:54:46Z</time>
      </trkpt>
      <trkpt lat="43.91626" lon="7.52151">
        <ele>415.06592</ele>
        <time>2014-09-30T10:54:51Z</time>
      </trkpt>
      <trkpt lat="43.91625" lon="7.5215">
        <ele>415.09494</ele>
        <time>2014-09-30T10:54:56Z</time>
      </trkpt>
      <trkpt lat="43.91621" lon="7.52152">
        <ele>415.12396</ele>
        <time>2014-09-30T10:55:02Z</time>
      </trkpt>
      <trkpt lat="43.91618" lon="7.52155">
        <ele>415.15298</ele>
        <time>2014-09-30T10:55:06Z</time>
      </trkpt>
      <trkpt lat="43.91615" lon="7.52158">
        <ele>415.18204</ele>
        <time>2014-09-30T10:55:11Z</time>
      </trkpt>
      <trkpt lat="43.91614" lon="7.5216">
        <ele>415.21106</ele>
        <time>2014-09-30T10:55:16Z</time>
      </trkpt>
      <trkpt lat="43.91612" lon="7.52162">
        <ele>415.24008</ele>
        <time>2014-09-30T10:55:21Z</time>
      </trkpt>
      <trkpt lat="43.91611" lon="7.52163">
        <ele>415.2691</ele>
        <time>2014-09-30T10:55:26Z</time>
      </trkpt>
      <trkpt lat="43.9161" lon="7.52165">
        <ele>415.29813</ele>
        <time>2014-09-30T10:55:31Z</time>
      </trkpt>
      <trkpt lat="43.91609" lon="7.52166">
        <ele>415.32718</ele>
        <time>2014-09-30T10:55:36Z</time>
      </trkpt>
      <trkpt lat="43.91608" lon="7.52166">
        <ele>415.3562</ele>
        <time>2014-09-30T10:55:41Z</time>
      </trkpt>
      <trkpt lat="43.91608" lon="7.52167">
        <ele>415.38522</ele>
        <time>2014-09-30T10:55:46Z</time>
      </trkpt>
      <trkpt lat="43.91608" lon="7.52167">
        <ele>415.41425</ele>
        <time>2014-09-30T10:55:51Z</time>
      </trkpt>
      <trkpt lat="43.9161" lon="7.52165">
        <ele>415.44327</ele>
        <time>2014-09-30T10:55:56Z</time>
      </trkpt>
      <trkpt lat="43.91615" lon="7.52156">
        <ele>415.47232</ele>
        <time>2014-09-30T10:56:01Z</time>
      </trkpt>
      <trkpt lat="43.91618" lon="7.52153">
        <ele>415.50134</ele>
        <time>2014-09-30T10:56:06Z</time>
      </trkpt>
      <trkpt lat="43.91622" lon="7.52151">
        <ele>415.50134</ele>
        <time>2014-09-30T10:56:11Z</time>
      </trkpt>
      <trkpt lat="43.91623" lon="7.52148">
        <ele>415.50134</ele>
        <time>2014-09-30T10:56:16Z</time>
      </trkpt>
      <trkpt lat="43.91623" lon="7.52147">
        <ele>415.50134</ele>
        <time>2014-09-30T10:56:21Z</time>
      </trkpt>
      <trkpt lat="43.91624" lon="7.52146">
        <ele>415.50134</ele>
        <time>2014-09-30T10:56:26Z</time>
      </trkpt>
      <trkpt lat="43.91623" lon="7.52148">
        <ele>415.50134</ele>
        <time>2014-09-30T10:56:31Z</time>
      </trkpt>
      <trkpt lat="43.91623" lon="7.52149">
        <ele>419.27167</ele>
        <time>2014-09-30T10:56:36Z</time>
      </trkpt>
      <trkpt lat="43.91623" lon="7.5215">
        <ele>419.27167</ele>
        <time>2014-09-30T10:56:41Z</time>
      </trkpt>
      <trkpt lat="43.91623" lon="7.52152">
        <ele>419.27167</ele>
        <time>2014-09-30T10:56:46Z</time>
      </trkpt>
      <trkpt lat="43.91622" lon="7.52153">
        <ele>419.27167</ele>
        <time>2014-09-30T10:56:51Z</time>
      </trkpt>
      <trkpt lat="43.91621" lon="7.52156">
        <ele>419.27167</ele>
        <time>2014-09-30T10:56:57Z</time>
      </trkpt>
      <trkpt lat="43.91621" lon="7.52158">
        <ele>419.3275</ele>
        <time>2014-09-30T10:57:01Z</time>
      </trkpt>
      <trkpt lat="43.91621" lon="7.52161">
        <ele>419.38333</ele>
        <time>2014-09-30T10:57:06Z</time>
      </trkpt>
      <trkpt lat="43.91621" lon="7.52162">
        <ele>419.43918</ele>
        <time>2014-09-30T10:57:11Z</time>
      </trkpt>
      <trkpt lat="43.91618" lon="7.52158">
        <ele>419.49503</ele>
        <time>2014-09-30T10:57:31Z</time>
      </trkpt>
      <trkpt lat="43.9161" lon="7.52158">
        <ele>419.55087</ele>
        <time>2014-09-30T10:58:26Z</time>
      </trkpt>
      <trkpt lat="43.91604" lon="7.52163">
        <ele>419.60672</ele>
        <time>2014-09-30T10:58:31Z</time>
      </trkpt>
      <trkpt lat="43.91601" lon="7.52166">
        <ele>419.66257</ele>
        <time>2014-09-30T10:58:36Z</time>
      </trkpt>
      <trkpt lat="43.916" lon="7.52166">
        <ele>419.7184</ele>
        <time>2014-09-30T10:58:41Z</time>
      </trkpt>
      <trkpt lat="43.91602" lon="7.52168">
        <ele>419.77426</ele>
        <time>2014-09-30T10:58:46Z</time>
      </trkpt>
      <trkpt lat="43.91604" lon="7.52168">
        <ele>419.83008</ele>
        <time>2014-09-30T10:58:51Z</time>
      </trkpt>
      <trkpt lat="43.91604" lon="7.52171">
        <ele>419.88593</ele>
        <time>2014-09-30T10:58:56Z</time>
      </trkpt>
      <trkpt lat="43.91602" lon="7.52173">
        <ele>419.94177</ele>
        <time>2014-09-30T10:59:01Z</time>
      </trkpt>
      <trkpt lat="43.91601" lon="7.52171">
        <ele>419.99762</ele>
        <time>2014-09-30T10:59:06Z</time>
      </trkpt>
      <trkpt lat="43.91599" lon="7.5217">
        <ele>420.05347</ele>
        <time>2014-09-30T10:59:11Z</time>
      </trkpt>
      <trkpt lat="43.91597" lon="7.5217">
        <ele>420.1093</ele>
        <time>2014-09-30T10:59:16Z</time>
      </trkpt>
      <trkpt lat="43.91595" lon="7.52168">
        <ele>420.16516</ele>
        <time>2014-09-30T10:59:21Z</time>
      </trkpt>
      <trkpt lat="43.91594" lon="7.52167">
        <ele>420.221</ele>
        <time>2014-09-30T10:59:26Z</time>
      </trkpt>
      <trkpt lat="43.91591" lon="7.5217">
        <ele>420.27686</ele>
        <time>2014-09-30T10:59:31Z</time>
      </trkpt>
      <trkpt lat="43.91584" lon="7.5217">
        <ele>420.33267</ele>
        <time>2014-09-30T10:59:36Z</time>
      </trkpt>
      <trkpt lat="43.91581" lon="7.52168">
        <ele>420.38852</ele>
        <time>2014-09-30T10:59:42Z</time>
      </trkpt>
      <trkpt lat="43.91573" lon="7.52169">
        <ele>420.44437</ele>
        <time>2014-09-30T10:59:46Z</time>
      </trkpt>
      <trkpt lat="43.91565" lon="7.52175">
        <ele>420.5002</ele>
        <time>2014-09-30T10:59:51Z</time>
      </trkpt>
      <trkpt lat="43.91562" lon="7.52179">
        <ele>420.55606</ele>
        <time>2014-09-30T10:59:56Z</time>
      </trkpt>
      <trkpt lat="43.91562" lon="7.52177">
        <ele>420.6119</ele>
        <time>2014-09-30T11:00:02Z</time>
      </trkpt>
      <trkpt lat="43.91556" lon="7.52176">
        <ele>420.66776</ele>
        <time>2014-09-30T11:00:06Z</time>
      </trkpt>
      <trkpt lat="43.91554" lon="7.52178">
        <ele>420.7236</ele>
        <time>2014-09-30T11:00:11Z</time>
      </trkpt>
      <trkpt lat="43.91547" lon="7.52178">
        <ele>420.77942</ele>
        <time>2014-09-30T11:00:16Z</time>
      </trkpt>
      <trkpt lat="43.91543" lon="7.52188">
        <ele>420.83527</ele>
        <time>2014-09-30T11:00:21Z</time>
      </trkpt>
      <trkpt lat="43.91544" lon="7.52186">
        <ele>420.8911</ele>
        <time>2014-09-30T11:00:26Z</time>
      </trkpt>
      <trkpt lat="43.91536" lon="7.52185">
        <ele>420.94696</ele>
        <time>2014-09-30T11:00:31Z</time>
      </trkpt>
      <trkpt lat="43.91533" lon="7.52187">
        <ele>421.0028</ele>
        <time>2014-09-30T11:00:36Z</time>
      </trkpt>
      <trkpt lat="43.91531" lon="7.52189">
        <ele>421.05865</ele>
        <time>2014-09-30T11:00:41Z</time>
      </trkpt>
      <trkpt lat="43.91527" lon="7.52185">
        <ele>421.1145</ele>
        <time>2014-09-30T11:00:46Z</time>
      </trkpt>
      <trkpt lat="43.91525" lon="7.52192">
        <ele>421.17035</ele>
        <time>2014-09-30T11:00:51Z</time>
      </trkpt>
      <trkpt lat="43.91518" lon="7.52194">
        <ele>421.22617</ele>
        <time>2014-09-30T11:00:56Z</time>
      </trkpt>
      <trkpt lat="43.91516" lon="7.52198">
        <ele>421.282</ele>
        <time>2014-09-30T11:01:01Z</time>
      </trkpt>
      <trkpt lat="43.91509" lon="7.52202">
        <ele>421.33786</ele>
        <time>2014-09-30T11:01:06Z</time>
      </trkpt>
      <trkpt lat="43.91499" lon="7.52202">
        <ele>421.3937</ele>
        <time>2014-09-30T11:01:11Z</time>
      </trkpt>
      <trkpt lat="43.91495" lon="7.5221">
        <ele>421.44955</ele>
        <time>2014-09-30T11:01:16Z</time>
      </trkpt>
      <trkpt lat="43.91484" lon="7.52218">
        <ele>421.5054</ele>
        <time>2014-09-30T11:01:22Z</time>
      </trkpt>
      <trkpt lat="43.91478" lon="7.52216">
        <ele>421.56125</ele>
        <time>2014-09-30T11:01:27Z</time>
      </trkpt>
      <trkpt lat="43.91476" lon="7.52217">
        <ele>421.6171</ele>
        <time>2014-09-30T11:01:31Z</time>
      </trkpt>
      <trkpt lat="43.91473" lon="7.52219">
        <ele>421.67294</ele>
        <time>2014-09-30T11:01:36Z</time>
      </trkpt>
      <trkpt lat="43.91474" lon="7.52217">
        <ele>421.72876</ele>
        <time>2014-09-30T11:01:41Z</time>
      </trkpt>
      <trkpt lat="43.91471" lon="7.52218">
        <ele>421.7846</ele>
        <time>2014-09-30T11:01:46Z</time>
      </trkpt>
      <trkpt lat="43.91467" lon="7.52217">
        <ele>421.84045</ele>
        <time>2014-09-30T11:01:51Z</time>
      </trkpt>
      <trkpt lat="43.91462" lon="7.52216">
        <ele>421.8963</ele>
        <time>2014-09-30T11:01:56Z</time>
      </trkpt>
      <trkpt lat="43.91453" lon="7.52217">
        <ele>421.95215</ele>
        <time>2014-09-30T11:02:01Z</time>
      </trkpt>
      <trkpt lat="43.91445" lon="7.52213">
        <ele>422.008</ele>
        <time>2014-09-30T11:02:06Z</time>
      </trkpt>
      <trkpt lat="43.91444" lon="7.52211">
        <ele>422.06384</ele>
        <time>2014-09-30T11:02:11Z</time>
      </trkpt>
      <trkpt lat="43.91443" lon="7.52212">
        <ele>422.1197</ele>
        <time>2014-09-30T11:02:16Z</time>
      </trkpt>
      <trkpt lat="43.9144" lon="7.52209">
        <ele>422.1755</ele>
        <time>2014-09-30T11:02:21Z</time>
      </trkpt>
      <trkpt lat="43.91437" lon="7.52205">
        <ele>422.23135</ele>
        <time>2014-09-30T11:02:26Z</time>
      </trkpt>
      <trkpt lat="43.91432" lon="7.52208">
        <ele>422.2872</ele>
        <time>2014-09-30T11:02:31Z</time>
      </trkpt>
      <trkpt lat="43.91423" lon="7.52211">
        <ele>422.34305</ele>
        <time>2014-09-30T11:02:37Z</time>
      </trkpt>
      <trkpt lat="43.91421" lon="7.52209">
        <ele>422.3989</ele>
        <time>2014-09-30T11:02:41Z</time>
      </trkpt>
      <trkpt lat="43.91421" lon="7.52209">
        <ele>422.45474</ele>
        <time>2014-09-30T11:02:46Z</time>
      </trkpt>
      <trkpt lat="43.91421" lon="7.52208">
        <ele>422.5106</ele>
        <time>2014-09-30T11:02:51Z</time>
      </trkpt>
      <trkpt lat="43.91416" lon="7.52207">
        <ele>422.56644</ele>
        <time>2014-09-30T11:02:56Z</time>
      </trkpt>
      <trkpt lat="43.91414" lon="7.52209">
        <ele>422.62228</ele>
        <time>2014-09-30T11:03:01Z</time>
      </trkpt>
      <trkpt lat="43.91412" lon="7.52207">
        <ele>422.6781</ele>
        <time>2014-09-30T11:03:06Z</time>
      </trkpt>
      <trkpt lat="43.91412" lon="7.52205">
        <ele>422.73395</ele>
        <time>2014-09-30T11:03:11Z</time>
      </trkpt>
      <trkpt lat="43.91409" lon="7.52203">
        <ele>422.7898</ele>
        <time>2014-09-30T11:03:17Z</time>
      </trkpt>
      <trkpt lat="43.91396" lon="7.52207">
        <ele>422.84564</ele>
        <time>2014-09-30T11:03:21Z</time>
      </trkpt>
      <trkpt lat="43.91392" lon="7.52204">
        <ele>422.9015</ele>
        <time>2014-09-30T11:03:26Z</time>
      </trkpt>
      <trkpt lat="43.91389" lon="7.52202">
        <ele>422.95734</ele>
        <time>2014-09-30T11:03:31Z</time>
      </trkpt>
      <trkpt lat="43.91385" lon="7.52206">
        <ele>423.01318</ele>
        <time>2014-09-30T11:03:36Z</time>
      </trkpt>
      <trkpt lat="43.91379" lon="7.52204">
        <ele>423.06903</ele>
        <time>2014-09-30T11:03:41Z</time>
      </trkpt>
      <trkpt lat="43.91377" lon="7.52208">
        <ele>423.12485</ele>
        <time>2014-09-30T11:03:46Z</time>
      </trkpt>
      <trkpt lat="43.91375" lon="7.52201">
        <ele>423.1807</ele>
        <time>2014-09-30T11:03:52Z</time>
      </trkpt>
      <trkpt lat="43.91372" lon="7.52201">
        <ele>423.23654</ele>
        <time>2014-09-30T11:03:56Z</time>
      </trkpt>
      <trkpt lat="43.91375" lon="7.52197">
        <ele>423.2924</ele>
        <time>2014-09-30T11:04:01Z</time>
      </trkpt>
      <trkpt lat="43.91378" lon="7.52191">
        <ele>423.34824</ele>
        <time>2014-09-30T11:04:06Z</time>
      </trkpt>
      <trkpt lat="43.91378" lon="7.52189">
        <ele>423.40408</ele>
        <time>2014-09-30T11:04:11Z</time>
      </trkpt>
      <trkpt lat="43.91373" lon="7.52188">
        <ele>423.45993</ele>
        <time>2014-09-30T11:04:16Z</time>
      </trkpt>
      <trkpt lat="43.91371" lon="7.52187">
        <ele>423.51578</ele>
        <time>2014-09-30T11:04:21Z</time>
      </trkpt>
      <trkpt lat="43.91367" lon="7.52187">
        <ele>423.5716</ele>
        <time>2014-09-30T11:04:26Z</time>
      </trkpt>
      <trkpt lat="43.91358" lon="7.52184">
        <ele>423.62744</ele>
        <time>2014-09-30T11:04:31Z</time>
      </trkpt>
      <trkpt lat="43.91352" lon="7.52185">
        <ele>423.6833</ele>
        <time>2014-09-30T11:04:36Z</time>
      </trkpt>
      <trkpt lat="43.91344" lon="7.52185">
        <ele>423.73914</ele>
        <time>2014-09-30T11:04:41Z</time>
      </trkpt>
      <trkpt lat="43.91337" lon="7.52182">
        <ele>423.79498</ele>
        <time>2014-09-30T11:04:46Z</time>
      </trkpt>
      <trkpt lat="43.91333" lon="7.52184">
        <ele>423.85083</ele>
        <time>2014-09-30T11:04:51Z</time>
      </trkpt>
      <trkpt lat="43.9133" lon="7.52187">
        <ele>423.90668</ele>
        <time>2014-09-30T11:04:56Z</time>
      </trkpt>
      <trkpt lat="43.91329" lon="7.52187">
        <ele>424.53336</ele>
        <time>2014-09-30T11:05:01Z</time>
      </trkpt>
      <trkpt lat="43.91328" lon="7.52186">
        <ele>425.16006</ele>
        <time>2014-09-30T11:05:07Z</time>
      </trkpt>
      <trkpt lat="43.91328" lon="7.52187">
        <ele>425.78677</ele>
        <time>2014-09-30T11:05:11Z</time>
      </trkpt>
      <trkpt lat="43.91326" lon="7.52192">
        <ele>426.41345</ele>
        <time>2014-09-30T11:05:16Z</time>
      </trkpt>
      <trkpt lat="43.91326" lon="7.52192">
        <ele>427.04016</ele>
        <time>2014-09-30T11:05:21Z</time>
      </trkpt>
      <trkpt lat="43.91329" lon="7.52191">
        <ele>427.66687</ele>
        <time>2014-09-30T11:05:26Z</time>
      </trkpt>
      <trkpt lat="43.91328" lon="7.52191">
        <ele>428.29358</ele>
        <time>2014-09-30T11:05:31Z</time>
      </trkpt>
      <trkpt lat="43.91327" lon="7.52188">
        <ele>428.29358</ele>
        <time>2014-09-30T11:05:36Z</time>
      </trkpt>
      <trkpt lat="43.91328" lon="7.52186">
        <ele>428.29358</ele>
        <time>2014-09-30T11:05:41Z</time>
      </trkpt>
      <trkpt lat="43.9133" lon="7.52187">
        <ele>428.29358</ele>
        <time>2014-09-30T11:05:46Z</time>
      </trkpt>
      <trkpt lat="43.91328" lon="7.52189">
        <ele>428.29358</ele>
        <time>2014-09-30T11:05:51Z</time>
      </trkpt>
      <trkpt lat="43.91329" lon="7.5219">
        <ele>428.29358</ele>
        <time>2014-09-30T11:05:56Z</time>
      </trkpt>
      <trkpt lat="43.91329" lon="7.52189">
        <ele>433.0018</ele>
        <time>2014-09-30T11:06:02Z</time>
      </trkpt>
      <trkpt lat="43.91329" lon="7.5219">
        <ele>433.0018</ele>
        <time>2014-09-30T11:06:06Z</time>
      </trkpt>
      <trkpt lat="43.9133" lon="7.52192">
        <ele>433.0018</ele>
        <time>2014-09-30T11:06:11Z</time>
      </trkpt>
      <trkpt lat="43.9133" lon="7.52193">
        <ele>433.0018</ele>
        <time>2014-09-30T11:06:16Z</time>
      </trkpt>
      <trkpt lat="43.91329" lon="7.52193">
        <ele>433.0018</ele>
        <time>2014-09-30T11:06:21Z</time>
      </trkpt>
      <trkpt lat="43.91329" lon="7.52193">
        <ele>433.0018</ele>
        <time>2014-09-30T11:06:27Z</time>
      </trkpt>
      <trkpt lat="43.91327" lon="7.52192">
        <ele>433.0018</ele>
        <time>2014-09-30T11:06:31Z</time>
      </trkpt>
      <trkpt lat="43.91327" lon="7.52191">
        <ele>433.0018</ele>
        <time>2014-09-30T11:06:36Z</time>
      </trkpt>
      <trkpt lat="43.91327" lon="7.5219">
        <ele>433.0018</ele>
        <time>2014-09-30T11:06:41Z</time>
      </trkpt>
      <trkpt lat="43.91328" lon="7.52189">
        <ele>433.0018</ele>
        <time>2014-09-30T11:06:46Z</time>
      </trkpt>
      <trkpt lat="43.91328" lon="7.5219">
        <ele>433.0018</ele>
        <time>2014-09-30T11:06:51Z</time>
      </trkpt>
      <trkpt lat="43.91328" lon="7.5219">
        <ele>437.82333</ele>
        <time>2014-09-30T11:06:56Z</time>
      </trkpt>
      <trkpt lat="43.91328" lon="7.52189">
        <ele>437.82333</ele>
        <time>2014-09-30T11:07:01Z</time>
      </trkpt>
      <trkpt lat="43.91327" lon="7.52188">
        <ele>437.82333</ele>
        <time>2014-09-30T11:07:06Z</time>
      </trkpt>
      <trkpt lat="43.91327" lon="7.5219">
        <ele>437.82333</ele>
        <time>2014-09-30T11:07:11Z</time>
      </trkpt>
      <trkpt lat="43.91327" lon="7.52191">
        <ele>437.82333</ele>
        <time>2014-09-30T11:07:16Z</time>
      </trkpt>
      <trkpt lat="43.91328" lon="7.52191">
        <ele>437.82333</ele>
        <time>2014-09-30T11:07:21Z</time>
      </trkpt>
      <trkpt lat="43.91329" lon="7.52192">
        <ele>437.82333</ele>
        <time>2014-09-30T11:07:26Z</time>
      </trkpt>
      <trkpt lat="43.9133" lon="7.52192">
        <ele>437.82333</ele>
        <time>2014-09-30T11:07:31Z</time>
      </trkpt>
      <trkpt lat="43.91328" lon="7.5219">
        <ele>442.50766</ele>
        <time>2014-09-30T11:07:36Z</time>
      </trkpt>
      <trkpt lat="43.91328" lon="7.52193">
        <ele>442.50766</ele>
        <time>2014-09-30T11:07:42Z</time>
      </trkpt>
      <trkpt lat="43.91329" lon="7.52194">
        <ele>442.50766</ele>
        <time>2014-09-30T11:07:46Z</time>
      </trkpt>
      <trkpt lat="43.91331" lon="7.52191">
        <ele>442.50766</ele>
        <time>2014-09-30T11:07:51Z</time>
      </trkpt>
      <trkpt lat="43.91331" lon="7.52193">
        <ele>442.50766</ele>
        <time>2014-09-30T11:07:56Z</time>
      </trkpt>
      <trkpt lat="43.9133" lon="7.52193">
        <ele>442.50766</ele>
        <time>2014-09-30T11:08:01Z</time>
      </trkpt>
      <trkpt lat="43.91329" lon="7.52192">
        <ele>446.7801</ele>
        <time>2014-09-30T11:08:07Z</time>
      </trkpt>
      <trkpt lat="43.91329" lon="7.52191">
        <ele>446.7801</ele>
        <time>2014-09-30T11:08:11Z</time>
      </trkpt>
      <trkpt lat="43.9133" lon="7.5219">
        <ele>446.7801</ele>
        <time>2014-09-30T11:08:16Z</time>
      </trkpt>
      <trkpt lat="43.9133" lon="7.52188">
        <ele>446.7801</ele>
        <time>2014-09-30T11:08:22Z</time>
      </trkpt>
      <trkpt lat="43.9133" lon="7.52187">
        <ele>446.7801</ele>
        <time>2014-09-30T11:08:26Z</time>
      </trkpt>
      <trkpt lat="43.9133" lon="7.52189">
        <ele>446.7801</ele>
        <time>2014-09-30T11:08:31Z</time>
      </trkpt>
      <trkpt lat="43.9133" lon="7.5219">
        <ele>446.7801</ele>
        <time>2014-09-30T11:08:36Z</time>
      </trkpt>
      <trkpt lat="43.91329" lon="7.52192">
        <ele>446.7801</ele>
        <time>2014-09-30T11:08:41Z</time>
      </trkpt>
      <trkpt lat="43.91329" lon="7.52192">
        <ele>446.7801</ele>
        <time>2014-09-30T11:08:46Z</time>
      </trkpt>
      <trkpt lat="43.91327" lon="7.52191">
        <ele>450.54605</ele>
        <time>2014-09-30T11:08:51Z</time>
      </trkpt>
      <trkpt lat="43.91323" lon="7.52189">
        <ele>450.54605</ele>
        <time>2014-09-30T11:08:56Z</time>
      </trkpt>
      <trkpt lat="43.91323" lon="7.5219">
        <ele>450.54605</ele>
        <time>2014-09-30T11:09:01Z</time>
      </trkpt>
      <trkpt lat="43.91323" lon="7.52189">
        <ele>450.54605</ele>
        <time>2014-09-30T11:09:06Z</time>
      </trkpt>
      <trkpt lat="43.91324" lon="7.52191">
        <ele>450.54605</ele>
        <time>2014-09-30T11:09:11Z</time>
      </trkpt>
      <trkpt lat="43.91325" lon="7.52192">
        <ele>450.54605</ele>
        <time>2014-09-30T11:09:16Z</time>
      </trkpt>
      <trkpt lat="43.91325" lon="7.52193">
        <ele>450.54605</ele>
        <time>2014-09-30T11:09:21Z</time>
      </trkpt>
      <trkpt lat="43.91327" lon="7.52195">
        <ele>453.89252</ele>
        <time>2014-09-30T11:09:26Z</time>
      </trkpt>
      <trkpt lat="43.91328" lon="7.52196">
        <ele>453.89252</ele>
        <time>2014-09-30T11:09:31Z</time>
      </trkpt>
      <trkpt lat="43.91328" lon="7.52196">
        <ele>453.89252</ele>
        <time>2014-09-30T11:09:36Z</time>
      </trkpt>
      <trkpt lat="43.91327" lon="7.52195">
        <ele>453.89252</ele>
        <time>2014-09-30T11:09:42Z</time>
      </trkpt>
      <trkpt lat="43.91327" lon="7.52195">
        <ele>453.89252</ele>
        <time>2014-09-30T11:09:46Z</time>
      </trkpt>
      <trkpt lat="43.91327" lon="7.52194">
        <ele>453.89252</ele>
        <time>2014-09-30T11:09:51Z</time>
      </trkpt>
      <trkpt lat="43.91327" lon="7.52194">
        <ele>453.89252</ele>
        <time>2014-09-30T11:09:56Z</time>
      </trkpt>
      <trkpt lat="43.91327" lon="7.52193">
        <ele>453.89252</ele>
        <time>2014-09-30T11:10:01Z</time>
      </trkpt>
      <trkpt lat="43.91327" lon="7.52191">
        <ele>453.89252</ele>
        <time>2014-09-30T11:10:06Z</time>
      </trkpt>
      <trkpt lat="43.91326" lon="7.52189">
        <ele>453.89252</ele>
        <time>2014-09-30T11:10:11Z</time>
      </trkpt>
      <trkpt lat="43.91326" lon="7.52186">
        <ele>453.89252</ele>
        <time>2014-09-30T11:10:16Z</time>
      </trkpt>
      <trkpt lat="43.91326" lon="7.52187">
        <ele>453.89252</ele>
        <time>2014-09-30T11:10:21Z</time>
      </trkpt>
      <trkpt lat="43.91326" lon="7.52188">
        <ele>456.97357</ele>
        <time>2014-09-30T11:10:26Z</time>
      </trkpt>
      <trkpt lat="43.91326" lon="7.5219">
        <ele>456.97357</ele>
        <time>2014-09-30T11:10:31Z</time>
      </trkpt>
      <trkpt lat="43.91326" lon="7.52192">
        <ele>456.97357</ele>
        <time>2014-09-30T11:10:37Z</time>
      </trkpt>
      <trkpt lat="43.91326" lon="7.52194">
        <ele>456.97357</ele>
        <time>2014-09-30T11:10:41Z</time>
      </trkpt>
      <trkpt lat="43.91327" lon="7.52194">
        <ele>456.97357</ele>
        <time>2014-09-30T11:10:47Z</time>
      </trkpt>
      <trkpt lat="43.91328" lon="7.52193">
        <ele>456.97357</ele>
        <time>2014-09-30T11:10:51Z</time>
      </trkpt>
      <trkpt lat="43.91329" lon="7.52193">
        <ele>456.97357</ele>
        <time>2014-09-30T11:10:56Z</time>
      </trkpt>
      <trkpt lat="43.91329" lon="7.52193">
        <ele>456.97357</ele>
        <time>2014-09-30T11:11:01Z</time>
      </trkpt>
      <trkpt lat="43.91329" lon="7.52193">
        <ele>456.97357</ele>
        <time>2014-09-30T11:11:06Z</time>
      </trkpt>
      <trkpt lat="43.91329" lon="7.52192">
        <ele>456.97357</ele>
        <time>2014-09-30T11:11:11Z</time>
      </trkpt>
      <trkpt lat="43.91329" lon="7.52191">
        <ele>459.73123</ele>
        <time>2014-09-30T11:11:16Z</time>
      </trkpt>
      <trkpt lat="43.91328" lon="7.52191">
        <ele>459.73123</ele>
        <time>2014-09-30T11:11:21Z</time>
      </trkpt>
      <trkpt lat="43.91327" lon="7.52191">
        <ele>459.73123</ele>
        <time>2014-09-30T11:11:26Z</time>
      </trkpt>
      <trkpt lat="43.91326" lon="7.52191">
        <ele>459.73123</ele>
        <time>2014-09-30T11:11:31Z</time>
      </trkpt>
      <trkpt lat="43.91326" lon="7.5219">
        <ele>459.73123</ele>
        <time>2014-09-30T11:11:36Z</time>
      </trkpt>
      <trkpt lat="43.91326" lon="7.52189">
        <ele>459.73123</ele>
        <time>2014-09-30T11:11:41Z</time>
      </trkpt>
      <trkpt lat="43.91327" lon="7.5219">
        <ele>459.73123</ele>
        <time>2014-09-30T11:11:46Z</time>
      </trkpt>
      <trkpt lat="43.91327" lon="7.5219">
        <ele>459.73123</ele>
        <time>2014-09-30T11:11:51Z</time>
      </trkpt>
      <trkpt lat="43.91326" lon="7.52188">
        <ele>459.73123</ele>
        <time>2014-09-30T11:11:56Z</time>
      </trkpt>
      <trkpt lat="43.91326" lon="7.52188">
        <ele>459.73123</ele>
        <time>2014-09-30T11:12:01Z</time>
      </trkpt>
      <trkpt lat="43.91325" lon="7.52189">
        <ele>462.09857</ele>
        <time>2014-09-30T11:12:06Z</time>
      </trkpt>
      <trkpt lat="43.91325" lon="7.52188">
        <ele>462.09857</ele>
        <time>2014-09-30T11:12:11Z</time>
      </trkpt>
      <trkpt lat="43.91325" lon="7.52188">
        <ele>462.09857</ele>
        <time>2014-09-30T11:12:16Z</time>
      </trkpt>
      <trkpt lat="43.91326" lon="7.5219">
        <ele>462.09857</ele>
        <time>2014-09-30T11:12:21Z</time>
      </trkpt>
      <trkpt lat="43.91325" lon="7.52189">
        <ele>462.09857</ele>
        <time>2014-09-30T11:12:26Z</time>
      </trkpt>
      <trkpt lat="43.91325" lon="7.5219">
        <ele>462.09857</ele>
        <time>2014-09-30T11:12:31Z</time>
      </trkpt>
      <trkpt lat="43.91326" lon="7.52191">
        <ele>462.09857</ele>
        <time>2014-09-30T11:12:36Z</time>
      </trkpt>
      <trkpt lat="43.91326" lon="7.52192">
        <ele>462.09857</ele>
        <time>2014-09-30T11:12:41Z</time>
      </trkpt>
      <trkpt lat="43.91325" lon="7.52189">
        <ele>462.09857</ele>
        <time>2014-09-30T11:12:46Z</time>
      </trkpt>
      <trkpt lat="43.91325" lon="7.52187">
        <ele>464.1878</ele>
        <time>2014-09-30T11:12:51Z</time>
      </trkpt>
      <trkpt lat="43.91327" lon="7.52186">
        <ele>464.1878</ele>
        <time>2014-09-30T11:12:56Z</time>
      </trkpt>
      <trkpt lat="43.91329" lon="7.52187">
        <ele>464.1878</ele>
        <time>2014-09-30T11:13:01Z</time>
      </trkpt>
      <trkpt lat="43.91329" lon="7.52189">
        <ele>464.1878</ele>
        <time>2014-09-30T11:13:06Z</time>
      </trkpt>
      <trkpt lat="43.91329" lon="7.52189">
        <ele>464.1878</ele>
        <time>2014-09-30T11:13:11Z</time>
      </trkpt>
      <trkpt lat="43.91329" lon="7.5219">
        <ele>464.1878</ele>
        <time>2014-09-30T11:13:16Z</time>
      </trkpt>
      <trkpt lat="43.91329" lon="7.5219">
        <ele>464.1878</ele>
        <time>2014-09-30T11:13:21Z</time>
      </trkpt>
      <trkpt lat="43.91329" lon="7.5219">
        <ele>464.1878</ele>
        <time>2014-09-30T11:13:31Z</time>
      </trkpt>
      <trkpt lat="43.91329" lon="7.5219">
        <ele>464.1878</ele>
        <time>2014-09-30T11:13:46Z</time>
      </trkpt>
      <trkpt lat="43.91327" lon="7.52193">
        <ele>464.1878</ele>
        <time>2014-09-30T11:13:51Z</time>
      </trkpt>
      <trkpt lat="43.91325" lon="7.52196">
        <ele>465.65726</ele>
        <time>2014-09-30T11:13:56Z</time>
      </trkpt>
      <trkpt lat="43.91319" lon="7.52198">
        <ele>465.65726</ele>
        <time>2014-09-30T11:14:01Z</time>
      </trkpt>
      <trkpt lat="43.91316" lon="7.522">
        <ele>466.85513</ele>
        <time>2014-09-30T11:14:06Z</time>
      </trkpt>
      <trkpt lat="43.9131" lon="7.52205">
        <ele>466.85513</ele>
        <time>2014-09-30T11:14:11Z</time>
      </trkpt>
      <trkpt lat="43.91306" lon="7.52209">
        <ele>467.74487</ele>
        <time>2014-09-30T11:14:16Z</time>
      </trkpt>
      <trkpt lat="43.91304" lon="7.52212">
        <ele>467.74487</ele>
        <time>2014-09-30T11:14:21Z</time>
      </trkpt>
      <trkpt lat="43.91299" lon="7.52218">
        <ele>468.26477</ele>
        <time>2014-09-30T11:14:26Z</time>
      </trkpt>
      <trkpt lat="43.91296" lon="7.52221">
        <ele>468.26477</ele>
        <time>2014-09-30T11:14:31Z</time>
      </trkpt>
      <trkpt lat="43.91294" lon="7.52224">
        <ele>468.26477</ele>
        <time>2014-09-30T11:14:36Z</time>
      </trkpt>
      <trkpt lat="43.9129" lon="7.5223">
        <ele>468.5606</ele>
        <time>2014-09-30T11:14:41Z</time>
      </trkpt>
      <trkpt lat="43.91287" lon="7.52235">
        <ele>468.5606</ele>
        <time>2014-09-30T11:14:46Z</time>
      </trkpt>
      <trkpt lat="43.91284" lon="7.52238">
        <ele>468.5606</ele>
        <time>2014-09-30T11:14:51Z</time>
      </trkpt>
      <trkpt lat="43.9128" lon="7.52243">
        <ele>468.6962</ele>
        <time>2014-09-30T11:14:56Z</time>
      </trkpt>
      <trkpt lat="43.91278" lon="7.52248">
        <ele>468.6962</ele>
        <time>2014-09-30T11:15:01Z</time>
      </trkpt>
      <trkpt lat="43.91275" lon="7.52253">
        <ele>468.616</ele>
        <time>2014-09-30T11:15:06Z</time>
      </trkpt>
      <trkpt lat="43.91272" lon="7.52257">
        <ele>468.616</ele>
        <time>2014-09-30T11:15:11Z</time>
      </trkpt>
      <trkpt lat="43.91272" lon="7.52261">
        <ele>468.616</ele>
        <time>2014-09-30T11:15:16Z</time>
      </trkpt>
      <trkpt lat="43.9127" lon="7.52264">
        <ele>468.32684</ele>
        <time>2014-09-30T11:15:21Z</time>
      </trkpt>
      <trkpt lat="43.91268" lon="7.5227">
        <ele>468.32684</ele>
        <time>2014-09-30T11:15:26Z</time>
      </trkpt>
      <trkpt lat="43.91268" lon="7.52278">
        <ele>467.83572</ele>
        <time>2014-09-30T11:15:31Z</time>
      </trkpt>
      <trkpt lat="43.91267" lon="7.52284">
        <ele>467.83572</ele>
        <time>2014-09-30T11:15:36Z</time>
      </trkpt>
      <trkpt lat="43.91265" lon="7.52287">
        <ele>467.83572</ele>
        <time>2014-09-30T11:15:41Z</time>
      </trkpt>
      <trkpt lat="43.91265" lon="7.52288">
        <ele>467.83572</ele>
        <time>2014-09-30T11:15:46Z</time>
      </trkpt>
      <trkpt lat="43.91265" lon="7.52293">
        <ele>467.4092</ele>
        <time>2014-09-30T11:15:51Z</time>
      </trkpt>
      <trkpt lat="43.91264" lon="7.52298">
        <ele>467.4092</ele>
        <time>2014-09-30T11:15:56Z</time>
      </trkpt>
      <trkpt lat="43.91263" lon="7.52302">
        <ele>467.4092</ele>
        <time>2014-09-30T11:16:01Z</time>
      </trkpt>
      <trkpt lat="43.91261" lon="7.52307">
        <ele>466.89053</ele>
        <time>2014-09-30T11:16:06Z</time>
      </trkpt>
      <trkpt lat="43.91262" lon="7.5231">
        <ele>466.89053</ele>
        <time>2014-09-30T11:16:11Z</time>
      </trkpt>
      <trkpt lat="43.91261" lon="7.52315">
        <ele>466.89053</ele>
        <time>2014-09-30T11:16:16Z</time>
      </trkpt>
      <trkpt lat="43.91261" lon="7.52319">
        <ele>466.89053</ele>
        <time>2014-09-30T11:16:21Z</time>
      </trkpt>
      <trkpt lat="43.91263" lon="7.52322">
        <ele>466.23566</ele>
        <time>2014-09-30T11:16:26Z</time>
      </trkpt>
      <trkpt lat="43.91263" lon="7.52325">
        <ele>466.23566</ele>
        <time>2014-09-30T11:16:31Z</time>
      </trkpt>
      <trkpt lat="43.91263" lon="7.52327">
        <ele>466.23566</ele>
        <time>2014-09-30T11:16:36Z</time>
      </trkpt>
      <trkpt lat="43.91262" lon="7.5233">
        <ele>466.23566</ele>
        <time>2014-09-30T11:16:41Z</time>
      </trkpt>
      <trkpt lat="43.9126" lon="7.52331">
        <ele>466.23566</ele>
        <time>2014-09-30T11:16:46Z</time>
      </trkpt>
      <trkpt lat="43.91259" lon="7.52333">
        <ele>465.64914</ele>
        <time>2014-09-30T11:16:52Z</time>
      </trkpt>
      <trkpt lat="43.91258" lon="7.52337">
        <ele>465.64914</ele>
        <time>2014-09-30T11:16:56Z</time>
      </trkpt>
      <trkpt lat="43.91256" lon="7.52337">
        <ele>465.64914</ele>
        <time>2014-09-30T11:17:01Z</time>
      </trkpt>
      <trkpt lat="43.91252" lon="7.52342">
        <ele>465.20493</ele>
        <time>2014-09-30T11:17:06Z</time>
      </trkpt>
      <trkpt lat="43.91251" lon="7.52342">
        <ele>465.20493</ele>
        <time>2014-09-30T11:17:11Z</time>
      </trkpt>
      <trkpt lat="43.9125" lon="7.52344">
        <ele>465.20493</ele>
        <time>2014-09-30T11:17:16Z</time>
      </trkpt>
      <trkpt lat="43.91249" lon="7.52343">
        <ele>465.20493</ele>
        <time>2014-09-30T11:17:21Z</time>
      </trkpt>
      <trkpt lat="43.91248" lon="7.52343">
        <ele>465.20493</ele>
        <time>2014-09-30T11:17:26Z</time>
      </trkpt>
      <trkpt lat="43.91247" lon="7.5234">
        <ele>465.20493</ele>
        <time>2014-09-30T11:17:31Z</time>
      </trkpt>
      <trkpt lat="43.91244" lon="7.52338">
        <ele>465.0288</ele>
        <time>2014-09-30T11:17:36Z</time>
      </trkpt>
      <trkpt lat="43.91245" lon="7.52337">
        <ele>465.0288</ele>
        <time>2014-09-30T11:17:41Z</time>
      </trkpt>
      <trkpt lat="43.91245" lon="7.52336">
        <ele>465.0288</ele>
        <time>2014-09-30T11:17:47Z</time>
      </trkpt>
      <trkpt lat="43.91243" lon="7.52335">
        <ele>465.0288</ele>
        <time>2014-09-30T11:17:52Z</time>
      </trkpt>
      <trkpt lat="43.91239" lon="7.52333">
        <ele>465.0288</ele>
        <time>2014-09-30T11:17:57Z</time>
      </trkpt>
      <trkpt lat="43.91236" lon="7.52334">
        <ele>465.2797</ele>
        <time>2014-09-30T11:18:01Z</time>
      </trkpt>
      <trkpt lat="43.91236" lon="7.52337">
        <ele>465.2797</ele>
        <time>2014-09-30T11:18:06Z</time>
      </trkpt>
      <trkpt lat="43.91234" lon="7.52338">
        <ele>465.2797</ele>
        <time>2014-09-30T11:18:11Z</time>
      </trkpt>
      <trkpt lat="43.91233" lon="7.52341">
        <ele>465.2797</ele>
        <time>2014-09-30T11:18:16Z</time>
      </trkpt>
      <trkpt lat="43.91234" lon="7.52342">
        <ele>465.2797</ele>
        <time>2014-09-30T11:18:21Z</time>
      </trkpt>
      <trkpt lat="43.91234" lon="7.52344">
        <ele>465.2797</ele>
        <time>2014-09-30T11:18:26Z</time>
      </trkpt>
      <trkpt lat="43.91236" lon="7.52347">
        <ele>465.81534</ele>
        <time>2014-09-30T11:18:31Z</time>
      </trkpt>
      <trkpt lat="43.91236" lon="7.52348">
        <ele>465.81534</ele>
        <time>2014-09-30T11:18:36Z</time>
      </trkpt>
      <trkpt lat="43.91239" lon="7.52347">
        <ele>465.81534</ele>
        <time>2014-09-30T11:18:41Z</time>
      </trkpt>
      <trkpt lat="43.91242" lon="7.5235">
        <ele>465.81534</ele>
        <time>2014-09-30T11:18:47Z</time>
      </trkpt>
      <trkpt lat="43.91244" lon="7.52349">
        <ele>465.81534</ele>
        <time>2014-09-30T11:18:51Z</time>
      </trkpt>
      <trkpt lat="43.91245" lon="7.5235">
        <ele>466.79135</ele>
        <time>2014-09-30T11:18:56Z</time>
      </trkpt>
      <trkpt lat="43.91246" lon="7.5235">
        <ele>466.79135</ele>
        <time>2014-09-30T11:19:01Z</time>
      </trkpt>
      <trkpt lat="43.91246" lon="7.5235">
        <ele>466.79135</ele>
        <time>2014-09-30T11:19:06Z</time>
      </trkpt>
      <trkpt lat="43.91247" lon="7.52349">
        <ele>466.79135</ele>
        <time>2014-09-30T11:19:11Z</time>
      </trkpt>
      <trkpt lat="43.91246" lon="7.52349">
        <ele>466.79135</ele>
        <time>2014-09-30T11:19:16Z</time>
      </trkpt>
      <trkpt lat="43.91246" lon="7.52348">
        <ele>466.79135</ele>
        <time>2014-09-30T11:19:21Z</time>
      </trkpt>
      <trkpt lat="43.91245" lon="7.52349">
        <ele>466.79135</ele>
        <time>2014-09-30T11:19:26Z</time>
      </trkpt>
      <trkpt lat="43.91243" lon="7.52344">
        <ele>466.79135</ele>
        <time>2014-09-30T11:19:31Z</time>
      </trkpt>
      <trkpt lat="43.91243" lon="7.52344">
        <ele>466.79135</ele>
        <time>2014-09-30T11:19:36Z</time>
      </trkpt>
      <trkpt lat="43.91243" lon="7.52343">
        <ele>466.79135</ele>
        <time>2014-09-30T11:19:41Z</time>
      </trkpt>
      <trkpt lat="43.91243" lon="7.52343">
        <ele>466.79135</ele>
        <time>2014-09-30T11:19:46Z</time>
      </trkpt>
      <trkpt lat="43.91243" lon="7.52343">
        <ele>466.79135</ele>
        <time>2014-09-30T11:19:51Z</time>
      </trkpt>
      <trkpt lat="43.91243" lon="7.52343">
        <ele>468.26398</ele>
        <time>2014-09-30T11:19:56Z</time>
      </trkpt>
      <trkpt lat="43.91244" lon="7.52343">
        <ele>468.26398</ele>
        <time>2014-09-30T11:20:01Z</time>
      </trkpt>
      <trkpt lat="43.91244" lon="7.52343">
        <ele>468.26398</ele>
        <time>2014-09-30T11:20:06Z</time>
      </trkpt>
      <trkpt lat="43.91242" lon="7.52343">
        <ele>468.26398</ele>
        <time>2014-09-30T11:20:16Z</time>
      </trkpt>
      <trkpt lat="43.91241" lon="7.52343">
        <ele>468.26398</ele>
        <time>2014-09-30T11:20:21Z</time>
      </trkpt>
      <trkpt lat="43.91241" lon="7.52343">
        <ele>468.26398</ele>
        <time>2014-09-30T11:20:26Z</time>
      </trkpt>
      <trkpt lat="43.91242" lon="7.52343">
        <ele>468.26398</ele>
        <time>2014-09-30T11:20:31Z</time>
      </trkpt>
      <trkpt lat="43.91244" lon="7.52346">
        <ele>468.26398</ele>
        <time>2014-09-30T11:20:36Z</time>
      </trkpt>
      <trkpt lat="43.91245" lon="7.52348">
        <ele>468.26398</ele>
        <time>2014-09-30T11:20:41Z</time>
      </trkpt>
      <trkpt lat="43.91244" lon="7.52349">
        <ele>470.0102</ele>
        <time>2014-09-30T11:20:47Z</time>
      </trkpt>
      <trkpt lat="43.91243" lon="7.52349">
        <ele>470.0102</ele>
        <time>2014-09-30T11:20:51Z</time>
      </trkpt>
      <trkpt lat="43.91243" lon="7.52349">
        <ele>470.0102</ele>
        <time>2014-09-30T11:20:56Z</time>
      </trkpt>
      <trkpt lat="43.91243" lon="7.52351">
        <ele>470.0102</ele>
        <time>2014-09-30T11:21:01Z</time>
      </trkpt>
      <trkpt lat="43.91243" lon="7.52354">
        <ele>470.0102</ele>
        <time>2014-09-30T11:21:06Z</time>
      </trkpt>
      <trkpt lat="43.91242" lon="7.52353">
        <ele>470.0102</ele>
        <time>2014-09-30T11:21:11Z</time>
      </trkpt>
      <trkpt lat="43.91241" lon="7.52351">
        <ele>470.0102</ele>
        <time>2014-09-30T11:21:16Z</time>
      </trkpt>
      <trkpt lat="43.91241" lon="7.52347">
        <ele>471.64948</ele>
        <time>2014-09-30T11:21:21Z</time>
      </trkpt>
      <trkpt lat="43.91243" lon="7.52346">
        <ele>471.64948</ele>
        <time>2014-09-30T11:21:26Z</time>
      </trkpt>
      <trkpt lat="43.91246" lon="7.52345">
        <ele>471.64948</ele>
        <time>2014-09-30T11:21:32Z</time>
      </trkpt>
      <trkpt lat="43.91246" lon="7.52347">
        <ele>471.64948</ele>
        <time>2014-09-30T11:21:36Z</time>
      </trkpt>
      <trkpt lat="43.91246" lon="7.52349">
        <ele>471.64948</ele>
        <time>2014-09-30T11:21:41Z</time>
      </trkpt>
      <trkpt lat="43.91245" lon="7.52349">
        <ele>471.64948</ele>
        <time>2014-09-30T11:21:46Z</time>
      </trkpt>
      <trkpt lat="43.91246" lon="7.52349">
        <ele>472.988</ele>
        <time>2014-09-30T11:21:51Z</time>
      </trkpt>
      <trkpt lat="43.91246" lon="7.52349">
        <ele>472.988</ele>
        <time>2014-09-30T11:21:56Z</time>
      </trkpt>
      <trkpt lat="43.91246" lon="7.52349">
        <ele>472.988</ele>
        <time>2014-09-30T11:22:01Z</time>
      </trkpt>
      <trkpt lat="43.91244" lon="7.52349">
        <ele>472.988</ele>
        <time>2014-09-30T11:22:06Z</time>
      </trkpt>
      <trkpt lat="43.91244" lon="7.52349">
        <ele>472.988</ele>
        <time>2014-09-30T11:22:12Z</time>
      </trkpt>
      <trkpt lat="43.91246" lon="7.52354">
        <ele>472.988</ele>
        <time>2014-09-30T11:22:16Z</time>
      </trkpt>
      <trkpt lat="43.91248" lon="7.52354">
        <ele>473.91907</ele>
        <time>2014-09-30T11:22:21Z</time>
      </trkpt>
      <trkpt lat="43.91253" lon="7.5235">
        <ele>473.91907</ele>
        <time>2014-09-30T11:22:26Z</time>
      </trkpt>
      <trkpt lat="43.91254" lon="7.5235">
        <ele>473.91907</ele>
        <time>2014-09-30T11:22:31Z</time>
      </trkpt>
      <trkpt lat="43.91254" lon="7.5235">
        <ele>473.91907</ele>
        <time>2014-09-30T11:22:37Z</time>
      </trkpt>
      <trkpt lat="43.91254" lon="7.52349">
        <ele>473.91907</ele>
        <time>2014-09-30T11:22:41Z</time>
      </trkpt>
      <trkpt lat="43.91254" lon="7.52349">
        <ele>473.91907</ele>
        <time>2014-09-30T11:22:46Z</time>
      </trkpt>
      <trkpt lat="43.91254" lon="7.5235">
        <ele>473.91907</ele>
        <time>2014-09-30T11:22:51Z</time>
      </trkpt>
      <trkpt lat="43.91249" lon="7.5235">
        <ele>474.2007</ele>
        <time>2014-09-30T11:22:56Z</time>
      </trkpt>
      <trkpt lat="43.91251" lon="7.52349">
        <ele>474.2007</ele>
        <time>2014-09-30T11:23:01Z</time>
      </trkpt>
      <trkpt lat="43.91249" lon="7.52352">
        <ele>474.2007</ele>
        <time>2014-09-30T11:23:06Z</time>
      </trkpt>
      <trkpt lat="43.91249" lon="7.52344">
        <ele>474.44635</ele>
        <time>2014-09-30T11:23:11Z</time>
      </trkpt>
      <trkpt lat="43.91247" lon="7.52343">
        <ele>474.44635</ele>
        <time>2014-09-30T11:23:16Z</time>
      </trkpt>
      <trkpt lat="43.91246" lon="7.52343">
        <ele>474.44635</ele>
        <time>2014-09-30T11:23:21Z</time>
      </trkpt>
      <trkpt lat="43.91244" lon="7.52344">
        <ele>474.44635</ele>
        <time>2014-09-30T11:23:26Z</time>
      </trkpt>
      <trkpt lat="43.91245" lon="7.52345">
        <ele>474.44635</ele>
        <time>2014-09-30T11:23:31Z</time>
      </trkpt>
      <trkpt lat="43.91244" lon="7.52348">
        <ele>474.44635</ele>
        <time>2014-09-30T11:23:36Z</time>
      </trkpt>
      <trkpt lat="43.91242" lon="7.52353">
        <ele>474.69116</ele>
        <time>2014-09-30T11:23:41Z</time>
      </trkpt>
      <trkpt lat="43.91243" lon="7.52356">
        <ele>474.69116</ele>
        <time>2014-09-30T11:23:46Z</time>
      </trkpt>
      <trkpt lat="43.91242" lon="7.52359">
        <ele>474.69116</ele>
        <time>2014-09-30T11:23:51Z</time>
      </trkpt>
      <trkpt lat="43.91243" lon="7.52362">
        <ele>474.69116</ele>
        <time>2014-09-30T11:23:56Z</time>
      </trkpt>
      <trkpt lat="43.91242" lon="7.52363">
        <ele>474.7515</ele>
        <time>2014-09-30T11:24:01Z</time>
      </trkpt>
      <trkpt lat="43.91239" lon="7.52362">
        <ele>474.7515</ele>
        <time>2014-09-30T11:24:06Z</time>
      </trkpt>
      <trkpt lat="43.91236" lon="7.52363">
        <ele>474.7515</ele>
        <time>2014-09-30T11:24:11Z</time>
      </trkpt>
      <trkpt lat="43.91234" lon="7.52364">
        <ele>474.7515</ele>
        <time>2014-09-30T11:24:16Z</time>
      </trkpt>
      <trkpt lat="43.91232" lon="7.52367">
        <ele>475.03403</ele>
        <time>2014-09-30T11:24:22Z</time>
      </trkpt>
      <trkpt lat="43.9123" lon="7.52368">
        <ele>475.03403</ele>
        <time>2014-09-30T11:24:26Z</time>
      </trkpt>
      <trkpt lat="43.9123" lon="7.52366">
        <ele>475.03403</ele>
        <time>2014-09-30T11:24:31Z</time>
      </trkpt>
      <trkpt lat="43.91227" lon="7.52362">
        <ele>475.03403</ele>
        <time>2014-09-30T11:24:36Z</time>
      </trkpt>
      <trkpt lat="43.91227" lon="7.52363">
        <ele>475.03403</ele>
        <time>2014-09-30T11:24:41Z</time>
      </trkpt>
      <trkpt lat="43.91229" lon="7.52364">
        <ele>475.46817</ele>
        <time>2014-09-30T11:24:46Z</time>
      </trkpt>
      <trkpt lat="43.91231" lon="7.52366">
        <ele>475.46817</ele>
        <time>2014-09-30T11:24:51Z</time>
      </trkpt>
      <trkpt lat="43.91231" lon="7.52367">
        <ele>475.46817</ele>
        <time>2014-09-30T11:24:56Z</time>
      </trkpt>
      <trkpt lat="43.9123" lon="7.52367">
        <ele>475.46817</ele>
        <time>2014-09-30T11:25:01Z</time>
      </trkpt>
      <trkpt lat="43.9123" lon="7.52367">
        <ele>475.46817</ele>
        <time>2014-09-30T11:25:06Z</time>
      </trkpt>
      <trkpt lat="43.91232" lon="7.52369">
        <ele>475.46817</ele>
        <time>2014-09-30T11:25:11Z</time>
      </trkpt>
      <trkpt lat="43.91234" lon="7.5237">
        <ele>475.46817</ele>
        <time>2014-09-30T11:25:16Z</time>
      </trkpt>
      <trkpt lat="43.91235" lon="7.52373">
        <ele>475.8006</ele>
        <time>2014-09-30T11:25:21Z</time>
      </trkpt>
      <trkpt lat="43.91235" lon="7.52373">
        <ele>475.8006</ele>
        <time>2014-09-30T11:25:26Z</time>
      </trkpt>
      <trkpt lat="43.91237" lon="7.52375">
        <ele>475.8006</ele>
        <time>2014-09-30T11:25:31Z</time>
      </trkpt>
      <trkpt lat="43.91239" lon="7.52376">
        <ele>475.8006</ele>
        <time>2014-09-30T11:25:37Z</time>
      </trkpt>
      <trkpt lat="43.91239" lon="7.52376">
        <ele>475.8006</ele>
        <time>2014-09-30T11:25:41Z</time>
      </trkpt>
      <trkpt lat="43.91239" lon="7.52376">
        <ele>475.8006</ele>
        <time>2014-09-30T11:25:46Z</time>
      </trkpt>
      <trkpt lat="43.91237" lon="7.52373">
        <ele>475.8006</ele>
        <time>2014-09-30T11:25:51Z</time>
      </trkpt>
      <trkpt lat="43.91236" lon="7.52371">
        <ele>476.0562</ele>
        <time>2014-09-30T11:25:56Z</time>
      </trkpt>
      <trkpt lat="43.91235" lon="7.5237">
        <ele>476.0562</ele>
        <time>2014-09-30T11:26:01Z</time>
      </trkpt>
      <trkpt lat="43.91233" lon="7.52368">
        <ele>476.0562</ele>
        <time>2014-09-30T11:26:06Z</time>
      </trkpt>
      <trkpt lat="43.91233" lon="7.52366">
        <ele>476.0562</ele>
        <time>2014-09-30T11:26:11Z</time>
      </trkpt>
      <trkpt lat="43.91233" lon="7.52366">
        <ele>476.0562</ele>
        <time>2014-09-30T11:26:16Z</time>
      </trkpt>
      <trkpt lat="43.91233" lon="7.52365">
        <ele>476.0562</ele>
        <time>2014-09-30T11:26:21Z</time>
      </trkpt>
      <trkpt lat="43.91232" lon="7.52365">
        <ele>476.0562</ele>
        <time>2014-09-30T11:26:26Z</time>
      </trkpt>
      <trkpt lat="43.91233" lon="7.52365">
        <ele>476.0562</ele>
        <time>2014-09-30T11:26:31Z</time>
      </trkpt>
      <trkpt lat="43.91232" lon="7.52366">
        <ele>476.0562</ele>
        <time>2014-09-30T11:26:36Z</time>
      </trkpt>
      <trkpt lat="43.91231" lon="7.52368">
        <ele>476.15732</ele>
        <time>2014-09-30T11:26:42Z</time>
      </trkpt>
      <trkpt lat="43.9123" lon="7.52369">
        <ele>476.15732</ele>
        <time>2014-09-30T11:26:46Z</time>
      </trkpt>
      <trkpt lat="43.91229" lon="7.52369">
        <ele>476.15732</ele>
        <time>2014-09-30T11:26:51Z</time>
      </trkpt>
      <trkpt lat="43.91227" lon="7.52368">
        <ele>476.15732</ele>
        <time>2014-09-30T11:26:56Z</time>
      </trkpt>
      <trkpt lat="43.91226" lon="7.52367">
        <ele>476.15732</ele>
        <time>2014-09-30T11:27:01Z</time>
      </trkpt>
      <trkpt lat="43.91226" lon="7.52371">
        <ele>476.15732</ele>
        <time>2014-09-30T11:27:06Z</time>
      </trkpt>
      <trkpt lat="43.91227" lon="7.52364">
        <ele>476.1331</ele>
        <time>2014-09-30T11:27:11Z</time>
      </trkpt>
      <trkpt lat="43.9123" lon="7.52364">
        <ele>476.1331</ele>
        <time>2014-09-30T11:27:16Z</time>
      </trkpt>
      <trkpt lat="43.91232" lon="7.52365">
        <ele>476.1331</ele>
        <time>2014-09-30T11:27:21Z</time>
      </trkpt>
      <trkpt lat="43.91233" lon="7.52365">
        <ele>476.1331</ele>
        <time>2014-09-30T11:27:26Z</time>
      </trkpt>
      <trkpt lat="43.91233" lon="7.52367">
        <ele>476.1331</ele>
        <time>2014-09-30T11:27:31Z</time>
      </trkpt>
      <trkpt lat="43.91229" lon="7.52366">
        <ele>476.14062</ele>
        <time>2014-09-30T11:27:36Z</time>
      </trkpt>
      <trkpt lat="43.91229" lon="7.52367">
        <ele>476.14062</ele>
        <time>2014-09-30T11:27:41Z</time>
      </trkpt>
      <trkpt lat="43.91231" lon="7.52368">
        <ele>476.14062</ele>
        <time>2014-09-30T11:27:46Z</time>
      </trkpt>
      <trkpt lat="43.91232" lon="7.52369">
        <ele>476.14062</ele>
        <time>2014-09-30T11:27:51Z</time>
      </trkpt>
      <trkpt lat="43.91233" lon="7.52369">
        <ele>476.14062</ele>
        <time>2014-09-30T11:27:56Z</time>
      </trkpt>
      <trkpt lat="43.91233" lon="7.52369">
        <ele>476.14062</ele>
        <time>2014-09-30T11:28:01Z</time>
      </trkpt>
      <trkpt lat="43.91233" lon="7.5237">
        <ele>476.14062</ele>
        <time>2014-09-30T11:28:06Z</time>
      </trkpt>
      <trkpt lat="43.91231" lon="7.52371">
        <ele>476.14062</ele>
        <time>2014-09-30T11:28:11Z</time>
      </trkpt>
      <trkpt lat="43.91231" lon="7.52369">
        <ele>476.02252</ele>
        <time>2014-09-30T11:28:16Z</time>
      </trkpt>
      <trkpt lat="43.91233" lon="7.52369">
        <ele>476.02252</ele>
        <time>2014-09-30T11:28:21Z</time>
      </trkpt>
      <trkpt lat="43.91233" lon="7.52369">
        <ele>476.02252</ele>
        <time>2014-09-30T11:28:27Z</time>
      </trkpt>
      <trkpt lat="43.91231" lon="7.52369">
        <ele>476.02252</ele>
        <time>2014-09-30T11:28:32Z</time>
      </trkpt>
      <trkpt lat="43.91231" lon="7.52367">
        <ele>476.02252</ele>
        <time>2014-09-30T11:28:36Z</time>
      </trkpt>
      <trkpt lat="43.91231" lon="7.52364">
        <ele>476.02252</ele>
        <time>2014-09-30T11:28:41Z</time>
      </trkpt>
      <trkpt lat="43.9123" lon="7.52363">
        <ele>475.70532</ele>
        <time>2014-09-30T11:28:46Z</time>
      </trkpt>
      <trkpt lat="43.91229" lon="7.52364">
        <ele>475.70532</ele>
        <time>2014-09-30T11:28:51Z</time>
      </trkpt>
      <trkpt lat="43.91229" lon="7.52365">
        <ele>475.70532</ele>
        <time>2014-09-30T11:28:56Z</time>
      </trkpt>
      <trkpt lat="43.91229" lon="7.52365">
        <ele>475.70532</ele>
        <time>2014-09-30T11:29:01Z</time>
      </trkpt>
      <trkpt lat="43.91229" lon="7.52367">
        <ele>475.70532</ele>
        <time>2014-09-30T11:29:06Z</time>
      </trkpt>
      <trkpt lat="43.91229" lon="7.52366">
        <ele>475.70532</ele>
        <time>2014-09-30T11:29:11Z</time>
      </trkpt>
      <trkpt lat="43.91228" lon="7.52366">
        <ele>475.70532</ele>
        <time>2014-09-30T11:29:16Z</time>
      </trkpt>
      <trkpt lat="43.91229" lon="7.52369">
        <ele>475.70532</ele>
        <time>2014-09-30T11:29:21Z</time>
      </trkpt>
      <trkpt lat="43.9123" lon="7.5237">
        <ele>475.70532</ele>
        <time>2014-09-30T11:29:26Z</time>
      </trkpt>
      <trkpt lat="43.91229" lon="7.5237">
        <ele>475.35196</ele>
        <time>2014-09-30T11:29:31Z</time>
      </trkpt>
      <trkpt lat="43.91229" lon="7.5237">
        <ele>475.35196</ele>
        <time>2014-09-30T11:29:36Z</time>
      </trkpt>
      <trkpt lat="43.91228" lon="7.52369">
        <ele>475.35196</ele>
        <time>2014-09-30T11:29:41Z</time>
      </trkpt>
      <trkpt lat="43.91229" lon="7.52369">
        <ele>475.35196</ele>
        <time>2014-09-30T11:29:46Z</time>
      </trkpt>
      <trkpt lat="43.91229" lon="7.52369">
        <ele>475.35196</ele>
        <time>2014-09-30T11:29:51Z</time>
      </trkpt>
      <trkpt lat="43.91229" lon="7.52369">
        <ele>475.35196</ele>
        <time>2014-09-30T11:30:21Z</time>
      </trkpt>
      <trkpt lat="43.91229" lon="7.52369">
        <ele>475.35196</ele>
        <time>2014-09-30T11:30:27Z</time>
      </trkpt>
      <trkpt lat="43.91229" lon="7.52373">
        <ele>475.35196</ele>
        <time>2014-09-30T11:30:31Z</time>
      </trkpt>
      <trkpt lat="43.91229" lon="7.52373">
        <ele>475.35196</ele>
        <time>2014-09-30T11:30:36Z</time>
      </trkpt>
      <trkpt lat="43.91231" lon="7.52372">
        <ele>475.35196</ele>
        <time>2014-09-30T11:30:41Z</time>
      </trkpt>
      <trkpt lat="43.91232" lon="7.52372">
        <ele>475.35196</ele>
        <time>2014-09-30T11:30:46Z</time>
      </trkpt>
      <trkpt lat="43.91232" lon="7.52373">
        <ele>475.01248</ele>
        <time>2014-09-30T11:30:51Z</time>
      </trkpt>
      <trkpt lat="43.91232" lon="7.52376">
        <ele>475.01248</ele>
        <time>2014-09-30T11:30:56Z</time>
      </trkpt>
      <trkpt lat="43.91232" lon="7.52378">
        <ele>475.01248</ele>
        <time>2014-09-30T11:31:01Z</time>
      </trkpt>
      <trkpt lat="43.91232" lon="7.52378">
        <ele>475.01248</ele>
        <time>2014-09-30T11:31:06Z</time>
      </trkpt>
      <trkpt lat="43.91233" lon="7.52377">
        <ele>475.01248</ele>
        <time>2014-09-30T11:31:11Z</time>
      </trkpt>
      <trkpt lat="43.91232" lon="7.52377">
        <ele>475.01248</ele>
        <time>2014-09-30T11:31:16Z</time>
      </trkpt>
      <trkpt lat="43.91232" lon="7.52379">
        <ele>475.01248</ele>
        <time>2014-09-30T11:31:21Z</time>
      </trkpt>
      <trkpt lat="43.91231" lon="7.52382">
        <ele>475.01248</ele>
        <time>2014-09-30T11:31:27Z</time>
      </trkpt>
      <trkpt lat="43.9123" lon="7.52383">
        <ele>474.64667</ele>
        <time>2014-09-30T11:31:31Z</time>
      </trkpt>
      <trkpt lat="43.9123" lon="7.52385">
        <ele>474.64667</ele>
        <time>2014-09-30T11:31:36Z</time>
      </trkpt>
      <trkpt lat="43.91229" lon="7.52387">
        <ele>474.64667</ele>
        <time>2014-09-30T11:31:42Z</time>
      </trkpt>
      <trkpt lat="43.91228" lon="7.5239">
        <ele>474.64667</ele>
        <time>2014-09-30T11:31:46Z</time>
      </trkpt>
      <trkpt lat="43.91227" lon="7.52394">
        <ele>474.64667</ele>
        <time>2014-09-30T11:31:51Z</time>
      </trkpt>
      <trkpt lat="43.91226" lon="7.52397">
        <ele>474.26047</ele>
        <time>2014-09-30T11:31:56Z</time>
      </trkpt>
      <trkpt lat="43.91225" lon="7.524">
        <ele>474.26047</ele>
        <time>2014-09-30T11:32:01Z</time>
      </trkpt>
      <trkpt lat="43.91225" lon="7.524">
        <ele>474.26047</ele>
        <time>2014-09-30T11:32:06Z</time>
      </trkpt>
      <trkpt lat="43.91224" lon="7.52401">
        <ele>474.26047</ele>
        <time>2014-09-30T11:32:11Z</time>
      </trkpt>
      <trkpt lat="43.91223" lon="7.52406">
        <ele>474.26047</ele>
        <time>2014-09-30T11:32:16Z</time>
      </trkpt>
      <trkpt lat="43.91221" lon="7.52408">
        <ele>473.87366</ele>
        <time>2014-09-30T11:32:21Z</time>
      </trkpt>
      <trkpt lat="43.91217" lon="7.52416">
        <ele>473.87366</ele>
        <time>2014-09-30T11:32:26Z</time>
      </trkpt>
      <trkpt lat="43.91217" lon="7.52421">
        <ele>473.67743</ele>
        <time>2014-09-30T11:32:31Z</time>
      </trkpt>
      <trkpt lat="43.91219" lon="7.52425">
        <ele>473.67743</ele>
        <time>2014-09-30T11:32:36Z</time>
      </trkpt>
      <trkpt lat="43.9122" lon="7.52429">
        <ele>473.67743</ele>
        <time>2014-09-30T11:32:41Z</time>
      </trkpt>
      <trkpt lat="43.91219" lon="7.52433">
        <ele>473.315</ele>
        <time>2014-09-30T11:32:46Z</time>
      </trkpt>
      <trkpt lat="43.91215" lon="7.52436">
        <ele>473.315</ele>
        <time>2014-09-30T11:32:51Z</time>
      </trkpt>
      <trkpt lat="43.9121" lon="7.52438">
        <ele>472.65796</ele>
        <time>2014-09-30T11:32:56Z</time>
      </trkpt>
      <trkpt lat="43.91207" lon="7.52442">
        <ele>472.65796</ele>
        <time>2014-09-30T11:33:01Z</time>
      </trkpt>
      <trkpt lat="43.91206" lon="7.52444">
        <ele>472.65796</ele>
        <time>2014-09-30T11:33:06Z</time>
      </trkpt>
      <trkpt lat="43.91205" lon="7.52445">
        <ele>472.65796</ele>
        <time>2014-09-30T11:33:11Z</time>
      </trkpt>
      <trkpt lat="43.91206" lon="7.52445">
        <ele>472.65796</ele>
        <time>2014-09-30T11:33:17Z</time>
      </trkpt>
      <trkpt lat="43.91206" lon="7.52445">
        <ele>472.65796</ele>
        <time>2014-09-30T11:33:21Z</time>
      </trkpt>
      <trkpt lat="43.91208" lon="7.52446">
        <ele>471.71768</ele>
        <time>2014-09-30T11:33:37Z</time>
      </trkpt>
      <trkpt lat="43.91208" lon="7.52446">
        <ele>471.71768</ele>
        <time>2014-09-30T11:33:41Z</time>
      </trkpt>
      <trkpt lat="43.91209" lon="7.52448">
        <ele>471.71768</ele>
        <time>2014-09-30T11:33:46Z</time>
      </trkpt>
      <trkpt lat="43.91209" lon="7.52448">
        <ele>471.71768</ele>
        <time>2014-09-30T11:33:51Z</time>
      </trkpt>
      <trkpt lat="43.91209" lon="7.52448">
        <ele>471.71768</ele>
        <time>2014-09-30T11:33:56Z</time>
      </trkpt>
      <trkpt lat="43.91209" lon="7.52449">
        <ele>471.71768</ele>
        <time>2014-09-30T11:34:16Z</time>
      </trkpt>
      <trkpt lat="43.91209" lon="7.52449">
        <ele>471.71768</ele>
        <time>2014-09-30T11:34:21Z</time>
      </trkpt>
      <trkpt lat="43.91209" lon="7.52445">
        <ele>471.71768</ele>
        <time>2014-09-30T11:34:41Z</time>
      </trkpt>
      <trkpt lat="43.91207" lon="7.52441">
        <ele>471.71768</ele>
        <time>2014-09-30T11:34:46Z</time>
      </trkpt>
      <trkpt lat="43.91206" lon="7.5244">
        <ele>470.01538</ele>
        <time>2014-09-30T11:34:51Z</time>
      </trkpt>
      <trkpt lat="43.91205" lon="7.5244">
        <ele>470.01538</ele>
        <time>2014-09-30T11:35:11Z</time>
      </trkpt>
      <trkpt lat="43.91203" lon="7.5244">
        <ele>470.01538</ele>
        <time>2014-09-30T11:35:17Z</time>
      </trkpt>
      <trkpt lat="43.91204" lon="7.52439">
        <ele>470.01538</ele>
        <time>2014-09-30T11:35:22Z</time>
      </trkpt>
      <trkpt lat="43.91205" lon="7.5244">
        <ele>470.01538</ele>
        <time>2014-09-30T11:35:27Z</time>
      </trkpt>
      <trkpt lat="43.91204" lon="7.5244">
        <ele>470.01538</ele>
        <time>2014-09-30T11:35:32Z</time>
      </trkpt>
      <trkpt lat="43.91204" lon="7.52437">
        <ele>470.01538</ele>
        <time>2014-09-30T11:35:36Z</time>
      </trkpt>
      <trkpt lat="43.91205" lon="7.52437">
        <ele>470.01538</ele>
        <time>2014-09-30T11:35:41Z</time>
      </trkpt>
      <trkpt lat="43.91205" lon="7.52436">
        <ele>470.01538</ele>
        <time>2014-09-30T11:35:46Z</time>
      </trkpt>
      <trkpt lat="43.91205" lon="7.52435">
        <ele>470.01538</ele>
        <time>2014-09-30T11:35:51Z</time>
      </trkpt>
      <trkpt lat="43.91205" lon="7.52436">
        <ele>470.01538</ele>
        <time>2014-09-30T11:35:56Z</time>
      </trkpt>
      <trkpt lat="43.91205" lon="7.52437">
        <ele>468.23352</ele>
        <time>2014-09-30T11:36:01Z</time>
      </trkpt>
      <trkpt lat="43.91206" lon="7.52437">
        <ele>468.23352</ele>
        <time>2014-09-30T11:36:06Z</time>
      </trkpt>
      <trkpt lat="43.91206" lon="7.52437">
        <ele>468.23352</ele>
        <time>2014-09-30T11:36:11Z</time>
      </trkpt>
      <trkpt lat="43.91205" lon="7.52437">
        <ele>468.23352</ele>
        <time>2014-09-30T11:36:16Z</time>
      </trkpt>
      <trkpt lat="43.91205" lon="7.52438">
        <ele>468.23352</ele>
        <time>2014-09-30T11:36:21Z</time>
      </trkpt>
      <trkpt lat="43.91205" lon="7.52439">
        <ele>468.23352</ele>
        <time>2014-09-30T11:36:26Z</time>
      </trkpt>
      <trkpt lat="43.91206" lon="7.52439">
        <ele>468.23352</ele>
        <time>2014-09-30T11:36:31Z</time>
      </trkpt>
      <trkpt lat="43.9121" lon="7.52439">
        <ele>468.23352</ele>
        <time>2014-09-30T11:36:36Z</time>
      </trkpt>
      <trkpt lat="43.91216" lon="7.5244">
        <ele>466.60098</ele>
        <time>2014-09-30T11:36:41Z</time>
      </trkpt>
      <trkpt lat="43.91219" lon="7.52438">
        <ele>466.60098</ele>
        <time>2014-09-30T11:36:46Z</time>
      </trkpt>
      <trkpt lat="43.91221" lon="7.52434">
        <ele>466.60098</ele>
        <time>2014-09-30T11:36:51Z</time>
      </trkpt>
      <trkpt lat="43.91222" lon="7.52428">
        <ele>465.0843</ele>
        <time>2014-09-30T11:36:56Z</time>
      </trkpt>
      <trkpt lat="43.91223" lon="7.52426">
        <ele>465.0843</ele>
        <time>2014-09-30T11:37:01Z</time>
      </trkpt>
      <trkpt lat="43.91222" lon="7.52422">
        <ele>465.0843</ele>
        <time>2014-09-30T11:37:06Z</time>
      </trkpt>
      <trkpt lat="43.91221" lon="7.52419">
        <ele>465.0843</ele>
        <time>2014-09-30T11:37:11Z</time>
      </trkpt>
      <trkpt lat="43.91222" lon="7.52414">
        <ele>464.0843</ele>
        <time>2014-09-30T11:37:16Z</time>
      </trkpt>
      <trkpt lat="43.9122" lon="7.52408">
        <ele>464.0843</ele>
        <time>2014-09-30T11:37:21Z</time>
      </trkpt>
      <trkpt lat="43.9122" lon="7.52402">
        <ele>463.23575</ele>
        <time>2014-09-30T11:37:26Z</time>
      </trkpt>
      <trkpt lat="43.91221" lon="7.52398">
        <ele>463.23575</ele>
        <time>2014-09-30T11:37:31Z</time>
      </trkpt>
      <trkpt lat="43.91221" lon="7.52395">
        <ele>463.23575</ele>
        <time>2014-09-30T11:37:36Z</time>
      </trkpt>
      <trkpt lat="43.91222" lon="7.5239">
        <ele>463.23575</ele>
        <time>2014-09-30T11:37:41Z</time>
      </trkpt>
      <trkpt lat="43.91222" lon="7.52389">
        <ele>462.64645</ele>
        <time>2014-09-30T11:37:46Z</time>
      </trkpt>
      <trkpt lat="43.91223" lon="7.52389">
        <ele>462.64645</ele>
        <time>2014-09-30T11:37:51Z</time>
      </trkpt>
      <trkpt lat="43.91223" lon="7.52387">
        <ele>462.64645</ele>
        <time>2014-09-30T11:37:56Z</time>
      </trkpt>
      <trkpt lat="43.91223" lon="7.52384">
        <ele>462.64645</ele>
        <time>2014-09-30T11:38:01Z</time>
      </trkpt>
      <trkpt lat="43.91223" lon="7.52383">
        <ele>462.64645</ele>
        <time>2014-09-30T11:38:06Z</time>
      </trkpt>
      <trkpt lat="43.91225" lon="7.52381">
        <ele>462.64645</ele>
        <time>2014-09-30T11:38:11Z</time>
      </trkpt>
      <trkpt lat="43.91226" lon="7.52378">
        <ele>462.37213</ele>
        <time>2014-09-30T11:38:16Z</time>
      </trkpt>
      <trkpt lat="43.91228" lon="7.52374">
        <ele>462.37213</ele>
        <time>2014-09-30T11:38:21Z</time>
      </trkpt>
      <trkpt lat="43.91229" lon="7.52371">
        <ele>462.37213</ele>
        <time>2014-09-30T11:38:26Z</time>
      </trkpt>
      <trkpt lat="43.9123" lon="7.52369">
        <ele>462.37213</ele>
        <time>2014-09-30T11:38:31Z</time>
      </trkpt>
      <trkpt lat="43.91228" lon="7.52368">
        <ele>462.40573</ele>
        <time>2014-09-30T11:38:36Z</time>
      </trkpt>
      <trkpt lat="43.91227" lon="7.52367">
        <ele>462.40573</ele>
        <time>2014-09-30T11:38:41Z</time>
      </trkpt>
      <trkpt lat="43.91227" lon="7.52364">
        <ele>462.40573</ele>
        <time>2014-09-30T11:38:46Z</time>
      </trkpt>
      <trkpt lat="43.91225" lon="7.52363">
        <ele>462.40573</ele>
        <time>2014-09-30T11:38:51Z</time>
      </trkpt>
      <trkpt lat="43.91224" lon="7.52363">
        <ele>462.40573</ele>
        <time>2014-09-30T11:38:56Z</time>
      </trkpt>
      <trkpt lat="43.91224" lon="7.52362">
        <ele>462.40573</ele>
        <time>2014-09-30T11:39:01Z</time>
      </trkpt>
      <trkpt lat="43.91225" lon="7.52365">
        <ele>462.53793</ele>
        <time>2014-09-30T11:39:06Z</time>
      </trkpt>
      <trkpt lat="43.91226" lon="7.52367">
        <ele>462.53793</ele>
        <time>2014-09-30T11:39:11Z</time>
      </trkpt>
      <trkpt lat="43.91223" lon="7.52365">
        <ele>462.53793</ele>
        <time>2014-09-30T11:39:16Z</time>
      </trkpt>
      <trkpt lat="43.91218" lon="7.52361">
        <ele>462.68973</ele>
        <time>2014-09-30T11:39:21Z</time>
      </trkpt>
      <trkpt lat="43.91219" lon="7.52359">
        <ele>462.68973</ele>
        <time>2014-09-30T11:39:26Z</time>
      </trkpt>
      <trkpt lat="43.9122" lon="7.52356">
        <ele>462.68973</ele>
        <time>2014-09-30T11:39:31Z</time>
      </trkpt>
      <trkpt lat="43.9122" lon="7.52356">
        <ele>462.68973</ele>
        <time>2014-09-30T11:39:36Z</time>
      </trkpt>
      <trkpt lat="43.91221" lon="7.52356">
        <ele>462.68973</ele>
        <time>2014-09-30T11:39:41Z</time>
      </trkpt>
      <trkpt lat="43.91221" lon="7.52356">
        <ele>462.68973</ele>
        <time>2014-09-30T11:39:47Z</time>
      </trkpt>
      <trkpt lat="43.91221" lon="7.52361">
        <ele>462.68973</ele>
        <time>2014-09-30T11:40:51Z</time>
      </trkpt>
      <trkpt lat="43.91221" lon="7.52361">
        <ele>462.68973</ele>
        <time>2014-09-30T11:40:56Z</time>
      </trkpt>
      <trkpt lat="43.91219" lon="7.52375">
        <ele>463.33527</ele>
        <time>2014-09-30T11:41:01Z</time>
      </trkpt>
      <trkpt lat="43.91219" lon="7.52375">
        <ele>463.33527</ele>
        <time>2014-09-30T11:41:06Z</time>
      </trkpt>
      <trkpt lat="43.9122" lon="7.52373">
        <ele>463.33527</ele>
        <time>2014-09-30T11:41:11Z</time>
      </trkpt>
      <trkpt lat="43.91222" lon="7.52365">
        <ele>463.33527</ele>
        <time>2014-09-30T11:41:16Z</time>
      </trkpt>
      <trkpt lat="43.91222" lon="7.52363">
        <ele>464.03333</ele>
        <time>2014-09-30T11:41:21Z</time>
      </trkpt>
      <trkpt lat="43.91222" lon="7.52361">
        <ele>464.03333</ele>
        <time>2014-09-30T11:41:26Z</time>
      </trkpt>
      <trkpt lat="43.91223" lon="7.52361">
        <ele>464.03333</ele>
        <time>2014-09-30T11:41:31Z</time>
      </trkpt>
      <trkpt lat="43.91225" lon="7.52362">
        <ele>464.03333</ele>
        <time>2014-09-30T11:41:36Z</time>
      </trkpt>
      <trkpt lat="43.91222" lon="7.52361">
        <ele>464.03333</ele>
        <time>2014-09-30T11:41:41Z</time>
      </trkpt>
      <trkpt lat="43.91224" lon="7.5236">
        <ele>464.03333</ele>
        <time>2014-09-30T11:41:46Z</time>
      </trkpt>
      <trkpt lat="43.91227" lon="7.52363">
        <ele>465.0233</ele>
        <time>2014-09-30T11:41:51Z</time>
      </trkpt>
      <trkpt lat="43.9123" lon="7.52363">
        <ele>465.0233</ele>
        <time>2014-09-30T11:41:56Z</time>
      </trkpt>
      <trkpt lat="43.91231" lon="7.52362">
        <ele>465.0233</ele>
        <time>2014-09-30T11:42:01Z</time>
      </trkpt>
      <trkpt lat="43.91231" lon="7.52358">
        <ele>465.0233</ele>
        <time>2014-09-30T11:42:06Z</time>
      </trkpt>
      <trkpt lat="43.91231" lon="7.52357">
        <ele>465.0233</ele>
        <time>2014-09-30T11:42:11Z</time>
      </trkpt>
      <trkpt lat="43.91232" lon="7.5236">
        <ele>465.6182</ele>
        <time>2014-09-30T11:42:16Z</time>
      </trkpt>
      <trkpt lat="43.91233" lon="7.52361">
        <ele>465.6182</ele>
        <time>2014-09-30T11:42:21Z</time>
      </trkpt>
      <trkpt lat="43.91232" lon="7.52361">
        <ele>465.6182</ele>
        <time>2014-09-30T11:42:26Z</time>
      </trkpt>
      <trkpt lat="43.91233" lon="7.5236">
        <ele>465.6182</ele>
        <time>2014-09-30T11:42:31Z</time>
      </trkpt>
      <trkpt lat="43.91233" lon="7.5236">
        <ele>465.6182</ele>
        <time>2014-09-30T11:42:36Z</time>
      </trkpt>
      <trkpt lat="43.91234" lon="7.52358">
        <ele>465.6182</ele>
        <time>2014-09-30T11:42:41Z</time>
      </trkpt>
      <trkpt lat="43.91234" lon="7.52358">
        <ele>465.6182</ele>
        <time>2014-09-30T11:42:46Z</time>
      </trkpt>
      <trkpt lat="43.91232" lon="7.52361">
        <ele>465.6182</ele>
        <time>2014-09-30T11:42:51Z</time>
      </trkpt>
      <trkpt lat="43.91232" lon="7.52362">
        <ele>465.6182</ele>
        <time>2014-09-30T11:42:56Z</time>
      </trkpt>
      <trkpt lat="43.91231" lon="7.52362">
        <ele>465.6182</ele>
        <time>2014-09-30T11:43:01Z</time>
      </trkpt>
      <trkpt lat="43.91232" lon="7.52365">
        <ele>466.1193</ele>
        <time>2014-09-30T11:43:06Z</time>
      </trkpt>
      <trkpt lat="43.91233" lon="7.52363">
        <ele>466.1193</ele>
        <time>2014-09-30T11:43:11Z</time>
      </trkpt>
      <trkpt lat="43.91234" lon="7.52362">
        <ele>466.1193</ele>
        <time>2014-09-30T11:43:16Z</time>
      </trkpt>
      <trkpt lat="43.91235" lon="7.52362">
        <ele>466.1193</ele>
        <time>2014-09-30T11:43:21Z</time>
      </trkpt>
      <trkpt lat="43.91234" lon="7.52359">
        <ele>466.1193</ele>
        <time>2014-09-30T11:43:26Z</time>
      </trkpt>
      <trkpt lat="43.91234" lon="7.52357">
        <ele>466.1193</ele>
        <time>2014-09-30T11:43:31Z</time>
      </trkpt>
      <trkpt lat="43.91236" lon="7.52357">
        <ele>466.1193</ele>
        <time>2014-09-30T11:43:36Z</time>
      </trkpt>
      <trkpt lat="43.91237" lon="7.52356">
        <ele>466.80582</ele>
        <time>2014-09-30T11:43:41Z</time>
      </trkpt>
      <trkpt lat="43.91239" lon="7.52356">
        <ele>466.80582</ele>
        <time>2014-09-30T11:43:46Z</time>
      </trkpt>
      <trkpt lat="43.91241" lon="7.52357">
        <ele>466.80582</ele>
        <time>2014-09-30T11:43:51Z</time>
      </trkpt>
      <trkpt lat="43.9124" lon="7.52354">
        <ele>466.80582</ele>
        <time>2014-09-30T11:43:56Z</time>
      </trkpt>
      <trkpt lat="43.91241" lon="7.52352">
        <ele>466.80582</ele>
        <time>2014-09-30T11:44:01Z</time>
      </trkpt>
      <trkpt lat="43.91241" lon="7.5235">
        <ele>466.80582</ele>
        <time>2014-09-30T11:44:06Z</time>
      </trkpt>
      <trkpt lat="43.91241" lon="7.52349">
        <ele>467.7054</ele>
        <time>2014-09-30T11:44:11Z</time>
      </trkpt>
      <trkpt lat="43.91241" lon="7.52349">
        <ele>467.7054</ele>
        <time>2014-09-30T11:44:16Z</time>
      </trkpt>
      <trkpt lat="43.91243" lon="7.52347">
        <ele>467.7054</ele>
        <time>2014-09-30T11:44:21Z</time>
      </trkpt>
      <trkpt lat="43.91244" lon="7.52345">
        <ele>467.7054</ele>
        <time>2014-09-30T11:44:26Z</time>
      </trkpt>
      <trkpt lat="43.91244" lon="7.52342">
        <ele>467.7054</ele>
        <time>2014-09-30T11:44:31Z</time>
      </trkpt>
      <trkpt lat="43.91243" lon="7.52342">
        <ele>467.7054</ele>
        <time>2014-09-30T11:44:36Z</time>
      </trkpt>
      <trkpt lat="43.91241" lon="7.5234">
        <ele>468.82864</ele>
        <time>2014-09-30T11:44:41Z</time>
      </trkpt>
      <trkpt lat="43.91241" lon="7.52337">
        <ele>468.82864</ele>
        <time>2014-09-30T11:44:46Z</time>
      </trkpt>
      <trkpt lat="43.91241" lon="7.52334">
        <ele>468.82864</ele>
        <time>2014-09-30T11:44:51Z</time>
      </trkpt>
      <trkpt lat="43.91241" lon="7.52333">
        <ele>468.82864</ele>
        <time>2014-09-30T11:44:56Z</time>
      </trkpt>
      <trkpt lat="43.91242" lon="7.52333">
        <ele>468.82864</ele>
        <time>2014-09-30T11:45:01Z</time>
      </trkpt>
      <trkpt lat="43.91242" lon="7.52337">
        <ele>468.82864</ele>
        <time>2014-09-30T11:45:06Z</time>
      </trkpt>
      <trkpt lat="43.91242" lon="7.52338">
        <ele>470.1125</ele>
        <time>2014-09-30T11:45:11Z</time>
      </trkpt>
      <trkpt lat="43.91241" lon="7.52339">
        <ele>470.1125</ele>
        <time>2014-09-30T11:45:16Z</time>
      </trkpt>
      <trkpt lat="43.9124" lon="7.52342">
        <ele>470.1125</ele>
        <time>2014-09-30T11:45:21Z</time>
      </trkpt>
      <trkpt lat="43.91238" lon="7.52343">
        <ele>470.1125</ele>
        <time>2014-09-30T11:45:26Z</time>
      </trkpt>
      <trkpt lat="43.91237" lon="7.52343">
        <ele>470.1125</ele>
        <time>2014-09-30T11:45:31Z</time>
      </trkpt>
      <trkpt lat="43.91237" lon="7.52342">
        <ele>470.1125</ele>
        <time>2014-09-30T11:45:36Z</time>
      </trkpt>
      <trkpt lat="43.91236" lon="7.5234">
        <ele>470.1125</ele>
        <time>2014-09-30T11:45:41Z</time>
      </trkpt>
      <trkpt lat="43.91236" lon="7.52339">
        <ele>471.06583</ele>
        <time>2014-09-30T11:45:46Z</time>
      </trkpt>
      <trkpt lat="43.91235" lon="7.52338">
        <ele>471.06583</ele>
        <time>2014-09-30T11:45:51Z</time>
      </trkpt>
      <trkpt lat="43.91234" lon="7.52338">
        <ele>471.06583</ele>
        <time>2014-09-30T11:45:56Z</time>
      </trkpt>
      <trkpt lat="43.91233" lon="7.52337">
        <ele>471.06583</ele>
        <time>2014-09-30T11:46:01Z</time>
      </trkpt>
      <trkpt lat="43.91233" lon="7.52336">
        <ele>471.06583</ele>
        <time>2014-09-30T11:46:06Z</time>
      </trkpt>
      <trkpt lat="43.91231" lon="7.52334">
        <ele>471.06583</ele>
        <time>2014-09-30T11:46:11Z</time>
      </trkpt>
      <trkpt lat="43.91234" lon="7.52329">
        <ele>471.4939</ele>
        <time>2014-09-30T11:46:16Z</time>
      </trkpt>
      <trkpt lat="43.91237" lon="7.5233">
        <ele>471.4939</ele>
        <time>2014-09-30T11:46:21Z</time>
      </trkpt>
      <trkpt lat="43.9124" lon="7.52331">
        <ele>471.4939</ele>
        <time>2014-09-30T11:46:26Z</time>
      </trkpt>
      <trkpt lat="43.91241" lon="7.5233">
        <ele>471.4939</ele>
        <time>2014-09-30T11:46:31Z</time>
      </trkpt>
      <trkpt lat="43.91242" lon="7.52327">
        <ele>471.75092</ele>
        <time>2014-09-30T11:46:36Z</time>
      </trkpt>
      <trkpt lat="43.91243" lon="7.52325">
        <ele>471.75092</ele>
        <time>2014-09-30T11:46:41Z</time>
      </trkpt>
      <trkpt lat="43.91245" lon="7.52323">
        <ele>471.75092</ele>
        <time>2014-09-30T11:46:46Z</time>
      </trkpt>
      <trkpt lat="43.91248" lon="7.52321">
        <ele>471.75092</ele>
        <time>2014-09-30T11:46:51Z</time>
      </trkpt>
      <trkpt lat="43.91249" lon="7.52321">
        <ele>471.75092</ele>
        <time>2014-09-30T11:46:56Z</time>
      </trkpt>
      <trkpt lat="43.91252" lon="7.5232">
        <ele>472.10794</ele>
        <time>2014-09-30T11:47:01Z</time>
      </trkpt>
      <trkpt lat="43.91252" lon="7.52319">
        <ele>472.10794</ele>
        <time>2014-09-30T11:47:06Z</time>
      </trkpt>
      <trkpt lat="43.91252" lon="7.52317">
        <ele>472.10794</ele>
        <time>2014-09-30T11:47:11Z</time>
      </trkpt>
      <trkpt lat="43.91251" lon="7.52314">
        <ele>472.10794</ele>
        <time>2014-09-30T11:47:16Z</time>
      </trkpt>
      <trkpt lat="43.9125" lon="7.52309">
        <ele>472.10794</ele>
        <time>2014-09-30T11:47:21Z</time>
      </trkpt>
      <trkpt lat="43.91251" lon="7.52305">
        <ele>472.9167</ele>
        <time>2014-09-30T11:47:26Z</time>
      </trkpt>
      <trkpt lat="43.91253" lon="7.52301">
        <ele>472.9167</ele>
        <time>2014-09-30T11:47:31Z</time>
      </trkpt>
      <trkpt lat="43.91254" lon="7.52299">
        <ele>472.9167</ele>
        <time>2014-09-30T11:47:36Z</time>
      </trkpt>
      <trkpt lat="43.91253" lon="7.52297">
        <ele>472.9167</ele>
        <time>2014-09-30T11:47:41Z</time>
      </trkpt>
      <trkpt lat="43.91253" lon="7.52293">
        <ele>474.06952</ele>
        <time>2014-09-30T11:47:46Z</time>
      </trkpt>
      <trkpt lat="43.91253" lon="7.52291">
        <ele>474.06952</ele>
        <time>2014-09-30T11:47:51Z</time>
      </trkpt>
      <trkpt lat="43.91254" lon="7.52288">
        <ele>474.06952</ele>
        <time>2014-09-30T11:47:56Z</time>
      </trkpt>
      <trkpt lat="43.91253" lon="7.52285">
        <ele>474.06952</ele>
        <time>2014-09-30T11:48:01Z</time>
      </trkpt>
      <trkpt lat="43.91254" lon="7.52282">
        <ele>474.06952</ele>
        <time>2014-09-30T11:48:06Z</time>
      </trkpt>
      <trkpt lat="43.91253" lon="7.52277">
        <ele>475.75385</ele>
        <time>2014-09-30T11:48:11Z</time>
      </trkpt>
      <trkpt lat="43.91253" lon="7.52274">
        <ele>475.75385</ele>
        <time>2014-09-30T11:48:16Z</time>
      </trkpt>
      <trkpt lat="43.91254" lon="7.52274">
        <ele>475.75385</ele>
        <time>2014-09-30T11:48:21Z</time>
      </trkpt>
      <trkpt lat="43.91254" lon="7.52277">
        <ele>475.75385</ele>
        <time>2014-09-30T11:48:26Z</time>
      </trkpt>
      <trkpt lat="43.91258" lon="7.52288">
        <ele>476.6288</ele>
        <time>2014-09-30T11:48:32Z</time>
      </trkpt>
      <trkpt lat="43.91261" lon="7.52289">
        <ele>476.6288</ele>
        <time>2014-09-30T11:48:36Z</time>
      </trkpt>
      <trkpt lat="43.91263" lon="7.52286">
        <ele>476.6288</ele>
        <time>2014-09-30T11:48:41Z</time>
      </trkpt>
      <trkpt lat="43.91265" lon="7.52284">
        <ele>476.6288</ele>
        <time>2014-09-30T11:48:46Z</time>
      </trkpt>
      <trkpt lat="43.91265" lon="7.5228">
        <ele>476.2757</ele>
        <time>2014-09-30T11:48:51Z</time>
      </trkpt>
      <trkpt lat="43.91264" lon="7.52274">
        <ele>476.2757</ele>
        <time>2014-09-30T11:48:56Z</time>
      </trkpt>
      <trkpt lat="43.91263" lon="7.52265">
        <ele>475.44858</ele>
        <time>2014-09-30T11:49:01Z</time>
      </trkpt>
      <trkpt lat="43.91265" lon="7.5226">
        <ele>475.44858</ele>
        <time>2014-09-30T11:49:06Z</time>
      </trkpt>
      <trkpt lat="43.91269" lon="7.52252">
        <ele>474.27103</ele>
        <time>2014-09-30T11:49:11Z</time>
      </trkpt>
      <trkpt lat="43.91272" lon="7.52251">
        <ele>474.27103</ele>
        <time>2014-09-30T11:49:16Z</time>
      </trkpt>
      <trkpt lat="43.91275" lon="7.52249">
        <ele>474.27103</ele>
        <time>2014-09-30T11:49:21Z</time>
      </trkpt>
      <trkpt lat="43.91275" lon="7.52244">
        <ele>472.68555</ele>
        <time>2014-09-30T11:49:26Z</time>
      </trkpt>
      <trkpt lat="43.91277" lon="7.52237">
        <ele>472.68555</ele>
        <time>2014-09-30T11:49:31Z</time>
      </trkpt>
      <trkpt lat="43.91277" lon="7.52236">
        <ele>472.68555</ele>
        <time>2014-09-30T11:49:36Z</time>
      </trkpt>
      <trkpt lat="43.91279" lon="7.52231">
        <ele>471.058</ele>
        <time>2014-09-30T11:49:41Z</time>
      </trkpt>
      <trkpt lat="43.9128" lon="7.5223">
        <ele>471.058</ele>
        <time>2014-09-30T11:49:46Z</time>
      </trkpt>
      <trkpt lat="43.91284" lon="7.52228">
        <ele>471.058</ele>
        <time>2014-09-30T11:49:51Z</time>
      </trkpt>
      <trkpt lat="43.91286" lon="7.52226">
        <ele>471.058</ele>
        <time>2014-09-30T11:49:56Z</time>
      </trkpt>
      <trkpt lat="43.91288" lon="7.52224">
        <ele>469.51138</ele>
        <time>2014-09-30T11:50:01Z</time>
      </trkpt>
      <trkpt lat="43.91292" lon="7.52222">
        <ele>469.51138</ele>
        <time>2014-09-30T11:50:06Z</time>
      </trkpt>
      <trkpt lat="43.91294" lon="7.52219">
        <ele>469.51138</ele>
        <time>2014-09-30T11:50:11Z</time>
      </trkpt>
      <trkpt lat="43.91297" lon="7.52216">
        <ele>468.07285</ele>
        <time>2014-09-30T11:50:16Z</time>
      </trkpt>
      <trkpt lat="43.91301" lon="7.52211">
        <ele>468.07285</ele>
        <time>2014-09-30T11:50:21Z</time>
      </trkpt>
      <trkpt lat="43.91306" lon="7.52208">
        <ele>466.7961</ele>
        <time>2014-09-30T11:50:26Z</time>
      </trkpt>
      <trkpt lat="43.91308" lon="7.52204">
        <ele>466.7961</ele>
        <time>2014-09-30T11:50:32Z</time>
      </trkpt>
      <trkpt lat="43.91312" lon="7.522">
        <ele>466.7961</ele>
        <time>2014-09-30T11:50:36Z</time>
      </trkpt>
      <trkpt lat="43.91316" lon="7.52194">
        <ele>465.68713</ele>
        <time>2014-09-30T11:50:41Z</time>
      </trkpt>
      <trkpt lat="43.91322" lon="7.52189">
        <ele>465.68713</ele>
        <time>2014-09-30T11:50:46Z</time>
      </trkpt>
      <trkpt lat="43.91326" lon="7.52187">
        <ele>464.50607</ele>
        <time>2014-09-30T11:50:51Z</time>
      </trkpt>
      <trkpt lat="43.91326" lon="7.52188">
        <ele>464.50607</ele>
        <time>2014-09-30T11:50:56Z</time>
      </trkpt>
      <trkpt lat="43.91328" lon="7.52189">
        <ele>464.50607</ele>
        <time>2014-09-30T11:51:01Z</time>
      </trkpt>
      <trkpt lat="43.91332" lon="7.52188">
        <ele>464.50607</ele>
        <time>2014-09-30T11:51:07Z</time>
      </trkpt>
      <trkpt lat="43.91336" lon="7.52189">
        <ele>463.3478</ele>
        <time>2014-09-30T11:51:12Z</time>
      </trkpt>
      <trkpt lat="43.91342" lon="7.52188">
        <ele>463.3478</ele>
        <time>2014-09-30T11:51:17Z</time>
      </trkpt>
      <trkpt lat="43.91346" lon="7.52188">
        <ele>462.31454</ele>
        <time>2014-09-30T11:51:21Z</time>
      </trkpt>
      <trkpt lat="43.9135" lon="7.52188">
        <ele>462.31454</ele>
        <time>2014-09-30T11:51:26Z</time>
      </trkpt>
      <trkpt lat="43.91353" lon="7.52189">
        <ele>462.31454</ele>
        <time>2014-09-30T11:51:31Z</time>
      </trkpt>
      <trkpt lat="43.91355" lon="7.52189">
        <ele>461.38535</ele>
        <time>2014-09-30T11:51:36Z</time>
      </trkpt>
      <trkpt lat="43.91359" lon="7.52191">
        <ele>461.38535</ele>
        <time>2014-09-30T11:51:42Z</time>
      </trkpt>
      <trkpt lat="43.91362" lon="7.52192">
        <ele>461.38535</ele>
        <time>2014-09-30T11:51:46Z</time>
      </trkpt>
      <trkpt lat="43.91363" lon="7.52192">
        <ele>461.38535</ele>
        <time>2014-09-30T11:51:51Z</time>
      </trkpt>
      <trkpt lat="43.91364" lon="7.52192">
        <ele>460.62683</ele>
        <time>2014-09-30T11:51:56Z</time>
      </trkpt>
      <trkpt lat="43.91368" lon="7.52193">
        <ele>460.62683</ele>
        <time>2014-09-30T11:52:01Z</time>
      </trkpt>
      <trkpt lat="43.91372" lon="7.52193">
        <ele>460.62683</ele>
        <time>2014-09-30T11:52:06Z</time>
      </trkpt>
      <trkpt lat="43.91375" lon="7.52194">
        <ele>459.812</ele>
        <time>2014-09-30T11:52:11Z</time>
      </trkpt>
      <trkpt lat="43.91379" lon="7.52193">
        <ele>459.812</ele>
        <time>2014-09-30T11:52:16Z</time>
      </trkpt>
      <trkpt lat="43.91383" lon="7.52195">
        <ele>459.812</ele>
        <time>2014-09-30T11:52:22Z</time>
      </trkpt>
      <trkpt lat="43.91389" lon="7.52196">
        <ele>459.01892</ele>
        <time>2014-09-30T11:52:26Z</time>
      </trkpt>
      <trkpt lat="43.91394" lon="7.52198">
        <ele>459.01892</ele>
        <time>2014-09-30T11:52:31Z</time>
      </trkpt>
      <trkpt lat="43.91399" lon="7.52201">
        <ele>458.2476</ele>
        <time>2014-09-30T11:52:36Z</time>
      </trkpt>
      <trkpt lat="43.91403" lon="7.52201">
        <ele>458.2476</ele>
        <time>2014-09-30T11:52:41Z</time>
      </trkpt>
      <trkpt lat="43.91406" lon="7.52202">
        <ele>458.2476</ele>
        <time>2014-09-30T11:52:46Z</time>
      </trkpt>
      <trkpt lat="43.91411" lon="7.52204">
        <ele>457.39716</ele>
        <time>2014-09-30T11:52:51Z</time>
      </trkpt>
      <trkpt lat="43.91417" lon="7.522">
        <ele>457.00818</ele>
        <time>2014-09-30T11:52:57Z</time>
      </trkpt>
      <trkpt lat="43.91422" lon="7.52199">
        <ele>456.6192</ele>
        <time>2014-09-30T11:53:01Z</time>
      </trkpt>
      <trkpt lat="43.91426" lon="7.52199">
        <ele>456.6192</ele>
        <time>2014-09-30T11:53:06Z</time>
      </trkpt>
      <trkpt lat="43.91429" lon="7.52197">
        <ele>456.6192</ele>
        <time>2014-09-30T11:53:11Z</time>
      </trkpt>
      <trkpt lat="43.91431" lon="7.52194">
        <ele>455.83783</ele>
        <time>2014-09-30T11:53:16Z</time>
      </trkpt>
      <trkpt lat="43.91434" lon="7.52191">
        <ele>455.83783</ele>
        <time>2014-09-30T11:53:21Z</time>
      </trkpt>
      <trkpt lat="43.9144" lon="7.52187">
        <ele>455.53018</ele>
        <time>2014-09-30T11:53:26Z</time>
      </trkpt>
      <trkpt lat="43.91443" lon="7.52184">
        <ele>455.53018</ele>
        <time>2014-09-30T11:53:31Z</time>
      </trkpt>
      <trkpt lat="43.91448" lon="7.52184">
        <ele>455.53018</ele>
        <time>2014-09-30T11:53:37Z</time>
      </trkpt>
      <trkpt lat="43.91452" lon="7.52184">
        <ele>455.6615</ele>
        <time>2014-09-30T11:53:42Z</time>
      </trkpt>
      <trkpt lat="43.91457" lon="7.52183">
        <ele>455.6615</ele>
        <time>2014-09-30T11:53:46Z</time>
      </trkpt>
      <trkpt lat="43.9146" lon="7.52182">
        <ele>455.6615</ele>
        <time>2014-09-30T11:53:51Z</time>
      </trkpt>
      <trkpt lat="43.91464" lon="7.52181">
        <ele>456.2847</ele>
        <time>2014-09-30T11:53:56Z</time>
      </trkpt>
      <trkpt lat="43.91469" lon="7.52178">
        <ele>456.2847</ele>
        <time>2014-09-30T11:54:01Z</time>
      </trkpt>
      <trkpt lat="43.91473" lon="7.52175">
        <ele>457.00064</ele>
        <time>2014-09-30T11:54:06Z</time>
      </trkpt>
      <trkpt lat="43.91477" lon="7.52174">
        <ele>457.00064</ele>
        <time>2014-09-30T11:54:11Z</time>
      </trkpt>
      <trkpt lat="43.91481" lon="7.52172">
        <ele>457.00064</ele>
        <time>2014-09-30T11:54:16Z</time>
      </trkpt>
      <trkpt lat="43.91485" lon="7.5217">
        <ele>458.03006</ele>
        <time>2014-09-30T11:54:22Z</time>
      </trkpt>
      <trkpt lat="43.91488" lon="7.52169">
        <ele>458.03006</ele>
        <time>2014-09-30T11:54:26Z</time>
      </trkpt>
      <trkpt lat="43.91494" lon="7.52168">
        <ele>459.15866</ele>
        <time>2014-09-30T11:54:31Z</time>
      </trkpt>
      <trkpt lat="43.91501" lon="7.52166">
        <ele>459.15866</ele>
        <time>2014-09-30T11:54:36Z</time>
      </trkpt>
      <trkpt lat="43.91504" lon="7.52168">
        <ele>460.27408</ele>
        <time>2014-09-30T11:54:41Z</time>
      </trkpt>
      <trkpt lat="43.91508" lon="7.52169">
        <ele>460.27408</ele>
        <time>2014-09-30T11:54:46Z</time>
      </trkpt>
      <trkpt lat="43.91512" lon="7.5217">
        <ele>460.74432</ele>
        <time>2014-09-30T11:54:51Z</time>
      </trkpt>
      <trkpt lat="43.91517" lon="7.5217">
        <ele>461.21457</ele>
        <time>2014-09-30T11:54:56Z</time>
      </trkpt>
      <trkpt lat="43.91522" lon="7.52168">
        <ele>461.21457</ele>
        <time>2014-09-30T11:55:01Z</time>
      </trkpt>
      <trkpt lat="43.91526" lon="7.52166">
        <ele>462.0902</ele>
        <time>2014-09-30T11:55:06Z</time>
      </trkpt>
      <trkpt lat="43.9153" lon="7.52165">
        <ele>462.0902</ele>
        <time>2014-09-30T11:55:11Z</time>
      </trkpt>
      <trkpt lat="43.91533" lon="7.52164">
        <ele>462.0902</ele>
        <time>2014-09-30T11:55:16Z</time>
      </trkpt>
      <trkpt lat="43.91536" lon="7.52161">
        <ele>462.67166</ele>
        <time>2014-09-30T11:55:21Z</time>
      </trkpt>
      <trkpt lat="43.9154" lon="7.52157">
        <ele>462.67166</ele>
        <time>2014-09-30T11:55:26Z</time>
      </trkpt>
      <trkpt lat="43.91545" lon="7.52152">
        <ele>463.00677</ele>
        <time>2014-09-30T11:55:31Z</time>
      </trkpt>
      <trkpt lat="43.91547" lon="7.5215">
        <ele>463.00677</ele>
        <time>2014-09-30T11:55:36Z</time>
      </trkpt>
      <trkpt lat="43.91552" lon="7.52148">
        <ele>463.00677</ele>
        <time>2014-09-30T11:55:41Z</time>
      </trkpt>
      <trkpt lat="43.91558" lon="7.52143">
        <ele>463.39996</ele>
        <time>2014-09-30T11:55:46Z</time>
      </trkpt>
      <trkpt lat="43.91563" lon="7.52143">
        <ele>463.39996</ele>
        <time>2014-09-30T11:55:51Z</time>
      </trkpt>
      <trkpt lat="43.91568" lon="7.52142">
        <ele>463.74408</ele>
        <time>2014-09-30T11:55:56Z</time>
      </trkpt>
      <trkpt lat="43.91574" lon="7.52144">
        <ele>463.74408</ele>
        <time>2014-09-30T11:56:01Z</time>
      </trkpt>
      <trkpt lat="43.91576" lon="7.52145">
        <ele>463.74408</ele>
        <time>2014-09-30T11:56:06Z</time>
      </trkpt>
      <trkpt lat="43.91579" lon="7.52144">
        <ele>463.9256</ele>
        <time>2014-09-30T11:56:12Z</time>
      </trkpt>
      <trkpt lat="43.91581" lon="7.52142">
        <ele>463.9256</ele>
        <time>2014-09-30T11:56:16Z</time>
      </trkpt>
      <trkpt lat="43.91585" lon="7.52141">
        <ele>463.9256</ele>
        <time>2014-09-30T11:56:21Z</time>
      </trkpt>
      <trkpt lat="43.91589" lon="7.52141">
        <ele>464.1425</ele>
        <time>2014-09-30T11:56:26Z</time>
      </trkpt>
      <trkpt lat="43.91592" lon="7.52139">
        <ele>464.1425</ele>
        <time>2014-09-30T11:56:31Z</time>
      </trkpt>
      <trkpt lat="43.91597" lon="7.52137">
        <ele>464.1425</ele>
        <time>2014-09-30T11:56:36Z</time>
      </trkpt>
      <trkpt lat="43.91601" lon="7.52135">
        <ele>464.2322</ele>
        <time>2014-09-30T11:56:41Z</time>
      </trkpt>
      <trkpt lat="43.91604" lon="7.52134">
        <ele>464.2322</ele>
        <time>2014-09-30T11:56:46Z</time>
      </trkpt>
      <trkpt lat="43.91608" lon="7.52133">
        <ele>464.2322</ele>
        <time>2014-09-30T11:56:51Z</time>
      </trkpt>
      <trkpt lat="43.91612" lon="7.52131">
        <ele>464.1599</ele>
        <time>2014-09-30T11:56:56Z</time>
      </trkpt>
      <trkpt lat="43.91615" lon="7.52128">
        <ele>464.1599</ele>
        <time>2014-09-30T11:57:02Z</time>
      </trkpt>
      <trkpt lat="43.91617" lon="7.52126">
        <ele>464.1599</ele>
        <time>2014-09-30T11:57:06Z</time>
      </trkpt>
      <trkpt lat="43.91618" lon="7.52125">
        <ele>464.1599</ele>
        <time>2014-09-30T11:57:11Z</time>
      </trkpt>
      <trkpt lat="43.91622" lon="7.52123">
        <ele>464.24304</ele>
        <time>2014-09-30T11:57:16Z</time>
      </trkpt>
      <trkpt lat="43.91626" lon="7.52121">
        <ele>464.32614</ele>
        <time>2014-09-30T11:57:21Z</time>
      </trkpt>
      <trkpt lat="43.91629" lon="7.5212">
        <ele>464.32614</ele>
        <time>2014-09-30T11:57:26Z</time>
      </trkpt>
      <trkpt lat="43.91631" lon="7.52119">
        <ele>464.32614</ele>
        <time>2014-09-30T11:57:31Z</time>
      </trkpt>
      <trkpt lat="43.91632" lon="7.52119">
        <ele>464.32614</ele>
        <time>2014-09-30T11:57:36Z</time>
      </trkpt>
      <trkpt lat="43.91634" lon="7.52119">
        <ele>464.32614</ele>
        <time>2014-09-30T11:57:41Z</time>
      </trkpt>
      <trkpt lat="43.91637" lon="7.52118">
        <ele>464.19342</ele>
        <time>2014-09-30T11:57:46Z</time>
      </trkpt>
      <trkpt lat="43.91642" lon="7.52117">
        <ele>464.19342</ele>
        <time>2014-09-30T11:57:51Z</time>
      </trkpt>
      <trkpt lat="43.91644" lon="7.52117">
        <ele>464.19342</ele>
        <time>2014-09-30T11:57:56Z</time>
      </trkpt>
      <trkpt lat="43.91646" lon="7.52119">
        <ele>464.19342</ele>
        <time>2014-09-30T11:58:01Z</time>
      </trkpt>
      <trkpt lat="43.91647" lon="7.52121">
        <ele>463.9276</ele>
        <time>2014-09-30T11:58:06Z</time>
      </trkpt>
      <trkpt lat="43.91648" lon="7.52125">
        <ele>463.9276</ele>
        <time>2014-09-30T11:58:11Z</time>
      </trkpt>
      <trkpt lat="43.91649" lon="7.52129">
        <ele>463.9276</ele>
        <time>2014-09-30T11:58:16Z</time>
      </trkpt>
      <trkpt lat="43.91651" lon="7.52134">
        <ele>463.48105</ele>
        <time>2014-09-30T11:58:22Z</time>
      </trkpt>
      <trkpt lat="43.91653" lon="7.52136">
        <ele>463.48105</ele>
        <time>2014-09-30T11:58:26Z</time>
      </trkpt>
      <trkpt lat="43.91658" lon="7.52139">
        <ele>463.48105</ele>
        <time>2014-09-30T11:58:31Z</time>
      </trkpt>
      <trkpt lat="43.9166" lon="7.52143">
        <ele>462.92538</ele>
        <time>2014-09-30T11:58:36Z</time>
      </trkpt>
      <trkpt lat="43.91661" lon="7.52149">
        <ele>462.92538</ele>
        <time>2014-09-30T11:58:41Z</time>
      </trkpt>
      <trkpt lat="43.91662" lon="7.52151">
        <ele>462.92538</ele>
        <time>2014-09-30T11:58:46Z</time>
      </trkpt>
      <trkpt lat="43.91664" lon="7.52153">
        <ele>462.92538</ele>
        <time>2014-09-30T11:58:51Z</time>
      </trkpt>
      <trkpt lat="43.91665" lon="7.52155">
        <ele>462.12558</ele>
        <time>2014-09-30T11:58:56Z</time>
      </trkpt>
      <trkpt lat="43.91665" lon="7.52157">
        <ele>462.12558</ele>
        <time>2014-09-30T11:59:01Z</time>
      </trkpt>
      <trkpt lat="43.91665" lon="7.52158">
        <ele>462.12558</ele>
        <time>2014-09-30T11:59:07Z</time>
      </trkpt>
      <trkpt lat="43.91666" lon="7.5216">
        <ele>462.12558</ele>
        <time>2014-09-30T11:59:11Z</time>
      </trkpt>
      <trkpt lat="43.91668" lon="7.52159">
        <ele>462.12558</ele>
        <time>2014-09-30T11:59:16Z</time>
      </trkpt>
      <trkpt lat="43.9167" lon="7.52157">
        <ele>462.12558</ele>
        <time>2014-09-30T11:59:21Z</time>
      </trkpt>
      <trkpt lat="43.91673" lon="7.52154">
        <ele>459.3576</ele>
        <time>2014-09-30T11:59:26Z</time>
      </trkpt>
      <trkpt lat="43.91674" lon="7.52153">
        <ele>459.3576</ele>
        <time>2014-09-30T11:59:32Z</time>
      </trkpt>
      <trkpt lat="43.91678" lon="7.52152">
        <ele>459.3576</ele>
        <time>2014-09-30T11:59:36Z</time>
      </trkpt>
      <trkpt lat="43.91681" lon="7.5215">
        <ele>459.3576</ele>
        <time>2014-09-30T11:59:41Z</time>
      </trkpt>
      <trkpt lat="43.91685" lon="7.52145">
        <ele>456.05594</ele>
        <time>2014-09-30T11:59:46Z</time>
      </trkpt>
      <trkpt lat="43.91689" lon="7.52143">
        <ele>456.05594</ele>
        <time>2014-09-30T11:59:52Z</time>
      </trkpt>
      <trkpt lat="43.91694" lon="7.52138">
        <ele>452.84506</ele>
        <time>2014-09-30T11:59:56Z</time>
      </trkpt>
      <trkpt lat="43.91698" lon="7.52137">
        <ele>452.84506</ele>
        <time>2014-09-30T12:00:01Z</time>
      </trkpt>
      <trkpt lat="43.917" lon="7.52136">
        <ele>452.84506</ele>
        <time>2014-09-30T12:00:06Z</time>
      </trkpt>
      <trkpt lat="43.917" lon="7.52134">
        <ele>452.84506</ele>
        <time>2014-09-30T12:00:11Z</time>
      </trkpt>
      <trkpt lat="43.917" lon="7.52131">
        <ele>449.9285</ele>
        <time>2014-09-30T12:00:17Z</time>
      </trkpt>
      <trkpt lat="43.91707" lon="7.52127">
        <ele>449.9285</ele>
        <time>2014-09-30T12:00:22Z</time>
      </trkpt>
      <trkpt lat="43.91709" lon="7.52125">
        <ele>447.27792</ele>
        <time>2014-09-30T12:00:27Z</time>
      </trkpt>
      <trkpt lat="43.91712" lon="7.52125">
        <ele>447.27792</ele>
        <time>2014-09-30T12:00:31Z</time>
      </trkpt>
      <trkpt lat="43.91715" lon="7.52124">
        <ele>447.27792</ele>
        <time>2014-09-30T12:00:36Z</time>
      </trkpt>
      <trkpt lat="43.91719" lon="7.52122">
        <ele>444.98148</ele>
        <time>2014-09-30T12:00:41Z</time>
      </trkpt>
      <trkpt lat="43.91724" lon="7.52122">
        <ele>444.98148</ele>
        <time>2014-09-30T12:00:46Z</time>
      </trkpt>
      <trkpt lat="43.91731" lon="7.5212">
        <ele>443.0477</ele>
        <time>2014-09-30T12:00:51Z</time>
      </trkpt>
      <trkpt lat="43.91737" lon="7.5212">
        <ele>443.0477</ele>
        <time>2014-09-30T12:00:56Z</time>
      </trkpt>
      <trkpt lat="43.9174" lon="7.52118">
        <ele>443.0477</ele>
        <time>2014-09-30T12:01:01Z</time>
      </trkpt>
      <trkpt lat="43.91743" lon="7.52116">
        <ele>441.26724</ele>
        <time>2014-09-30T12:01:06Z</time>
      </trkpt>
      <trkpt lat="43.91748" lon="7.52115">
        <ele>441.26724</ele>
        <time>2014-09-30T12:01:11Z</time>
      </trkpt>
      <trkpt lat="43.9175" lon="7.52112">
        <ele>441.26724</ele>
        <time>2014-09-30T12:01:16Z</time>
      </trkpt>
      <trkpt lat="43.91755" lon="7.52111">
        <ele>439.53207</ele>
        <time>2014-09-30T12:01:21Z</time>
      </trkpt>
      <trkpt lat="43.91758" lon="7.52109">
        <ele>439.53207</ele>
        <time>2014-09-30T12:01:26Z</time>
      </trkpt>
      <trkpt lat="43.91763" lon="7.52106">
        <ele>439.53207</ele>
        <time>2014-09-30T12:01:31Z</time>
      </trkpt>
      <trkpt lat="43.91768" lon="7.52104">
        <ele>437.9436</ele>
        <time>2014-09-30T12:01:36Z</time>
      </trkpt>
      <trkpt lat="43.91775" lon="7.52099">
        <ele>437.9436</ele>
        <time>2014-09-30T12:01:41Z</time>
      </trkpt>
      <trkpt lat="43.9178" lon="7.52096">
        <ele>436.53763</ele>
        <time>2014-09-30T12:01:46Z</time>
      </trkpt>
      <trkpt lat="43.91786" lon="7.52093">
        <ele>436.53763</ele>
        <time>2014-09-30T12:01:51Z</time>
      </trkpt>
      <trkpt lat="43.9179" lon="7.52088">
        <ele>435.34668</ele>
        <time>2014-09-30T12:01:56Z</time>
      </trkpt>
      <trkpt lat="43.91794" lon="7.52084">
        <ele>435.34668</ele>
        <time>2014-09-30T12:02:01Z</time>
      </trkpt>
      <trkpt lat="43.91797" lon="7.52079">
        <ele>435.34668</ele>
        <time>2014-09-30T12:02:06Z</time>
      </trkpt>
      <trkpt lat="43.91801" lon="7.52071">
        <ele>434.47226</ele>
        <time>2014-09-30T12:02:11Z</time>
      </trkpt>
      <trkpt lat="43.91804" lon="7.52067">
        <ele>434.47226</ele>
        <time>2014-09-30T12:02:16Z</time>
      </trkpt>
      <trkpt lat="43.91806" lon="7.52062">
        <ele>434.47226</ele>
        <time>2014-09-30T12:02:21Z</time>
      </trkpt>
      <trkpt lat="43.9181" lon="7.52057">
        <ele>434.00742</ele>
        <time>2014-09-30T12:02:26Z</time>
      </trkpt>
      <trkpt lat="43.91817" lon="7.52053">
        <ele>434.00742</ele>
        <time>2014-09-30T12:02:32Z</time>
      </trkpt>
      <trkpt lat="43.91821" lon="7.5205">
        <ele>433.74887</ele>
        <time>2014-09-30T12:02:36Z</time>
      </trkpt>
      <trkpt lat="43.91827" lon="7.52048">
        <ele>433.74887</ele>
        <time>2014-09-30T12:02:41Z</time>
      </trkpt>
      <trkpt lat="43.91833" lon="7.52046">
        <ele>433.68054</ele>
        <time>2014-09-30T12:02:46Z</time>
      </trkpt>
      <trkpt lat="43.91838" lon="7.52047">
        <ele>433.68054</ele>
        <time>2014-09-30T12:02:51Z</time>
      </trkpt>
      <trkpt lat="43.9184" lon="7.52047">
        <ele>433.68054</ele>
        <time>2014-09-30T12:02:56Z</time>
      </trkpt>
      <trkpt lat="43.91844" lon="7.52049">
        <ele>433.81573</ele>
        <time>2014-09-30T12:03:01Z</time>
      </trkpt>
      <trkpt lat="43.91851" lon="7.52048">
        <ele>433.81573</ele>
        <time>2014-09-30T12:03:06Z</time>
      </trkpt>
      <trkpt lat="43.91859" lon="7.52048">
        <ele>433.90674</ele>
        <time>2014-09-30T12:03:12Z</time>
      </trkpt>
      <trkpt lat="43.91865" lon="7.52049">
        <ele>433.90674</ele>
        <time>2014-09-30T12:03:16Z</time>
      </trkpt>
      <trkpt lat="43.91871" lon="7.52049">
        <ele>433.8538</ele>
        <time>2014-09-30T12:03:21Z</time>
      </trkpt>
      <trkpt lat="43.91877" lon="7.52047">
        <ele>433.8538</ele>
        <time>2014-09-30T12:03:26Z</time>
      </trkpt>
      <trkpt lat="43.91881" lon="7.52048">
        <ele>433.6657</ele>
        <time>2014-09-30T12:03:31Z</time>
      </trkpt>
      <trkpt lat="43.91887" lon="7.52049">
        <ele>433.6657</ele>
        <time>2014-09-30T12:03:36Z</time>
      </trkpt>
      <trkpt lat="43.9189" lon="7.52051">
        <ele>433.6657</ele>
        <time>2014-09-30T12:03:42Z</time>
      </trkpt>
      <trkpt lat="43.91892" lon="7.5205">
        <ele>433.50946</ele>
        <time>2014-09-30T12:03:46Z</time>
      </trkpt>
      <trkpt lat="43.91898" lon="7.52047">
        <ele>433.50946</ele>
        <time>2014-09-30T12:03:51Z</time>
      </trkpt>
      <trkpt lat="43.91901" lon="7.52045">
        <ele>433.4388</ele>
        <time>2014-09-30T12:03:56Z</time>
      </trkpt>
      <trkpt lat="43.91904" lon="7.52042">
        <ele>433.4388</ele>
        <time>2014-09-30T12:04:01Z</time>
      </trkpt>
      <trkpt lat="43.9191" lon="7.52041">
        <ele>433.44565</ele>
        <time>2014-09-30T12:04:06Z</time>
      </trkpt>
      <trkpt lat="43.91912" lon="7.52041">
        <ele>433.44565</ele>
        <time>2014-09-30T12:04:11Z</time>
      </trkpt>
      <trkpt lat="43.91919" lon="7.5204">
        <ele>433.5654</ele>
        <time>2014-09-30T12:04:17Z</time>
      </trkpt>
      <trkpt lat="43.91922" lon="7.5204">
        <ele>433.5654</ele>
        <time>2014-09-30T12:04:21Z</time>
      </trkpt>
      <trkpt lat="43.91927" lon="7.52042">
        <ele>433.5654</ele>
        <time>2014-09-30T12:04:26Z</time>
      </trkpt>
      <trkpt lat="43.91931" lon="7.52047">
        <ele>433.83066</ele>
        <time>2014-09-30T12:04:31Z</time>
      </trkpt>
      <trkpt lat="43.91938" lon="7.52048">
        <ele>433.83066</ele>
        <time>2014-09-30T12:04:36Z</time>
      </trkpt>
      <trkpt lat="43.91943" lon="7.52046">
        <ele>433.98288</ele>
        <time>2014-09-30T12:04:41Z</time>
      </trkpt>
      <trkpt lat="43.91947" lon="7.52048">
        <ele>433.98288</ele>
        <time>2014-09-30T12:04:46Z</time>
      </trkpt>
      <trkpt lat="43.91951" lon="7.52049">
        <ele>433.98288</ele>
        <time>2014-09-30T12:04:52Z</time>
      </trkpt>
      <trkpt lat="43.91955" lon="7.52051">
        <ele>433.8406</ele>
        <time>2014-09-30T12:04:56Z</time>
      </trkpt>
      <trkpt lat="43.91959" lon="7.52056">
        <ele>433.8406</ele>
        <time>2014-09-30T12:05:01Z</time>
      </trkpt>
      <trkpt lat="43.91964" lon="7.52057">
        <ele>433.46698</ele>
        <time>2014-09-30T12:05:06Z</time>
      </trkpt>
      <trkpt lat="43.91967" lon="7.52057">
        <ele>433.23224</ele>
        <time>2014-09-30T12:05:12Z</time>
      </trkpt>
      <trkpt lat="43.9197" lon="7.52059">
        <ele>432.99747</ele>
        <time>2014-09-30T12:05:16Z</time>
      </trkpt>
      <trkpt lat="43.91974" lon="7.52062">
        <ele>432.76273</ele>
        <time>2014-09-30T12:05:21Z</time>
      </trkpt>
      <trkpt lat="43.91981" lon="7.52063">
        <ele>432.76273</ele>
        <time>2014-09-30T12:05:26Z</time>
      </trkpt>
      <trkpt lat="43.91984" lon="7.52062">
        <ele>431.88184</ele>
        <time>2014-09-30T12:05:31Z</time>
      </trkpt>
      <trkpt lat="43.91988" lon="7.52062">
        <ele>431.88184</ele>
        <time>2014-09-30T12:05:36Z</time>
      </trkpt>
      <trkpt lat="43.91992" lon="7.52062">
        <ele>431.88184</ele>
        <time>2014-09-30T12:05:41Z</time>
      </trkpt>
      <trkpt lat="43.91994" lon="7.52063">
        <ele>430.99622</ele>
        <time>2014-09-30T12:05:46Z</time>
      </trkpt>
      <trkpt lat="43.91996" lon="7.52063">
        <ele>430.99622</ele>
        <time>2014-09-30T12:05:51Z</time>
      </trkpt>
      <trkpt lat="43.91998" lon="7.52063">
        <ele>430.99622</ele>
        <time>2014-09-30T12:05:56Z</time>
      </trkpt>
      <trkpt lat="43.91997" lon="7.52064">
        <ele>430.99622</ele>
        <time>2014-09-30T12:06:01Z</time>
      </trkpt>
      <trkpt lat="43.91996" lon="7.52067">
        <ele>430.99622</ele>
        <time>2014-09-30T12:06:06Z</time>
      </trkpt>
      <trkpt lat="43.91997" lon="7.5207">
        <ele>430.99622</ele>
        <time>2014-09-30T12:06:12Z</time>
      </trkpt>
      <trkpt lat="43.91999" lon="7.52072">
        <ele>430.5587</ele>
        <time>2014-09-30T12:06:16Z</time>
      </trkpt>
      <trkpt lat="43.91999" lon="7.52071">
        <ele>430.12112</ele>
        <time>2014-09-30T12:06:21Z</time>
      </trkpt>
      <trkpt lat="43.91999" lon="7.5207">
        <ele>430.12112</ele>
        <time>2014-09-30T12:06:26Z</time>
      </trkpt>
      <trkpt lat="43.91999" lon="7.52069">
        <ele>430.12112</ele>
        <time>2014-09-30T12:06:31Z</time>
      </trkpt>
      <trkpt lat="43.91999" lon="7.52069">
        <ele>430.12112</ele>
        <time>2014-09-30T12:06:36Z</time>
      </trkpt>
      <trkpt lat="43.91998" lon="7.52066">
        <ele>430.12112</ele>
        <time>2014-09-30T12:06:41Z</time>
      </trkpt>
      <trkpt lat="43.91999" lon="7.5206">
        <ele>430.12112</ele>
        <time>2014-09-30T12:06:46Z</time>
      </trkpt>
      <trkpt lat="43.92001" lon="7.52059">
        <ele>429.21307</ele>
        <time>2014-09-30T12:06:51Z</time>
      </trkpt>
      <trkpt lat="43.92003" lon="7.52059">
        <ele>429.21307</ele>
        <time>2014-09-30T12:06:56Z</time>
      </trkpt>
      <trkpt lat="43.92003" lon="7.52063">
        <ele>429.21307</ele>
        <time>2014-09-30T12:07:01Z</time>
      </trkpt>
      <trkpt lat="43.92003" lon="7.52065">
        <ele>429.21307</ele>
        <time>2014-09-30T12:07:06Z</time>
      </trkpt>
      <trkpt lat="43.92001" lon="7.52059">
        <ele>428.4191</ele>
        <time>2014-09-30T12:07:11Z</time>
      </trkpt>
      <trkpt lat="43.91999" lon="7.52057">
        <ele>428.4191</ele>
        <time>2014-09-30T12:07:16Z</time>
      </trkpt>
      <trkpt lat="43.91999" lon="7.52054">
        <ele>428.4191</ele>
        <time>2014-09-30T12:07:22Z</time>
      </trkpt>
      <trkpt lat="43.92001" lon="7.52048">
        <ele>427.9329</ele>
        <time>2014-09-30T12:07:26Z</time>
      </trkpt>
      <trkpt lat="43.92003" lon="7.52047">
        <ele>427.9329</ele>
        <time>2014-09-30T12:07:31Z</time>
      </trkpt>
      <trkpt lat="43.92003" lon="7.52042">
        <ele>427.9329</ele>
        <time>2014-09-30T12:07:36Z</time>
      </trkpt>
      <trkpt lat="43.91994" lon="7.52046">
        <ele>428.00504</ele>
        <time>2014-09-30T12:07:41Z</time>
      </trkpt>
      <trkpt lat="43.91988" lon="7.52048">
        <ele>428.00504</ele>
        <time>2014-09-30T12:07:46Z</time>
      </trkpt>
      <trkpt lat="43.91985" lon="7.5205">
        <ele>428.46268</ele>
        <time>2014-09-30T12:07:51Z</time>
      </trkpt>
      <trkpt lat="43.91985" lon="7.52052">
        <ele>428.46268</ele>
        <time>2014-09-30T12:07:56Z</time>
      </trkpt>
      <trkpt lat="43.91983" lon="7.52053">
        <ele>428.46268</ele>
        <time>2014-09-30T12:08:01Z</time>
      </trkpt>
      <trkpt lat="43.91978" lon="7.52058">
        <ele>428.66595</ele>
        <time>2014-09-30T12:08:06Z</time>
      </trkpt>
      <trkpt lat="43.91977" lon="7.52058">
        <ele>428.86923</ele>
        <time>2014-09-30T12:08:11Z</time>
      </trkpt>
      <trkpt lat="43.91978" lon="7.52058">
        <ele>429.0725</ele>
        <time>2014-09-30T12:08:16Z</time>
      </trkpt>
      <trkpt lat="43.91978" lon="7.52058">
        <ele>429.0725</ele>
        <time>2014-09-30T12:08:21Z</time>
      </trkpt>
      <trkpt lat="43.9198" lon="7.52059">
        <ele>429.0725</ele>
        <time>2014-09-30T12:08:26Z</time>
      </trkpt>
      <trkpt lat="43.9198" lon="7.52063">
        <ele>429.0725</ele>
        <time>2014-09-30T12:08:31Z</time>
      </trkpt>
      <trkpt lat="43.9198" lon="7.5207">
        <ele>429.54593</ele>
        <time>2014-09-30T12:08:36Z</time>
      </trkpt>
      <trkpt lat="43.91981" lon="7.5207">
        <ele>429.54593</ele>
        <time>2014-09-30T12:08:41Z</time>
      </trkpt>
      <trkpt lat="43.91984" lon="7.52065">
        <ele>429.54593</ele>
        <time>2014-09-30T12:08:46Z</time>
      </trkpt>
      <trkpt lat="43.91993" lon="7.52065">
        <ele>429.87537</ele>
        <time>2014-09-30T12:08:51Z</time>
      </trkpt>
      <trkpt lat="43.91997" lon="7.52067">
        <ele>429.87537</ele>
        <time>2014-09-30T12:08:56Z</time>
      </trkpt>
      <trkpt lat="43.91999" lon="7.52067">
        <ele>429.87537</ele>
        <time>2014-09-30T12:09:01Z</time>
      </trkpt>
      <trkpt lat="43.91999" lon="7.52066">
        <ele>429.87537</ele>
        <time>2014-09-30T12:09:06Z</time>
      </trkpt>
      <trkpt lat="43.92" lon="7.52062">
        <ele>430.1983</ele>
        <time>2014-09-30T12:09:11Z</time>
      </trkpt>
      <trkpt lat="43.91996" lon="7.52061">
        <ele>430.1983</ele>
        <time>2014-09-30T12:09:16Z</time>
      </trkpt>
      <trkpt lat="43.91994" lon="7.52061">
        <ele>430.1983</ele>
        <time>2014-09-30T12:09:21Z</time>
      </trkpt>
      <trkpt lat="43.91994" lon="7.52062">
        <ele>430.1983</ele>
        <time>2014-09-30T12:09:26Z</time>
      </trkpt>
      <trkpt lat="43.91995" lon="7.52061">
        <ele>430.1983</ele>
        <time>2014-09-30T12:09:31Z</time>
      </trkpt>
      <trkpt lat="43.91994" lon="7.52062">
        <ele>430.32516</ele>
        <time>2014-09-30T12:09:36Z</time>
      </trkpt>
      <trkpt lat="43.91993" lon="7.52064">
        <ele>430.32516</ele>
        <time>2014-09-30T12:09:41Z</time>
      </trkpt>
      <trkpt lat="43.91993" lon="7.52065">
        <ele>430.32516</ele>
        <time>2014-09-30T12:09:46Z</time>
      </trkpt>
      <trkpt lat="43.91993" lon="7.52064">
        <ele>430.32516</ele>
        <time>2014-09-30T12:09:51Z</time>
      </trkpt>
      <trkpt lat="43.91993" lon="7.52065">
        <ele>430.32516</ele>
        <time>2014-09-30T12:09:56Z</time>
      </trkpt>
      <trkpt lat="43.91993" lon="7.52066">
        <ele>430.32516</ele>
        <time>2014-09-30T12:10:01Z</time>
      </trkpt>
      <trkpt lat="43.91994" lon="7.52068">
        <ele>430.32516</ele>
        <time>2014-09-30T12:10:06Z</time>
      </trkpt>
      <trkpt lat="43.91996" lon="7.52072">
        <ele>430.54208</ele>
        <time>2014-09-30T12:10:11Z</time>
      </trkpt>
      <trkpt lat="43.91996" lon="7.52071">
        <ele>430.54208</ele>
        <time>2014-09-30T12:10:16Z</time>
      </trkpt>
      <trkpt lat="43.91996" lon="7.52072">
        <ele>430.54208</ele>
        <time>2014-09-30T12:10:21Z</time>
      </trkpt>
      <trkpt lat="43.91995" lon="7.52074">
        <ele>430.54208</ele>
        <time>2014-09-30T12:10:26Z</time>
      </trkpt>
      <trkpt lat="43.91996" lon="7.52076">
        <ele>430.54208</ele>
        <time>2014-09-30T12:10:31Z</time>
      </trkpt>
      <trkpt lat="43.91994" lon="7.5208">
        <ele>430.54208</ele>
        <time>2014-09-30T12:10:36Z</time>
      </trkpt>
      <trkpt lat="43.91992" lon="7.52081">
        <ele>430.11954</ele>
        <time>2014-09-30T12:10:41Z</time>
      </trkpt>
      <trkpt lat="43.91993" lon="7.52083">
        <ele>430.11954</ele>
        <time>2014-09-30T12:10:46Z</time>
      </trkpt>
      <trkpt lat="43.91993" lon="7.52079">
        <ele>430.11954</ele>
        <time>2014-09-30T12:10:51Z</time>
      </trkpt>
      <trkpt lat="43.91992" lon="7.52076">
        <ele>430.11954</ele>
        <time>2014-09-30T12:10:56Z</time>
      </trkpt>
      <trkpt lat="43.91993" lon="7.52074">
        <ele>430.11954</ele>
        <time>2014-09-30T12:11:01Z</time>
      </trkpt>
      <trkpt lat="43.91996" lon="7.5207">
        <ele>429.5364</ele>
        <time>2014-09-30T12:11:06Z</time>
      </trkpt>
      <trkpt lat="43.91997" lon="7.52067">
        <ele>429.5364</ele>
        <time>2014-09-30T12:11:11Z</time>
      </trkpt>
      <trkpt lat="43.91999" lon="7.52063">
        <ele>429.5364</ele>
        <time>2014-09-30T12:11:17Z</time>
      </trkpt>
      <trkpt lat="43.91999" lon="7.5206">
        <ele>429.5364</ele>
        <time>2014-09-30T12:11:21Z</time>
      </trkpt>
      <trkpt lat="43.91997" lon="7.52062">
        <ele>428.84772</ele>
        <time>2014-09-30T12:11:26Z</time>
      </trkpt>
      <trkpt lat="43.91994" lon="7.52062">
        <ele>428.84772</ele>
        <time>2014-09-30T12:11:31Z</time>
      </trkpt>
      <trkpt lat="43.91993" lon="7.52063">
        <ele>428.84772</ele>
        <time>2014-09-30T12:11:36Z</time>
      </trkpt>
      <trkpt lat="43.91993" lon="7.52064">
        <ele>428.84772</ele>
        <time>2014-09-30T12:11:41Z</time>
      </trkpt>
      <trkpt lat="43.91994" lon="7.52064">
        <ele>428.84772</ele>
        <time>2014-09-30T12:11:46Z</time>
      </trkpt>
      <trkpt lat="43.91994" lon="7.52064">
        <ele>428.84772</ele>
        <time>2014-09-30T12:11:51Z</time>
      </trkpt>
      <trkpt lat="43.91991" lon="7.52068">
        <ele>428.494</ele>
        <time>2014-09-30T12:11:56Z</time>
      </trkpt>
      <trkpt lat="43.9199" lon="7.52072">
        <ele>428.494</ele>
        <time>2014-09-30T12:12:01Z</time>
      </trkpt>
      <trkpt lat="43.91992" lon="7.52074">
        <ele>428.494</ele>
        <time>2014-09-30T12:12:06Z</time>
      </trkpt>
      <trkpt lat="43.91994" lon="7.52075">
        <ele>428.494</ele>
        <time>2014-09-30T12:12:11Z</time>
      </trkpt>
      <trkpt lat="43.91994" lon="7.52076">
        <ele>428.494</ele>
        <time>2014-09-30T12:12:17Z</time>
      </trkpt>
      <trkpt lat="43.91996" lon="7.52075">
        <ele>428.494</ele>
        <time>2014-09-30T12:12:21Z</time>
      </trkpt>
      <trkpt lat="43.91996" lon="7.52076">
        <ele>428.3924</ele>
        <time>2014-09-30T12:12:26Z</time>
      </trkpt>
      <trkpt lat="43.91998" lon="7.52079">
        <ele>428.3924</ele>
        <time>2014-09-30T12:12:31Z</time>
      </trkpt>
      <trkpt lat="43.91999" lon="7.52081">
        <ele>428.3924</ele>
        <time>2014-09-30T12:12:36Z</time>
      </trkpt>
      <trkpt lat="43.91999" lon="7.52082">
        <ele>428.3924</ele>
        <time>2014-09-30T12:12:41Z</time>
      </trkpt>
      <trkpt lat="43.91999" lon="7.52084">
        <ele>428.3924</ele>
        <time>2014-09-30T12:12:46Z</time>
      </trkpt>
      <trkpt lat="43.92001" lon="7.52087">
        <ele>427.96124</ele>
        <time>2014-09-30T12:12:51Z</time>
      </trkpt>
      <trkpt lat="43.92003" lon="7.5209">
        <ele>427.96124</ele>
        <time>2014-09-30T12:12:56Z</time>
      </trkpt>
      <trkpt lat="43.92005" lon="7.52091">
        <ele>427.96124</ele>
        <time>2014-09-30T12:13:01Z</time>
      </trkpt>
      <trkpt lat="43.92006" lon="7.5209">
        <ele>427.96124</ele>
        <time>2014-09-30T12:13:06Z</time>
      </trkpt>
      <trkpt lat="43.92011" lon="7.52088">
        <ele>427.18127</ele>
        <time>2014-09-30T12:13:11Z</time>
      </trkpt>
      <trkpt lat="43.92011" lon="7.5209">
        <ele>427.18127</ele>
        <time>2014-09-30T12:13:16Z</time>
      </trkpt>
      <trkpt lat="43.92011" lon="7.52095">
        <ele>427.18127</ele>
        <time>2014-09-30T12:13:21Z</time>
      </trkpt>
      <trkpt lat="43.92013" lon="7.521">
        <ele>427.18127</ele>
        <time>2014-09-30T12:13:26Z</time>
      </trkpt>
      <trkpt lat="43.92012" lon="7.521">
        <ele>426.10773</ele>
        <time>2014-09-30T12:13:31Z</time>
      </trkpt>
      <trkpt lat="43.92011" lon="7.52099">
        <ele>426.10773</ele>
        <time>2014-09-30T12:13:36Z</time>
      </trkpt>
      <trkpt lat="43.92013" lon="7.52099">
        <ele>426.10773</ele>
        <time>2014-09-30T12:13:41Z</time>
      </trkpt>
      <trkpt lat="43.92013" lon="7.521">
        <ele>426.10773</ele>
        <time>2014-09-30T12:13:46Z</time>
      </trkpt>
      <trkpt lat="43.92012" lon="7.52097">
        <ele>425.2124</ele>
        <time>2014-09-30T12:13:51Z</time>
      </trkpt>
      <trkpt lat="43.9201" lon="7.52093">
        <ele>424.3171</ele>
        <time>2014-09-30T12:13:56Z</time>
      </trkpt>
      <trkpt lat="43.92006" lon="7.52088">
        <ele>424.3171</ele>
        <time>2014-09-30T12:14:01Z</time>
      </trkpt>
      <trkpt lat="43.92002" lon="7.52086">
        <ele>422.73038</ele>
        <time>2014-09-30T12:14:06Z</time>
      </trkpt>
      <trkpt lat="43.92" lon="7.52083">
        <ele>422.73038</ele>
        <time>2014-09-30T12:14:11Z</time>
      </trkpt>
      <trkpt lat="43.92" lon="7.5208">
        <ele>422.73038</ele>
        <time>2014-09-30T12:14:16Z</time>
      </trkpt>
      <trkpt lat="43.92" lon="7.52078">
        <ele>422.73038</ele>
        <time>2014-09-30T12:14:21Z</time>
      </trkpt>
      <trkpt lat="43.92001" lon="7.52076">
        <ele>422.73038</ele>
        <time>2014-09-30T12:14:26Z</time>
      </trkpt>
      <trkpt lat="43.92001" lon="7.52074">
        <ele>422.73038</ele>
        <time>2014-09-30T12:14:32Z</time>
      </trkpt>
      <trkpt lat="43.92001" lon="7.52073">
        <ele>421.5519</ele>
        <time>2014-09-30T12:14:36Z</time>
      </trkpt>
      <trkpt lat="43.92001" lon="7.52072">
        <ele>421.5519</ele>
        <time>2014-09-30T12:14:41Z</time>
      </trkpt>
      <trkpt lat="43.92002" lon="7.52071">
        <ele>421.5519</ele>
        <time>2014-09-30T12:14:46Z</time>
      </trkpt>
      <trkpt lat="43.92003" lon="7.5207">
        <ele>421.5519</ele>
        <time>2014-09-30T12:14:51Z</time>
      </trkpt>
      <trkpt lat="43.92003" lon="7.5207">
        <ele>421.5519</ele>
        <time>2014-09-30T12:14:56Z</time>
      </trkpt>
      <trkpt lat="43.92002" lon="7.52072">
        <ele>421.5519</ele>
        <time>2014-09-30T12:15:01Z</time>
      </trkpt>
      <trkpt lat="43.91998" lon="7.52073">
        <ele>420.79694</ele>
        <time>2014-09-30T12:15:06Z</time>
      </trkpt>
      <trkpt lat="43.91998" lon="7.52071">
        <ele>420.79694</ele>
        <time>2014-09-30T12:15:11Z</time>
      </trkpt>
      <trkpt lat="43.91997" lon="7.52073">
        <ele>420.79694</ele>
        <time>2014-09-30T12:15:17Z</time>
      </trkpt>
      <trkpt lat="43.91998" lon="7.52073">
        <ele>420.79694</ele>
        <time>2014-09-30T12:15:21Z</time>
      </trkpt>
      <trkpt lat="43.91999" lon="7.52074">
        <ele>420.79694</ele>
        <time>2014-09-30T12:15:26Z</time>
      </trkpt>
      <trkpt lat="43.91999" lon="7.52075">
        <ele>420.79694</ele>
        <time>2014-09-30T12:15:31Z</time>
      </trkpt>
      <trkpt lat="43.91998" lon="7.52076">
        <ele>420.79694</ele>
        <time>2014-09-30T12:15:37Z</time>
      </trkpt>
      <trkpt lat="43.91998" lon="7.52078">
        <ele>420.79694</ele>
        <time>2014-09-30T12:15:41Z</time>
      </trkpt>
      <trkpt lat="43.91998" lon="7.52078">
        <ele>420.79694</ele>
        <time>2014-09-30T12:15:46Z</time>
      </trkpt>
      <trkpt lat="43.92" lon="7.52078">
        <ele>420.79694</ele>
        <time>2014-09-30T12:15:51Z</time>
      </trkpt>
      <trkpt lat="43.92001" lon="7.52078">
        <ele>420.17572</ele>
        <time>2014-09-30T12:15:56Z</time>
      </trkpt>
      <trkpt lat="43.92004" lon="7.5208">
        <ele>420.17572</ele>
        <time>2014-09-30T12:16:01Z</time>
      </trkpt>
      <trkpt lat="43.92006" lon="7.52083">
        <ele>420.17572</ele>
        <time>2014-09-30T12:16:06Z</time>
      </trkpt>
      <trkpt lat="43.92008" lon="7.52086">
        <ele>420.17572</ele>
        <time>2014-09-30T12:16:11Z</time>
      </trkpt>
      <trkpt lat="43.92009" lon="7.52088">
        <ele>419.4771</ele>
        <time>2014-09-30T12:16:16Z</time>
      </trkpt>
      <trkpt lat="43.92008" lon="7.52089">
        <ele>419.4771</ele>
        <time>2014-09-30T12:16:21Z</time>
      </trkpt>
      <trkpt lat="43.92008" lon="7.5209">
        <ele>419.4771</ele>
        <time>2014-09-30T12:16:26Z</time>
      </trkpt>
      <trkpt lat="43.92008" lon="7.52089">
        <ele>419.4771</ele>
        <time>2014-09-30T12:16:31Z</time>
      </trkpt>
      <trkpt lat="43.92006" lon="7.52089">
        <ele>419.4771</ele>
        <time>2014-09-30T12:16:36Z</time>
      </trkpt>
      <trkpt lat="43.92004" lon="7.52088">
        <ele>419.4771</ele>
        <time>2014-09-30T12:16:41Z</time>
      </trkpt>
      <trkpt lat="43.92002" lon="7.52084">
        <ele>418.56332</ele>
        <time>2014-09-30T12:16:46Z</time>
      </trkpt>
      <trkpt lat="43.92005" lon="7.52082">
        <ele>418.56332</ele>
        <time>2014-09-30T12:16:51Z</time>
      </trkpt>
      <trkpt lat="43.92007" lon="7.5208">
        <ele>418.56332</ele>
        <time>2014-09-30T12:16:56Z</time>
      </trkpt>
      <trkpt lat="43.92008" lon="7.5208">
        <ele>418.56332</ele>
        <time>2014-09-30T12:17:01Z</time>
      </trkpt>
      <trkpt lat="43.92008" lon="7.52081">
        <ele>418.56332</ele>
        <time>2014-09-30T12:17:06Z</time>
      </trkpt>
      <trkpt lat="43.92007" lon="7.52081">
        <ele>418.56332</ele>
        <time>2014-09-30T12:17:11Z</time>
      </trkpt>
      <trkpt lat="43.92006" lon="7.52082">
        <ele>417.55225</ele>
        <time>2014-09-30T12:17:16Z</time>
      </trkpt>
      <trkpt lat="43.92006" lon="7.5208">
        <ele>417.55225</ele>
        <time>2014-09-30T12:17:21Z</time>
      </trkpt>
      <trkpt lat="43.92006" lon="7.5208">
        <ele>417.55225</ele>
        <time>2014-09-30T12:17:26Z</time>
      </trkpt>
      <trkpt lat="43.92005" lon="7.5208">
        <ele>417.55225</ele>
        <time>2014-09-30T12:17:31Z</time>
      </trkpt>
      <trkpt lat="43.92002" lon="7.5208">
        <ele>417.55225</ele>
        <time>2014-09-30T12:17:36Z</time>
      </trkpt>
      <trkpt lat="43.92001" lon="7.5208">
        <ele>417.55225</ele>
        <time>2014-09-30T12:17:41Z</time>
      </trkpt>
      <trkpt lat="43.92002" lon="7.5208">
        <ele>417.55225</ele>
        <time>2014-09-30T12:17:46Z</time>
      </trkpt>
      <trkpt lat="43.92004" lon="7.52077">
        <ele>417.28174</ele>
        <time>2014-09-30T12:17:51Z</time>
      </trkpt>
      <trkpt lat="43.92005" lon="7.52073">
        <ele>417.01126</ele>
        <time>2014-09-30T12:17:56Z</time>
      </trkpt>
      <trkpt lat="43.92004" lon="7.52072">
        <ele>416.74075</ele>
        <time>2014-09-30T12:18:01Z</time>
      </trkpt>
      <trkpt lat="43.92003" lon="7.52071">
        <ele>416.74075</ele>
        <time>2014-09-30T12:18:06Z</time>
      </trkpt>
      <trkpt lat="43.92002" lon="7.52068">
        <ele>416.74075</ele>
        <time>2014-09-30T12:18:11Z</time>
      </trkpt>
      <trkpt lat="43.92002" lon="7.52066">
        <ele>416.74075</ele>
        <time>2014-09-30T12:18:16Z</time>
      </trkpt>
      <trkpt lat="43.92002" lon="7.52066">
        <ele>416.74075</ele>
        <time>2014-09-30T12:18:21Z</time>
      </trkpt>
      <trkpt lat="43.92005" lon="7.52066">
        <ele>416.74075</ele>
        <time>2014-09-30T12:18:26Z</time>
      </trkpt>
      <trkpt lat="43.92008" lon="7.52066">
        <ele>416.44656</ele>
        <time>2014-09-30T12:18:31Z</time>
      </trkpt>
      <trkpt lat="43.9201" lon="7.52069">
        <ele>416.44656</ele>
        <time>2014-09-30T12:18:36Z</time>
      </trkpt>
      <trkpt lat="43.92013" lon="7.52073">
        <ele>416.44656</ele>
        <time>2014-09-30T12:18:41Z</time>
      </trkpt>
      <trkpt lat="43.92012" lon="7.52075">
        <ele>416.11227</ele>
        <time>2014-09-30T12:18:46Z</time>
      </trkpt>
      <trkpt lat="43.92011" lon="7.52074">
        <ele>416.11227</ele>
        <time>2014-09-30T12:18:51Z</time>
      </trkpt>
      <trkpt lat="43.92009" lon="7.52074">
        <ele>416.11227</ele>
        <time>2014-09-30T12:18:56Z</time>
      </trkpt>
      <trkpt lat="43.92008" lon="7.52075">
        <ele>416.11227</ele>
        <time>2014-09-30T12:19:01Z</time>
      </trkpt>
      <trkpt lat="43.92008" lon="7.52075">
        <ele>416.11227</ele>
        <time>2014-09-30T12:19:06Z</time>
      </trkpt>
      <trkpt lat="43.92009" lon="7.52078">
        <ele>416.11227</ele>
        <time>2014-09-30T12:19:11Z</time>
      </trkpt>
      <trkpt lat="43.9201" lon="7.52078">
        <ele>416.11227</ele>
        <time>2014-09-30T12:19:16Z</time>
      </trkpt>
      <trkpt lat="43.92011" lon="7.52077">
        <ele>415.35135</ele>
        <time>2014-09-30T12:19:21Z</time>
      </trkpt>
      <trkpt lat="43.9201" lon="7.52075">
        <ele>415.35135</ele>
        <time>2014-09-30T12:19:26Z</time>
      </trkpt>
      <trkpt lat="43.9201" lon="7.52073">
        <ele>415.35135</ele>
        <time>2014-09-30T12:19:31Z</time>
      </trkpt>
      <trkpt lat="43.9201" lon="7.52072">
        <ele>415.35135</ele>
        <time>2014-09-30T12:19:36Z</time>
      </trkpt>
      <trkpt lat="43.92012" lon="7.52072">
        <ele>415.35135</ele>
        <time>2014-09-30T12:19:41Z</time>
      </trkpt>
      <trkpt lat="43.92013" lon="7.52075">
        <ele>415.35135</ele>
        <time>2014-09-30T12:19:46Z</time>
      </trkpt>
      <trkpt lat="43.92012" lon="7.52078">
        <ele>414.38315</ele>
        <time>2014-09-30T12:19:51Z</time>
      </trkpt>
      <trkpt lat="43.92011" lon="7.52083">
        <ele>414.38315</ele>
        <time>2014-09-30T12:19:56Z</time>
      </trkpt>
      <trkpt lat="43.92009" lon="7.52087">
        <ele>414.38315</ele>
        <time>2014-09-30T12:20:01Z</time>
      </trkpt>
      <trkpt lat="43.92009" lon="7.52089">
        <ele>413.45477</ele>
        <time>2014-09-30T12:20:06Z</time>
      </trkpt>
      <trkpt lat="43.92009" lon="7.5209">
        <ele>413.45477</ele>
        <time>2014-09-30T12:20:11Z</time>
      </trkpt>
      <trkpt lat="43.92008" lon="7.52091">
        <ele>413.45477</ele>
        <time>2014-09-30T12:20:16Z</time>
      </trkpt>
      <trkpt lat="43.92007" lon="7.52094">
        <ele>413.45477</ele>
        <time>2014-09-30T12:20:21Z</time>
      </trkpt>
      <trkpt lat="43.92008" lon="7.52096">
        <ele>413.45477</ele>
        <time>2014-09-30T12:20:26Z</time>
      </trkpt>
      <trkpt lat="43.92008" lon="7.52099">
        <ele>413.45477</ele>
        <time>2014-09-30T12:20:31Z</time>
      </trkpt>
      <trkpt lat="43.9201" lon="7.52096">
        <ele>412.40598</ele>
        <time>2014-09-30T12:20:36Z</time>
      </trkpt>
      <trkpt lat="43.9201" lon="7.52094">
        <ele>412.40598</ele>
        <time>2014-09-30T12:20:42Z</time>
      </trkpt>
      <trkpt lat="43.92008" lon="7.52094">
        <ele>412.40598</ele>
        <time>2014-09-30T12:20:46Z</time>
      </trkpt>
      <trkpt lat="43.92006" lon="7.52097">
        <ele>412.40598</ele>
        <time>2014-09-30T12:20:51Z</time>
      </trkpt>
      <trkpt lat="43.92005" lon="7.52099">
        <ele>412.40598</ele>
        <time>2014-09-30T12:20:56Z</time>
      </trkpt>
      <trkpt lat="43.92005" lon="7.52098">
        <ele>412.40598</ele>
        <time>2014-09-30T12:21:01Z</time>
      </trkpt>
      <trkpt lat="43.92005" lon="7.52095">
        <ele>411.33356</ele>
        <time>2014-09-30T12:21:06Z</time>
      </trkpt>
      <trkpt lat="43.92005" lon="7.52093">
        <ele>411.33356</ele>
        <time>2014-09-30T12:21:11Z</time>
      </trkpt>
      <trkpt lat="43.92005" lon="7.52094">
        <ele>411.33356</ele>
        <time>2014-09-30T12:21:16Z</time>
      </trkpt>
      <trkpt lat="43.92005" lon="7.52094">
        <ele>411.33356</ele>
        <time>2014-09-30T12:21:21Z</time>
      </trkpt>
      <trkpt lat="43.92005" lon="7.52095">
        <ele>411.33356</ele>
        <time>2014-09-30T12:21:27Z</time>
      </trkpt>
      <trkpt lat="43.92006" lon="7.52097">
        <ele>411.33356</ele>
        <time>2014-09-30T12:21:31Z</time>
      </trkpt>
      <trkpt lat="43.92006" lon="7.52099">
        <ele>411.33356</ele>
        <time>2014-09-30T12:21:36Z</time>
      </trkpt>
      <trkpt lat="43.92005" lon="7.521">
        <ele>411.33356</ele>
        <time>2014-09-30T12:21:41Z</time>
      </trkpt>
      <trkpt lat="43.92004" lon="7.52103">
        <ele>410.2552</ele>
        <time>2014-09-30T12:21:46Z</time>
      </trkpt>
      <trkpt lat="43.92003" lon="7.52105">
        <ele>410.2552</ele>
        <time>2014-09-30T12:21:52Z</time>
      </trkpt>
      <trkpt lat="43.92003" lon="7.52106">
        <ele>410.2552</ele>
        <time>2014-09-30T12:21:56Z</time>
      </trkpt>
      <trkpt lat="43.92003" lon="7.52106">
        <ele>410.2552</ele>
        <time>2014-09-30T12:22:01Z</time>
      </trkpt>
      <trkpt lat="43.92003" lon="7.52106">
        <ele>410.2552</ele>
        <time>2014-09-30T12:22:06Z</time>
      </trkpt>
      <trkpt lat="43.92002" lon="7.52108">
        <ele>410.2552</ele>
        <time>2014-09-30T12:22:11Z</time>
      </trkpt>
      <trkpt lat="43.92" lon="7.5211">
        <ele>410.2552</ele>
        <time>2014-09-30T12:22:16Z</time>
      </trkpt>
      <trkpt lat="43.92" lon="7.5211">
        <ele>410.2552</ele>
        <time>2014-09-30T12:22:21Z</time>
      </trkpt>
      <trkpt lat="43.91999" lon="7.52112">
        <ele>410.2552</ele>
        <time>2014-09-30T12:22:32Z</time>
      </trkpt>
      <trkpt lat="43.91998" lon="7.52113">
        <ele>408.50992</ele>
        <time>2014-09-30T12:22:36Z</time>
      </trkpt>
      <trkpt lat="43.91998" lon="7.52113">
        <ele>408.50992</ele>
        <time>2014-09-30T12:22:41Z</time>
      </trkpt>
      <trkpt lat="43.91997" lon="7.52114">
        <ele>408.50992</ele>
        <time>2014-09-30T12:22:46Z</time>
      </trkpt>
      <trkpt lat="43.91996" lon="7.52114">
        <ele>408.50992</ele>
        <time>2014-09-30T12:22:52Z</time>
      </trkpt>
      <trkpt lat="43.91996" lon="7.52114">
        <ele>408.50992</ele>
        <time>2014-09-30T12:22:56Z</time>
      </trkpt>
      <trkpt lat="43.91996" lon="7.52114">
        <ele>408.50992</ele>
        <time>2014-09-30T12:23:01Z</time>
      </trkpt>
      <trkpt lat="43.92" lon="7.52107">
        <ele>406.6689</ele>
        <time>2014-09-30T12:23:51Z</time>
      </trkpt>
      <trkpt lat="43.92005" lon="7.52094">
        <ele>405.031</ele>
        <time>2014-09-30T12:23:56Z</time>
      </trkpt>
      <trkpt lat="43.92006" lon="7.52088">
        <ele>405.031</ele>
        <time>2014-09-30T12:24:01Z</time>
      </trkpt>
      <trkpt lat="43.92008" lon="7.52085">
        <ele>405.031</ele>
        <time>2014-09-30T12:24:06Z</time>
      </trkpt>
      <trkpt lat="43.92008" lon="7.52084">
        <ele>405.031</ele>
        <time>2014-09-30T12:24:11Z</time>
      </trkpt>
      <trkpt lat="43.92009" lon="7.52084">
        <ele>405.031</ele>
        <time>2014-09-30T12:24:16Z</time>
      </trkpt>
      <trkpt lat="43.9201" lon="7.52082">
        <ele>403.65637</ele>
        <time>2014-09-30T12:24:21Z</time>
      </trkpt>
      <trkpt lat="43.92009" lon="7.52081">
        <ele>403.65637</ele>
        <time>2014-09-30T12:24:26Z</time>
      </trkpt>
      <trkpt lat="43.92006" lon="7.52087">
        <ele>403.65637</ele>
        <time>2014-09-30T12:24:32Z</time>
      </trkpt>
      <trkpt lat="43.92005" lon="7.52093">
        <ele>402.5278</ele>
        <time>2014-09-30T12:24:36Z</time>
      </trkpt>
      <trkpt lat="43.92008" lon="7.52095">
        <ele>402.5278</ele>
        <time>2014-09-30T12:24:41Z</time>
      </trkpt>
      <trkpt lat="43.92011" lon="7.52097">
        <ele>402.5278</ele>
        <time>2014-09-30T12:24:46Z</time>
      </trkpt>
      <trkpt lat="43.92016" lon="7.52098">
        <ele>401.5711</ele>
        <time>2014-09-30T12:24:51Z</time>
      </trkpt>
      <trkpt lat="43.92019" lon="7.52098">
        <ele>401.5711</ele>
        <time>2014-09-30T12:24:56Z</time>
      </trkpt>
      <trkpt lat="43.92022" lon="7.52099">
        <ele>401.5711</ele>
        <time>2014-09-30T12:25:01Z</time>
      </trkpt>
      <trkpt lat="43.92026" lon="7.52101">
        <ele>400.88986</ele>
        <time>2014-09-30T12:25:06Z</time>
      </trkpt>
      <trkpt lat="43.92032" lon="7.52105">
        <ele>400.88986</ele>
        <time>2014-09-30T12:25:11Z</time>
      </trkpt>
      <trkpt lat="43.92035" lon="7.52105">
        <ele>400.49274</ele>
        <time>2014-09-30T12:25:16Z</time>
      </trkpt>
      <trkpt lat="43.92035" lon="7.52106">
        <ele>400.49274</ele>
        <time>2014-09-30T12:25:21Z</time>
      </trkpt>
      <trkpt lat="43.92035" lon="7.52106">
        <ele>400.49274</ele>
        <time>2014-09-30T12:25:26Z</time>
      </trkpt>
      <trkpt lat="43.92038" lon="7.52108">
        <ele>400.49274</ele>
        <time>2014-09-30T12:25:31Z</time>
      </trkpt>
      <trkpt lat="43.92042" lon="7.52107">
        <ele>400.49274</ele>
        <time>2014-09-30T12:25:36Z</time>
      </trkpt>
      <trkpt lat="43.92048" lon="7.52105">
        <ele>400.1276</ele>
        <time>2014-09-30T12:25:41Z</time>
      </trkpt>
      <trkpt lat="43.92053" lon="7.52107">
        <ele>400.1276</ele>
        <time>2014-09-30T12:25:46Z</time>
      </trkpt>
      <trkpt lat="43.92058" lon="7.52111">
        <ele>399.90646</ele>
        <time>2014-09-30T12:25:51Z</time>
      </trkpt>
      <trkpt lat="43.92062" lon="7.52114">
        <ele>399.90646</ele>
        <time>2014-09-30T12:25:56Z</time>
      </trkpt>
      <trkpt lat="43.92064" lon="7.52118">
        <ele>399.90646</ele>
        <time>2014-09-30T12:26:02Z</time>
      </trkpt>
      <trkpt lat="43.92065" lon="7.52122">
        <ele>399.9328</ele>
        <time>2014-09-30T12:26:06Z</time>
      </trkpt>
      <trkpt lat="43.92065" lon="7.52129">
        <ele>399.9328</ele>
        <time>2014-09-30T12:26:11Z</time>
      </trkpt>
      <trkpt lat="43.92067" lon="7.52137">
        <ele>399.9846</ele>
        <time>2014-09-30T12:26:16Z</time>
      </trkpt>
      <trkpt lat="43.92068" lon="7.52142">
        <ele>399.9846</ele>
        <time>2014-09-30T12:26:21Z</time>
      </trkpt>
      <trkpt lat="43.92069" lon="7.52147">
        <ele>399.9846</ele>
        <time>2014-09-30T12:26:26Z</time>
      </trkpt>
      <trkpt lat="43.92071" lon="7.52153">
        <ele>399.8129</ele>
        <time>2014-09-30T12:26:31Z</time>
      </trkpt>
      <trkpt lat="43.92073" lon="7.52162">
        <ele>399.8129</ele>
        <time>2014-09-30T12:26:37Z</time>
      </trkpt>
      <trkpt lat="43.92074" lon="7.52168">
        <ele>399.56232</ele>
        <time>2014-09-30T12:26:41Z</time>
      </trkpt>
      <trkpt lat="43.92076" lon="7.52175">
        <ele>399.56232</ele>
        <time>2014-09-30T12:26:46Z</time>
      </trkpt>
      <trkpt lat="43.92079" lon="7.52183">
        <ele>399.36703</ele>
        <time>2014-09-30T12:26:51Z</time>
      </trkpt>
      <trkpt lat="43.92083" lon="7.52188">
        <ele>399.36703</ele>
        <time>2014-09-30T12:26:56Z</time>
      </trkpt>
      <trkpt lat="43.92087" lon="7.52191">
        <ele>399.1495</ele>
        <time>2014-09-30T12:27:01Z</time>
      </trkpt>
      <trkpt lat="43.92091" lon="7.52195">
        <ele>399.1495</ele>
        <time>2014-09-30T12:27:06Z</time>
      </trkpt>
      <trkpt lat="43.92096" lon="7.52198">
        <ele>398.96762</ele>
        <time>2014-09-30T12:27:11Z</time>
      </trkpt>
      <trkpt lat="43.92098" lon="7.52198">
        <ele>398.96762</ele>
        <time>2014-09-30T12:27:16Z</time>
      </trkpt>
      <trkpt lat="43.92099" lon="7.52199">
        <ele>398.96762</ele>
        <time>2014-09-30T12:27:21Z</time>
      </trkpt>
      <trkpt lat="43.92104" lon="7.52196">
        <ele>398.96762</ele>
        <time>2014-09-30T12:27:26Z</time>
      </trkpt>
      <trkpt lat="43.92108" lon="7.52195">
        <ele>399.17752</ele>
        <time>2014-09-30T12:27:31Z</time>
      </trkpt>
      <trkpt lat="43.92114" lon="7.52193">
        <ele>399.17752</ele>
        <time>2014-09-30T12:27:36Z</time>
      </trkpt>
      <trkpt lat="43.92119" lon="7.52193">
        <ele>399.5894</ele>
        <time>2014-09-30T12:27:41Z</time>
      </trkpt>
      <trkpt lat="43.92125" lon="7.52191">
        <ele>399.5894</ele>
        <time>2014-09-30T12:27:46Z</time>
      </trkpt>
      <trkpt lat="43.92128" lon="7.5219">
        <ele>400.04114</ele>
        <time>2014-09-30T12:27:52Z</time>
      </trkpt>
      <trkpt lat="43.92128" lon="7.52192">
        <ele>400.04114</ele>
        <time>2014-09-30T12:27:56Z</time>
      </trkpt>
      <trkpt lat="43.92131" lon="7.52193">
        <ele>400.04114</ele>
        <time>2014-09-30T12:28:01Z</time>
      </trkpt>
      <trkpt lat="43.92133" lon="7.52195">
        <ele>400.04114</ele>
        <time>2014-09-30T12:28:06Z</time>
      </trkpt>
      <trkpt lat="43.92134" lon="7.52198">
        <ele>400.04114</ele>
        <time>2014-09-30T12:28:11Z</time>
      </trkpt>
      <trkpt lat="43.92134" lon="7.52202">
        <ele>400.39694</ele>
        <time>2014-09-30T12:28:16Z</time>
      </trkpt>
      <trkpt lat="43.92135" lon="7.52204">
        <ele>400.39694</ele>
        <time>2014-09-30T12:28:21Z</time>
      </trkpt>
      <trkpt lat="43.92135" lon="7.52205">
        <ele>400.39694</ele>
        <time>2014-09-30T12:28:26Z</time>
      </trkpt>
      <trkpt lat="43.92135" lon="7.52206">
        <ele>400.39694</ele>
        <time>2014-09-30T12:28:31Z</time>
      </trkpt>
      <trkpt lat="43.92138" lon="7.52204">
        <ele>400.39694</ele>
        <time>2014-09-30T12:28:36Z</time>
      </trkpt>
      <trkpt lat="43.92138" lon="7.52205">
        <ele>400.39694</ele>
        <time>2014-09-30T12:28:41Z</time>
      </trkpt>
      <trkpt lat="43.92139" lon="7.52205">
        <ele>400.39694</ele>
        <time>2014-09-30T12:28:46Z</time>
      </trkpt>
      <trkpt lat="43.92139" lon="7.52206">
        <ele>400.39694</ele>
        <time>2014-09-30T12:28:51Z</time>
      </trkpt>
      <trkpt lat="43.92139" lon="7.52205">
        <ele>400.38712</ele>
        <time>2014-09-30T12:28:56Z</time>
      </trkpt>
      <trkpt lat="43.92143" lon="7.52199">
        <ele>400.38712</ele>
        <time>2014-09-30T12:29:01Z</time>
      </trkpt>
      <trkpt lat="43.92147" lon="7.52194">
        <ele>400.35373</ele>
        <time>2014-09-30T12:29:06Z</time>
      </trkpt>
      <trkpt lat="43.92154" lon="7.52193">
        <ele>400.35373</ele>
        <time>2014-09-30T12:29:11Z</time>
      </trkpt>
      <trkpt lat="43.92158" lon="7.52192">
        <ele>400.3112</ele>
        <time>2014-09-30T12:29:16Z</time>
      </trkpt>
      <trkpt lat="43.92163" lon="7.52189">
        <ele>400.3112</ele>
        <time>2014-09-30T12:29:22Z</time>
      </trkpt>
      <trkpt lat="43.92167" lon="7.52188">
        <ele>400.3594</ele>
        <time>2014-09-30T12:29:26Z</time>
      </trkpt>
      <trkpt lat="43.92172" lon="7.52187">
        <ele>400.3594</ele>
        <time>2014-09-30T12:29:31Z</time>
      </trkpt>
      <trkpt lat="43.92173" lon="7.52187">
        <ele>400.3594</ele>
        <time>2014-09-30T12:29:36Z</time>
      </trkpt>
      <trkpt lat="43.92179" lon="7.52188">
        <ele>400.43216</ele>
        <time>2014-09-30T12:29:41Z</time>
      </trkpt>
      <trkpt lat="43.92185" lon="7.52189">
        <ele>400.43216</ele>
        <time>2014-09-30T12:29:46Z</time>
      </trkpt>
      <trkpt lat="43.92189" lon="7.52189">
        <ele>400.4393</ele>
        <time>2014-09-30T12:29:51Z</time>
      </trkpt>
      <trkpt lat="43.92194" lon="7.5219">
        <ele>400.4393</ele>
        <time>2014-09-30T12:29:56Z</time>
      </trkpt>
      <trkpt lat="43.92199" lon="7.52192">
        <ele>400.3552</ele>
        <time>2014-09-30T12:30:01Z</time>
      </trkpt>
      <trkpt lat="43.92203" lon="7.52194">
        <ele>400.3552</ele>
        <time>2014-09-30T12:30:06Z</time>
      </trkpt>
      <trkpt lat="43.92205" lon="7.52196">
        <ele>400.3552</ele>
        <time>2014-09-30T12:30:11Z</time>
      </trkpt>
      <trkpt lat="43.92208" lon="7.522">
        <ele>400.18515</ele>
        <time>2014-09-30T12:30:16Z</time>
      </trkpt>
      <trkpt lat="43.92212" lon="7.52202">
        <ele>400.18515</ele>
        <time>2014-09-30T12:30:21Z</time>
      </trkpt>
      <trkpt lat="43.92213" lon="7.52202">
        <ele>400.18515</ele>
        <time>2014-09-30T12:30:26Z</time>
      </trkpt>
      <trkpt lat="43.92214" lon="7.52203">
        <ele>400.18515</ele>
        <time>2014-09-30T12:30:31Z</time>
      </trkpt>
      <trkpt lat="43.92219" lon="7.52205">
        <ele>399.94882</ele>
        <time>2014-09-30T12:30:36Z</time>
      </trkpt>
      <trkpt lat="43.92223" lon="7.52209">
        <ele>399.94882</ele>
        <time>2014-09-30T12:30:41Z</time>
      </trkpt>
      <trkpt lat="43.92227" lon="7.52212">
        <ele>399.60706</ele>
        <time>2014-09-30T12:30:46Z</time>
      </trkpt>
      <trkpt lat="43.92232" lon="7.52213">
        <ele>399.60706</ele>
        <time>2014-09-30T12:30:51Z</time>
      </trkpt>
      <trkpt lat="43.92239" lon="7.52212">
        <ele>399.0518</ele>
        <time>2014-09-30T12:30:56Z</time>
      </trkpt>
      <trkpt lat="43.92244" lon="7.52212">
        <ele>399.0518</ele>
        <time>2014-09-30T12:31:01Z</time>
      </trkpt>
      <trkpt lat="43.92248" lon="7.52212">
        <ele>398.47183</ele>
        <time>2014-09-30T12:31:06Z</time>
      </trkpt>
      <trkpt lat="43.92253" lon="7.52212">
        <ele>398.47183</ele>
        <time>2014-09-30T12:31:11Z</time>
      </trkpt>
      <trkpt lat="43.92258" lon="7.52213">
        <ele>397.88367</ele>
        <time>2014-09-30T12:31:16Z</time>
      </trkpt>
      <trkpt lat="43.92261" lon="7.52213">
        <ele>397.88367</ele>
        <time>2014-09-30T12:31:22Z</time>
      </trkpt>
      <trkpt lat="43.92265" lon="7.52212">
        <ele>397.88367</ele>
        <time>2014-09-30T12:31:26Z</time>
      </trkpt>
      <trkpt lat="43.92269" lon="7.52211">
        <ele>397.1441</ele>
        <time>2014-09-30T12:31:31Z</time>
      </trkpt>
      <trkpt lat="43.92272" lon="7.52211">
        <ele>397.1441</ele>
        <time>2014-09-30T12:31:36Z</time>
      </trkpt>
      <trkpt lat="43.92275" lon="7.52213">
        <ele>397.1441</ele>
        <time>2014-09-30T12:31:41Z</time>
      </trkpt>
      <trkpt lat="43.92279" lon="7.52215">
        <ele>396.53888</ele>
        <time>2014-09-30T12:31:47Z</time>
      </trkpt>
      <trkpt lat="43.92284" lon="7.52217">
        <ele>396.53888</ele>
        <time>2014-09-30T12:31:51Z</time>
      </trkpt>
      <trkpt lat="43.92289" lon="7.52218">
        <ele>396.0298</ele>
        <time>2014-09-30T12:31:56Z</time>
      </trkpt>
      <trkpt lat="43.92294" lon="7.52221">
        <ele>396.0298</ele>
        <time>2014-09-30T12:32:02Z</time>
      </trkpt>
      <trkpt lat="43.92299" lon="7.52223">
        <ele>395.55228</ele>
        <time>2014-09-30T12:32:06Z</time>
      </trkpt>
      <trkpt lat="43.92303" lon="7.52224">
        <ele>395.55228</ele>
        <time>2014-09-30T12:32:11Z</time>
      </trkpt>
      <trkpt lat="43.92309" lon="7.52227">
        <ele>395.03214</ele>
        <time>2014-09-30T12:32:16Z</time>
      </trkpt>
      <trkpt lat="43.92313" lon="7.52226">
        <ele>395.03214</ele>
        <time>2014-09-30T12:32:21Z</time>
      </trkpt>
      <trkpt lat="43.92318" lon="7.52226">
        <ele>395.03214</ele>
        <time>2014-09-30T12:32:26Z</time>
      </trkpt>
      <trkpt lat="43.92322" lon="7.52227">
        <ele>394.40073</ele>
        <time>2014-09-30T12:32:31Z</time>
      </trkpt>
      <trkpt lat="43.92326" lon="7.52228">
        <ele>394.40073</ele>
        <time>2014-09-30T12:32:36Z</time>
      </trkpt>
      <trkpt lat="43.92331" lon="7.52229">
        <ele>393.73886</ele>
        <time>2014-09-30T12:32:41Z</time>
      </trkpt>
      <trkpt lat="43.92335" lon="7.52232">
        <ele>393.73886</ele>
        <time>2014-09-30T12:32:46Z</time>
      </trkpt>
      <trkpt lat="43.92339" lon="7.52236">
        <ele>392.97745</ele>
        <time>2014-09-30T12:32:51Z</time>
      </trkpt>
      <trkpt lat="43.92345" lon="7.52241">
        <ele>392.97745</ele>
        <time>2014-09-30T12:32:56Z</time>
      </trkpt>
      <trkpt lat="43.92348" lon="7.52244">
        <ele>392.16803</ele>
        <time>2014-09-30T12:33:02Z</time>
      </trkpt>
      <trkpt lat="43.92351" lon="7.52251">
        <ele>392.16803</ele>
        <time>2014-09-30T12:33:06Z</time>
      </trkpt>
      <trkpt lat="43.92354" lon="7.52256">
        <ele>391.3153</ele>
        <time>2014-09-30T12:33:11Z</time>
      </trkpt>
      <trkpt lat="43.92356" lon="7.5226">
        <ele>391.3153</ele>
        <time>2014-09-30T12:33:16Z</time>
      </trkpt>
      <trkpt lat="43.9236" lon="7.52268">
        <ele>390.40927</ele>
        <time>2014-09-30T12:33:21Z</time>
      </trkpt>
      <trkpt lat="43.92364" lon="7.52272">
        <ele>390.40927</ele>
        <time>2014-09-30T12:33:26Z</time>
      </trkpt>
      <trkpt lat="43.92368" lon="7.52276">
        <ele>389.52737</ele>
        <time>2014-09-30T12:33:31Z</time>
      </trkpt>
      <trkpt lat="43.9237" lon="7.52278">
        <ele>389.52737</ele>
        <time>2014-09-30T12:33:36Z</time>
      </trkpt>
      <trkpt lat="43.92371" lon="7.52278">
        <ele>389.52737</ele>
        <time>2014-09-30T12:33:41Z</time>
      </trkpt>
      <trkpt lat="43.92369" lon="7.52277">
        <ele>389.52737</ele>
        <time>2014-09-30T12:33:46Z</time>
      </trkpt>
      <trkpt lat="43.9237" lon="7.5228">
        <ele>389.52737</ele>
        <time>2014-09-30T12:33:51Z</time>
      </trkpt>
      <trkpt lat="43.92375" lon="7.52285">
        <ele>388.7556</ele>
        <time>2014-09-30T12:33:56Z</time>
      </trkpt>
      <trkpt lat="43.92379" lon="7.52289">
        <ele>388.7556</ele>
        <time>2014-09-30T12:34:02Z</time>
      </trkpt>
      <trkpt lat="43.92383" lon="7.52292">
        <ele>388.1878</ele>
        <time>2014-09-30T12:34:06Z</time>
      </trkpt>
      <trkpt lat="43.92385" lon="7.52292">
        <ele>388.1878</ele>
        <time>2014-09-30T12:34:11Z</time>
      </trkpt>
      <trkpt lat="43.92387" lon="7.52294">
        <ele>388.1878</ele>
        <time>2014-09-30T12:34:16Z</time>
      </trkpt>
      <trkpt lat="43.92389" lon="7.52293">
        <ele>388.1878</ele>
        <time>2014-09-30T12:34:21Z</time>
      </trkpt>
      <trkpt lat="43.92391" lon="7.52293">
        <ele>388.1878</ele>
        <time>2014-09-30T12:34:26Z</time>
      </trkpt>
      <trkpt lat="43.92393" lon="7.52293">
        <ele>387.82385</ele>
        <time>2014-09-30T12:34:31Z</time>
      </trkpt>
      <trkpt lat="43.92397" lon="7.52295">
        <ele>387.82385</ele>
        <time>2014-09-30T12:34:36Z</time>
      </trkpt>
      <trkpt lat="43.92403" lon="7.52299">
        <ele>387.70627</ele>
        <time>2014-09-30T12:34:41Z</time>
      </trkpt>
      <trkpt lat="43.92406" lon="7.523">
        <ele>387.70627</ele>
        <time>2014-09-30T12:34:46Z</time>
      </trkpt>
      <trkpt lat="43.92408" lon="7.52297">
        <ele>387.70627</ele>
        <time>2014-09-30T12:34:51Z</time>
      </trkpt>
      <trkpt lat="43.9241" lon="7.52295">
        <ele>387.70627</ele>
        <time>2014-09-30T12:34:56Z</time>
      </trkpt>
      <trkpt lat="43.92412" lon="7.52293">
        <ele>387.67206</ele>
        <time>2014-09-30T12:35:01Z</time>
      </trkpt>
      <trkpt lat="43.92414" lon="7.52293">
        <ele>387.67206</ele>
        <time>2014-09-30T12:35:06Z</time>
      </trkpt>
      <trkpt lat="43.92417" lon="7.52293">
        <ele>387.67206</ele>
        <time>2014-09-30T12:35:11Z</time>
      </trkpt>
      <trkpt lat="43.92422" lon="7.52293">
        <ele>387.3393</ele>
        <time>2014-09-30T12:35:16Z</time>
      </trkpt>
      <trkpt lat="43.92425" lon="7.52292">
        <ele>387.3393</ele>
        <time>2014-09-30T12:35:21Z</time>
      </trkpt>
      <trkpt lat="43.92426" lon="7.5229">
        <ele>387.3393</ele>
        <time>2014-09-30T12:35:26Z</time>
      </trkpt>
      <trkpt lat="43.92427" lon="7.52288">
        <ele>387.3393</ele>
        <time>2014-09-30T12:35:31Z</time>
      </trkpt>
      <trkpt lat="43.92426" lon="7.5229">
        <ele>387.3393</ele>
        <time>2014-09-30T12:35:36Z</time>
      </trkpt>
      <trkpt lat="43.92426" lon="7.52291">
        <ele>386.81616</ele>
        <time>2014-09-30T12:35:41Z</time>
      </trkpt>
      <trkpt lat="43.92425" lon="7.52293">
        <ele>386.81616</ele>
        <time>2014-09-30T12:35:46Z</time>
      </trkpt>
      <trkpt lat="43.92424" lon="7.52296">
        <ele>386.81616</ele>
        <time>2014-09-30T12:35:51Z</time>
      </trkpt>
      <trkpt lat="43.92424" lon="7.52296">
        <ele>386.81616</ele>
        <time>2014-09-30T12:35:56Z</time>
      </trkpt>
      <trkpt lat="43.92428" lon="7.52293">
        <ele>386.41956</ele>
        <time>2014-09-30T12:36:16Z</time>
      </trkpt>
      <trkpt lat="43.92433" lon="7.52288">
        <ele>386.41956</ele>
        <time>2014-09-30T12:36:21Z</time>
      </trkpt>
      <trkpt lat="43.92437" lon="7.52287">
        <ele>385.996</ele>
        <time>2014-09-30T12:36:26Z</time>
      </trkpt>
      <trkpt lat="43.92442" lon="7.52288">
        <ele>385.996</ele>
        <time>2014-09-30T12:36:31Z</time>
      </trkpt>
      <trkpt lat="43.92445" lon="7.52292">
        <ele>385.634</ele>
        <time>2014-09-30T12:36:37Z</time>
      </trkpt>
      <trkpt lat="43.9245" lon="7.52296">
        <ele>385.634</ele>
        <time>2014-09-30T12:36:41Z</time>
      </trkpt>
      <trkpt lat="43.92452" lon="7.52301">
        <ele>385.37204</ele>
        <time>2014-09-30T12:36:46Z</time>
      </trkpt>
      <trkpt lat="43.92456" lon="7.52304">
        <ele>385.37204</ele>
        <time>2014-09-30T12:36:51Z</time>
      </trkpt>
      <trkpt lat="43.92461" lon="7.52306">
        <ele>385.37204</ele>
        <time>2014-09-30T12:36:56Z</time>
      </trkpt>
      <trkpt lat="43.92463" lon="7.52309">
        <ele>385.21677</ele>
        <time>2014-09-30T12:37:01Z</time>
      </trkpt>
      <trkpt lat="43.92466" lon="7.52311">
        <ele>385.21677</ele>
        <time>2014-09-30T12:37:06Z</time>
      </trkpt>
      <trkpt lat="43.92471" lon="7.52312">
        <ele>385.21677</ele>
        <time>2014-09-30T12:37:11Z</time>
      </trkpt>
      <trkpt lat="43.92476" lon="7.52317">
        <ele>385.23166</ele>
        <time>2014-09-30T12:37:17Z</time>
      </trkpt>
      <trkpt lat="43.92481" lon="7.52319">
        <ele>385.23166</ele>
        <time>2014-09-30T12:37:21Z</time>
      </trkpt>
      <trkpt lat="43.92485" lon="7.52322">
        <ele>385.44623</ele>
        <time>2014-09-30T12:37:26Z</time>
      </trkpt>
      <trkpt lat="43.92488" lon="7.52324">
        <ele>385.44623</ele>
        <time>2014-09-30T12:37:31Z</time>
      </trkpt>
      <trkpt lat="43.92492" lon="7.52325">
        <ele>385.44623</ele>
        <time>2014-09-30T12:37:36Z</time>
      </trkpt>
      <trkpt lat="43.92495" lon="7.52327">
        <ele>385.80078</ele>
        <time>2014-09-30T12:37:41Z</time>
      </trkpt>
      <trkpt lat="43.92498" lon="7.52327">
        <ele>385.80078</ele>
        <time>2014-09-30T12:37:46Z</time>
      </trkpt>
      <trkpt lat="43.92502" lon="7.52326">
        <ele>385.80078</ele>
        <time>2014-09-30T12:37:51Z</time>
      </trkpt>
      <trkpt lat="43.92505" lon="7.52327">
        <ele>386.25406</ele>
        <time>2014-09-30T12:37:56Z</time>
      </trkpt>
      <trkpt lat="43.92508" lon="7.52326">
        <ele>386.25406</ele>
        <time>2014-09-30T12:38:01Z</time>
      </trkpt>
      <trkpt lat="43.92512" lon="7.52324">
        <ele>386.25406</ele>
        <time>2014-09-30T12:38:06Z</time>
      </trkpt>
      <trkpt lat="43.92515" lon="7.52324">
        <ele>386.94055</ele>
        <time>2014-09-30T12:38:11Z</time>
      </trkpt>
      <trkpt lat="43.92518" lon="7.52324">
        <ele>386.94055</ele>
        <time>2014-09-30T12:38:16Z</time>
      </trkpt>
      <trkpt lat="43.92521" lon="7.52323">
        <ele>386.94055</ele>
        <time>2014-09-30T12:38:21Z</time>
      </trkpt>
      <trkpt lat="43.92526" lon="7.52324">
        <ele>387.85443</ele>
        <time>2014-09-30T12:38:26Z</time>
      </trkpt>
      <trkpt lat="43.92531" lon="7.52324">
        <ele>387.85443</ele>
        <time>2014-09-30T12:38:31Z</time>
      </trkpt>
      <trkpt lat="43.92536" lon="7.52323">
        <ele>388.87454</ele>
        <time>2014-09-30T12:38:36Z</time>
      </trkpt>
      <trkpt lat="43.9254" lon="7.52322">
        <ele>388.87454</ele>
        <time>2014-09-30T12:38:41Z</time>
      </trkpt>
      <trkpt lat="43.92544" lon="7.52321">
        <ele>388.87454</ele>
        <time>2014-09-30T12:38:46Z</time>
      </trkpt>
      <trkpt lat="43.92548" lon="7.52318">
        <ele>389.9891</ele>
        <time>2014-09-30T12:38:51Z</time>
      </trkpt>
      <trkpt lat="43.92552" lon="7.52314">
        <ele>389.9891</ele>
        <time>2014-09-30T12:38:56Z</time>
      </trkpt>
      <trkpt lat="43.92555" lon="7.5231">
        <ele>391.11502</ele>
        <time>2014-09-30T12:39:01Z</time>
      </trkpt>
      <trkpt lat="43.92561" lon="7.52309">
        <ele>391.11502</ele>
        <time>2014-09-30T12:39:06Z</time>
      </trkpt>
      <trkpt lat="43.92566" lon="7.52307">
        <ele>392.2906</ele>
        <time>2014-09-30T12:39:11Z</time>
      </trkpt>
      <trkpt lat="43.92569" lon="7.52305">
        <ele>392.2906</ele>
        <time>2014-09-30T12:39:16Z</time>
      </trkpt>
      <trkpt lat="43.92571" lon="7.52305">
        <ele>392.2906</ele>
        <time>2014-09-30T12:39:21Z</time>
      </trkpt>
      <trkpt lat="43.92574" lon="7.52308">
        <ele>393.37827</ele>
        <time>2014-09-30T12:39:26Z</time>
      </trkpt>
      <trkpt lat="43.92576" lon="7.52312">
        <ele>393.37827</ele>
        <time>2014-09-30T12:39:32Z</time>
      </trkpt>
      <trkpt lat="43.92578" lon="7.52312">
        <ele>393.37827</ele>
        <time>2014-09-30T12:39:36Z</time>
      </trkpt>
      <trkpt lat="43.92578" lon="7.52314">
        <ele>393.37827</ele>
        <time>2014-09-30T12:39:41Z</time>
      </trkpt>
      <trkpt lat="43.92578" lon="7.52314">
        <ele>393.37827</ele>
        <time>2014-09-30T12:39:46Z</time>
      </trkpt>
      <trkpt lat="43.92577" lon="7.52313">
        <ele>393.37827</ele>
        <time>2014-09-30T12:39:51Z</time>
      </trkpt>
      <trkpt lat="43.92576" lon="7.52312">
        <ele>393.37827</ele>
        <time>2014-09-30T12:39:56Z</time>
      </trkpt>
      <trkpt lat="43.92577" lon="7.52313">
        <ele>394.1213</ele>
        <time>2014-09-30T12:40:01Z</time>
      </trkpt>
      <trkpt lat="43.92578" lon="7.52313">
        <ele>394.1213</ele>
        <time>2014-09-30T12:40:06Z</time>
      </trkpt>
      <trkpt lat="43.92579" lon="7.52313">
        <ele>394.1213</ele>
        <time>2014-09-30T12:40:11Z</time>
      </trkpt>
      <trkpt lat="43.92582" lon="7.52314">
        <ele>394.1213</ele>
        <time>2014-09-30T12:40:16Z</time>
      </trkpt>
      <trkpt lat="43.92584" lon="7.52319">
        <ele>394.77274</ele>
        <time>2014-09-30T12:40:21Z</time>
      </trkpt>
      <trkpt lat="43.92587" lon="7.52322">
        <ele>394.77274</ele>
        <time>2014-09-30T12:40:26Z</time>
      </trkpt>
      <trkpt lat="43.9259" lon="7.52324">
        <ele>394.77274</ele>
        <time>2014-09-30T12:40:31Z</time>
      </trkpt>
      <trkpt lat="43.92593" lon="7.52324">
        <ele>395.39444</ele>
        <time>2014-09-30T12:40:36Z</time>
      </trkpt>
      <trkpt lat="43.92595" lon="7.52326">
        <ele>395.39444</ele>
        <time>2014-09-30T12:40:41Z</time>
      </trkpt>
      <trkpt lat="43.92597" lon="7.52327">
        <ele>395.39444</ele>
        <time>2014-09-30T12:40:46Z</time>
      </trkpt>
      <trkpt lat="43.92598" lon="7.52328">
        <ele>395.39444</ele>
        <time>2014-09-30T12:40:51Z</time>
      </trkpt>
      <trkpt lat="43.92599" lon="7.52329">
        <ele>395.39444</ele>
        <time>2014-09-30T12:40:56Z</time>
      </trkpt>
      <trkpt lat="43.92603" lon="7.52332">
        <ele>396.04398</ele>
        <time>2014-09-30T12:41:01Z</time>
      </trkpt>
      <trkpt lat="43.92605" lon="7.52334">
        <ele>396.04398</ele>
        <time>2014-09-30T12:41:06Z</time>
      </trkpt>
      <trkpt lat="43.92604" lon="7.52337">
        <ele>396.04398</ele>
        <time>2014-09-30T12:41:11Z</time>
      </trkpt>
      <trkpt lat="43.92604" lon="7.5234">
        <ele>396.04398</ele>
        <time>2014-09-30T12:41:16Z</time>
      </trkpt>
      <trkpt lat="43.92603" lon="7.52342">
        <ele>396.04398</ele>
        <time>2014-09-30T12:41:21Z</time>
      </trkpt>
      <trkpt lat="43.92603" lon="7.5234">
        <ele>396.70255</ele>
        <time>2014-09-30T12:41:26Z</time>
      </trkpt>
      <trkpt lat="43.92603" lon="7.52338">
        <ele>396.70255</ele>
        <time>2014-09-30T12:41:31Z</time>
      </trkpt>
      <trkpt lat="43.92603" lon="7.52339">
        <ele>396.70255</ele>
        <time>2014-09-30T12:41:37Z</time>
      </trkpt>
      <trkpt lat="43.92602" lon="7.52338">
        <ele>396.70255</ele>
        <time>2014-09-30T12:41:41Z</time>
      </trkpt>
      <trkpt lat="43.92603" lon="7.52337">
        <ele>396.70255</ele>
        <time>2014-09-30T12:41:46Z</time>
      </trkpt>
      <trkpt lat="43.92604" lon="7.52337">
        <ele>396.70255</ele>
        <time>2014-09-30T12:41:51Z</time>
      </trkpt>
      <trkpt lat="43.92605" lon="7.52338">
        <ele>396.70255</ele>
        <time>2014-09-30T12:41:56Z</time>
      </trkpt>
      <trkpt lat="43.92606" lon="7.52339">
        <ele>396.70255</ele>
        <time>2014-09-30T12:42:01Z</time>
      </trkpt>
      <trkpt lat="43.92607" lon="7.52339">
        <ele>396.70255</ele>
        <time>2014-09-30T12:42:06Z</time>
      </trkpt>
      <trkpt lat="43.9261" lon="7.52342">
        <ele>397.5834</ele>
        <time>2014-09-30T12:42:11Z</time>
      </trkpt>
      <trkpt lat="43.92613" lon="7.52341">
        <ele>397.5834</ele>
        <time>2014-09-30T12:42:16Z</time>
      </trkpt>
      <trkpt lat="43.92617" lon="7.52341">
        <ele>397.5834</ele>
        <time>2014-09-30T12:42:21Z</time>
      </trkpt>
      <trkpt lat="43.92621" lon="7.5234">
        <ele>398.3648</ele>
        <time>2014-09-30T12:42:26Z</time>
      </trkpt>
      <trkpt lat="43.92625" lon="7.52342">
        <ele>398.3648</ele>
        <time>2014-09-30T12:42:31Z</time>
      </trkpt>
      <trkpt lat="43.92629" lon="7.52343">
        <ele>398.3648</ele>
        <time>2014-09-30T12:42:36Z</time>
      </trkpt>
      <trkpt lat="43.92632" lon="7.52346">
        <ele>399.23895</ele>
        <time>2014-09-30T12:42:41Z</time>
      </trkpt>
      <trkpt lat="43.92636" lon="7.52349">
        <ele>399.23895</ele>
        <time>2014-09-30T12:42:46Z</time>
      </trkpt>
      <trkpt lat="43.9264" lon="7.52352">
        <ele>399.23895</ele>
        <time>2014-09-30T12:42:51Z</time>
      </trkpt>
      <trkpt lat="43.92644" lon="7.52354">
        <ele>400.29736</ele>
        <time>2014-09-30T12:42:56Z</time>
      </trkpt>
      <trkpt lat="43.92649" lon="7.52356">
        <ele>400.29736</ele>
        <time>2014-09-30T12:43:02Z</time>
      </trkpt>
      <trkpt lat="43.92654" lon="7.52359">
        <ele>401.4514</ele>
        <time>2014-09-30T12:43:06Z</time>
      </trkpt>
      <trkpt lat="43.9266" lon="7.5236">
        <ele>401.4514</ele>
        <time>2014-09-30T12:43:11Z</time>
      </trkpt>
      <trkpt lat="43.92665" lon="7.52361">
        <ele>402.6908</ele>
        <time>2014-09-30T12:43:17Z</time>
      </trkpt>
      <trkpt lat="43.9267" lon="7.52365">
        <ele>402.6908</ele>
        <time>2014-09-30T12:43:21Z</time>
      </trkpt>
      <trkpt lat="43.92673" lon="7.52368">
        <ele>403.91953</ele>
        <time>2014-09-30T12:43:26Z</time>
      </trkpt>
      <trkpt lat="43.92678" lon="7.52371">
        <ele>403.91953</ele>
        <time>2014-09-30T12:43:31Z</time>
      </trkpt>
      <trkpt lat="43.92682" lon="7.52374">
        <ele>405.0486</ele>
        <time>2014-09-30T12:43:36Z</time>
      </trkpt>
      <trkpt lat="43.92683" lon="7.52375">
        <ele>405.0486</ele>
        <time>2014-09-30T12:43:41Z</time>
      </trkpt>
      <trkpt lat="43.92688" lon="7.52379">
        <ele>405.0486</ele>
        <time>2014-09-30T12:43:46Z</time>
      </trkpt>
      <trkpt lat="43.92695" lon="7.52384">
        <ele>406.18347</ele>
        <time>2014-09-30T12:43:51Z</time>
      </trkpt>
      <trkpt lat="43.92699" lon="7.52387">
        <ele>406.18347</ele>
        <time>2014-09-30T12:43:56Z</time>
      </trkpt>
      <trkpt lat="43.92704" lon="7.52391">
        <ele>407.23444</ele>
        <time>2014-09-30T12:44:01Z</time>
      </trkpt>
      <trkpt lat="43.92709" lon="7.52395">
        <ele>407.23444</ele>
        <time>2014-09-30T12:44:06Z</time>
      </trkpt>
      <trkpt lat="43.92714" lon="7.52399">
        <ele>408.10437</ele>
        <time>2014-09-30T12:44:11Z</time>
      </trkpt>
      <trkpt lat="43.92717" lon="7.524">
        <ele>408.54102</ele>
        <time>2014-09-30T12:44:16Z</time>
      </trkpt>
      <trkpt lat="43.92722" lon="7.52402">
        <ele>408.97763</ele>
        <time>2014-09-30T12:44:21Z</time>
      </trkpt>
      <trkpt lat="43.92727" lon="7.52405">
        <ele>408.97763</ele>
        <time>2014-09-30T12:44:26Z</time>
      </trkpt>
      <trkpt lat="43.92731" lon="7.52408">
        <ele>410.06848</ele>
        <time>2014-09-30T12:44:31Z</time>
      </trkpt>
      <trkpt lat="43.92734" lon="7.52413">
        <ele>410.06848</ele>
        <time>2014-09-30T12:44:37Z</time>
      </trkpt>
      <trkpt lat="43.92736" lon="7.52417">
        <ele>410.06848</ele>
        <time>2014-09-30T12:44:41Z</time>
      </trkpt>
      <trkpt lat="43.92741" lon="7.52425">
        <ele>411.35867</ele>
        <time>2014-09-30T12:44:46Z</time>
      </trkpt>
      <trkpt lat="43.92745" lon="7.52431">
        <ele>411.35867</ele>
        <time>2014-09-30T12:44:51Z</time>
      </trkpt>
      <trkpt lat="43.92748" lon="7.52437">
        <ele>412.7011</ele>
        <time>2014-09-30T12:44:56Z</time>
      </trkpt>
      <trkpt lat="43.92751" lon="7.52443">
        <ele>412.7011</ele>
        <time>2014-09-30T12:45:01Z</time>
      </trkpt>
      <trkpt lat="43.92752" lon="7.52449">
        <ele>412.7011</ele>
        <time>2014-09-30T12:45:06Z</time>
      </trkpt>
      <trkpt lat="43.92753" lon="7.52453">
        <ele>414.00278</ele>
        <time>2014-09-30T12:45:12Z</time>
      </trkpt>
      <trkpt lat="43.92754" lon="7.52459">
        <ele>414.00278</ele>
        <time>2014-09-30T12:45:16Z</time>
      </trkpt>
      <trkpt lat="43.92758" lon="7.52468">
        <ele>415.12003</ele>
        <time>2014-09-30T12:45:21Z</time>
      </trkpt>
      <trkpt lat="43.92761" lon="7.52473">
        <ele>415.12003</ele>
        <time>2014-09-30T12:45:26Z</time>
      </trkpt>
      <trkpt lat="43.92766" lon="7.5248">
        <ele>416.12207</ele>
        <time>2014-09-30T12:45:32Z</time>
      </trkpt>
      <trkpt lat="43.92771" lon="7.52484">
        <ele>416.12207</ele>
        <time>2014-09-30T12:45:36Z</time>
      </trkpt>
      <trkpt lat="43.92776" lon="7.52488">
        <ele>417.13116</ele>
        <time>2014-09-30T12:45:41Z</time>
      </trkpt>
      <trkpt lat="43.92781" lon="7.52491">
        <ele>417.13116</ele>
        <time>2014-09-30T12:45:46Z</time>
      </trkpt>
      <trkpt lat="43.92787" lon="7.52493">
        <ele>418.23184</ele>
        <time>2014-09-30T12:45:51Z</time>
      </trkpt>
      <trkpt lat="43.92792" lon="7.52497">
        <ele>418.23184</ele>
        <time>2014-09-30T12:45:56Z</time>
      </trkpt>
      <trkpt lat="43.92797" lon="7.52501">
        <ele>419.31485</ele>
        <time>2014-09-30T12:46:01Z</time>
      </trkpt>
      <trkpt lat="43.92801" lon="7.52505">
        <ele>419.31485</ele>
        <time>2014-09-30T12:46:06Z</time>
      </trkpt>
      <trkpt lat="43.92805" lon="7.52511">
        <ele>420.17828</ele>
        <time>2014-09-30T12:46:11Z</time>
      </trkpt>
      <trkpt lat="43.92808" lon="7.52517">
        <ele>420.17828</ele>
        <time>2014-09-30T12:46:16Z</time>
      </trkpt>
      <trkpt lat="43.92812" lon="7.52522">
        <ele>420.86633</ele>
        <time>2014-09-30T12:46:21Z</time>
      </trkpt>
      <trkpt lat="43.92817" lon="7.52527">
        <ele>420.86633</ele>
        <time>2014-09-30T12:46:26Z</time>
      </trkpt>
      <trkpt lat="43.92823" lon="7.5253">
        <ele>421.6511</ele>
        <time>2014-09-30T12:46:31Z</time>
      </trkpt>
      <trkpt lat="43.92828" lon="7.5253">
        <ele>421.6511</ele>
        <time>2014-09-30T12:46:37Z</time>
      </trkpt>
      <trkpt lat="43.92833" lon="7.5253">
        <ele>422.49622</ele>
        <time>2014-09-30T12:46:41Z</time>
      </trkpt>
      <trkpt lat="43.92837" lon="7.52528">
        <ele>422.49622</ele>
        <time>2014-09-30T12:46:46Z</time>
      </trkpt>
      <trkpt lat="43.92843" lon="7.52528">
        <ele>423.49768</ele>
        <time>2014-09-30T12:46:51Z</time>
      </trkpt>
      <trkpt lat="43.92848" lon="7.52527">
        <ele>423.49768</ele>
        <time>2014-09-30T12:46:57Z</time>
      </trkpt>
      <trkpt lat="43.92851" lon="7.52527">
        <ele>423.49768</ele>
        <time>2014-09-30T12:47:02Z</time>
      </trkpt>
      <trkpt lat="43.92855" lon="7.52527">
        <ele>424.75842</ele>
        <time>2014-09-30T12:47:06Z</time>
      </trkpt>
      <trkpt lat="43.9286" lon="7.5253">
        <ele>424.75842</ele>
        <time>2014-09-30T12:47:11Z</time>
      </trkpt>
      <trkpt lat="43.92863" lon="7.52529">
        <ele>424.75842</ele>
        <time>2014-09-30T12:47:16Z</time>
      </trkpt>
      <trkpt lat="43.92867" lon="7.52529">
        <ele>426.04175</ele>
        <time>2014-09-30T12:47:21Z</time>
      </trkpt>
      <trkpt lat="43.92872" lon="7.52529">
        <ele>426.04175</ele>
        <time>2014-09-30T12:47:26Z</time>
      </trkpt>
      <trkpt lat="43.92877" lon="7.52528">
        <ele>427.25797</ele>
        <time>2014-09-30T12:47:31Z</time>
      </trkpt>
      <trkpt lat="43.92881" lon="7.52529">
        <ele>427.25797</ele>
        <time>2014-09-30T12:47:36Z</time>
      </trkpt>
      <trkpt lat="43.92884" lon="7.52531">
        <ele>427.25797</ele>
        <time>2014-09-30T12:47:41Z</time>
      </trkpt>
      <trkpt lat="43.92887" lon="7.52531">
        <ele>428.46838</ele>
        <time>2014-09-30T12:47:46Z</time>
      </trkpt>
      <trkpt lat="43.92893" lon="7.52531">
        <ele>428.46838</ele>
        <time>2014-09-30T12:47:51Z</time>
      </trkpt>
      <trkpt lat="43.92899" lon="7.52534">
        <ele>429.48495</ele>
        <time>2014-09-30T12:47:56Z</time>
      </trkpt>
      <trkpt lat="43.92902" lon="7.52536">
        <ele>429.48495</ele>
        <time>2014-09-30T12:48:01Z</time>
      </trkpt>
      <trkpt lat="43.92906" lon="7.52536">
        <ele>429.48495</ele>
        <time>2014-09-30T12:48:06Z</time>
      </trkpt>
      <trkpt lat="43.92912" lon="7.52535">
        <ele>430.33572</ele>
        <time>2014-09-30T12:48:11Z</time>
      </trkpt>
      <trkpt lat="43.92917" lon="7.52536">
        <ele>430.33572</ele>
        <time>2014-09-30T12:48:16Z</time>
      </trkpt>
      <trkpt lat="43.9292" lon="7.52538">
        <ele>431.10483</ele>
        <time>2014-09-30T12:48:22Z</time>
      </trkpt>
      <trkpt lat="43.92924" lon="7.5254">
        <ele>431.10483</ele>
        <time>2014-09-30T12:48:26Z</time>
      </trkpt>
      <trkpt lat="43.92927" lon="7.5254">
        <ele>431.10483</ele>
        <time>2014-09-30T12:48:31Z</time>
      </trkpt>
      <trkpt lat="43.92931" lon="7.52539">
        <ele>431.8274</ele>
        <time>2014-09-30T12:48:36Z</time>
      </trkpt>
      <trkpt lat="43.92935" lon="7.52537">
        <ele>431.8274</ele>
        <time>2014-09-30T12:48:41Z</time>
      </trkpt>
      <trkpt lat="43.92935" lon="7.52536">
        <ele>431.8274</ele>
        <time>2014-09-30T12:48:46Z</time>
      </trkpt>
      <trkpt lat="43.92934" lon="7.52534">
        <ele>431.8274</ele>
        <time>2014-09-30T12:48:51Z</time>
      </trkpt>
      <trkpt lat="43.92933" lon="7.52533">
        <ele>431.8274</ele>
        <time>2014-09-30T12:48:57Z</time>
      </trkpt>
      <trkpt lat="43.92933" lon="7.52534">
        <ele>432.31982</ele>
        <time>2014-09-30T12:49:01Z</time>
      </trkpt>
      <trkpt lat="43.92934" lon="7.52536">
        <ele>432.31982</ele>
        <time>2014-09-30T12:49:06Z</time>
      </trkpt>
      <trkpt lat="43.92934" lon="7.52537">
        <ele>432.31982</ele>
        <time>2014-09-30T12:49:11Z</time>
      </trkpt>
      <trkpt lat="43.92935" lon="7.52539">
        <ele>432.31982</ele>
        <time>2014-09-30T12:49:16Z</time>
      </trkpt>
      <trkpt lat="43.92934" lon="7.52538">
        <ele>432.31982</ele>
        <time>2014-09-30T12:49:21Z</time>
      </trkpt>
      <trkpt lat="43.92933" lon="7.52537">
        <ele>432.31982</ele>
        <time>2014-09-30T12:49:26Z</time>
      </trkpt>
      <trkpt lat="43.92934" lon="7.52537">
        <ele>432.31982</ele>
        <time>2014-09-30T12:49:31Z</time>
      </trkpt>
      <trkpt lat="43.92937" lon="7.52535">
        <ele>432.6146</ele>
        <time>2014-09-30T12:49:36Z</time>
      </trkpt>
      <trkpt lat="43.92942" lon="7.52534">
        <ele>432.6146</ele>
        <time>2014-09-30T12:49:41Z</time>
      </trkpt>
      <trkpt lat="43.9295" lon="7.52534">
        <ele>432.72784</ele>
        <time>2014-09-30T12:49:46Z</time>
      </trkpt>
      <trkpt lat="43.92956" lon="7.5253">
        <ele>432.72784</ele>
        <time>2014-09-30T12:49:51Z</time>
      </trkpt>
      <trkpt lat="43.92959" lon="7.5253">
        <ele>432.8481</ele>
        <time>2014-09-30T12:49:56Z</time>
      </trkpt>
      <trkpt lat="43.92965" lon="7.52532">
        <ele>432.8481</ele>
        <time>2014-09-30T12:50:01Z</time>
      </trkpt>
      <trkpt lat="43.92972" lon="7.52533">
        <ele>433.02036</ele>
        <time>2014-09-30T12:50:06Z</time>
      </trkpt>
      <trkpt lat="43.92977" lon="7.52534">
        <ele>433.02036</ele>
        <time>2014-09-30T12:50:11Z</time>
      </trkpt>
      <trkpt lat="43.92981" lon="7.52533">
        <ele>433.2284</ele>
        <time>2014-09-30T12:50:16Z</time>
      </trkpt>
      <trkpt lat="43.92985" lon="7.52531">
        <ele>433.2284</ele>
        <time>2014-09-30T12:50:21Z</time>
      </trkpt>
      <trkpt lat="43.92989" lon="7.52531">
        <ele>433.2284</ele>
        <time>2014-09-30T12:50:27Z</time>
      </trkpt>
      <trkpt lat="43.92995" lon="7.52531">
        <ele>433.4572</ele>
        <time>2014-09-30T12:50:31Z</time>
      </trkpt>
      <trkpt lat="43.92995" lon="7.52534">
        <ele>433.4572</ele>
        <time>2014-09-30T12:50:36Z</time>
      </trkpt>
      <trkpt lat="43.92998" lon="7.52537">
        <ele>433.4572</ele>
        <time>2014-09-30T12:50:41Z</time>
      </trkpt>
      <trkpt lat="43.92999" lon="7.52537">
        <ele>433.4572</ele>
        <time>2014-09-30T12:50:46Z</time>
      </trkpt>
      <trkpt lat="43.92999" lon="7.52535">
        <ele>433.4572</ele>
        <time>2014-09-30T12:50:51Z</time>
      </trkpt>
      <trkpt lat="43.92999" lon="7.52534">
        <ele>433.4572</ele>
        <time>2014-09-30T12:50:56Z</time>
      </trkpt>
      <trkpt lat="43.92999" lon="7.52534">
        <ele>433.50546</ele>
        <time>2014-09-30T12:51:01Z</time>
      </trkpt>
      <trkpt lat="43.92998" lon="7.52535">
        <ele>433.50546</ele>
        <time>2014-09-30T12:51:06Z</time>
      </trkpt>
      <trkpt lat="43.92999" lon="7.52536">
        <ele>433.50546</ele>
        <time>2014-09-30T12:51:11Z</time>
      </trkpt>
      <trkpt lat="43.93002" lon="7.52538">
        <ele>433.50546</ele>
        <time>2014-09-30T12:51:16Z</time>
      </trkpt>
      <trkpt lat="43.93003" lon="7.52541">
        <ele>433.50546</ele>
        <time>2014-09-30T12:51:21Z</time>
      </trkpt>
      <trkpt lat="43.93005" lon="7.52543">
        <ele>433.51855</ele>
        <time>2014-09-30T12:51:26Z</time>
      </trkpt>
      <trkpt lat="43.93006" lon="7.52546">
        <ele>433.51855</ele>
        <time>2014-09-30T12:51:32Z</time>
      </trkpt>
      <trkpt lat="43.93006" lon="7.52547">
        <ele>433.51855</ele>
        <time>2014-09-30T12:51:36Z</time>
      </trkpt>
      <trkpt lat="43.93006" lon="7.52547">
        <ele>433.51855</ele>
        <time>2014-09-30T12:51:41Z</time>
      </trkpt>
      <trkpt lat="43.93004" lon="7.52549">
        <ele>433.51855</ele>
        <time>2014-09-30T12:51:46Z</time>
      </trkpt>
      <trkpt lat="43.93003" lon="7.52553">
        <ele>433.51855</ele>
        <time>2014-09-30T12:51:51Z</time>
      </trkpt>
      <trkpt lat="43.93003" lon="7.52555">
        <ele>433.40073</ele>
        <time>2014-09-30T12:51:56Z</time>
      </trkpt>
      <trkpt lat="43.93004" lon="7.52559">
        <ele>433.40073</ele>
        <time>2014-09-30T12:52:01Z</time>
      </trkpt>
      <trkpt lat="43.93002" lon="7.52562">
        <ele>433.40073</ele>
        <time>2014-09-30T12:52:06Z</time>
      </trkpt>
      <trkpt lat="43.93001" lon="7.52565">
        <ele>433.40073</ele>
        <time>2014-09-30T12:52:11Z</time>
      </trkpt>
      <trkpt lat="43.93002" lon="7.52569">
        <ele>433.48148</ele>
        <time>2014-09-30T12:52:16Z</time>
      </trkpt>
      <trkpt lat="43.93005" lon="7.52574">
        <ele>433.48148</ele>
        <time>2014-09-30T12:52:21Z</time>
      </trkpt>
      <trkpt lat="43.93008" lon="7.52577">
        <ele>433.48148</ele>
        <time>2014-09-30T12:52:26Z</time>
      </trkpt>
      <trkpt lat="43.93009" lon="7.52576">
        <ele>433.60443</ele>
        <time>2014-09-30T12:52:32Z</time>
      </trkpt>
      <trkpt lat="43.9301" lon="7.52577">
        <ele>433.60443</ele>
        <time>2014-09-30T12:52:36Z</time>
      </trkpt>
      <trkpt lat="43.93008" lon="7.52576">
        <ele>433.60443</ele>
        <time>2014-09-30T12:52:41Z</time>
      </trkpt>
      <trkpt lat="43.93006" lon="7.52574">
        <ele>433.60443</ele>
        <time>2014-09-30T12:52:46Z</time>
      </trkpt>
      <trkpt lat="43.93005" lon="7.52573">
        <ele>433.60443</ele>
        <time>2014-09-30T12:52:51Z</time>
      </trkpt>
      <trkpt lat="43.93005" lon="7.52572">
        <ele>433.60443</ele>
        <time>2014-09-30T12:52:56Z</time>
      </trkpt>
      <trkpt lat="43.93004" lon="7.52573">
        <ele>433.60443</ele>
        <time>2014-09-30T12:53:01Z</time>
      </trkpt>
      <trkpt lat="43.93004" lon="7.52571">
        <ele>433.61008</ele>
        <time>2014-09-30T12:53:06Z</time>
      </trkpt>
      <trkpt lat="43.93003" lon="7.52571">
        <ele>433.61008</ele>
        <time>2014-09-30T12:53:11Z</time>
      </trkpt>
      <trkpt lat="43.93004" lon="7.5257">
        <ele>433.61008</ele>
        <time>2014-09-30T12:53:16Z</time>
      </trkpt>
      <trkpt lat="43.93006" lon="7.52569">
        <ele>433.61008</ele>
        <time>2014-09-30T12:53:21Z</time>
      </trkpt>
      <trkpt lat="43.93007" lon="7.52571">
        <ele>433.61008</ele>
        <time>2014-09-30T12:53:26Z</time>
      </trkpt>
      <trkpt lat="43.93007" lon="7.52573">
        <ele>433.61008</ele>
        <time>2014-09-30T12:53:31Z</time>
      </trkpt>
      <trkpt lat="43.93007" lon="7.52574">
        <ele>433.61008</ele>
        <time>2014-09-30T12:53:36Z</time>
      </trkpt>
      <trkpt lat="43.93007" lon="7.52574">
        <ele>433.61008</ele>
        <time>2014-09-30T12:53:41Z</time>
      </trkpt>
      <trkpt lat="43.93006" lon="7.52575">
        <ele>433.36536</ele>
        <time>2014-09-30T12:53:46Z</time>
      </trkpt>
      <trkpt lat="43.93003" lon="7.52571">
        <ele>433.36536</ele>
        <time>2014-09-30T12:53:52Z</time>
      </trkpt>
      <trkpt lat="43.93001" lon="7.52569">
        <ele>433.36536</ele>
        <time>2014-09-30T12:53:56Z</time>
      </trkpt>
      <trkpt lat="43.92999" lon="7.52566">
        <ele>432.7909</ele>
        <time>2014-09-30T12:54:01Z</time>
      </trkpt>
      <trkpt lat="43.92998" lon="7.52563">
        <ele>432.7909</ele>
        <time>2014-09-30T12:54:06Z</time>
      </trkpt>
      <trkpt lat="43.92999" lon="7.52561">
        <ele>432.7909</ele>
        <time>2014-09-30T12:54:11Z</time>
      </trkpt>
      <trkpt lat="43.93001" lon="7.5256">
        <ele>432.7909</ele>
        <time>2014-09-30T12:54:16Z</time>
      </trkpt>
      <trkpt lat="43.93" lon="7.5256">
        <ele>432.7909</ele>
        <time>2014-09-30T12:54:21Z</time>
      </trkpt>
      <trkpt lat="43.92997" lon="7.52557">
        <ele>432.03015</ele>
        <time>2014-09-30T12:54:26Z</time>
      </trkpt>
      <trkpt lat="43.92997" lon="7.52558">
        <ele>432.03015</ele>
        <time>2014-09-30T12:54:31Z</time>
      </trkpt>
      <trkpt lat="43.92997" lon="7.52561">
        <ele>432.03015</ele>
        <time>2014-09-30T12:54:36Z</time>
      </trkpt>
      <trkpt lat="43.92998" lon="7.52563">
        <ele>432.03015</ele>
        <time>2014-09-30T12:54:42Z</time>
      </trkpt>
      <trkpt lat="43.92998" lon="7.52563">
        <ele>432.03015</ele>
        <time>2014-09-30T12:54:46Z</time>
      </trkpt>
      <trkpt lat="43.92998" lon="7.52563">
        <ele>432.03015</ele>
        <time>2014-09-30T12:54:51Z</time>
      </trkpt>
      <trkpt lat="43.92999" lon="7.52562">
        <ele>432.03015</ele>
        <time>2014-09-30T12:54:56Z</time>
      </trkpt>
      <trkpt lat="43.92999" lon="7.52562">
        <ele>432.03015</ele>
        <time>2014-09-30T12:55:01Z</time>
      </trkpt>
      <trkpt lat="43.93" lon="7.52561">
        <ele>432.03015</ele>
        <time>2014-09-30T12:55:06Z</time>
      </trkpt>
      <trkpt lat="43.93" lon="7.5256">
        <ele>432.03015</ele>
        <time>2014-09-30T12:55:11Z</time>
      </trkpt>
      <trkpt lat="43.93" lon="7.52559">
        <ele>432.03015</ele>
        <time>2014-09-30T12:55:16Z</time>
      </trkpt>
      <trkpt lat="43.93" lon="7.52559">
        <ele>431.11563</ele>
        <time>2014-09-30T12:55:21Z</time>
      </trkpt>
      <trkpt lat="43.92999" lon="7.52559">
        <ele>431.11563</ele>
        <time>2014-09-30T12:55:26Z</time>
      </trkpt>
      <trkpt lat="43.92999" lon="7.52558">
        <ele>431.11563</ele>
        <time>2014-09-30T12:55:31Z</time>
      </trkpt>
      <trkpt lat="43.92998" lon="7.52559">
        <ele>431.11563</ele>
        <time>2014-09-30T12:55:36Z</time>
      </trkpt>
      <trkpt lat="43.92999" lon="7.52559">
        <ele>431.11563</ele>
        <time>2014-09-30T12:55:41Z</time>
      </trkpt>
      <trkpt lat="43.92998" lon="7.5256">
        <ele>431.11563</ele>
        <time>2014-09-30T12:55:46Z</time>
      </trkpt>
      <trkpt lat="43.92998" lon="7.52559">
        <ele>431.11563</ele>
        <time>2014-09-30T12:55:51Z</time>
      </trkpt>
      <trkpt lat="43.92998" lon="7.52558">
        <ele>431.11563</ele>
        <time>2014-09-30T12:55:56Z</time>
      </trkpt>
      <trkpt lat="43.92998" lon="7.52558">
        <ele>431.11563</ele>
        <time>2014-09-30T12:56:01Z</time>
      </trkpt>
      <trkpt lat="43.92997" lon="7.52557">
        <ele>431.11563</ele>
        <time>2014-09-30T12:56:06Z</time>
      </trkpt>
      <trkpt lat="43.92996" lon="7.52557">
        <ele>431.11563</ele>
        <time>2014-09-30T12:56:11Z</time>
      </trkpt>
      <trkpt lat="43.92996" lon="7.52555">
        <ele>431.11563</ele>
        <time>2014-09-30T12:56:16Z</time>
      </trkpt>
      <trkpt lat="43.92997" lon="7.52552">
        <ele>430.36612</ele>
        <time>2014-09-30T12:56:21Z</time>
      </trkpt>
      <trkpt lat="43.92999" lon="7.52551">
        <ele>430.36612</ele>
        <time>2014-09-30T12:56:26Z</time>
      </trkpt>
      <trkpt lat="43.92999" lon="7.52551">
        <ele>430.36612</ele>
        <time>2014-09-30T12:56:31Z</time>
      </trkpt>
      <trkpt lat="43.92999" lon="7.5255">
        <ele>430.36612</ele>
        <time>2014-09-30T12:56:36Z</time>
      </trkpt>
      <trkpt lat="43.92999" lon="7.5255">
        <ele>430.36612</ele>
        <time>2014-09-30T12:56:41Z</time>
      </trkpt>
      <trkpt lat="43.93" lon="7.52549">
        <ele>430.36612</ele>
        <time>2014-09-30T12:56:46Z</time>
      </trkpt>
      <trkpt lat="43.93" lon="7.52547">
        <ele>430.36612</ele>
        <time>2014-09-30T12:56:51Z</time>
      </trkpt>
      <trkpt lat="43.93002" lon="7.52545">
        <ele>430.36612</ele>
        <time>2014-09-30T12:56:56Z</time>
      </trkpt>
      <trkpt lat="43.93002" lon="7.52543">
        <ele>429.5287</ele>
        <time>2014-09-30T12:57:01Z</time>
      </trkpt>
      <trkpt lat="43.93002" lon="7.52542">
        <ele>429.5287</ele>
        <time>2014-09-30T12:57:06Z</time>
      </trkpt>
      <trkpt lat="43.93001" lon="7.52542">
        <ele>429.5287</ele>
        <time>2014-09-30T12:57:11Z</time>
      </trkpt>
      <trkpt lat="43.93001" lon="7.52542">
        <ele>429.5287</ele>
        <time>2014-09-30T12:57:16Z</time>
      </trkpt>
      <trkpt lat="43.93002" lon="7.52543">
        <ele>429.5287</ele>
        <time>2014-09-30T12:57:21Z</time>
      </trkpt>
      <trkpt lat="43.93003" lon="7.52543">
        <ele>429.5287</ele>
        <time>2014-09-30T12:57:26Z</time>
      </trkpt>
      <trkpt lat="43.93003" lon="7.52544">
        <ele>429.5287</ele>
        <time>2014-09-30T12:57:31Z</time>
      </trkpt>
      <trkpt lat="43.93002" lon="7.52544">
        <ele>429.5287</ele>
        <time>2014-09-30T12:57:37Z</time>
      </trkpt>
      <trkpt lat="43.93002" lon="7.52544">
        <ele>429.5287</ele>
        <time>2014-09-30T12:57:41Z</time>
      </trkpt>
      <trkpt lat="43.93003" lon="7.52547">
        <ele>429.5287</ele>
        <time>2014-09-30T12:57:46Z</time>
      </trkpt>
      <trkpt lat="43.93004" lon="7.52549">
        <ele>428.71518</ele>
        <time>2014-09-30T12:57:51Z</time>
      </trkpt>
      <trkpt lat="43.93005" lon="7.52549">
        <ele>428.71518</ele>
        <time>2014-09-30T12:57:56Z</time>
      </trkpt>
      <trkpt lat="43.93005" lon="7.52549">
        <ele>428.71518</ele>
        <time>2014-09-30T12:58:01Z</time>
      </trkpt>
      <trkpt lat="43.93004" lon="7.52549">
        <ele>428.71518</ele>
        <time>2014-09-30T12:58:06Z</time>
      </trkpt>
      <trkpt lat="43.93004" lon="7.52547">
        <ele>428.71518</ele>
        <time>2014-09-30T12:58:11Z</time>
      </trkpt>
      <trkpt lat="43.93002" lon="7.52547">
        <ele>428.71518</ele>
        <time>2014-09-30T12:58:16Z</time>
      </trkpt>
      <trkpt lat="43.93" lon="7.52548">
        <ele>428.71518</ele>
        <time>2014-09-30T12:58:21Z</time>
      </trkpt>
      <trkpt lat="43.93001" lon="7.52547">
        <ele>428.71518</ele>
        <time>2014-09-30T12:58:26Z</time>
      </trkpt>
      <trkpt lat="43.93001" lon="7.52545">
        <ele>428.71518</ele>
        <time>2014-09-30T12:58:31Z</time>
      </trkpt>
      <trkpt lat="43.93003" lon="7.52543">
        <ele>427.81274</ele>
        <time>2014-09-30T12:58:36Z</time>
      </trkpt>
      <trkpt lat="43.93005" lon="7.52543">
        <ele>427.81274</ele>
        <time>2014-09-30T12:58:41Z</time>
      </trkpt>
      <trkpt lat="43.93005" lon="7.52544">
        <ele>427.81274</ele>
        <time>2014-09-30T12:58:46Z</time>
      </trkpt>
      <trkpt lat="43.93003" lon="7.52543">
        <ele>427.81274</ele>
        <time>2014-09-30T12:58:51Z</time>
      </trkpt>
      <trkpt lat="43.93002" lon="7.52542">
        <ele>427.81274</ele>
        <time>2014-09-30T12:58:56Z</time>
      </trkpt>
      <trkpt lat="43.93001" lon="7.52541">
        <ele>427.81274</ele>
        <time>2014-09-30T12:59:01Z</time>
      </trkpt>
      <trkpt lat="43.93001" lon="7.52541">
        <ele>427.81274</ele>
        <time>2014-09-30T12:59:06Z</time>
      </trkpt>
      <trkpt lat="43.93" lon="7.52543">
        <ele>427.81274</ele>
        <time>2014-09-30T12:59:11Z</time>
      </trkpt>
      <trkpt lat="43.93002" lon="7.52542">
        <ele>426.9333</ele>
        <time>2014-09-30T12:59:16Z</time>
      </trkpt>
      <trkpt lat="43.93003" lon="7.5254">
        <ele>426.9333</ele>
        <time>2014-09-30T12:59:21Z</time>
      </trkpt>
      <trkpt lat="43.93003" lon="7.52538">
        <ele>426.9333</ele>
        <time>2014-09-30T12:59:26Z</time>
      </trkpt>
      <trkpt lat="43.93005" lon="7.52535">
        <ele>426.9333</ele>
        <time>2014-09-30T12:59:31Z</time>
      </trkpt>
      <trkpt lat="43.93004" lon="7.52535">
        <ele>426.9333</ele>
        <time>2014-09-30T12:59:36Z</time>
      </trkpt>
      <trkpt lat="43.93003" lon="7.52534">
        <ele>426.9333</ele>
        <time>2014-09-30T12:59:41Z</time>
      </trkpt>
      <trkpt lat="43.93001" lon="7.52536">
        <ele>426.06494</ele>
        <time>2014-09-30T12:59:46Z</time>
      </trkpt>
      <trkpt lat="43.93002" lon="7.52538">
        <ele>426.06494</ele>
        <time>2014-09-30T12:59:51Z</time>
      </trkpt>
      <trkpt lat="43.93002" lon="7.5254">
        <ele>426.06494</ele>
        <time>2014-09-30T12:59:57Z</time>
      </trkpt>
      <trkpt lat="43.93" lon="7.5254">
        <ele>426.06494</ele>
        <time>2014-09-30T13:00:01Z</time>
      </trkpt>
      <trkpt lat="43.93" lon="7.52541">
        <ele>426.06494</ele>
        <time>2014-09-30T13:00:06Z</time>
      </trkpt>
      <trkpt lat="43.92999" lon="7.5254">
        <ele>426.06494</ele>
        <time>2014-09-30T13:00:11Z</time>
      </trkpt>
      <trkpt lat="43.92998" lon="7.52539">
        <ele>426.06494</ele>
        <time>2014-09-30T13:00:16Z</time>
      </trkpt>
      <trkpt lat="43.92998" lon="7.52539">
        <ele>426.06494</ele>
        <time>2014-09-30T13:00:21Z</time>
      </trkpt>
      <trkpt lat="43.92998" lon="7.52539">
        <ele>426.06494</ele>
        <time>2014-09-30T13:00:26Z</time>
      </trkpt>
      <trkpt lat="43.92998" lon="7.52539">
        <ele>426.06494</ele>
        <time>2014-09-30T13:01:01Z</time>
      </trkpt>
      <trkpt lat="43.92998" lon="7.52539">
        <ele>426.06494</ele>
        <time>2014-09-30T13:01:06Z</time>
      </trkpt>
      <trkpt lat="43.92997" lon="7.52538">
        <ele>425.02365</ele>
        <time>2014-09-30T13:01:11Z</time>
      </trkpt>
      <trkpt lat="43.92997" lon="7.52537">
        <ele>425.02365</ele>
        <time>2014-09-30T13:01:16Z</time>
      </trkpt>
      <trkpt lat="43.92996" lon="7.52535">
        <ele>425.02365</ele>
        <time>2014-09-30T13:01:21Z</time>
      </trkpt>
      <trkpt lat="43.92996" lon="7.52535">
        <ele>425.02365</ele>
        <time>2014-09-30T13:01:26Z</time>
      </trkpt>
      <trkpt lat="43.92996" lon="7.52534">
        <ele>425.02365</ele>
        <time>2014-09-30T13:01:32Z</time>
      </trkpt>
      <trkpt lat="43.92997" lon="7.52534">
        <ele>425.02365</ele>
        <time>2014-09-30T13:01:36Z</time>
      </trkpt>
      <trkpt lat="43.92997" lon="7.52535">
        <ele>425.02365</ele>
        <time>2014-09-30T13:01:41Z</time>
      </trkpt>
      <trkpt lat="43.92997" lon="7.52536">
        <ele>425.02365</ele>
        <time>2014-09-30T13:01:46Z</time>
      </trkpt>
      <trkpt lat="43.92997" lon="7.52537">
        <ele>425.02365</ele>
        <time>2014-09-30T13:01:51Z</time>
      </trkpt>
      <trkpt lat="43.92997" lon="7.52537">
        <ele>425.02365</ele>
        <time>2014-09-30T13:01:56Z</time>
      </trkpt>
      <trkpt lat="43.92998" lon="7.52539">
        <ele>425.02365</ele>
        <time>2014-09-30T13:02:02Z</time>
      </trkpt>
      <trkpt lat="43.93013" lon="7.52537">
        <ele>424.2878</ele>
        <time>2014-09-30T14:08:18Z</time>
      </trkpt>
      <trkpt lat="43.93001" lon="7.52539">
        <ele>422.31088</ele>
        <time>2014-09-30T14:08:48Z</time>
      </trkpt>
      <trkpt lat="43.93001" lon="7.52539">
        <ele>422.31088</ele>
        <time>2014-09-30T14:08:53Z</time>
      </trkpt>
      <trkpt lat="43.92998" lon="7.52541">
        <ele>422.31088</ele>
        <time>2014-09-30T14:08:58Z</time>
      </trkpt>
      <trkpt lat="43.92998" lon="7.52543">
        <ele>422.31088</ele>
        <time>2014-09-30T14:09:03Z</time>
      </trkpt>
      <trkpt lat="43.92997" lon="7.52542">
        <ele>422.31088</ele>
        <time>2014-09-30T14:09:08Z</time>
      </trkpt>
      <trkpt lat="43.92997" lon="7.52541">
        <ele>422.31088</ele>
        <time>2014-09-30T14:09:13Z</time>
      </trkpt>
      <trkpt lat="43.92997" lon="7.52539">
        <ele>422.31088</ele>
        <time>2014-09-30T14:09:18Z</time>
      </trkpt>
      <trkpt lat="43.92998" lon="7.5254">
        <ele>420.81943</ele>
        <time>2014-09-30T14:09:23Z</time>
      </trkpt>
      <trkpt lat="43.92998" lon="7.5254">
        <ele>420.81943</ele>
        <time>2014-09-30T14:09:28Z</time>
      </trkpt>
      <trkpt lat="43.92999" lon="7.5254">
        <ele>420.81943</ele>
        <time>2014-09-30T14:09:33Z</time>
      </trkpt>
      <trkpt lat="43.92999" lon="7.5254">
        <ele>420.81943</ele>
        <time>2014-09-30T14:09:39Z</time>
      </trkpt>
      <trkpt lat="43.93" lon="7.52541">
        <ele>420.81943</ele>
        <time>2014-09-30T14:09:43Z</time>
      </trkpt>
      <trkpt lat="43.92999" lon="7.52541">
        <ele>420.81943</ele>
        <time>2014-09-30T14:09:48Z</time>
      </trkpt>
      <trkpt lat="43.93" lon="7.5254">
        <ele>420.81943</ele>
        <time>2014-09-30T14:09:53Z</time>
      </trkpt>
      <trkpt lat="43.93" lon="7.52539">
        <ele>420.81943</ele>
        <time>2014-09-30T14:09:58Z</time>
      </trkpt>
      <trkpt lat="43.93002" lon="7.52539">
        <ele>420.81943</ele>
        <time>2014-09-30T14:10:03Z</time>
      </trkpt>
      <trkpt lat="43.93002" lon="7.52538">
        <ele>420.81943</ele>
        <time>2014-09-30T14:10:08Z</time>
      </trkpt>
      <trkpt lat="43.93002" lon="7.52536">
        <ele>420.81943</ele>
        <time>2014-09-30T14:10:13Z</time>
      </trkpt>
      <trkpt lat="43.93001" lon="7.52533">
        <ele>420.27313</ele>
        <time>2014-09-30T14:10:18Z</time>
      </trkpt>
      <trkpt lat="43.93" lon="7.52533">
        <ele>420.27313</ele>
        <time>2014-09-30T14:10:23Z</time>
      </trkpt>
      <trkpt lat="43.93001" lon="7.52532">
        <ele>420.27313</ele>
        <time>2014-09-30T14:10:28Z</time>
      </trkpt>
      <trkpt lat="43.93003" lon="7.52534">
        <ele>420.27313</ele>
        <time>2014-09-30T14:10:33Z</time>
      </trkpt>
      <trkpt lat="43.93005" lon="7.52535">
        <ele>420.27313</ele>
        <time>2014-09-30T14:10:38Z</time>
      </trkpt>
      <trkpt lat="43.93005" lon="7.52535">
        <ele>420.27313</ele>
        <time>2014-09-30T14:10:43Z</time>
      </trkpt>
      <trkpt lat="43.93007" lon="7.52534">
        <ele>420.27313</ele>
        <time>2014-09-30T14:10:48Z</time>
      </trkpt>
      <trkpt lat="43.93007" lon="7.52532">
        <ele>420.0143</ele>
        <time>2014-09-30T14:10:53Z</time>
      </trkpt>
      <trkpt lat="43.93006" lon="7.52528">
        <ele>420.0143</ele>
        <time>2014-09-30T14:10:58Z</time>
      </trkpt>
      <trkpt lat="43.93007" lon="7.52524">
        <ele>420.0143</ele>
        <time>2014-09-30T14:11:03Z</time>
      </trkpt>
      <trkpt lat="43.93006" lon="7.52521">
        <ele>420.0143</ele>
        <time>2014-09-30T14:11:08Z</time>
      </trkpt>
      <trkpt lat="43.93005" lon="7.52518">
        <ele>419.67767</ele>
        <time>2014-09-30T14:11:13Z</time>
      </trkpt>
      <trkpt lat="43.93003" lon="7.52515">
        <ele>419.67767</ele>
        <time>2014-09-30T14:11:18Z</time>
      </trkpt>
      <trkpt lat="43.93" lon="7.52512">
        <ele>419.67767</ele>
        <time>2014-09-30T14:11:23Z</time>
      </trkpt>
      <trkpt lat="43.92999" lon="7.52509">
        <ele>419.67767</ele>
        <time>2014-09-30T14:11:28Z</time>
      </trkpt>
      <trkpt lat="43.92997" lon="7.52507">
        <ele>419.27072</ele>
        <time>2014-09-30T14:11:33Z</time>
      </trkpt>
      <trkpt lat="43.92996" lon="7.52506">
        <ele>419.27072</ele>
        <time>2014-09-30T14:11:38Z</time>
      </trkpt>
      <trkpt lat="43.92995" lon="7.52505">
        <ele>419.27072</ele>
        <time>2014-09-30T14:11:43Z</time>
      </trkpt>
      <trkpt lat="43.92994" lon="7.52503">
        <ele>419.27072</ele>
        <time>2014-09-30T14:11:48Z</time>
      </trkpt>
      <trkpt lat="43.92993" lon="7.52501">
        <ele>419.27072</ele>
        <time>2014-09-30T14:11:53Z</time>
      </trkpt>
      <trkpt lat="43.92992" lon="7.52499">
        <ele>419.27072</ele>
        <time>2014-09-30T14:11:58Z</time>
      </trkpt>
      <trkpt lat="43.92993" lon="7.52498">
        <ele>418.7284</ele>
        <time>2014-09-30T14:12:03Z</time>
      </trkpt>
      <trkpt lat="43.92992" lon="7.52495">
        <ele>418.7284</ele>
        <time>2014-09-30T14:12:08Z</time>
      </trkpt>
      <trkpt lat="43.9299" lon="7.52493">
        <ele>418.7284</ele>
        <time>2014-09-30T14:12:13Z</time>
      </trkpt>
      <trkpt lat="43.92989" lon="7.52491">
        <ele>418.7284</ele>
        <time>2014-09-30T14:12:18Z</time>
      </trkpt>
      <trkpt lat="43.9299" lon="7.52488">
        <ele>418.7284</ele>
        <time>2014-09-30T14:12:23Z</time>
      </trkpt>
      <trkpt lat="43.92991" lon="7.52485">
        <ele>417.86093</ele>
        <time>2014-09-30T14:12:28Z</time>
      </trkpt>
      <trkpt lat="43.92992" lon="7.52485">
        <ele>417.86093</ele>
        <time>2014-09-30T14:12:33Z</time>
      </trkpt>
      <trkpt lat="43.92993" lon="7.52486">
        <ele>417.86093</ele>
        <time>2014-09-30T14:12:38Z</time>
      </trkpt>
      <trkpt lat="43.92995" lon="7.52487">
        <ele>417.86093</ele>
        <time>2014-09-30T14:12:43Z</time>
      </trkpt>
      <trkpt lat="43.92997" lon="7.52489">
        <ele>417.86093</ele>
        <time>2014-09-30T14:12:48Z</time>
      </trkpt>
      <trkpt lat="43.92998" lon="7.52491">
        <ele>416.86813</ele>
        <time>2014-09-30T14:12:53Z</time>
      </trkpt>
      <trkpt lat="43.92999" lon="7.52491">
        <ele>416.86813</ele>
        <time>2014-09-30T14:12:58Z</time>
      </trkpt>
      <trkpt lat="43.93" lon="7.52491">
        <ele>416.86813</ele>
        <time>2014-09-30T14:13:03Z</time>
      </trkpt>
      <trkpt lat="43.92999" lon="7.52493">
        <ele>416.86813</ele>
        <time>2014-09-30T14:13:08Z</time>
      </trkpt>
      <trkpt lat="43.93002" lon="7.52494">
        <ele>416.86813</ele>
        <time>2014-09-30T14:13:13Z</time>
      </trkpt>
      <trkpt lat="43.93008" lon="7.52497">
        <ele>415.60373</ele>
        <time>2014-09-30T14:13:18Z</time>
      </trkpt>
      <trkpt lat="43.93012" lon="7.52493">
        <ele>415.60373</ele>
        <time>2014-09-30T14:13:23Z</time>
      </trkpt>
      <trkpt lat="43.93011" lon="7.5249">
        <ele>415.60373</ele>
        <time>2014-09-30T14:13:28Z</time>
      </trkpt>
      <trkpt lat="43.9301" lon="7.52487">
        <ele>415.60373</ele>
        <time>2014-09-30T14:13:33Z</time>
      </trkpt>
      <trkpt lat="43.93011" lon="7.52485">
        <ele>414.20676</ele>
        <time>2014-09-30T14:13:38Z</time>
      </trkpt>
      <trkpt lat="43.93011" lon="7.52483">
        <ele>414.20676</ele>
        <time>2014-09-30T14:13:43Z</time>
      </trkpt>
      <trkpt lat="43.93011" lon="7.52481">
        <ele>414.20676</ele>
        <time>2014-09-30T14:13:48Z</time>
      </trkpt>
      <trkpt lat="43.9301" lon="7.52479">
        <ele>414.20676</ele>
        <time>2014-09-30T14:13:53Z</time>
      </trkpt>
      <trkpt lat="43.93011" lon="7.52474">
        <ele>414.20676</ele>
        <time>2014-09-30T14:13:58Z</time>
      </trkpt>
      <trkpt lat="43.93014" lon="7.52476">
        <ele>412.60452</ele>
        <time>2014-09-30T14:14:03Z</time>
      </trkpt>
      <trkpt lat="43.93014" lon="7.52478">
        <ele>412.60452</ele>
        <time>2014-09-30T14:14:08Z</time>
      </trkpt>
      <trkpt lat="43.93014" lon="7.52481">
        <ele>412.60452</ele>
        <time>2014-09-30T14:14:13Z</time>
      </trkpt>
      <trkpt lat="43.93015" lon="7.52484">
        <ele>412.60452</ele>
        <time>2014-09-30T14:14:18Z</time>
      </trkpt>
      <trkpt lat="43.93016" lon="7.52487">
        <ele>412.60452</ele>
        <time>2014-09-30T14:14:23Z</time>
      </trkpt>
      <trkpt lat="43.93017" lon="7.52485">
        <ele>410.80212</ele>
        <time>2014-09-30T14:14:28Z</time>
      </trkpt>
      <trkpt lat="43.93017" lon="7.52482">
        <ele>410.80212</ele>
        <time>2014-09-30T14:14:33Z</time>
      </trkpt>
      <trkpt lat="43.93018" lon="7.52476">
        <ele>410.80212</ele>
        <time>2014-09-30T14:14:38Z</time>
      </trkpt>
      <trkpt lat="43.9302" lon="7.5247">
        <ele>408.97775</ele>
        <time>2014-09-30T14:14:43Z</time>
      </trkpt>
      <trkpt lat="43.93021" lon="7.52466">
        <ele>408.97775</ele>
        <time>2014-09-30T14:14:48Z</time>
      </trkpt>
      <trkpt lat="43.93021" lon="7.52465">
        <ele>408.97775</ele>
        <time>2014-09-30T14:14:53Z</time>
      </trkpt>
      <trkpt lat="43.93021" lon="7.52462">
        <ele>408.97775</ele>
        <time>2014-09-30T14:14:58Z</time>
      </trkpt>
      <trkpt lat="43.93019" lon="7.52459">
        <ele>408.97775</ele>
        <time>2014-09-30T14:15:03Z</time>
      </trkpt>
      <trkpt lat="43.9302" lon="7.52456">
        <ele>407.0081</ele>
        <time>2014-09-30T14:15:08Z</time>
      </trkpt>
      <trkpt lat="43.93022" lon="7.52456">
        <ele>407.0081</ele>
        <time>2014-09-30T14:15:13Z</time>
      </trkpt>
      <trkpt lat="43.93023" lon="7.52456">
        <ele>407.0081</ele>
        <time>2014-09-30T14:15:18Z</time>
      </trkpt>
      <trkpt lat="43.93025" lon="7.52455">
        <ele>407.0081</ele>
        <time>2014-09-30T14:15:23Z</time>
      </trkpt>
      <trkpt lat="43.93026" lon="7.52453">
        <ele>407.0081</ele>
        <time>2014-09-30T14:15:28Z</time>
      </trkpt>
      <trkpt lat="43.93027" lon="7.52451">
        <ele>404.67834</ele>
        <time>2014-09-30T14:15:33Z</time>
      </trkpt>
      <trkpt lat="43.93027" lon="7.52449">
        <ele>404.67834</ele>
        <time>2014-09-30T14:15:38Z</time>
      </trkpt>
      <trkpt lat="43.93027" lon="7.52448">
        <ele>404.67834</ele>
        <time>2014-09-30T14:15:43Z</time>
      </trkpt>
      <trkpt lat="43.93026" lon="7.52448">
        <ele>404.67834</ele>
        <time>2014-09-30T14:15:48Z</time>
      </trkpt>
      <trkpt lat="43.93025" lon="7.52448">
        <ele>404.67834</ele>
        <time>2014-09-30T14:15:53Z</time>
      </trkpt>
      <trkpt lat="43.93023" lon="7.52448">
        <ele>404.67834</ele>
        <time>2014-09-30T14:15:58Z</time>
      </trkpt>
      <trkpt lat="43.93022" lon="7.52448">
        <ele>404.67834</ele>
        <time>2014-09-30T14:16:03Z</time>
      </trkpt>
      <trkpt lat="43.93022" lon="7.52445">
        <ele>402.0498</ele>
        <time>2014-09-30T14:16:08Z</time>
      </trkpt>
      <trkpt lat="43.93022" lon="7.52441">
        <ele>402.0498</ele>
        <time>2014-09-30T14:16:13Z</time>
      </trkpt>
      <trkpt lat="43.93022" lon="7.52438">
        <ele>402.0498</ele>
        <time>2014-09-30T14:16:18Z</time>
      </trkpt>
      <trkpt lat="43.93024" lon="7.52436">
        <ele>402.0498</ele>
        <time>2014-09-30T14:16:23Z</time>
      </trkpt>
      <trkpt lat="43.93024" lon="7.52433">
        <ele>402.0498</ele>
        <time>2014-09-30T14:16:28Z</time>
      </trkpt>
      <trkpt lat="43.93025" lon="7.52433">
        <ele>398.97812</ele>
        <time>2014-09-30T14:16:33Z</time>
      </trkpt>
      <trkpt lat="43.93027" lon="7.52436">
        <ele>398.97812</ele>
        <time>2014-09-30T14:16:38Z</time>
      </trkpt>
      <trkpt lat="43.93027" lon="7.52436">
        <ele>398.97812</ele>
        <time>2014-09-30T14:16:43Z</time>
      </trkpt>
      <trkpt lat="43.93027" lon="7.52434">
        <ele>398.97812</ele>
        <time>2014-09-30T14:16:48Z</time>
      </trkpt>
      <trkpt lat="43.93028" lon="7.52431">
        <ele>398.97812</ele>
        <time>2014-09-30T14:16:53Z</time>
      </trkpt>
      <trkpt lat="43.93028" lon="7.52429">
        <ele>398.97812</ele>
        <time>2014-09-30T14:16:58Z</time>
      </trkpt>
      <trkpt lat="43.9303" lon="7.52424">
        <ele>395.67648</ele>
        <time>2014-09-30T14:17:03Z</time>
      </trkpt>
      <trkpt lat="43.93031" lon="7.52418">
        <ele>395.67648</ele>
        <time>2014-09-30T14:17:08Z</time>
      </trkpt>
      <trkpt lat="43.93033" lon="7.52414">
        <ele>395.67648</ele>
        <time>2014-09-30T14:17:13Z</time>
      </trkpt>
      <trkpt lat="43.93034" lon="7.52414">
        <ele>392.5303</ele>
        <time>2014-09-30T14:17:18Z</time>
      </trkpt>
      <trkpt lat="43.93036" lon="7.52413">
        <ele>392.5303</ele>
        <time>2014-09-30T14:17:23Z</time>
      </trkpt>
      <trkpt lat="43.93036" lon="7.5241">
        <ele>392.5303</ele>
        <time>2014-09-30T14:17:28Z</time>
      </trkpt>
      <trkpt lat="43.93039" lon="7.52407">
        <ele>392.5303</ele>
        <time>2014-09-30T14:17:33Z</time>
      </trkpt>
      <trkpt lat="43.93041" lon="7.52404">
        <ele>389.5502</ele>
        <time>2014-09-30T14:17:38Z</time>
      </trkpt>
      <trkpt lat="43.93041" lon="7.52401">
        <ele>389.5502</ele>
        <time>2014-09-30T14:17:43Z</time>
      </trkpt>
      <trkpt lat="43.93042" lon="7.52399">
        <ele>389.5502</ele>
        <time>2014-09-30T14:17:48Z</time>
      </trkpt>
      <trkpt lat="43.93043" lon="7.52397">
        <ele>389.5502</ele>
        <time>2014-09-30T14:17:53Z</time>
      </trkpt>
      <trkpt lat="43.93044" lon="7.52397">
        <ele>389.5502</ele>
        <time>2014-09-30T14:17:58Z</time>
      </trkpt>
      <trkpt lat="43.93046" lon="7.52397">
        <ele>389.5502</ele>
        <time>2014-09-30T14:18:03Z</time>
      </trkpt>
      <trkpt lat="43.93047" lon="7.52396">
        <ele>386.58676</ele>
        <time>2014-09-30T14:18:08Z</time>
      </trkpt>
      <trkpt lat="43.93048" lon="7.52398">
        <ele>386.58676</ele>
        <time>2014-09-30T14:18:13Z</time>
      </trkpt>
      <trkpt lat="43.93051" lon="7.52398">
        <ele>386.58676</ele>
        <time>2014-09-30T14:18:18Z</time>
      </trkpt>
      <trkpt lat="43.93052" lon="7.52395">
        <ele>386.58676</ele>
        <time>2014-09-30T14:18:23Z</time>
      </trkpt>
      <trkpt lat="43.93055" lon="7.52392">
        <ele>383.5302</ele>
        <time>2014-09-30T14:18:28Z</time>
      </trkpt>
      <trkpt lat="43.93056" lon="7.52389">
        <ele>383.5302</ele>
        <time>2014-09-30T14:18:33Z</time>
      </trkpt>
      <trkpt lat="43.93057" lon="7.52387">
        <ele>383.5302</ele>
        <time>2014-09-30T14:18:38Z</time>
      </trkpt>
      <trkpt lat="43.93058" lon="7.52386">
        <ele>383.5302</ele>
        <time>2014-09-30T14:18:43Z</time>
      </trkpt>
      <trkpt lat="43.93057" lon="7.52386">
        <ele>383.5302</ele>
        <time>2014-09-30T14:18:48Z</time>
      </trkpt>
      <trkpt lat="43.93058" lon="7.52384">
        <ele>383.5302</ele>
        <time>2014-09-30T14:18:53Z</time>
      </trkpt>
      <trkpt lat="43.93058" lon="7.52384">
        <ele>383.5302</ele>
        <time>2014-09-30T14:18:58Z</time>
      </trkpt>
      <trkpt lat="43.93061" lon="7.52383">
        <ele>380.59586</ele>
        <time>2014-09-30T14:19:03Z</time>
      </trkpt>
      <trkpt lat="43.93062" lon="7.52383">
        <ele>380.59586</ele>
        <time>2014-09-30T14:19:08Z</time>
      </trkpt>
      <trkpt lat="43.93066" lon="7.52385">
        <ele>380.59586</ele>
        <time>2014-09-30T14:19:13Z</time>
      </trkpt>
      <trkpt lat="43.93067" lon="7.52386">
        <ele>380.59586</ele>
        <time>2014-09-30T14:19:18Z</time>
      </trkpt>
      <trkpt lat="43.93068" lon="7.52388">
        <ele>380.59586</ele>
        <time>2014-09-30T14:19:23Z</time>
      </trkpt>
      <trkpt lat="43.93072" lon="7.52389">
        <ele>377.536</ele>
        <time>2014-09-30T14:19:28Z</time>
      </trkpt>
      <trkpt lat="43.93076" lon="7.52391">
        <ele>377.536</ele>
        <time>2014-09-30T14:19:33Z</time>
      </trkpt>
      <trkpt lat="43.93079" lon="7.52392">
        <ele>377.536</ele>
        <time>2014-09-30T14:19:38Z</time>
      </trkpt>
      <trkpt lat="43.93082" lon="7.5239">
        <ele>374.40942</ele>
        <time>2014-09-30T14:19:43Z</time>
      </trkpt>
      <trkpt lat="43.93084" lon="7.52387">
        <ele>374.40942</ele>
        <time>2014-09-30T14:19:48Z</time>
      </trkpt>
      <trkpt lat="43.93086" lon="7.52383">
        <ele>374.40942</ele>
        <time>2014-09-30T14:19:53Z</time>
      </trkpt>
      <trkpt lat="43.93087" lon="7.5238">
        <ele>374.40942</ele>
        <time>2014-09-30T14:19:58Z</time>
      </trkpt>
      <trkpt lat="43.93088" lon="7.52378">
        <ele>371.48676</ele>
        <time>2014-09-30T14:20:03Z</time>
      </trkpt>
      <trkpt lat="43.9309" lon="7.52375">
        <ele>371.48676</ele>
        <time>2014-09-30T14:20:08Z</time>
      </trkpt>
      <trkpt lat="43.93091" lon="7.52371">
        <ele>371.48676</ele>
        <time>2014-09-30T14:20:13Z</time>
      </trkpt>
      <trkpt lat="43.93091" lon="7.52367">
        <ele>368.65765</ele>
        <time>2014-09-30T14:20:18Z</time>
      </trkpt>
      <trkpt lat="43.93091" lon="7.52362">
        <ele>368.65765</ele>
        <time>2014-09-30T14:20:23Z</time>
      </trkpt>
      <trkpt lat="43.93093" lon="7.5236">
        <ele>368.65765</ele>
        <time>2014-09-30T14:20:28Z</time>
      </trkpt>
      <trkpt lat="43.93093" lon="7.52359">
        <ele>368.65765</ele>
        <time>2014-09-30T14:20:33Z</time>
      </trkpt>
      <trkpt lat="43.93096" lon="7.52358">
        <ele>365.93478</ele>
        <time>2014-09-30T14:20:38Z</time>
      </trkpt>
      <trkpt lat="43.93099" lon="7.52356">
        <ele>365.93478</ele>
        <time>2014-09-30T14:20:43Z</time>
      </trkpt>
      <trkpt lat="43.931" lon="7.52353">
        <ele>365.93478</ele>
        <time>2014-09-30T14:20:48Z</time>
      </trkpt>
      <trkpt lat="43.93101" lon="7.5235">
        <ele>365.93478</ele>
        <time>2014-09-30T14:20:53Z</time>
      </trkpt>
      <trkpt lat="43.93101" lon="7.52348">
        <ele>363.3004</ele>
        <time>2014-09-30T14:20:58Z</time>
      </trkpt>
      <trkpt lat="43.93103" lon="7.52347">
        <ele>363.3004</ele>
        <time>2014-09-30T14:21:03Z</time>
      </trkpt>
      <trkpt lat="43.93103" lon="7.52348">
        <ele>363.3004</ele>
        <time>2014-09-30T14:21:08Z</time>
      </trkpt>
      <trkpt lat="43.93103" lon="7.5235">
        <ele>363.3004</ele>
        <time>2014-09-30T14:21:13Z</time>
      </trkpt>
      <trkpt lat="43.93103" lon="7.52353">
        <ele>363.3004</ele>
        <time>2014-09-30T14:21:18Z</time>
      </trkpt>
      <trkpt lat="43.93105" lon="7.52354">
        <ele>363.3004</ele>
        <time>2014-09-30T14:21:23Z</time>
      </trkpt>
      <trkpt lat="43.93106" lon="7.52351">
        <ele>360.93954</ele>
        <time>2014-09-30T14:21:28Z</time>
      </trkpt>
      <trkpt lat="43.93103" lon="7.52349">
        <ele>360.93954</ele>
        <time>2014-09-30T14:21:33Z</time>
      </trkpt>
      <trkpt lat="43.93104" lon="7.52345">
        <ele>360.93954</ele>
        <time>2014-09-30T14:21:38Z</time>
      </trkpt>
      <trkpt lat="43.93106" lon="7.52341">
        <ele>358.7631</ele>
        <time>2014-09-30T14:21:43Z</time>
      </trkpt>
      <trkpt lat="43.93107" lon="7.52338">
        <ele>358.7631</ele>
        <time>2014-09-30T14:21:48Z</time>
      </trkpt>
      <trkpt lat="43.93109" lon="7.52336">
        <ele>358.7631</ele>
        <time>2014-09-30T14:21:53Z</time>
      </trkpt>
      <trkpt lat="43.93112" lon="7.52332">
        <ele>356.4861</ele>
        <time>2014-09-30T14:21:58Z</time>
      </trkpt>
      <trkpt lat="43.93113" lon="7.52329">
        <ele>356.4861</ele>
        <time>2014-09-30T14:22:03Z</time>
      </trkpt>
      <trkpt lat="43.93113" lon="7.52326">
        <ele>356.4861</ele>
        <time>2014-09-30T14:22:08Z</time>
      </trkpt>
      <trkpt lat="43.93115" lon="7.52324">
        <ele>356.4861</ele>
        <time>2014-09-30T14:22:13Z</time>
      </trkpt>
      <trkpt lat="43.93116" lon="7.52323">
        <ele>356.4861</ele>
        <time>2014-09-30T14:22:18Z</time>
      </trkpt>
      <trkpt lat="43.93117" lon="7.5232">
        <ele>354.0032</ele>
        <time>2014-09-30T14:22:23Z</time>
      </trkpt>
      <trkpt lat="43.93119" lon="7.52317">
        <ele>354.0032</ele>
        <time>2014-09-30T14:22:28Z</time>
      </trkpt>
      <trkpt lat="43.93119" lon="7.52315">
        <ele>354.0032</ele>
        <time>2014-09-30T14:22:33Z</time>
      </trkpt>
      <trkpt lat="43.93121" lon="7.52312">
        <ele>354.0032</ele>
        <time>2014-09-30T14:22:38Z</time>
      </trkpt>
      <trkpt lat="43.93121" lon="7.52311">
        <ele>354.0032</ele>
        <time>2014-09-30T14:22:43Z</time>
      </trkpt>
      <trkpt lat="43.93123" lon="7.5231">
        <ele>351.4044</ele>
        <time>2014-09-30T14:22:48Z</time>
      </trkpt>
      <trkpt lat="43.93128" lon="7.52307">
        <ele>351.4044</ele>
        <time>2014-09-30T14:22:53Z</time>
      </trkpt>
      <trkpt lat="43.93129" lon="7.52303">
        <ele>351.4044</ele>
        <time>2014-09-30T14:22:58Z</time>
      </trkpt>
      <trkpt lat="43.93131" lon="7.523">
        <ele>348.75888</ele>
        <time>2014-09-30T14:23:03Z</time>
      </trkpt>
      <trkpt lat="43.93134" lon="7.52296">
        <ele>348.75888</ele>
        <time>2014-09-30T14:23:08Z</time>
      </trkpt>
      <trkpt lat="43.93136" lon="7.52295">
        <ele>348.75888</ele>
        <time>2014-09-30T14:23:13Z</time>
      </trkpt>
      <trkpt lat="43.93138" lon="7.52292">
        <ele>348.75888</ele>
        <time>2014-09-30T14:23:18Z</time>
      </trkpt>
      <trkpt lat="43.9314" lon="7.5229">
        <ele>346.17395</ele>
        <time>2014-09-30T14:23:23Z</time>
      </trkpt>
      <trkpt lat="43.93141" lon="7.52287">
        <ele>346.17395</ele>
        <time>2014-09-30T14:23:28Z</time>
      </trkpt>
      <trkpt lat="43.93142" lon="7.52286">
        <ele>346.17395</ele>
        <time>2014-09-30T14:23:33Z</time>
      </trkpt>
      <trkpt lat="43.93144" lon="7.5229">
        <ele>346.17395</ele>
        <time>2014-09-30T14:23:38Z</time>
      </trkpt>
      <trkpt lat="43.93144" lon="7.52294">
        <ele>343.5613</ele>
        <time>2014-09-30T14:23:43Z</time>
      </trkpt>
      <trkpt lat="43.93144" lon="7.52295">
        <ele>343.5613</ele>
        <time>2014-09-30T14:23:48Z</time>
      </trkpt>
      <trkpt lat="43.93144" lon="7.52292">
        <ele>343.5613</ele>
        <time>2014-09-30T14:23:53Z</time>
      </trkpt>
      <trkpt lat="43.93146" lon="7.52289">
        <ele>343.5613</ele>
        <time>2014-09-30T14:23:58Z</time>
      </trkpt>
      <trkpt lat="43.93147" lon="7.52286">
        <ele>343.5613</ele>
        <time>2014-09-30T14:24:03Z</time>
      </trkpt>
      <trkpt lat="43.93148" lon="7.52284">
        <ele>341.1417</ele>
        <time>2014-09-30T14:24:08Z</time>
      </trkpt>
      <trkpt lat="43.93149" lon="7.52281">
        <ele>341.1417</ele>
        <time>2014-09-30T14:24:13Z</time>
      </trkpt>
      <trkpt lat="43.93149" lon="7.52283">
        <ele>341.1417</ele>
        <time>2014-09-30T14:24:18Z</time>
      </trkpt>
      <trkpt lat="43.93149" lon="7.52288">
        <ele>341.1417</ele>
        <time>2014-09-30T14:24:23Z</time>
      </trkpt>
      <trkpt lat="43.93151" lon="7.52288">
        <ele>338.77307</ele>
        <time>2014-09-30T14:24:28Z</time>
      </trkpt>
      <trkpt lat="43.93153" lon="7.52285">
        <ele>338.77307</ele>
        <time>2014-09-30T14:24:33Z</time>
      </trkpt>
      <trkpt lat="43.93154" lon="7.5228">
        <ele>338.77307</ele>
        <time>2014-09-30T14:24:38Z</time>
      </trkpt>
      <trkpt lat="43.93156" lon="7.52277">
        <ele>336.5253</ele>
        <time>2014-09-30T14:24:43Z</time>
      </trkpt>
      <trkpt lat="43.93157" lon="7.52274">
        <ele>336.5253</ele>
        <time>2014-09-30T14:24:48Z</time>
      </trkpt>
      <trkpt lat="43.93156" lon="7.52272">
        <ele>336.5253</ele>
        <time>2014-09-30T14:24:53Z</time>
      </trkpt>
      <trkpt lat="43.93156" lon="7.52271">
        <ele>336.5253</ele>
        <time>2014-09-30T14:24:58Z</time>
      </trkpt>
      <trkpt lat="43.93157" lon="7.52274">
        <ele>336.5253</ele>
        <time>2014-09-30T14:25:03Z</time>
      </trkpt>
      <trkpt lat="43.93159" lon="7.52277">
        <ele>334.18878</ele>
        <time>2014-09-30T14:25:08Z</time>
      </trkpt>
      <trkpt lat="43.93159" lon="7.52281">
        <ele>334.18878</ele>
        <time>2014-09-30T14:25:13Z</time>
      </trkpt>
      <trkpt lat="43.93161" lon="7.52284">
        <ele>334.18878</ele>
        <time>2014-09-30T14:25:18Z</time>
      </trkpt>
      <trkpt lat="43.9316" lon="7.52287">
        <ele>334.18878</ele>
        <time>2014-09-30T14:25:23Z</time>
      </trkpt>
      <trkpt lat="43.9316" lon="7.5229">
        <ele>331.6415</ele>
        <time>2014-09-30T14:25:28Z</time>
      </trkpt>
      <trkpt lat="43.93159" lon="7.52293">
        <ele>331.6415</ele>
        <time>2014-09-30T14:25:33Z</time>
      </trkpt>
      <trkpt lat="43.93161" lon="7.52294">
        <ele>331.6415</ele>
        <time>2014-09-30T14:25:38Z</time>
      </trkpt>
      <trkpt lat="43.93162" lon="7.52293">
        <ele>331.6415</ele>
        <time>2014-09-30T14:25:43Z</time>
      </trkpt>
      <trkpt lat="43.93165" lon="7.5229">
        <ele>329.10233</ele>
        <time>2014-09-30T14:25:48Z</time>
      </trkpt>
      <trkpt lat="43.93166" lon="7.52287">
        <ele>329.10233</ele>
        <time>2014-09-30T14:25:53Z</time>
      </trkpt>
      <trkpt lat="43.93168" lon="7.52284">
        <ele>329.10233</ele>
        <time>2014-09-30T14:25:58Z</time>
      </trkpt>
      <trkpt lat="43.93167" lon="7.52282">
        <ele>329.10233</ele>
        <time>2014-09-30T14:26:03Z</time>
      </trkpt>
      <trkpt lat="43.93169" lon="7.52282">
        <ele>329.10233</ele>
        <time>2014-09-30T14:26:09Z</time>
      </trkpt>
      <trkpt lat="43.93171" lon="7.52284">
        <ele>326.8892</ele>
        <time>2014-09-30T14:26:13Z</time>
      </trkpt>
      <trkpt lat="43.93173" lon="7.52286">
        <ele>326.8892</ele>
        <time>2014-09-30T14:26:18Z</time>
      </trkpt>
      <trkpt lat="43.93175" lon="7.52288">
        <ele>326.8892</ele>
        <time>2014-09-30T14:26:23Z</time>
      </trkpt>
      <trkpt lat="43.93176" lon="7.52291">
        <ele>326.8892</ele>
        <time>2014-09-30T14:26:28Z</time>
      </trkpt>
      <trkpt lat="43.93179" lon="7.52291">
        <ele>324.71918</ele>
        <time>2014-09-30T14:26:33Z</time>
      </trkpt>
      <trkpt lat="43.93182" lon="7.52289">
        <ele>324.71918</ele>
        <time>2014-09-30T14:26:38Z</time>
      </trkpt>
      <trkpt lat="43.93183" lon="7.52289">
        <ele>324.71918</ele>
        <time>2014-09-30T14:26:43Z</time>
      </trkpt>
      <trkpt lat="43.93185" lon="7.5229">
        <ele>324.71918</ele>
        <time>2014-09-30T14:26:48Z</time>
      </trkpt>
      <trkpt lat="43.93186" lon="7.52289">
        <ele>324.71918</ele>
        <time>2014-09-30T14:26:53Z</time>
      </trkpt>
      <trkpt lat="43.93185" lon="7.52286">
        <ele>322.4596</ele>
        <time>2014-09-30T14:26:58Z</time>
      </trkpt>
      <trkpt lat="43.93184" lon="7.52284">
        <ele>322.4596</ele>
        <time>2014-09-30T14:27:03Z</time>
      </trkpt>
      <trkpt lat="43.93183" lon="7.52281">
        <ele>322.4596</ele>
        <time>2014-09-30T14:27:08Z</time>
      </trkpt>
      <trkpt lat="43.93185" lon="7.5228">
        <ele>322.4596</ele>
        <time>2014-09-30T14:27:13Z</time>
      </trkpt>
      <trkpt lat="43.93188" lon="7.52278">
        <ele>320.52087</ele>
        <time>2014-09-30T14:27:18Z</time>
      </trkpt>
      <trkpt lat="43.93188" lon="7.52279">
        <ele>320.52087</ele>
        <time>2014-09-30T14:27:23Z</time>
      </trkpt>
      <trkpt lat="43.93187" lon="7.52279">
        <ele>320.52087</ele>
        <time>2014-09-30T14:27:28Z</time>
      </trkpt>
      <trkpt lat="43.93185" lon="7.52274">
        <ele>320.52087</ele>
        <time>2014-09-30T14:27:33Z</time>
      </trkpt>
      <trkpt lat="43.93186" lon="7.52271">
        <ele>320.52087</ele>
        <time>2014-09-30T14:27:38Z</time>
      </trkpt>
      <trkpt lat="43.93187" lon="7.52271">
        <ele>320.52087</ele>
        <time>2014-09-30T14:27:43Z</time>
      </trkpt>
      <trkpt lat="43.93187" lon="7.52271">
        <ele>320.52087</ele>
        <time>2014-09-30T14:27:48Z</time>
      </trkpt>
      <trkpt lat="43.93187" lon="7.52272">
        <ele>318.23035</ele>
        <time>2014-09-30T14:28:03Z</time>
      </trkpt>
      <trkpt lat="43.93188" lon="7.52273">
        <ele>318.23035</ele>
        <time>2014-09-30T14:28:08Z</time>
      </trkpt>
      <trkpt lat="43.93188" lon="7.52273">
        <ele>318.23035</ele>
        <time>2014-09-30T14:28:13Z</time>
      </trkpt>
      <trkpt lat="43.93189" lon="7.52275">
        <ele>318.23035</ele>
        <time>2014-09-30T14:28:18Z</time>
      </trkpt>
      <trkpt lat="43.93189" lon="7.52275">
        <ele>318.23035</ele>
        <time>2014-09-30T14:28:23Z</time>
      </trkpt>
      <trkpt lat="43.9319" lon="7.52276">
        <ele>318.23035</ele>
        <time>2014-09-30T14:28:53Z</time>
      </trkpt>
      <trkpt lat="43.93191" lon="7.52275">
        <ele>318.23035</ele>
        <time>2014-09-30T14:28:58Z</time>
      </trkpt>
      <trkpt lat="43.93191" lon="7.52275">
        <ele>318.23035</ele>
        <time>2014-09-30T14:29:03Z</time>
      </trkpt>
      <trkpt lat="43.93192" lon="7.52274">
        <ele>318.23035</ele>
        <time>2014-09-30T14:29:08Z</time>
      </trkpt>
      <trkpt lat="43.93192" lon="7.52274">
        <ele>318.23035</ele>
        <time>2014-09-30T14:29:13Z</time>
      </trkpt>
      <trkpt lat="43.93192" lon="7.52274">
        <ele>318.23035</ele>
        <time>2014-09-30T14:29:18Z</time>
      </trkpt>
      <trkpt lat="43.93196" lon="7.52274">
        <ele>316.0752</ele>
        <time>2014-09-30T14:29:23Z</time>
      </trkpt>
      <trkpt lat="43.93199" lon="7.52272">
        <ele>316.0752</ele>
        <time>2014-09-30T14:29:28Z</time>
      </trkpt>
      <trkpt lat="43.932" lon="7.52269">
        <ele>316.0752</ele>
        <time>2014-09-30T14:29:33Z</time>
      </trkpt>
      <trkpt lat="43.93203" lon="7.52266">
        <ele>314.21823</ele>
        <time>2014-09-30T14:29:38Z</time>
      </trkpt>
      <trkpt lat="43.93205" lon="7.52261">
        <ele>314.21823</ele>
        <time>2014-09-30T14:29:43Z</time>
      </trkpt>
      <trkpt lat="43.93206" lon="7.52257">
        <ele>314.21823</ele>
        <time>2014-09-30T14:29:48Z</time>
      </trkpt>
      <trkpt lat="43.93208" lon="7.52255">
        <ele>312.5355</ele>
        <time>2014-09-30T14:29:53Z</time>
      </trkpt>
      <trkpt lat="43.93208" lon="7.5226">
        <ele>312.5355</ele>
        <time>2014-09-30T14:29:58Z</time>
      </trkpt>
      <trkpt lat="43.93208" lon="7.52264">
        <ele>312.5355</ele>
        <time>2014-09-30T14:30:03Z</time>
      </trkpt>
      <trkpt lat="43.93208" lon="7.52264">
        <ele>312.5355</ele>
        <time>2014-09-30T14:30:08Z</time>
      </trkpt>
      <trkpt lat="43.93209" lon="7.52262">
        <ele>312.5355</ele>
        <time>2014-09-30T14:30:13Z</time>
      </trkpt>
      <trkpt lat="43.9321" lon="7.5226">
        <ele>310.36407</ele>
        <time>2014-09-30T14:30:18Z</time>
      </trkpt>
      <trkpt lat="43.93211" lon="7.5226">
        <ele>310.36407</ele>
        <time>2014-09-30T14:30:23Z</time>
      </trkpt>
      <trkpt lat="43.93212" lon="7.52262">
        <ele>310.36407</ele>
        <time>2014-09-30T14:30:28Z</time>
      </trkpt>
      <trkpt lat="43.93212" lon="7.52264">
        <ele>310.36407</ele>
        <time>2014-09-30T14:30:33Z</time>
      </trkpt>
      <trkpt lat="43.93215" lon="7.52261">
        <ele>310.36407</ele>
        <time>2014-09-30T14:30:38Z</time>
      </trkpt>
      <trkpt lat="43.93217" lon="7.52256">
        <ele>307.8835</ele>
        <time>2014-09-30T14:30:43Z</time>
      </trkpt>
      <trkpt lat="43.93217" lon="7.52252">
        <ele>307.8835</ele>
        <time>2014-09-30T14:30:48Z</time>
      </trkpt>
      <trkpt lat="43.93218" lon="7.52249">
        <ele>307.8835</ele>
        <time>2014-09-30T14:30:53Z</time>
      </trkpt>
      <trkpt lat="43.93219" lon="7.52251">
        <ele>307.8835</ele>
        <time>2014-09-30T14:30:58Z</time>
      </trkpt>
      <trkpt lat="43.93219" lon="7.52256">
        <ele>305.41968</ele>
        <time>2014-09-30T14:31:03Z</time>
      </trkpt>
      <trkpt lat="43.93219" lon="7.52257">
        <ele>305.41968</ele>
        <time>2014-09-30T14:31:08Z</time>
      </trkpt>
      <trkpt lat="43.9322" lon="7.52257">
        <ele>305.41968</ele>
        <time>2014-09-30T14:31:13Z</time>
      </trkpt>
      <trkpt lat="43.93223" lon="7.52256">
        <ele>305.41968</ele>
        <time>2014-09-30T14:31:18Z</time>
      </trkpt>
      <trkpt lat="43.93222" lon="7.52261">
        <ele>305.41968</ele>
        <time>2014-09-30T14:31:23Z</time>
      </trkpt>
      <trkpt lat="43.93221" lon="7.52264">
        <ele>303.27426</ele>
        <time>2014-09-30T14:31:28Z</time>
      </trkpt>
      <trkpt lat="43.93221" lon="7.52264">
        <ele>303.27426</ele>
        <time>2014-09-30T14:31:33Z</time>
      </trkpt>
      <trkpt lat="43.93223" lon="7.52264">
        <ele>303.27426</ele>
        <time>2014-09-30T14:32:08Z</time>
      </trkpt>
      <trkpt lat="43.93223" lon="7.52264">
        <ele>303.27426</ele>
        <time>2014-09-30T14:32:13Z</time>
      </trkpt>
      <trkpt lat="43.93222" lon="7.52263">
        <ele>303.27426</ele>
        <time>2014-09-30T14:32:28Z</time>
      </trkpt>
      <trkpt lat="43.93222" lon="7.52263">
        <ele>303.27426</ele>
        <time>2014-09-30T14:32:33Z</time>
      </trkpt>
      <trkpt lat="43.93222" lon="7.52262">
        <ele>303.27426</ele>
        <time>2014-09-30T14:32:48Z</time>
      </trkpt>
      <trkpt lat="43.93222" lon="7.52254">
        <ele>303.27426</ele>
        <time>2014-09-30T14:32:53Z</time>
      </trkpt>
      <trkpt lat="43.93222" lon="7.52249">
        <ele>300.73157</ele>
        <time>2014-09-30T14:32:58Z</time>
      </trkpt>
      <trkpt lat="43.93223" lon="7.52244">
        <ele>300.73157</ele>
        <time>2014-09-30T14:33:03Z</time>
      </trkpt>
      <trkpt lat="43.93225" lon="7.52241">
        <ele>300.73157</ele>
        <time>2014-09-30T14:33:08Z</time>
      </trkpt>
      <trkpt lat="43.93227" lon="7.52241">
        <ele>300.73157</ele>
        <time>2014-09-30T14:33:13Z</time>
      </trkpt>
      <trkpt lat="43.93227" lon="7.52242">
        <ele>297.92215</ele>
        <time>2014-09-30T14:33:18Z</time>
      </trkpt>
      <trkpt lat="43.93228" lon="7.5224">
        <ele>297.92215</ele>
        <time>2014-09-30T14:33:33Z</time>
      </trkpt>
      <trkpt lat="43.93229" lon="7.5224">
        <ele>297.92215</ele>
        <time>2014-09-30T14:33:38Z</time>
      </trkpt>
      <trkpt lat="43.93229" lon="7.5224">
        <ele>297.92215</ele>
        <time>2014-09-30T14:33:43Z</time>
      </trkpt>
      <trkpt lat="43.93229" lon="7.5224">
        <ele>297.92215</ele>
        <time>2014-09-30T14:33:48Z</time>
      </trkpt>
      <trkpt lat="43.93229" lon="7.5224">
        <ele>297.92215</ele>
        <time>2014-09-30T14:33:53Z</time>
      </trkpt>
      <trkpt lat="43.93229" lon="7.5224">
        <ele>297.92215</ele>
        <time>2014-09-30T14:33:58Z</time>
      </trkpt>
      <trkpt lat="43.9323" lon="7.5224">
        <ele>297.92215</ele>
        <time>2014-09-30T14:34:03Z</time>
      </trkpt>
      <trkpt lat="43.9323" lon="7.5224">
        <ele>297.92215</ele>
        <time>2014-09-30T14:34:08Z</time>
      </trkpt>
      <trkpt lat="43.9323" lon="7.52239">
        <ele>297.92215</ele>
        <time>2014-09-30T14:34:38Z</time>
      </trkpt>
      <trkpt lat="43.9323" lon="7.52239">
        <ele>297.92215</ele>
        <time>2014-09-30T14:34:43Z</time>
      </trkpt>
      <trkpt lat="43.93231" lon="7.52239">
        <ele>297.92215</ele>
        <time>2014-09-30T14:34:48Z</time>
      </trkpt>
      <trkpt lat="43.93231" lon="7.52238">
        <ele>297.92215</ele>
        <time>2014-09-30T14:34:53Z</time>
      </trkpt>
      <trkpt lat="43.93231" lon="7.52237">
        <ele>297.92215</ele>
        <time>2014-09-30T14:34:58Z</time>
      </trkpt>
      <trkpt lat="43.93232" lon="7.52236">
        <ele>297.92215</ele>
        <time>2014-09-30T14:35:03Z</time>
      </trkpt>
      <trkpt lat="43.93234" lon="7.52234">
        <ele>293.97324</ele>
        <time>2014-09-30T14:35:08Z</time>
      </trkpt>
      <trkpt lat="43.93234" lon="7.52234">
        <ele>293.97324</ele>
        <time>2014-09-30T14:35:13Z</time>
      </trkpt>
      <trkpt lat="43.93232" lon="7.52232">
        <ele>293.97324</ele>
        <time>2014-09-30T14:35:18Z</time>
      </trkpt>
      <trkpt lat="43.93229" lon="7.52231">
        <ele>293.97324</ele>
        <time>2014-09-30T14:35:23Z</time>
      </trkpt>
      <trkpt lat="43.93224" lon="7.52233">
        <ele>290.12582</ele>
        <time>2014-09-30T14:35:28Z</time>
      </trkpt>
      <trkpt lat="43.93221" lon="7.52231">
        <ele>290.12582</ele>
        <time>2014-09-30T14:35:33Z</time>
      </trkpt>
      <trkpt lat="43.93219" lon="7.52229">
        <ele>290.12582</ele>
        <time>2014-09-30T14:35:38Z</time>
      </trkpt>
      <trkpt lat="43.93219" lon="7.52229">
        <ele>290.12582</ele>
        <time>2014-09-30T14:35:43Z</time>
      </trkpt>
      <trkpt lat="43.93217" lon="7.52229">
        <ele>290.12582</ele>
        <time>2014-09-30T14:35:48Z</time>
      </trkpt>
      <trkpt lat="43.93215" lon="7.52227">
        <ele>287.0393</ele>
        <time>2014-09-30T14:35:53Z</time>
      </trkpt>
      <trkpt lat="43.93214" lon="7.52227">
        <ele>287.0393</ele>
        <time>2014-09-30T14:35:58Z</time>
      </trkpt>
      <trkpt lat="43.93212" lon="7.52228">
        <ele>287.0393</ele>
        <time>2014-09-30T14:36:03Z</time>
      </trkpt>
      <trkpt lat="43.93211" lon="7.52227">
        <ele>287.0393</ele>
        <time>2014-09-30T14:36:08Z</time>
      </trkpt>
      <trkpt lat="43.9321" lon="7.52226">
        <ele>287.0393</ele>
        <time>2014-09-30T14:36:13Z</time>
      </trkpt>
      <trkpt lat="43.93211" lon="7.52224">
        <ele>287.0393</ele>
        <time>2014-09-30T14:36:18Z</time>
      </trkpt>
      <trkpt lat="43.93211" lon="7.5222">
        <ele>285.13522</ele>
        <time>2014-09-30T14:36:23Z</time>
      </trkpt>
      <trkpt lat="43.93212" lon="7.52219">
        <ele>285.13522</ele>
        <time>2014-09-30T14:36:28Z</time>
      </trkpt>
      <trkpt lat="43.93213" lon="7.52215">
        <ele>285.13522</ele>
        <time>2014-09-30T14:36:33Z</time>
      </trkpt>
      <trkpt lat="43.93214" lon="7.52213">
        <ele>285.13522</ele>
        <time>2014-09-30T14:36:38Z</time>
      </trkpt>
      <trkpt lat="43.93216" lon="7.52212">
        <ele>285.13522</ele>
        <time>2014-09-30T14:36:43Z</time>
      </trkpt>
      <trkpt lat="43.93216" lon="7.52212">
        <ele>285.13522</ele>
        <time>2014-09-30T14:36:48Z</time>
      </trkpt>
      <trkpt lat="43.93217" lon="7.52212">
        <ele>285.13522</ele>
        <time>2014-09-30T14:36:53Z</time>
      </trkpt>
      <trkpt lat="43.93219" lon="7.5221">
        <ele>283.83514</ele>
        <time>2014-09-30T14:37:13Z</time>
      </trkpt>
      <trkpt lat="43.93219" lon="7.5221">
        <ele>283.83514</ele>
        <time>2014-09-30T14:37:18Z</time>
      </trkpt>
      <trkpt lat="43.9322" lon="7.52209">
        <ele>283.83514</ele>
        <time>2014-09-30T14:37:28Z</time>
      </trkpt>
      <trkpt lat="43.9322" lon="7.52209">
        <ele>283.83514</ele>
        <time>2014-09-30T14:37:33Z</time>
      </trkpt>
      <trkpt lat="43.93222" lon="7.52209">
        <ele>283.83514</ele>
        <time>2014-09-30T14:38:03Z</time>
      </trkpt>
      <trkpt lat="43.93222" lon="7.52209">
        <ele>283.83514</ele>
        <time>2014-09-30T14:38:08Z</time>
      </trkpt>
      <trkpt lat="43.93222" lon="7.52209">
        <ele>283.83514</ele>
        <time>2014-09-30T14:38:13Z</time>
      </trkpt>
      <trkpt lat="43.93222" lon="7.52208">
        <ele>283.83514</ele>
        <time>2014-09-30T14:38:18Z</time>
      </trkpt>
      <trkpt lat="43.93222" lon="7.52208">
        <ele>283.83514</ele>
        <time>2014-09-30T14:38:23Z</time>
      </trkpt>
      <trkpt lat="43.93222" lon="7.52208">
        <ele>283.83514</ele>
        <time>2014-09-30T14:38:38Z</time>
      </trkpt>
      <trkpt lat="43.93221" lon="7.52209">
        <ele>283.83514</ele>
        <time>2014-09-30T14:38:43Z</time>
      </trkpt>
      <trkpt lat="43.9322" lon="7.52209">
        <ele>283.83514</ele>
        <time>2014-09-30T14:38:48Z</time>
      </trkpt>
      <trkpt lat="43.93215" lon="7.52208">
        <ele>281.30444</ele>
        <time>2014-09-30T14:38:53Z</time>
      </trkpt>
      <trkpt lat="43.93211" lon="7.52207">
        <ele>281.30444</ele>
        <time>2014-09-30T14:38:58Z</time>
      </trkpt>
      <trkpt lat="43.93211" lon="7.52207">
        <ele>281.30444</ele>
        <time>2014-09-30T14:39:03Z</time>
      </trkpt>
      <trkpt lat="43.93211" lon="7.52208">
        <ele>281.30444</ele>
        <time>2014-09-30T14:39:08Z</time>
      </trkpt>
      <trkpt lat="43.93211" lon="7.52207">
        <ele>281.30444</ele>
        <time>2014-09-30T14:39:13Z</time>
      </trkpt>
      <trkpt lat="43.93211" lon="7.52207">
        <ele>281.30444</ele>
        <time>2014-09-30T14:39:18Z</time>
      </trkpt>
      <trkpt lat="43.93212" lon="7.52206">
        <ele>281.30444</ele>
        <time>2014-09-30T14:39:28Z</time>
      </trkpt>
      <trkpt lat="43.93213" lon="7.52206">
        <ele>281.30444</ele>
        <time>2014-09-30T14:39:33Z</time>
      </trkpt>
      <trkpt lat="43.93213" lon="7.52206">
        <ele>281.30444</ele>
        <time>2014-09-30T14:39:38Z</time>
      </trkpt>
      <trkpt lat="43.93213" lon="7.52205">
        <ele>279.10355</ele>
        <time>2014-09-30T14:40:28Z</time>
      </trkpt>
      <trkpt lat="43.93213" lon="7.52205">
        <ele>279.10355</ele>
        <time>2014-09-30T14:40:33Z</time>
      </trkpt>
      <trkpt lat="43.93214" lon="7.52205">
        <ele>279.10355</ele>
        <time>2014-09-30T14:40:43Z</time>
      </trkpt>
      <trkpt lat="43.93214" lon="7.52205">
        <ele>279.10355</ele>
        <time>2014-09-30T14:40:48Z</time>
      </trkpt>
      <trkpt lat="43.93214" lon="7.52205">
        <ele>279.10355</ele>
        <time>2014-09-30T14:41:03Z</time>
      </trkpt>
      <trkpt lat="43.93214" lon="7.52205">
        <ele>279.10355</ele>
        <time>2014-09-30T14:41:08Z</time>
      </trkpt>
      <trkpt lat="43.93215" lon="7.52206">
        <ele>279.10355</ele>
        <time>2014-09-30T14:42:03Z</time>
      </trkpt>
      <trkpt lat="43.93215" lon="7.52206">
        <ele>279.10355</ele>
        <time>2014-09-30T14:42:08Z</time>
      </trkpt>
      <trkpt lat="43.93214" lon="7.52201">
        <ele>279.10355</ele>
        <time>2014-09-30T14:42:28Z</time>
      </trkpt>
      <trkpt lat="43.93208" lon="7.52199">
        <ele>277.3227</ele>
        <time>2014-09-30T14:42:33Z</time>
      </trkpt>
      <trkpt lat="43.93202" lon="7.52198">
        <ele>277.3227</ele>
        <time>2014-09-30T14:42:38Z</time>
      </trkpt>
      <trkpt lat="43.93194" lon="7.52197">
        <ele>275.32373</ele>
        <time>2014-09-30T14:42:43Z</time>
      </trkpt>
      <trkpt lat="43.93188" lon="7.52198">
        <ele>275.32373</ele>
        <time>2014-09-30T14:42:48Z</time>
      </trkpt>
      <trkpt lat="43.93186" lon="7.52198">
        <ele>275.32373</ele>
        <time>2014-09-30T14:42:53Z</time>
      </trkpt>
      <trkpt lat="43.93186" lon="7.52198">
        <ele>275.32373</ele>
        <time>2014-09-30T14:42:58Z</time>
      </trkpt>
      <trkpt lat="43.93185" lon="7.52192">
        <ele>273.0347</ele>
        <time>2014-09-30T14:43:23Z</time>
      </trkpt>
      <trkpt lat="43.93182" lon="7.5219">
        <ele>273.0347</ele>
        <time>2014-09-30T14:43:28Z</time>
      </trkpt>
      <trkpt lat="43.93177" lon="7.52187">
        <ele>273.0347</ele>
        <time>2014-09-30T14:43:33Z</time>
      </trkpt>
      <trkpt lat="43.93171" lon="7.52185">
        <ele>270.7789</ele>
        <time>2014-09-30T14:43:38Z</time>
      </trkpt>
      <trkpt lat="43.93168" lon="7.52179">
        <ele>270.7789</ele>
        <time>2014-09-30T14:43:43Z</time>
      </trkpt>
      <trkpt lat="43.93167" lon="7.52172">
        <ele>269.12958</ele>
        <time>2014-09-30T14:43:48Z</time>
      </trkpt>
      <trkpt lat="43.93168" lon="7.52163">
        <ele>269.12958</ele>
        <time>2014-09-30T14:43:53Z</time>
      </trkpt>
      <trkpt lat="43.93169" lon="7.52156">
        <ele>268.1262</ele>
        <time>2014-09-30T14:43:58Z</time>
      </trkpt>
      <trkpt lat="43.93169" lon="7.52148">
        <ele>268.1262</ele>
        <time>2014-09-30T14:44:03Z</time>
      </trkpt>
      <trkpt lat="43.93168" lon="7.52141">
        <ele>267.65933</ele>
        <time>2014-09-30T14:44:08Z</time>
      </trkpt>
      <trkpt lat="43.93167" lon="7.52138">
        <ele>267.65933</ele>
        <time>2014-09-30T14:44:13Z</time>
      </trkpt>
      <trkpt lat="43.93166" lon="7.52133">
        <ele>267.65933</ele>
        <time>2014-09-30T14:44:18Z</time>
      </trkpt>
      <trkpt lat="43.93165" lon="7.5213">
        <ele>267.65933</ele>
        <time>2014-09-30T14:44:23Z</time>
      </trkpt>
      <trkpt lat="43.93164" lon="7.52127">
        <ele>268.27472</ele>
        <time>2014-09-30T14:44:28Z</time>
      </trkpt>
      <trkpt lat="43.93164" lon="7.52124">
        <ele>268.27472</ele>
        <time>2014-09-30T14:44:33Z</time>
      </trkpt>
      <trkpt lat="43.93164" lon="7.52124">
        <ele>268.27472</ele>
        <time>2014-09-30T14:44:38Z</time>
      </trkpt>
      <trkpt lat="43.93167" lon="7.52121">
        <ele>268.27472</ele>
        <time>2014-09-30T14:44:43Z</time>
      </trkpt>
      <trkpt lat="43.9317" lon="7.52116">
        <ele>269.13467</ele>
        <time>2014-09-30T14:44:48Z</time>
      </trkpt>
      <trkpt lat="43.93174" lon="7.52111">
        <ele>269.13467</ele>
        <time>2014-09-30T14:44:53Z</time>
      </trkpt>
      <trkpt lat="43.93176" lon="7.52108">
        <ele>269.13467</ele>
        <time>2014-09-30T14:44:58Z</time>
      </trkpt>
      <trkpt lat="43.93177" lon="7.52105">
        <ele>270.38477</ele>
        <time>2014-09-30T14:45:03Z</time>
      </trkpt>
      <trkpt lat="43.9318" lon="7.52099">
        <ele>270.38477</ele>
        <time>2014-09-30T14:45:08Z</time>
      </trkpt>
      <trkpt lat="43.93183" lon="7.52094">
        <ele>271.76978</ele>
        <time>2014-09-30T14:45:13Z</time>
      </trkpt>
      <trkpt lat="43.93184" lon="7.52092">
        <ele>271.76978</ele>
        <time>2014-09-30T14:45:18Z</time>
      </trkpt>
      <trkpt lat="43.93185" lon="7.52087">
        <ele>271.76978</ele>
        <time>2014-09-30T14:45:23Z</time>
      </trkpt>
      <trkpt lat="43.93187" lon="7.52085">
        <ele>271.76978</ele>
        <time>2014-09-30T14:45:28Z</time>
      </trkpt>
      <trkpt lat="43.93188" lon="7.52081">
        <ele>273.5285</ele>
        <time>2014-09-30T14:45:33Z</time>
      </trkpt>
      <trkpt lat="43.93191" lon="7.52075">
        <ele>273.5285</ele>
        <time>2014-09-30T14:45:38Z</time>
      </trkpt>
      <trkpt lat="43.93193" lon="7.52072">
        <ele>273.5285</ele>
        <time>2014-09-30T14:45:43Z</time>
      </trkpt>
      <trkpt lat="43.93197" lon="7.52069">
        <ele>275.7516</ele>
        <time>2014-09-30T14:45:48Z</time>
      </trkpt>
      <trkpt lat="43.93201" lon="7.52067">
        <ele>275.7516</ele>
        <time>2014-09-30T14:45:53Z</time>
      </trkpt>
      <trkpt lat="43.93204" lon="7.52068">
        <ele>275.7516</ele>
        <time>2014-09-30T14:45:58Z</time>
      </trkpt>
      <trkpt lat="43.93208" lon="7.52066">
        <ele>278.50745</ele>
        <time>2014-09-30T14:46:03Z</time>
      </trkpt>
      <trkpt lat="43.93211" lon="7.52065">
        <ele>278.50745</ele>
        <time>2014-09-30T14:46:08Z</time>
      </trkpt>
      <trkpt lat="43.93215" lon="7.52064">
        <ele>278.50745</ele>
        <time>2014-09-30T14:46:13Z</time>
      </trkpt>
      <trkpt lat="43.93219" lon="7.52062">
        <ele>281.56995</ele>
        <time>2014-09-30T14:46:18Z</time>
      </trkpt>
      <trkpt lat="43.93223" lon="7.52058">
        <ele>281.56995</ele>
        <time>2014-09-30T14:46:23Z</time>
      </trkpt>
      <trkpt lat="43.93226" lon="7.52053">
        <ele>284.7289</ele>
        <time>2014-09-30T14:46:28Z</time>
      </trkpt>
      <trkpt lat="43.93229" lon="7.52047">
        <ele>284.7289</ele>
        <time>2014-09-30T14:46:33Z</time>
      </trkpt>
      <trkpt lat="43.93233" lon="7.52042">
        <ele>287.8184</ele>
        <time>2014-09-30T14:46:38Z</time>
      </trkpt>
      <trkpt lat="43.93235" lon="7.52038">
        <ele>287.8184</ele>
        <time>2014-09-30T14:46:43Z</time>
      </trkpt>
      <trkpt lat="43.93238" lon="7.52033">
        <ele>287.8184</ele>
        <time>2014-09-30T14:46:48Z</time>
      </trkpt>
      <trkpt lat="43.93239" lon="7.52029">
        <ele>290.75714</ele>
        <time>2014-09-30T14:46:53Z</time>
      </trkpt>
      <trkpt lat="43.93241" lon="7.52026">
        <ele>290.75714</ele>
        <time>2014-09-30T14:46:58Z</time>
      </trkpt>
      <trkpt lat="43.93241" lon="7.52026">
        <ele>290.75714</ele>
        <time>2014-09-30T14:47:03Z</time>
      </trkpt>
      <trkpt lat="43.93241" lon="7.52026">
        <ele>290.75714</ele>
        <time>2014-09-30T14:47:08Z</time>
      </trkpt>
      <trkpt lat="43.93241" lon="7.52026">
        <ele>290.75714</ele>
        <time>2014-09-30T14:47:13Z</time>
      </trkpt>
      <trkpt lat="43.93241" lon="7.52027">
        <ele>290.75714</ele>
        <time>2014-09-30T14:47:18Z</time>
      </trkpt>
      <trkpt lat="43.93241" lon="7.52026">
        <ele>290.75714</ele>
        <time>2014-09-30T14:47:23Z</time>
      </trkpt>
      <trkpt lat="43.93245" lon="7.52021">
        <ele>293.6003</ele>
        <time>2014-09-30T14:47:28Z</time>
      </trkpt>
      <trkpt lat="43.93249" lon="7.52016">
        <ele>293.6003</ele>
        <time>2014-09-30T14:47:33Z</time>
      </trkpt>
      <trkpt lat="43.93253" lon="7.5201">
        <ele>296.3419</ele>
        <time>2014-09-30T14:47:38Z</time>
      </trkpt>
      <trkpt lat="43.93257" lon="7.52004">
        <ele>296.3419</ele>
        <time>2014-09-30T14:47:43Z</time>
      </trkpt>
      <trkpt lat="43.93259" lon="7.51998">
        <ele>298.9193</ele>
        <time>2014-09-30T14:47:48Z</time>
      </trkpt>
      <trkpt lat="43.93262" lon="7.51993">
        <ele>298.9193</ele>
        <time>2014-09-30T14:47:53Z</time>
      </trkpt>
      <trkpt lat="43.93265" lon="7.51987">
        <ele>301.52036</ele>
        <time>2014-09-30T14:47:58Z</time>
      </trkpt>
      <trkpt lat="43.93265" lon="7.5198">
        <ele>301.52036</ele>
        <time>2014-09-30T14:48:03Z</time>
      </trkpt>
      <trkpt lat="43.93268" lon="7.51972">
        <ele>304.01663</ele>
        <time>2014-09-30T14:48:08Z</time>
      </trkpt>
      <trkpt lat="43.93274" lon="7.51966">
        <ele>304.01663</ele>
        <time>2014-09-30T14:48:13Z</time>
      </trkpt>
      <trkpt lat="43.93277" lon="7.51958">
        <ele>306.4052</ele>
        <time>2014-09-30T14:48:18Z</time>
      </trkpt>
      <trkpt lat="43.93278" lon="7.5195">
        <ele>306.4052</ele>
        <time>2014-09-30T14:48:23Z</time>
      </trkpt>
      <trkpt lat="43.9328" lon="7.51942">
        <ele>308.6407</ele>
        <time>2014-09-30T14:48:28Z</time>
      </trkpt>
      <trkpt lat="43.93281" lon="7.51935">
        <ele>308.6407</ele>
        <time>2014-09-30T14:48:33Z</time>
      </trkpt>
      <trkpt lat="43.93282" lon="7.51934">
        <ele>308.6407</ele>
        <time>2014-09-30T14:48:38Z</time>
      </trkpt>
      <trkpt lat="43.93283" lon="7.51928">
        <ele>310.71066</ele>
        <time>2014-09-30T14:48:43Z</time>
      </trkpt>
      <trkpt lat="43.93285" lon="7.51922">
        <ele>310.71066</ele>
        <time>2014-09-30T14:48:48Z</time>
      </trkpt>
      <trkpt lat="43.93288" lon="7.51916">
        <ele>312.4604</ele>
        <time>2014-09-30T14:48:53Z</time>
      </trkpt>
      <trkpt lat="43.93289" lon="7.51915">
        <ele>312.4604</ele>
        <time>2014-09-30T14:48:58Z</time>
      </trkpt>
      <trkpt lat="43.93288" lon="7.51912">
        <ele>312.4604</ele>
        <time>2014-09-30T14:49:03Z</time>
      </trkpt>
      <trkpt lat="43.93289" lon="7.51909">
        <ele>312.4604</ele>
        <time>2014-09-30T14:49:08Z</time>
      </trkpt>
      <trkpt lat="43.93289" lon="7.51909">
        <ele>312.4604</ele>
        <time>2014-09-30T14:49:13Z</time>
      </trkpt>
      <trkpt lat="43.93288" lon="7.51908">
        <ele>312.4604</ele>
        <time>2014-09-30T14:49:18Z</time>
      </trkpt>
      <trkpt lat="43.93288" lon="7.51908">
        <ele>312.4604</ele>
        <time>2014-09-30T14:49:23Z</time>
      </trkpt>
      <trkpt lat="43.93288" lon="7.51908">
        <ele>312.4604</ele>
        <time>2014-09-30T14:49:28Z</time>
      </trkpt>
      <trkpt lat="43.93288" lon="7.5191">
        <ele>312.4604</ele>
        <time>2014-09-30T14:49:38Z</time>
      </trkpt>
      <trkpt lat="43.93289" lon="7.5191">
        <ele>313.7621</ele>
        <time>2014-09-30T14:49:43Z</time>
      </trkpt>
      <trkpt lat="43.9329" lon="7.51906">
        <ele>313.7621</ele>
        <time>2014-09-30T14:49:48Z</time>
      </trkpt>
      <trkpt lat="43.93291" lon="7.51904">
        <ele>313.7621</ele>
        <time>2014-09-30T14:49:53Z</time>
      </trkpt>
      <trkpt lat="43.93294" lon="7.51896">
        <ele>314.54224</ele>
        <time>2014-09-30T14:49:58Z</time>
      </trkpt>
      <trkpt lat="43.93298" lon="7.5189">
        <ele>314.54224</ele>
        <time>2014-09-30T14:50:03Z</time>
      </trkpt>
      <trkpt lat="43.93299" lon="7.51887">
        <ele>314.54224</ele>
        <time>2014-09-30T14:50:08Z</time>
      </trkpt>
      <trkpt lat="43.93302" lon="7.51881">
        <ele>314.82098</ele>
        <time>2014-09-30T14:50:13Z</time>
      </trkpt>
      <trkpt lat="43.93303" lon="7.51875">
        <ele>314.82098</ele>
        <time>2014-09-30T14:50:18Z</time>
      </trkpt>
      <trkpt lat="43.93305" lon="7.51868">
        <ele>314.89258</ele>
        <time>2014-09-30T14:50:23Z</time>
      </trkpt>
      <trkpt lat="43.93306" lon="7.5186">
        <ele>314.89258</ele>
        <time>2014-09-30T14:50:28Z</time>
      </trkpt>
      <trkpt lat="43.93306" lon="7.51853">
        <ele>315.16016</ele>
        <time>2014-09-30T14:50:33Z</time>
      </trkpt>
      <trkpt lat="43.93307" lon="7.51849">
        <ele>315.16016</ele>
        <time>2014-09-30T14:50:38Z</time>
      </trkpt>
      <trkpt lat="43.93308" lon="7.51843">
        <ele>315.16016</ele>
        <time>2014-09-30T14:50:43Z</time>
      </trkpt>
      <trkpt lat="43.93309" lon="7.51834">
        <ele>315.2333</ele>
        <time>2014-09-30T14:50:48Z</time>
      </trkpt>
      <trkpt lat="43.93309" lon="7.51827">
        <ele>315.2333</ele>
        <time>2014-09-30T14:50:53Z</time>
      </trkpt>
      <trkpt lat="43.9331" lon="7.51822">
        <ele>314.96716</ele>
        <time>2014-09-30T14:50:58Z</time>
      </trkpt>
      <trkpt lat="43.93313" lon="7.51818">
        <ele>314.96716</ele>
        <time>2014-09-30T14:51:03Z</time>
      </trkpt>
      <trkpt lat="43.93317" lon="7.51815">
        <ele>314.96716</ele>
        <time>2014-09-30T14:51:08Z</time>
      </trkpt>
      <trkpt lat="43.9332" lon="7.51815">
        <ele>314.5314</ele>
        <time>2014-09-30T14:51:13Z</time>
      </trkpt>
      <trkpt lat="43.93322" lon="7.51814">
        <ele>314.5314</ele>
        <time>2014-09-30T14:51:18Z</time>
      </trkpt>
      <trkpt lat="43.93323" lon="7.51814">
        <ele>314.5314</ele>
        <time>2014-09-30T14:51:23Z</time>
      </trkpt>
      <trkpt lat="43.93325" lon="7.51815">
        <ele>314.5314</ele>
        <time>2014-09-30T14:51:28Z</time>
      </trkpt>
      <trkpt lat="43.93325" lon="7.51815">
        <ele>314.5314</ele>
        <time>2014-09-30T14:51:33Z</time>
      </trkpt>
      <trkpt lat="43.93326" lon="7.51817">
        <ele>314.5314</ele>
        <time>2014-09-30T14:51:43Z</time>
      </trkpt>
      <trkpt lat="43.93326" lon="7.51817">
        <ele>314.5314</ele>
        <time>2014-09-30T14:51:48Z</time>
      </trkpt>
      <trkpt lat="43.93327" lon="7.51817">
        <ele>314.5314</ele>
        <time>2014-09-30T14:51:53Z</time>
      </trkpt>
      <trkpt lat="43.93327" lon="7.51818">
        <ele>314.5314</ele>
        <time>2014-09-30T14:51:58Z</time>
      </trkpt>
      <trkpt lat="43.93328" lon="7.51819">
        <ele>314.0263</ele>
        <time>2014-09-30T14:52:33Z</time>
      </trkpt>
      <trkpt lat="43.93329" lon="7.51821">
        <ele>314.0263</ele>
        <time>2014-09-30T14:52:38Z</time>
      </trkpt>
      <trkpt lat="43.9333" lon="7.51822">
        <ele>314.0263</ele>
        <time>2014-09-30T14:52:43Z</time>
      </trkpt>
      <trkpt lat="43.9333" lon="7.51822">
        <ele>314.0263</ele>
        <time>2014-09-30T14:52:48Z</time>
      </trkpt>
      <trkpt lat="43.93331" lon="7.51826">
        <ele>314.0263</ele>
        <time>2014-09-30T14:52:53Z</time>
      </trkpt>
      <trkpt lat="43.93331" lon="7.51826">
        <ele>314.0263</ele>
        <time>2014-09-30T14:52:58Z</time>
      </trkpt>
      <trkpt lat="43.93333" lon="7.51837">
        <ele>312.78137</ele>
        <time>2014-09-30T14:53:03Z</time>
      </trkpt>
      <trkpt lat="43.93337" lon="7.51848">
        <ele>312.78137</ele>
        <time>2014-09-30T14:53:08Z</time>
      </trkpt>
      <trkpt lat="43.93341" lon="7.51858">
        <ele>311.1432</ele>
        <time>2014-09-30T14:53:13Z</time>
      </trkpt>
      <trkpt lat="43.93345" lon="7.51866">
        <ele>311.1432</ele>
        <time>2014-09-30T14:53:18Z</time>
      </trkpt>
      <trkpt lat="43.93347" lon="7.51869">
        <ele>309.1603</ele>
        <time>2014-09-30T14:53:23Z</time>
      </trkpt>
      <trkpt lat="43.93351" lon="7.51869">
        <ele>309.1603</ele>
        <time>2014-09-30T14:53:28Z</time>
      </trkpt>
      <trkpt lat="43.93351" lon="7.51866">
        <ele>309.1603</ele>
        <time>2014-09-30T14:53:33Z</time>
      </trkpt>
      <trkpt lat="43.93356" lon="7.51866">
        <ele>307.1094</ele>
        <time>2014-09-30T14:53:38Z</time>
      </trkpt>
      <trkpt lat="43.93363" lon="7.51865">
        <ele>307.1094</ele>
        <time>2014-09-30T14:53:43Z</time>
      </trkpt>
      <trkpt lat="43.93372" lon="7.51863">
        <ele>305.49213</ele>
        <time>2014-09-30T14:53:48Z</time>
      </trkpt>
      <trkpt lat="43.9338" lon="7.51861">
        <ele>305.49213</ele>
        <time>2014-09-30T14:53:53Z</time>
      </trkpt>
      <trkpt lat="43.93385" lon="7.51862">
        <ele>304.4839</ele>
        <time>2014-09-30T14:53:58Z</time>
      </trkpt>
      <trkpt lat="43.93388" lon="7.51863">
        <ele>304.4839</ele>
        <time>2014-09-30T14:54:03Z</time>
      </trkpt>
      <trkpt lat="43.9339" lon="7.51863">
        <ele>304.4839</ele>
        <time>2014-09-30T14:54:08Z</time>
      </trkpt>
      <trkpt lat="43.93395" lon="7.51863">
        <ele>304.25998</ele>
        <time>2014-09-30T14:54:13Z</time>
      </trkpt>
      <trkpt lat="43.934" lon="7.51862">
        <ele>304.25998</ele>
        <time>2014-09-30T14:54:18Z</time>
      </trkpt>
      <trkpt lat="43.93404" lon="7.51862">
        <ele>304.25998</ele>
        <time>2014-09-30T14:54:23Z</time>
      </trkpt>
      <trkpt lat="43.93409" lon="7.51861">
        <ele>304.606</ele>
        <time>2014-09-30T14:54:28Z</time>
      </trkpt>
      <trkpt lat="43.93414" lon="7.5186">
        <ele>304.606</ele>
        <time>2014-09-30T14:54:33Z</time>
      </trkpt>
      <trkpt lat="43.93419" lon="7.51861">
        <ele>305.10553</ele>
        <time>2014-09-30T14:54:38Z</time>
      </trkpt>
      <trkpt lat="43.93424" lon="7.51862">
        <ele>305.10553</ele>
        <time>2014-09-30T14:54:43Z</time>
      </trkpt>
      <trkpt lat="43.93428" lon="7.51862">
        <ele>305.6462</ele>
        <time>2014-09-30T14:54:48Z</time>
      </trkpt>
      <trkpt lat="43.93431" lon="7.5186">
        <ele>305.6462</ele>
        <time>2014-09-30T14:54:53Z</time>
      </trkpt>
      <trkpt lat="43.93434" lon="7.51858">
        <ele>305.6462</ele>
        <time>2014-09-30T14:54:58Z</time>
      </trkpt>
      <trkpt lat="43.93437" lon="7.51858">
        <ele>306.23904</ele>
        <time>2014-09-30T14:55:03Z</time>
      </trkpt>
      <trkpt lat="43.93441" lon="7.51859">
        <ele>306.23904</ele>
        <time>2014-09-30T14:55:08Z</time>
      </trkpt>
      <trkpt lat="43.93446" lon="7.51859">
        <ele>306.99506</ele>
        <time>2014-09-30T14:55:13Z</time>
      </trkpt>
      <trkpt lat="43.93452" lon="7.51857">
        <ele>306.99506</ele>
        <time>2014-09-30T14:55:18Z</time>
      </trkpt>
      <trkpt lat="43.93457" lon="7.51857">
        <ele>307.68518</ele>
        <time>2014-09-30T14:55:23Z</time>
      </trkpt>
      <trkpt lat="43.93462" lon="7.51856">
        <ele>307.68518</ele>
        <time>2014-09-30T14:55:28Z</time>
      </trkpt>
      <trkpt lat="43.93467" lon="7.51855">
        <ele>308.2704</ele>
        <time>2014-09-30T14:55:33Z</time>
      </trkpt>
      <trkpt lat="43.93469" lon="7.51856">
        <ele>308.2704</ele>
        <time>2014-09-30T14:55:38Z</time>
      </trkpt>
      <trkpt lat="43.93472" lon="7.51858">
        <ele>308.2704</ele>
        <time>2014-09-30T14:55:43Z</time>
      </trkpt>
      <trkpt lat="43.93475" lon="7.51861">
        <ele>308.8012</ele>
        <time>2014-09-30T14:55:48Z</time>
      </trkpt>
      <trkpt lat="43.93479" lon="7.51862">
        <ele>308.8012</ele>
        <time>2014-09-30T14:55:53Z</time>
      </trkpt>
      <trkpt lat="43.93483" lon="7.51863">
        <ele>308.8012</ele>
        <time>2014-09-30T14:55:58Z</time>
      </trkpt>
      <trkpt lat="43.93489" lon="7.51864">
        <ele>309.12292</ele>
        <time>2014-09-30T14:56:03Z</time>
      </trkpt>
      <trkpt lat="43.93492" lon="7.51866">
        <ele>309.12292</ele>
        <time>2014-09-30T14:56:08Z</time>
      </trkpt>
      <trkpt lat="43.93494" lon="7.51868">
        <ele>309.12292</ele>
        <time>2014-09-30T14:56:13Z</time>
      </trkpt>
      <trkpt lat="43.93497" lon="7.5187">
        <ele>309.25134</ele>
        <time>2014-09-30T14:56:18Z</time>
      </trkpt>
      <trkpt lat="43.93498" lon="7.51871">
        <ele>309.25134</ele>
        <time>2014-09-30T14:56:23Z</time>
      </trkpt>
      <trkpt lat="43.93504" lon="7.51875">
        <ele>309.25134</ele>
        <time>2014-09-30T14:56:28Z</time>
      </trkpt>
      <trkpt lat="43.93506" lon="7.5188">
        <ele>309.36017</ele>
        <time>2014-09-30T14:56:33Z</time>
      </trkpt>
      <trkpt lat="43.93508" lon="7.51885">
        <ele>309.36017</ele>
        <time>2014-09-30T14:56:38Z</time>
      </trkpt>
      <trkpt lat="43.93511" lon="7.5189">
        <ele>309.5816</ele>
        <time>2014-09-30T14:56:43Z</time>
      </trkpt>
      <trkpt lat="43.93513" lon="7.51891">
        <ele>309.5816</ele>
        <time>2014-09-30T14:56:48Z</time>
      </trkpt>
      <trkpt lat="43.93513" lon="7.51891">
        <ele>309.5816</ele>
        <time>2014-09-30T14:56:53Z</time>
      </trkpt>
      <trkpt lat="43.93512" lon="7.51891">
        <ele>309.5816</ele>
        <time>2014-09-30T14:56:58Z</time>
      </trkpt>
      <trkpt lat="43.93514" lon="7.51894">
        <ele>309.5816</ele>
        <time>2014-09-30T14:57:03Z</time>
      </trkpt>
      <trkpt lat="43.9352" lon="7.51902">
        <ele>309.90808</ele>
        <time>2014-09-30T14:57:08Z</time>
      </trkpt>
      <trkpt lat="43.93524" lon="7.51908">
        <ele>309.90808</ele>
        <time>2014-09-30T14:57:13Z</time>
      </trkpt>
      <trkpt lat="43.93528" lon="7.5191">
        <ele>310.17386</ele>
        <time>2014-09-30T14:57:18Z</time>
      </trkpt>
      <trkpt lat="43.93534" lon="7.51912">
        <ele>310.17386</ele>
        <time>2014-09-30T14:57:23Z</time>
      </trkpt>
      <trkpt lat="43.93538" lon="7.51914">
        <ele>310.28314</ele>
        <time>2014-09-30T14:57:28Z</time>
      </trkpt>
      <trkpt lat="43.9354" lon="7.51916">
        <ele>310.28314</ele>
        <time>2014-09-30T14:57:33Z</time>
      </trkpt>
      <trkpt lat="43.93541" lon="7.51918">
        <ele>310.28314</ele>
        <time>2014-09-30T14:57:38Z</time>
      </trkpt>
      <trkpt lat="43.93544" lon="7.51918">
        <ele>310.28314</ele>
        <time>2014-09-30T14:57:43Z</time>
      </trkpt>
      <trkpt lat="43.93546" lon="7.51918">
        <ele>310.3926</ele>
        <time>2014-09-30T14:57:48Z</time>
      </trkpt>
      <trkpt lat="43.93547" lon="7.51918">
        <ele>310.3926</ele>
        <time>2014-09-30T14:57:53Z</time>
      </trkpt>
      <trkpt lat="43.93547" lon="7.51918">
        <ele>310.3926</ele>
        <time>2014-09-30T14:57:58Z</time>
      </trkpt>
      <trkpt lat="43.9355" lon="7.51922">
        <ele>310.3926</ele>
        <time>2014-09-30T14:58:18Z</time>
      </trkpt>
      <trkpt lat="43.93556" lon="7.51929">
        <ele>310.0566</ele>
        <time>2014-09-30T14:58:23Z</time>
      </trkpt>
      <trkpt lat="43.93558" lon="7.51932">
        <ele>310.0566</ele>
        <time>2014-09-30T14:58:28Z</time>
      </trkpt>
      <trkpt lat="43.93561" lon="7.51933">
        <ele>310.0566</ele>
        <time>2014-09-30T14:58:33Z</time>
      </trkpt>
      <trkpt lat="43.93564" lon="7.51933">
        <ele>310.0566</ele>
        <time>2014-09-30T14:58:38Z</time>
      </trkpt>
      <trkpt lat="43.93564" lon="7.51932">
        <ele>309.29578</ele>
        <time>2014-09-30T14:58:43Z</time>
      </trkpt>
      <trkpt lat="43.93564" lon="7.51932">
        <ele>309.29578</ele>
        <time>2014-09-30T14:58:48Z</time>
      </trkpt>
      <trkpt lat="43.93564" lon="7.51933">
        <ele>309.29578</ele>
        <time>2014-09-30T14:58:53Z</time>
      </trkpt>
      <trkpt lat="43.93565" lon="7.51933">
        <ele>309.29578</ele>
        <time>2014-09-30T14:58:58Z</time>
      </trkpt>
      <trkpt lat="43.93567" lon="7.51931">
        <ele>309.29578</ele>
        <time>2014-09-30T14:59:03Z</time>
      </trkpt>
      <trkpt lat="43.93567" lon="7.51931">
        <ele>309.29578</ele>
        <time>2014-09-30T14:59:08Z</time>
      </trkpt>
      <trkpt lat="43.93568" lon="7.5193">
        <ele>309.29578</ele>
        <time>2014-09-30T14:59:13Z</time>
      </trkpt>
      <trkpt lat="43.9357" lon="7.51929">
        <ele>309.29578</ele>
        <time>2014-09-30T14:59:18Z</time>
      </trkpt>
      <trkpt lat="43.93573" lon="7.51928">
        <ele>309.65796</ele>
        <time>2014-09-30T14:59:23Z</time>
      </trkpt>
      <trkpt lat="43.93573" lon="7.51928">
        <ele>309.65796</ele>
        <time>2014-09-30T14:59:28Z</time>
      </trkpt>
      <trkpt lat="43.93573" lon="7.51928">
        <ele>309.65796</ele>
        <time>2014-09-30T14:59:33Z</time>
      </trkpt>
      <trkpt lat="43.93576" lon="7.51926">
        <ele>309.65796</ele>
        <time>2014-09-30T14:59:38Z</time>
      </trkpt>
      <trkpt lat="43.93577" lon="7.51925">
        <ele>309.65796</ele>
        <time>2014-09-30T14:59:43Z</time>
      </trkpt>
      <trkpt lat="43.93577" lon="7.51926">
        <ele>309.65796</ele>
        <time>2014-09-30T14:59:48Z</time>
      </trkpt>
      <trkpt lat="43.93582" lon="7.51928">
        <ele>310.7584</ele>
        <time>2014-09-30T14:59:53Z</time>
      </trkpt>
      <trkpt lat="43.93584" lon="7.51927">
        <ele>310.7584</ele>
        <time>2014-09-30T14:59:58Z</time>
      </trkpt>
      <trkpt lat="43.93588" lon="7.51926">
        <ele>310.7584</ele>
        <time>2014-09-30T15:00:03Z</time>
      </trkpt>
      <trkpt lat="43.93591" lon="7.51924">
        <ele>311.6188</ele>
        <time>2014-09-30T15:00:08Z</time>
      </trkpt>
      <trkpt lat="43.93598" lon="7.51919">
        <ele>311.6188</ele>
        <time>2014-09-30T15:00:13Z</time>
      </trkpt>
      <trkpt lat="43.93601" lon="7.51913">
        <ele>312.73126</ele>
        <time>2014-09-30T15:00:18Z</time>
      </trkpt>
      <trkpt lat="43.93605" lon="7.51909">
        <ele>312.73126</ele>
        <time>2014-09-30T15:00:23Z</time>
      </trkpt>
      <trkpt lat="43.93609" lon="7.51907">
        <ele>313.9746</ele>
        <time>2014-09-30T15:00:28Z</time>
      </trkpt>
      <trkpt lat="43.93612" lon="7.5191">
        <ele>313.9746</ele>
        <time>2014-09-30T15:00:33Z</time>
      </trkpt>
      <trkpt lat="43.93616" lon="7.51915">
        <ele>315.17853</ele>
        <time>2014-09-30T15:00:38Z</time>
      </trkpt>
      <trkpt lat="43.9362" lon="7.51919">
        <ele>315.17853</ele>
        <time>2014-09-30T15:00:43Z</time>
      </trkpt>
      <trkpt lat="43.9362" lon="7.51919">
        <ele>315.17853</ele>
        <time>2014-09-30T15:00:48Z</time>
      </trkpt>
      <trkpt lat="43.93625" lon="7.51924">
        <ele>315.79623</ele>
        <time>2014-09-30T15:01:23Z</time>
      </trkpt>
      <trkpt lat="43.93629" lon="7.51933">
        <ele>315.79623</ele>
        <time>2014-09-30T15:01:28Z</time>
      </trkpt>
      <trkpt lat="43.9363" lon="7.51934">
        <ele>315.79623</ele>
        <time>2014-09-30T15:01:33Z</time>
      </trkpt>
      <trkpt lat="43.93634" lon="7.51941">
        <ele>315.3372</ele>
        <time>2014-09-30T15:01:38Z</time>
      </trkpt>
      <trkpt lat="43.93639" lon="7.51951">
        <ele>315.3372</ele>
        <time>2014-09-30T15:01:43Z</time>
      </trkpt>
      <trkpt lat="43.93647" lon="7.51959">
        <ele>314.37308</ele>
        <time>2014-09-30T15:01:48Z</time>
      </trkpt>
      <trkpt lat="43.93653" lon="7.51957">
        <ele>314.37308</ele>
        <time>2014-09-30T15:01:53Z</time>
      </trkpt>
      <trkpt lat="43.93657" lon="7.51953">
        <ele>313.0459</ele>
        <time>2014-09-30T15:01:58Z</time>
      </trkpt>
      <trkpt lat="43.93658" lon="7.51945">
        <ele>313.0459</ele>
        <time>2014-09-30T15:02:03Z</time>
      </trkpt>
      <trkpt lat="43.93659" lon="7.51938">
        <ele>311.6612</ele>
        <time>2014-09-30T15:02:08Z</time>
      </trkpt>
      <trkpt lat="43.93657" lon="7.51932">
        <ele>311.6612</ele>
        <time>2014-09-30T15:02:13Z</time>
      </trkpt>
      <trkpt lat="43.93658" lon="7.51927">
        <ele>311.6612</ele>
        <time>2014-09-30T15:02:18Z</time>
      </trkpt>
      <trkpt lat="43.93659" lon="7.5192">
        <ele>310.19955</ele>
        <time>2014-09-30T15:02:23Z</time>
      </trkpt>
      <trkpt lat="43.93662" lon="7.51912">
        <ele>310.19955</ele>
        <time>2014-09-30T15:02:28Z</time>
      </trkpt>
      <trkpt lat="43.93666" lon="7.51904">
        <ele>308.75845</ele>
        <time>2014-09-30T15:02:33Z</time>
      </trkpt>
      <trkpt lat="43.93668" lon="7.51898">
        <ele>308.75845</ele>
        <time>2014-09-30T15:02:38Z</time>
      </trkpt>
      <trkpt lat="43.93668" lon="7.51892">
        <ele>307.5866</ele>
        <time>2014-09-30T15:02:43Z</time>
      </trkpt>
      <trkpt lat="43.93669" lon="7.51886">
        <ele>307.5866</ele>
        <time>2014-09-30T15:02:48Z</time>
      </trkpt>
      <trkpt lat="43.9367" lon="7.51882">
        <ele>307.5866</ele>
        <time>2014-09-30T15:02:53Z</time>
      </trkpt>
      <trkpt lat="43.9367" lon="7.51881">
        <ele>307.5866</ele>
        <time>2014-09-30T15:02:58Z</time>
      </trkpt>
      <trkpt lat="43.93671" lon="7.5188">
        <ele>307.5866</ele>
        <time>2014-09-30T15:03:03Z</time>
      </trkpt>
      <trkpt lat="43.93674" lon="7.51875">
        <ele>306.53894</ele>
        <time>2014-09-30T15:03:08Z</time>
      </trkpt>
      <trkpt lat="43.93674" lon="7.51875">
        <ele>306.53894</ele>
        <time>2014-09-30T15:03:13Z</time>
      </trkpt>
      <trkpt lat="43.93676" lon="7.51872">
        <ele>306.53894</ele>
        <time>2014-09-30T15:03:38Z</time>
      </trkpt>
      <trkpt lat="43.93676" lon="7.51872">
        <ele>306.53894</ele>
        <time>2014-09-30T15:03:43Z</time>
      </trkpt>
      <trkpt lat="43.93678" lon="7.51872">
        <ele>306.53894</ele>
        <time>2014-09-30T15:03:48Z</time>
      </trkpt>
      <trkpt lat="43.93678" lon="7.51872">
        <ele>306.53894</ele>
        <time>2014-09-30T15:03:53Z</time>
      </trkpt>
      <trkpt lat="43.93679" lon="7.51872">
        <ele>306.53894</ele>
        <time>2014-09-30T15:04:13Z</time>
      </trkpt>
      <trkpt lat="43.93679" lon="7.51872">
        <ele>306.53894</ele>
        <time>2014-09-30T15:04:18Z</time>
      </trkpt>
      <trkpt lat="43.93686" lon="7.5187">
        <ele>305.27893</ele>
        <time>2014-09-30T15:04:23Z</time>
      </trkpt>
      <trkpt lat="43.93692" lon="7.51872">
        <ele>305.27893</ele>
        <time>2014-09-30T15:04:28Z</time>
      </trkpt>
      <trkpt lat="43.93693" lon="7.51872">
        <ele>305.27893</ele>
        <time>2014-09-30T15:04:33Z</time>
      </trkpt>
      <trkpt lat="43.93698" lon="7.51869">
        <ele>303.7402</ele>
        <time>2014-09-30T15:04:38Z</time>
      </trkpt>
      <trkpt lat="43.93702" lon="7.51867">
        <ele>303.7402</ele>
        <time>2014-09-30T15:04:43Z</time>
      </trkpt>
      <trkpt lat="43.93704" lon="7.51866">
        <ele>303.7402</ele>
        <time>2014-09-30T15:04:48Z</time>
      </trkpt>
      <trkpt lat="43.93707" lon="7.51863">
        <ele>302.3952</ele>
        <time>2014-09-30T15:04:53Z</time>
      </trkpt>
      <trkpt lat="43.93708" lon="7.51861">
        <ele>302.3952</ele>
        <time>2014-09-30T15:04:58Z</time>
      </trkpt>
      <trkpt lat="43.93712" lon="7.51856">
        <ele>302.3952</ele>
        <time>2014-09-30T15:05:03Z</time>
      </trkpt>
      <trkpt lat="43.93717" lon="7.51851">
        <ele>301.3496</ele>
        <time>2014-09-30T15:05:08Z</time>
      </trkpt>
      <trkpt lat="43.93722" lon="7.51847">
        <ele>301.3496</ele>
        <time>2014-09-30T15:05:13Z</time>
      </trkpt>
      <trkpt lat="43.93725" lon="7.51843">
        <ele>300.41208</ele>
        <time>2014-09-30T15:05:18Z</time>
      </trkpt>
      <trkpt lat="43.93728" lon="7.51842">
        <ele>300.41208</ele>
        <time>2014-09-30T15:05:23Z</time>
      </trkpt>
      <trkpt lat="43.93728" lon="7.51842">
        <ele>300.41208</ele>
        <time>2014-09-30T15:05:28Z</time>
      </trkpt>
      <trkpt lat="43.93728" lon="7.51842">
        <ele>300.41208</ele>
        <time>2014-09-30T15:05:33Z</time>
      </trkpt>
      <trkpt lat="43.93728" lon="7.51842">
        <ele>300.41208</ele>
        <time>2014-09-30T15:05:48Z</time>
      </trkpt>
      <trkpt lat="43.93728" lon="7.51842">
        <ele>300.41208</ele>
        <time>2014-09-30T15:05:53Z</time>
      </trkpt>
      <trkpt lat="43.9373" lon="7.51838">
        <ele>300.41208</ele>
        <time>2014-09-30T15:05:58Z</time>
      </trkpt>
      <trkpt lat="43.93731" lon="7.51833">
        <ele>301.06232</ele>
        <time>2014-09-30T15:06:03Z</time>
      </trkpt>
      <trkpt lat="43.93731" lon="7.51827">
        <ele>301.06232</ele>
        <time>2014-09-30T15:06:08Z</time>
      </trkpt>
      <trkpt lat="43.9373" lon="7.5182">
        <ele>301.06232</ele>
        <time>2014-09-30T15:06:13Z</time>
      </trkpt>
      <trkpt lat="43.93729" lon="7.51814">
        <ele>302.33206</ele>
        <time>2014-09-30T15:06:18Z</time>
      </trkpt>
      <trkpt lat="43.93727" lon="7.5181">
        <ele>302.33206</ele>
        <time>2014-09-30T15:06:23Z</time>
      </trkpt>
      <trkpt lat="43.93725" lon="7.51811">
        <ele>302.33206</ele>
        <time>2014-09-30T15:06:28Z</time>
      </trkpt>
      <trkpt lat="43.93725" lon="7.51811">
        <ele>302.33206</ele>
        <time>2014-09-30T15:06:33Z</time>
      </trkpt>
      <trkpt lat="43.93724" lon="7.5181">
        <ele>302.33206</ele>
        <time>2014-09-30T15:06:38Z</time>
      </trkpt>
      <trkpt lat="43.93722" lon="7.51807">
        <ele>303.78357</ele>
        <time>2014-09-30T15:06:43Z</time>
      </trkpt>
      <trkpt lat="43.93721" lon="7.51805">
        <ele>303.78357</ele>
        <time>2014-09-30T15:06:48Z</time>
      </trkpt>
      <trkpt lat="43.93721" lon="7.51798">
        <ele>303.78357</ele>
        <time>2014-09-30T15:06:53Z</time>
      </trkpt>
      <trkpt lat="43.93718" lon="7.51796">
        <ele>304.86658</ele>
        <time>2014-09-30T15:06:58Z</time>
      </trkpt>
      <trkpt lat="43.93713" lon="7.51792">
        <ele>304.86658</ele>
        <time>2014-09-30T15:07:03Z</time>
      </trkpt>
      <trkpt lat="43.93712" lon="7.51788">
        <ele>304.8941</ele>
        <time>2014-09-30T15:07:08Z</time>
      </trkpt>
      <trkpt lat="43.93714" lon="7.51784">
        <ele>304.9216</ele>
        <time>2014-09-30T15:07:13Z</time>
      </trkpt>
      <trkpt lat="43.93714" lon="7.51779">
        <ele>304.9491</ele>
        <time>2014-09-30T15:07:18Z</time>
      </trkpt>
      <trkpt lat="43.93714" lon="7.51779">
        <ele>304.9766</ele>
        <time>2014-09-30T15:07:23Z</time>
      </trkpt>
      <trkpt lat="43.93714" lon="7.51777">
        <ele>305.0041</ele>
        <time>2014-09-30T15:07:28Z</time>
      </trkpt>
      <trkpt lat="43.93715" lon="7.51776">
        <ele>305.0316</ele>
        <time>2014-09-30T15:07:33Z</time>
      </trkpt>
      <trkpt lat="43.93716" lon="7.51774">
        <ele>305.05908</ele>
        <time>2014-09-30T15:07:38Z</time>
      </trkpt>
      <trkpt lat="43.93716" lon="7.51774">
        <ele>305.08658</ele>
        <time>2014-09-30T15:07:43Z</time>
      </trkpt>
      <trkpt lat="43.93716" lon="7.51774">
        <ele>305.08658</ele>
        <time>2014-09-30T15:07:48Z</time>
      </trkpt>
      <trkpt lat="43.93717" lon="7.51775">
        <ele>305.08658</ele>
        <time>2014-09-30T15:08:13Z</time>
      </trkpt>
      <trkpt lat="43.93718" lon="7.51778">
        <ele>305.08658</ele>
        <time>2014-09-30T15:08:18Z</time>
      </trkpt>
      <trkpt lat="43.93719" lon="7.51779">
        <ele>305.08658</ele>
        <time>2014-09-30T15:08:23Z</time>
      </trkpt>
      <trkpt lat="43.93721" lon="7.5178">
        <ele>305.08658</ele>
        <time>2014-09-30T15:08:28Z</time>
      </trkpt>
      <trkpt lat="43.93721" lon="7.5178">
        <ele>305.08658</ele>
        <time>2014-09-30T15:08:33Z</time>
      </trkpt>
      <trkpt lat="43.93722" lon="7.51783">
        <ele>302.87814</ele>
        <time>2014-09-30T15:08:43Z</time>
      </trkpt>
      <trkpt lat="43.93722" lon="7.51783">
        <ele>301.73032</ele>
        <time>2014-09-30T15:08:48Z</time>
      </trkpt>
      <trkpt lat="43.93732" lon="7.51786">
        <ele>300.58252</ele>
        <time>2014-09-30T15:09:03Z</time>
      </trkpt>
      <trkpt lat="43.93736" lon="7.51781">
        <ele>299.43472</ele>
        <time>2014-09-30T15:09:08Z</time>
      </trkpt>
      <trkpt lat="43.93737" lon="7.51781">
        <ele>299.43472</ele>
        <time>2014-09-30T15:09:13Z</time>
      </trkpt>
      <trkpt lat="43.93737" lon="7.51781">
        <ele>299.43472</ele>
        <time>2014-09-30T15:09:18Z</time>
      </trkpt>
      <trkpt lat="43.93736" lon="7.5178">
        <ele>299.43472</ele>
        <time>2014-09-30T15:09:23Z</time>
      </trkpt>
      <trkpt lat="43.93737" lon="7.51772">
        <ele>299.43472</ele>
        <time>2014-09-30T15:09:28Z</time>
      </trkpt>
      <trkpt lat="43.9374" lon="7.51763">
        <ele>294.43893</ele>
        <time>2014-09-30T15:09:33Z</time>
      </trkpt>
      <trkpt lat="43.93743" lon="7.51751">
        <ele>289.50314</ele>
        <time>2014-09-30T15:09:38Z</time>
      </trkpt>
      <trkpt lat="43.93744" lon="7.51749">
        <ele>289.50314</ele>
        <time>2014-09-30T15:09:43Z</time>
      </trkpt>
      <trkpt lat="43.93741" lon="7.51744">
        <ele>289.50314</ele>
        <time>2014-09-30T15:09:48Z</time>
      </trkpt>
      <trkpt lat="43.93737" lon="7.51738">
        <ele>284.21875</ele>
        <time>2014-09-30T15:09:53Z</time>
      </trkpt>
      <trkpt lat="43.93729" lon="7.51739">
        <ele>284.21875</ele>
        <time>2014-09-30T15:09:58Z</time>
      </trkpt>
      <trkpt lat="43.93724" lon="7.51738">
        <ele>279.2456</ele>
        <time>2014-09-30T15:10:03Z</time>
      </trkpt>
      <trkpt lat="43.93722" lon="7.51738">
        <ele>279.2456</ele>
        <time>2014-09-30T15:10:08Z</time>
      </trkpt>
      <trkpt lat="43.9372" lon="7.51739">
        <ele>279.2456</ele>
        <time>2014-09-30T15:10:13Z</time>
      </trkpt>
      <trkpt lat="43.9372" lon="7.51739">
        <ele>279.2456</ele>
        <time>2014-09-30T15:10:18Z</time>
      </trkpt>
      <trkpt lat="43.93718" lon="7.51735">
        <ele>279.2456</ele>
        <time>2014-09-30T15:10:23Z</time>
      </trkpt>
      <trkpt lat="43.93717" lon="7.51734">
        <ele>274.6896</ele>
        <time>2014-09-30T15:10:28Z</time>
      </trkpt>
      <trkpt lat="43.93717" lon="7.51734">
        <ele>274.6896</ele>
        <time>2014-09-30T15:10:33Z</time>
      </trkpt>
      <trkpt lat="43.93719" lon="7.51734">
        <ele>274.6896</ele>
        <time>2014-09-30T15:10:38Z</time>
      </trkpt>
      <trkpt lat="43.9372" lon="7.51734">
        <ele>274.72153</ele>
        <time>2014-09-30T15:10:43Z</time>
      </trkpt>
      <trkpt lat="43.9372" lon="7.51735">
        <ele>274.75345</ele>
        <time>2014-09-30T15:10:48Z</time>
      </trkpt>
      <trkpt lat="43.93715" lon="7.5195">
        <ele>274.78537</ele>
        <time>2014-09-30T15:11:53Z</time>
      </trkpt>
      <trkpt lat="43.93727" lon="7.51805">
        <ele>274.8173</ele>
        <time>2014-09-30T15:11:58Z</time>
      </trkpt>
      <trkpt lat="43.93709" lon="7.51793">
        <ele>274.8492</ele>
        <time>2014-09-30T15:12:03Z</time>
      </trkpt>
      <trkpt lat="43.93703" lon="7.51794">
        <ele>274.88113</ele>
        <time>2014-09-30T15:12:08Z</time>
      </trkpt>
      <trkpt lat="43.93696" lon="7.518">
        <ele>274.91306</ele>
        <time>2014-09-30T15:12:13Z</time>
      </trkpt>
      <trkpt lat="43.93693" lon="7.51803">
        <ele>274.94498</ele>
        <time>2014-09-30T15:12:18Z</time>
      </trkpt>
      <trkpt lat="43.93689" lon="7.51798">
        <ele>274.9769</ele>
        <time>2014-09-30T15:12:23Z</time>
      </trkpt>
      <trkpt lat="43.93686" lon="7.51795">
        <ele>275.00882</ele>
        <time>2014-09-30T15:12:28Z</time>
      </trkpt>
      <trkpt lat="43.93679" lon="7.5178">
        <ele>275.04074</ele>
        <time>2014-09-30T15:12:33Z</time>
      </trkpt>
      <trkpt lat="43.93683" lon="7.5177">
        <ele>275.07266</ele>
        <time>2014-09-30T15:12:38Z</time>
      </trkpt>
      <trkpt lat="43.93687" lon="7.5177">
        <ele>275.10458</ele>
        <time>2014-09-30T15:12:43Z</time>
      </trkpt>
      <trkpt lat="43.93694" lon="7.5177">
        <ele>275.1365</ele>
        <time>2014-09-30T15:12:48Z</time>
      </trkpt>
      <trkpt lat="43.93691" lon="7.51777">
        <ele>275.16846</ele>
        <time>2014-09-30T15:12:53Z</time>
      </trkpt>
      <trkpt lat="43.93689" lon="7.51784">
        <ele>275.20038</ele>
        <time>2014-09-30T15:12:58Z</time>
      </trkpt>
      <trkpt lat="43.93689" lon="7.51784">
        <ele>275.2323</ele>
        <time>2014-09-30T15:13:03Z</time>
      </trkpt>
      <trkpt lat="43.93691" lon="7.51793">
        <ele>275.26422</ele>
        <time>2014-09-30T15:13:08Z</time>
      </trkpt>
      <trkpt lat="43.9369" lon="7.51794">
        <ele>275.29614</ele>
        <time>2014-09-30T15:13:13Z</time>
      </trkpt>
      <trkpt lat="43.9369" lon="7.51803">
        <ele>275.32806</ele>
        <time>2014-09-30T15:13:18Z</time>
      </trkpt>
      <trkpt lat="43.93688" lon="7.51805">
        <ele>275.36</ele>
        <time>2014-09-30T15:13:23Z</time>
      </trkpt>
      <trkpt lat="43.93688" lon="7.51805">
        <ele>275.36</ele>
        <time>2014-09-30T15:13:28Z</time>
      </trkpt>
      <trkpt lat="43.93687" lon="7.51804">
        <ele>275.36</ele>
        <time>2014-09-30T15:13:33Z</time>
      </trkpt>
      <trkpt lat="43.93685" lon="7.518">
        <ele>275.36</ele>
        <time>2014-09-30T15:13:38Z</time>
      </trkpt>
      <trkpt lat="43.93684" lon="7.51798">
        <ele>275.36</ele>
        <time>2014-09-30T15:13:43Z</time>
      </trkpt>
      <trkpt lat="43.93682" lon="7.51791">
        <ele>279.35687</ele>
        <time>2014-09-30T15:13:48Z</time>
      </trkpt>
      <trkpt lat="43.93682" lon="7.51788">
        <ele>279.35687</ele>
        <time>2014-09-30T15:13:53Z</time>
      </trkpt>
      <trkpt lat="43.93682" lon="7.51788">
        <ele>279.35687</ele>
        <time>2014-09-30T15:13:58Z</time>
      </trkpt>
      <trkpt lat="43.93682" lon="7.51789">
        <ele>279.35687</ele>
        <time>2014-09-30T15:14:23Z</time>
      </trkpt>
      <trkpt lat="43.93684" lon="7.51785">
        <ele>279.35687</ele>
        <time>2014-09-30T15:14:28Z</time>
      </trkpt>
      <trkpt lat="43.93687" lon="7.5178">
        <ele>284.0747</ele>
        <time>2014-09-30T15:14:33Z</time>
      </trkpt>
      <trkpt lat="43.93688" lon="7.51773">
        <ele>284.0747</ele>
        <time>2014-09-30T15:14:38Z</time>
      </trkpt>
      <trkpt lat="43.9369" lon="7.51771">
        <ele>284.0747</ele>
        <time>2014-09-30T15:14:43Z</time>
      </trkpt>
      <trkpt lat="43.9369" lon="7.51777">
        <ele>288.03378</ele>
        <time>2014-09-30T15:14:48Z</time>
      </trkpt>
      <trkpt lat="43.93691" lon="7.51778">
        <ele>288.03378</ele>
        <time>2014-09-30T15:14:53Z</time>
      </trkpt>
      <trkpt lat="43.93691" lon="7.51782">
        <ele>288.03378</ele>
        <time>2014-09-30T15:14:58Z</time>
      </trkpt>
      <trkpt lat="43.93692" lon="7.51783">
        <ele>288.03378</ele>
        <time>2014-09-30T15:15:03Z</time>
      </trkpt>
      <trkpt lat="43.93692" lon="7.51783">
        <ele>288.03378</ele>
        <time>2014-09-30T15:15:08Z</time>
      </trkpt>
      <trkpt lat="43.93693" lon="7.51783">
        <ele>288.03378</ele>
        <time>2014-09-30T15:15:13Z</time>
      </trkpt>
      <trkpt lat="43.93693" lon="7.51782">
        <ele>288.03378</ele>
        <time>2014-09-30T15:15:18Z</time>
      </trkpt>
      <trkpt lat="43.93693" lon="7.51782">
        <ele>288.03378</ele>
        <time>2014-09-30T15:15:23Z</time>
      </trkpt>
      <trkpt lat="43.93693" lon="7.51782">
        <ele>288.03378</ele>
        <time>2014-09-30T15:15:28Z</time>
      </trkpt>
      <trkpt lat="43.93693" lon="7.51784">
        <ele>291.30624</ele>
        <time>2014-09-30T15:15:33Z</time>
      </trkpt>
      <trkpt lat="43.93692" lon="7.51785">
        <ele>291.30624</ele>
        <time>2014-09-30T15:15:38Z</time>
      </trkpt>
      <trkpt lat="43.93692" lon="7.51786">
        <ele>291.30624</ele>
        <time>2014-09-30T15:15:43Z</time>
      </trkpt>
      <trkpt lat="43.93692" lon="7.51786">
        <ele>291.30624</ele>
        <time>2014-09-30T15:15:48Z</time>
      </trkpt>
      <trkpt lat="43.93692" lon="7.51784">
        <ele>291.30624</ele>
        <time>2014-09-30T15:15:53Z</time>
      </trkpt>
      <trkpt lat="43.93693" lon="7.51783">
        <ele>291.30624</ele>
        <time>2014-09-30T15:15:58Z</time>
      </trkpt>
      <trkpt lat="43.93695" lon="7.5178">
        <ele>291.30624</ele>
        <time>2014-09-30T15:16:03Z</time>
      </trkpt>
      <trkpt lat="43.93697" lon="7.51778">
        <ele>294.26352</ele>
        <time>2014-09-30T15:16:08Z</time>
      </trkpt>
      <trkpt lat="43.93697" lon="7.51778">
        <ele>294.26352</ele>
        <time>2014-09-30T15:16:13Z</time>
      </trkpt>
      <trkpt lat="43.93696" lon="7.51777">
        <ele>294.26352</ele>
        <time>2014-09-30T15:16:33Z</time>
      </trkpt>
      <trkpt lat="43.93696" lon="7.51775">
        <ele>294.26352</ele>
        <time>2014-09-30T15:16:38Z</time>
      </trkpt>
      <trkpt lat="43.93695" lon="7.5177">
        <ele>294.26352</ele>
        <time>2014-09-30T15:16:43Z</time>
      </trkpt>
      <trkpt lat="43.93693" lon="7.51759">
        <ele>295.7517</ele>
        <time>2014-09-30T15:16:48Z</time>
      </trkpt>
      <trkpt lat="43.93692" lon="7.51746">
        <ele>296.69467</ele>
        <time>2014-09-30T15:16:53Z</time>
      </trkpt>
      <trkpt lat="43.93691" lon="7.51734">
        <ele>297.24377</ele>
        <time>2014-09-30T15:16:58Z</time>
      </trkpt>
      <trkpt lat="43.9369" lon="7.51732">
        <ele>297.24377</ele>
        <time>2014-09-30T15:17:03Z</time>
      </trkpt>
      <trkpt lat="43.9369" lon="7.51731">
        <ele>297.24377</ele>
        <time>2014-09-30T15:17:08Z</time>
      </trkpt>
      <trkpt lat="43.93693" lon="7.51719">
        <ele>297.3962</ele>
        <time>2014-09-30T15:17:13Z</time>
      </trkpt>
      <trkpt lat="43.93694" lon="7.51718">
        <ele>297.3962</ele>
        <time>2014-09-30T15:17:18Z</time>
      </trkpt>
      <trkpt lat="43.93694" lon="7.51718">
        <ele>297.3962</ele>
        <time>2014-09-30T15:17:23Z</time>
      </trkpt>
      <trkpt lat="43.93693" lon="7.51718">
        <ele>297.3962</ele>
        <time>2014-09-30T15:17:38Z</time>
      </trkpt>
      <trkpt lat="43.93691" lon="7.51716">
        <ele>297.3962</ele>
        <time>2014-09-30T15:17:43Z</time>
      </trkpt>
      <trkpt lat="43.93685" lon="7.51711">
        <ele>297.30917</ele>
        <time>2014-09-30T15:17:48Z</time>
      </trkpt>
      <trkpt lat="43.93683" lon="7.51708">
        <ele>297.30917</ele>
        <time>2014-09-30T15:17:53Z</time>
      </trkpt>
      <trkpt lat="43.93681" lon="7.51708">
        <ele>297.30917</ele>
        <time>2014-09-30T15:17:58Z</time>
      </trkpt>
      <trkpt lat="43.93677" lon="7.51708">
        <ele>297.30917</ele>
        <time>2014-09-30T15:18:03Z</time>
      </trkpt>
      <trkpt lat="43.93668" lon="7.51712">
        <ele>296.6678</ele>
        <time>2014-09-30T15:18:08Z</time>
      </trkpt>
      <trkpt lat="43.93665" lon="7.51712">
        <ele>296.6678</ele>
        <time>2014-09-30T15:18:13Z</time>
      </trkpt>
      <trkpt lat="43.93665" lon="7.51712">
        <ele>296.6678</ele>
        <time>2014-09-30T15:18:18Z</time>
      </trkpt>
      <trkpt lat="43.93664" lon="7.51711">
        <ele>296.6678</ele>
        <time>2014-09-30T15:18:23Z</time>
      </trkpt>
      <trkpt lat="43.93664" lon="7.5171">
        <ele>296.6678</ele>
        <time>2014-09-30T15:18:28Z</time>
      </trkpt>
      <trkpt lat="43.93664" lon="7.51707">
        <ele>296.6678</ele>
        <time>2014-09-30T15:18:33Z</time>
      </trkpt>
      <trkpt lat="43.9366" lon="7.51697">
        <ele>295.7007</ele>
        <time>2014-09-30T15:18:38Z</time>
      </trkpt>
      <trkpt lat="43.93658" lon="7.51693">
        <ele>295.7007</ele>
        <time>2014-09-30T15:18:43Z</time>
      </trkpt>
      <trkpt lat="43.93654" lon="7.51687">
        <ele>295.7007</ele>
        <time>2014-09-30T15:18:48Z</time>
      </trkpt>
      <trkpt lat="43.93651" lon="7.5168">
        <ele>293.72736</ele>
        <time>2014-09-30T15:18:53Z</time>
      </trkpt>
      <trkpt lat="43.93648" lon="7.51671">
        <ele>293.72736</ele>
        <time>2014-09-30T15:18:58Z</time>
      </trkpt>
      <trkpt lat="43.93645" lon="7.51664">
        <ele>291.28717</ele>
        <time>2014-09-30T15:19:03Z</time>
      </trkpt>
      <trkpt lat="43.93643" lon="7.51654">
        <ele>291.28717</ele>
        <time>2014-09-30T15:19:08Z</time>
      </trkpt>
      <trkpt lat="43.93641" lon="7.51646">
        <ele>288.88135</ele>
        <time>2014-09-30T15:19:13Z</time>
      </trkpt>
      <trkpt lat="43.93635" lon="7.5163">
        <ele>286.65714</ele>
        <time>2014-09-30T15:19:18Z</time>
      </trkpt>
      <trkpt lat="43.93633" lon="7.51622">
        <ele>286.65714</ele>
        <time>2014-09-30T15:19:23Z</time>
      </trkpt>
      <trkpt lat="43.9363" lon="7.51618">
        <ele>284.57745</ele>
        <time>2014-09-30T15:19:28Z</time>
      </trkpt>
      <trkpt lat="43.93629" lon="7.51609">
        <ele>284.57745</ele>
        <time>2014-09-30T15:19:33Z</time>
      </trkpt>
      <trkpt lat="43.93628" lon="7.51604">
        <ele>282.59314</ele>
        <time>2014-09-30T15:19:38Z</time>
      </trkpt>
      <trkpt lat="43.93627" lon="7.516">
        <ele>282.59314</ele>
        <time>2014-09-30T15:19:43Z</time>
      </trkpt>
      <trkpt lat="43.93628" lon="7.51595">
        <ele>282.59314</ele>
        <time>2014-09-30T15:19:48Z</time>
      </trkpt>
      <trkpt lat="43.93629" lon="7.51592">
        <ele>280.96097</ele>
        <time>2014-09-30T15:19:53Z</time>
      </trkpt>
      <trkpt lat="43.93624" lon="7.51588">
        <ele>280.96097</ele>
        <time>2014-09-30T15:19:58Z</time>
      </trkpt>
      <trkpt lat="43.93621" lon="7.51586">
        <ele>279.9034</ele>
        <time>2014-09-30T15:20:03Z</time>
      </trkpt>
      <trkpt lat="43.93619" lon="7.51582">
        <ele>279.9034</ele>
        <time>2014-09-30T15:20:08Z</time>
      </trkpt>
      <trkpt lat="43.93613" lon="7.51582">
        <ele>279.9034</ele>
        <time>2014-09-30T15:20:13Z</time>
      </trkpt>
      <trkpt lat="43.9361" lon="7.51575">
        <ele>279.33664</ele>
        <time>2014-09-30T15:20:18Z</time>
      </trkpt>
      <trkpt lat="43.93606" lon="7.51566">
        <ele>279.33664</ele>
        <time>2014-09-30T15:20:23Z</time>
      </trkpt>
      <trkpt lat="43.93602" lon="7.51562">
        <ele>279.13837</ele>
        <time>2014-09-30T15:20:28Z</time>
      </trkpt>
      <trkpt lat="43.93599" lon="7.51555">
        <ele>279.13837</ele>
        <time>2014-09-30T15:20:33Z</time>
      </trkpt>
      <trkpt lat="43.93598" lon="7.51549">
        <ele>279.2519</ele>
        <time>2014-09-30T15:20:38Z</time>
      </trkpt>
      <trkpt lat="43.93598" lon="7.51545">
        <ele>279.2519</ele>
        <time>2014-09-30T15:20:43Z</time>
      </trkpt>
      <trkpt lat="43.93598" lon="7.51542">
        <ele>279.2519</ele>
        <time>2014-09-30T15:20:48Z</time>
      </trkpt>
      <trkpt lat="43.93595" lon="7.51532">
        <ele>279.5516</ele>
        <time>2014-09-30T15:20:53Z</time>
      </trkpt>
      <trkpt lat="43.93593" lon="7.51523">
        <ele>279.5516</ele>
        <time>2014-09-30T15:20:58Z</time>
      </trkpt>
      <trkpt lat="43.93592" lon="7.51519">
        <ele>279.8774</ele>
        <time>2014-09-30T15:21:03Z</time>
      </trkpt>
      <trkpt lat="43.93589" lon="7.51517">
        <ele>279.8774</ele>
        <time>2014-09-30T15:21:08Z</time>
      </trkpt>
      <trkpt lat="43.93589" lon="7.51508">
        <ele>280.28253</ele>
        <time>2014-09-30T15:21:13Z</time>
      </trkpt>
      <trkpt lat="43.93589" lon="7.51502">
        <ele>280.28253</ele>
        <time>2014-09-30T15:21:18Z</time>
      </trkpt>
      <trkpt lat="43.9359" lon="7.51494">
        <ele>280.7585</ele>
        <time>2014-09-30T15:21:23Z</time>
      </trkpt>
      <trkpt lat="43.9359" lon="7.51494">
        <ele>280.7585</ele>
        <time>2014-09-30T15:21:28Z</time>
      </trkpt>
      <trkpt lat="43.93591" lon="7.51489">
        <ele>280.7585</ele>
        <time>2014-09-30T15:21:33Z</time>
      </trkpt>
      <trkpt lat="43.93593" lon="7.51486">
        <ele>280.7585</ele>
        <time>2014-09-30T15:21:38Z</time>
      </trkpt>
      <trkpt lat="43.93595" lon="7.51488">
        <ele>280.7585</ele>
        <time>2014-09-30T15:21:43Z</time>
      </trkpt>
      <trkpt lat="43.93597" lon="7.5149">
        <ele>281.47015</ele>
        <time>2014-09-30T15:21:48Z</time>
      </trkpt>
      <trkpt lat="43.93592" lon="7.51493">
        <ele>281.47015</ele>
        <time>2014-09-30T15:21:53Z</time>
      </trkpt>
      <trkpt lat="43.93589" lon="7.51491">
        <ele>281.47015</ele>
        <time>2014-09-30T15:21:58Z</time>
      </trkpt>
      <trkpt lat="43.93588" lon="7.51489">
        <ele>282.22366</ele>
        <time>2014-09-30T15:22:03Z</time>
      </trkpt>
      <trkpt lat="43.93588" lon="7.51488">
        <ele>282.22366</ele>
        <time>2014-09-30T15:22:08Z</time>
      </trkpt>
      <trkpt lat="43.93588" lon="7.51486">
        <ele>282.22366</ele>
        <time>2014-09-30T15:22:13Z</time>
      </trkpt>
      <trkpt lat="43.93591" lon="7.51474">
        <ele>283.08435</ele>
        <time>2014-09-30T15:22:18Z</time>
      </trkpt>
      <trkpt lat="43.93592" lon="7.51467">
        <ele>283.08435</ele>
        <time>2014-09-30T15:22:23Z</time>
      </trkpt>
      <trkpt lat="43.93598" lon="7.51465">
        <ele>284.14127</ele>
        <time>2014-09-30T15:22:28Z</time>
      </trkpt>
      <trkpt lat="43.93602" lon="7.51465">
        <ele>284.14127</ele>
        <time>2014-09-30T15:22:33Z</time>
      </trkpt>
      <trkpt lat="43.93603" lon="7.51463">
        <ele>284.14127</ele>
        <time>2014-09-30T15:22:38Z</time>
      </trkpt>
      <trkpt lat="43.93605" lon="7.51461">
        <ele>284.14127</ele>
        <time>2014-09-30T15:22:43Z</time>
      </trkpt>
      <trkpt lat="43.93604" lon="7.51453">
        <ele>285.62048</ele>
        <time>2014-09-30T15:22:48Z</time>
      </trkpt>
      <trkpt lat="43.93604" lon="7.51444">
        <ele>285.62048</ele>
        <time>2014-09-30T15:22:53Z</time>
      </trkpt>
      <trkpt lat="43.93601" lon="7.51438">
        <ele>286.9378</ele>
        <time>2014-09-30T15:22:58Z</time>
      </trkpt>
      <trkpt lat="43.93604" lon="7.51436">
        <ele>286.9378</ele>
        <time>2014-09-30T15:23:03Z</time>
      </trkpt>
      <trkpt lat="43.93603" lon="7.51436">
        <ele>286.9378</ele>
        <time>2014-09-30T15:23:08Z</time>
      </trkpt>
      <trkpt lat="43.93603" lon="7.51436">
        <ele>286.9378</ele>
        <time>2014-09-30T15:23:13Z</time>
      </trkpt>
      <trkpt lat="43.93603" lon="7.51437">
        <ele>286.9378</ele>
        <time>2014-09-30T15:23:18Z</time>
      </trkpt>
      <trkpt lat="43.93603" lon="7.51438">
        <ele>286.9378</ele>
        <time>2014-09-30T15:23:23Z</time>
      </trkpt>
      <trkpt lat="43.93603" lon="7.51439">
        <ele>287.2964</ele>
        <time>2014-09-30T15:23:28Z</time>
      </trkpt>
      <trkpt lat="43.93603" lon="7.5144">
        <ele>287.65494</ele>
        <time>2014-09-30T15:23:33Z</time>
      </trkpt>
      <trkpt lat="43.93605" lon="7.51442">
        <ele>288.01352</ele>
        <time>2014-09-30T15:23:38Z</time>
      </trkpt>
      <trkpt lat="43.93605" lon="7.51436">
        <ele>288.01352</ele>
        <time>2014-09-30T15:23:43Z</time>
      </trkpt>
      <trkpt lat="43.93606" lon="7.51429">
        <ele>288.84662</ele>
        <time>2014-09-30T15:23:48Z</time>
      </trkpt>
      <trkpt lat="43.93606" lon="7.51422">
        <ele>288.84662</ele>
        <time>2014-09-30T15:23:53Z</time>
      </trkpt>
      <trkpt lat="43.93606" lon="7.51417">
        <ele>288.84662</ele>
        <time>2014-09-30T15:23:58Z</time>
      </trkpt>
      <trkpt lat="43.93606" lon="7.51411">
        <ele>288.86044</ele>
        <time>2014-09-30T15:24:03Z</time>
      </trkpt>
      <trkpt lat="43.93608" lon="7.51409">
        <ele>288.86044</ele>
        <time>2014-09-30T15:24:08Z</time>
      </trkpt>
      <trkpt lat="43.93608" lon="7.51403">
        <ele>288.86044</ele>
        <time>2014-09-30T15:24:13Z</time>
      </trkpt>
      <trkpt lat="43.93609" lon="7.51401">
        <ele>288.86044</ele>
        <time>2014-09-30T15:24:18Z</time>
      </trkpt>
      <trkpt lat="43.93609" lon="7.51401">
        <ele>288.86044</ele>
        <time>2014-09-30T15:24:23Z</time>
      </trkpt>
      <trkpt lat="43.93609" lon="7.51402">
        <ele>288.86044</ele>
        <time>2014-09-30T15:24:38Z</time>
      </trkpt>
      <trkpt lat="43.93612" lon="7.514">
        <ele>288.5319</ele>
        <time>2014-09-30T15:24:43Z</time>
      </trkpt>
      <trkpt lat="43.93613" lon="7.51401">
        <ele>288.5319</ele>
        <time>2014-09-30T15:24:48Z</time>
      </trkpt>
      <trkpt lat="43.93613" lon="7.51403">
        <ele>288.5319</ele>
        <time>2014-09-30T15:24:53Z</time>
      </trkpt>
      <trkpt lat="43.93614" lon="7.51404">
        <ele>288.58463</ele>
        <time>2014-09-30T15:24:58Z</time>
      </trkpt>
      <trkpt lat="43.93717" lon="7.5146">
        <ele>288.63736</ele>
        <time>2014-09-30T15:26:13Z</time>
      </trkpt>
      <trkpt lat="43.93714" lon="7.51459">
        <ele>288.69006</ele>
        <time>2014-09-30T15:26:18Z</time>
      </trkpt>
      <trkpt lat="43.93712" lon="7.51456">
        <ele>288.7428</ele>
        <time>2014-09-30T15:26:23Z</time>
      </trkpt>
      <trkpt lat="43.93713" lon="7.51458">
        <ele>288.79553</ele>
        <time>2014-09-30T15:26:28Z</time>
      </trkpt>
      <trkpt lat="43.93716" lon="7.51462">
        <ele>288.84824</ele>
        <time>2014-09-30T15:26:33Z</time>
      </trkpt>
      <trkpt lat="43.93724" lon="7.51465">
        <ele>288.90097</ele>
        <time>2014-09-30T15:26:38Z</time>
      </trkpt>
      <trkpt lat="43.93731" lon="7.51467">
        <ele>288.9537</ele>
        <time>2014-09-30T15:26:43Z</time>
      </trkpt>
      <trkpt lat="43.93735" lon="7.51463">
        <ele>289.00644</ele>
        <time>2014-09-30T15:26:48Z</time>
      </trkpt>
      <trkpt lat="43.93737" lon="7.51463">
        <ele>289.05914</ele>
        <time>2014-09-30T15:26:53Z</time>
      </trkpt>
      <trkpt lat="43.93856" lon="7.51534">
        <ele>289.11188</ele>
        <time>2014-09-30T15:30:28Z</time>
      </trkpt>
      <trkpt lat="43.93856" lon="7.51536">
        <ele>289.1646</ele>
        <time>2014-09-30T15:30:33Z</time>
      </trkpt>
      <trkpt lat="43.9386" lon="7.51563">
        <ele>289.21735</ele>
        <time>2014-09-30T15:30:43Z</time>
      </trkpt>
      <trkpt lat="43.93865" lon="7.51571">
        <ele>289.27005</ele>
        <time>2014-09-30T15:30:58Z</time>
      </trkpt>
      <trkpt lat="43.93866" lon="7.51574">
        <ele>289.32278</ele>
        <time>2014-09-30T15:31:03Z</time>
      </trkpt>
      <trkpt lat="43.93866" lon="7.5158">
        <ele>289.37552</ele>
        <time>2014-09-30T15:31:08Z</time>
      </trkpt>
      <trkpt lat="43.93868" lon="7.51594">
        <ele>289.42822</ele>
        <time>2014-09-30T15:31:13Z</time>
      </trkpt>
      <trkpt lat="43.93868" lon="7.51618">
        <ele>289.48096</ele>
        <time>2014-09-30T15:31:18Z</time>
      </trkpt>
      <trkpt lat="43.93871" lon="7.51628">
        <ele>289.5337</ele>
        <time>2014-09-30T15:31:23Z</time>
      </trkpt>
      <trkpt lat="43.93881" lon="7.51635">
        <ele>289.58643</ele>
        <time>2014-09-30T15:31:28Z</time>
      </trkpt>
      <trkpt lat="43.93882" lon="7.51646">
        <ele>289.58643</ele>
        <time>2014-09-30T15:31:33Z</time>
      </trkpt>
      <trkpt lat="43.93883" lon="7.51652">
        <ele>290.30435</ele>
        <time>2014-09-30T15:31:38Z</time>
      </trkpt>
      <trkpt lat="43.9389" lon="7.51641">
        <ele>290.82278</ele>
        <time>2014-09-30T15:31:43Z</time>
      </trkpt>
      <trkpt lat="43.93902" lon="7.51622">
        <ele>291.24045</ele>
        <time>2014-09-30T15:31:48Z</time>
      </trkpt>
      <trkpt lat="43.93909" lon="7.5162">
        <ele>291.24045</ele>
        <time>2014-09-30T15:31:53Z</time>
      </trkpt>
      <trkpt lat="43.93908" lon="7.51622">
        <ele>291.5628</ele>
        <time>2014-09-30T15:31:58Z</time>
      </trkpt>
      <trkpt lat="43.9391" lon="7.51626">
        <ele>291.5628</ele>
        <time>2014-09-30T15:32:03Z</time>
      </trkpt>
      <trkpt lat="43.93911" lon="7.51629">
        <ele>291.5628</ele>
        <time>2014-09-30T15:32:08Z</time>
      </trkpt>
      <trkpt lat="43.93912" lon="7.51636">
        <ele>291.92493</ele>
        <time>2014-09-30T15:32:13Z</time>
      </trkpt>
      <trkpt lat="43.93917" lon="7.51642">
        <ele>291.92493</ele>
        <time>2014-09-30T15:32:18Z</time>
      </trkpt>
      <trkpt lat="43.93921" lon="7.51648">
        <ele>292.22137</ele>
        <time>2014-09-30T15:32:23Z</time>
      </trkpt>
      <trkpt lat="43.93922" lon="7.5165">
        <ele>292.22137</ele>
        <time>2014-09-30T15:32:28Z</time>
      </trkpt>
      <trkpt lat="43.93922" lon="7.5165">
        <ele>292.22137</ele>
        <time>2014-09-30T15:32:33Z</time>
      </trkpt>
      <trkpt lat="43.93924" lon="7.51653">
        <ele>292.22137</ele>
        <time>2014-09-30T15:32:38Z</time>
      </trkpt>
      <trkpt lat="43.9393" lon="7.5166">
        <ele>292.4123</ele>
        <time>2014-09-30T15:32:43Z</time>
      </trkpt>
      <trkpt lat="43.93935" lon="7.51662">
        <ele>292.4123</ele>
        <time>2014-09-30T15:32:48Z</time>
      </trkpt>
      <trkpt lat="43.93938" lon="7.51664">
        <ele>292.4123</ele>
        <time>2014-09-30T15:32:53Z</time>
      </trkpt>
      <trkpt lat="43.93938" lon="7.51665">
        <ele>292.4123</ele>
        <time>2014-09-30T15:32:58Z</time>
      </trkpt>
      <trkpt lat="43.93938" lon="7.51668">
        <ele>292.60538</ele>
        <time>2014-09-30T15:33:03Z</time>
      </trkpt>
      <trkpt lat="43.93939" lon="7.51669">
        <ele>292.60538</ele>
        <time>2014-09-30T15:33:08Z</time>
      </trkpt>
      <trkpt lat="43.93942" lon="7.51668">
        <ele>292.60538</ele>
        <time>2014-09-30T15:33:13Z</time>
      </trkpt>
      <trkpt lat="43.93943" lon="7.51668">
        <ele>292.60538</ele>
        <time>2014-09-30T15:33:18Z</time>
      </trkpt>
      <trkpt lat="43.93944" lon="7.51664">
        <ele>292.60538</ele>
        <time>2014-09-30T15:33:23Z</time>
      </trkpt>
      <trkpt lat="43.93946" lon="7.51663">
        <ele>292.4968</ele>
        <time>2014-09-30T15:33:28Z</time>
      </trkpt>
      <trkpt lat="43.93947" lon="7.51663">
        <ele>292.4968</ele>
        <time>2014-09-30T15:33:33Z</time>
      </trkpt>
      <trkpt lat="43.93948" lon="7.51663">
        <ele>292.4968</ele>
        <time>2014-09-30T15:33:38Z</time>
      </trkpt>
      <trkpt lat="43.9395" lon="7.51662">
        <ele>292.4968</ele>
        <time>2014-09-30T15:33:43Z</time>
      </trkpt>
      <trkpt lat="43.93951" lon="7.5166">
        <ele>292.4968</ele>
        <time>2014-09-30T15:33:48Z</time>
      </trkpt>
      <trkpt lat="43.93948" lon="7.51654">
        <ele>292.06552</ele>
        <time>2014-09-30T15:33:53Z</time>
      </trkpt>
      <trkpt lat="43.93948" lon="7.51654">
        <ele>292.06552</ele>
        <time>2014-09-30T15:33:58Z</time>
      </trkpt>
      <trkpt lat="43.93948" lon="7.51656">
        <ele>292.06552</ele>
        <time>2014-09-30T15:34:03Z</time>
      </trkpt>
      <trkpt lat="43.93952" lon="7.51658">
        <ele>292.06552</ele>
        <time>2014-09-30T15:34:08Z</time>
      </trkpt>
      <trkpt lat="43.93954" lon="7.51658">
        <ele>292.06552</ele>
        <time>2014-09-30T15:34:13Z</time>
      </trkpt>
      <trkpt lat="43.93954" lon="7.51658">
        <ele>292.06552</ele>
        <time>2014-09-30T15:34:18Z</time>
      </trkpt>
      <trkpt lat="43.93956" lon="7.51659">
        <ele>292.06552</ele>
        <time>2014-09-30T15:34:28Z</time>
      </trkpt>
      <trkpt lat="43.93959" lon="7.51661">
        <ele>291.07675</ele>
        <time>2014-09-30T15:34:33Z</time>
      </trkpt>
      <trkpt lat="43.93959" lon="7.51661">
        <ele>291.07675</ele>
        <time>2014-09-30T15:34:38Z</time>
      </trkpt>
      <trkpt lat="43.93965" lon="7.51663">
        <ele>291.07675</ele>
        <time>2014-09-30T15:35:03Z</time>
      </trkpt>
      <trkpt lat="43.93965" lon="7.51663">
        <ele>291.07675</ele>
        <time>2014-09-30T15:35:08Z</time>
      </trkpt>
      <trkpt lat="43.93967" lon="7.51665">
        <ele>286.63416</ele>
        <time>2014-09-30T15:35:43Z</time>
      </trkpt>
      <trkpt lat="43.93968" lon="7.51667">
        <ele>286.63416</ele>
        <time>2014-09-30T15:35:48Z</time>
      </trkpt>
      <trkpt lat="43.93968" lon="7.51667">
        <ele>286.63416</ele>
        <time>2014-09-30T15:35:53Z</time>
      </trkpt>
      <trkpt lat="43.93972" lon="7.51669">
        <ele>286.63416</ele>
        <time>2014-09-30T15:36:03Z</time>
      </trkpt>
      <trkpt lat="43.93972" lon="7.51669">
        <ele>286.63416</ele>
        <time>2014-09-30T15:36:08Z</time>
      </trkpt>
      <trkpt lat="43.93973" lon="7.5167">
        <ele>286.63416</ele>
        <time>2014-09-30T15:36:13Z</time>
      </trkpt>
      <trkpt lat="43.93977" lon="7.51668">
        <ele>282.3759</ele>
        <time>2014-09-30T15:36:18Z</time>
      </trkpt>
      <trkpt lat="43.93981" lon="7.51665">
        <ele>282.3759</ele>
        <time>2014-09-30T15:36:23Z</time>
      </trkpt>
      <trkpt lat="43.93985" lon="7.5166">
        <ele>278.55957</ele>
        <time>2014-09-30T15:36:28Z</time>
      </trkpt>
      <trkpt lat="43.93989" lon="7.51655">
        <ele>278.55957</ele>
        <time>2014-09-30T15:36:33Z</time>
      </trkpt>
      <trkpt lat="43.93993" lon="7.51652">
        <ele>275.43707</ele>
        <time>2014-09-30T15:36:38Z</time>
      </trkpt>
      <trkpt lat="43.93998" lon="7.51651">
        <ele>275.43707</ele>
        <time>2014-09-30T15:36:43Z</time>
      </trkpt>
      <trkpt lat="43.94001" lon="7.5165">
        <ele>275.43707</ele>
        <time>2014-09-30T15:36:48Z</time>
      </trkpt>
      <trkpt lat="43.94003" lon="7.51647">
        <ele>273.03796</ele>
        <time>2014-09-30T15:36:53Z</time>
      </trkpt>
      <trkpt lat="43.94006" lon="7.51642">
        <ele>273.03796</ele>
        <time>2014-09-30T15:36:58Z</time>
      </trkpt>
      <trkpt lat="43.94005" lon="7.51639">
        <ele>273.03796</ele>
        <time>2014-09-30T15:37:03Z</time>
      </trkpt>
      <trkpt lat="43.94003" lon="7.51634">
        <ele>271.6325</ele>
        <time>2014-09-30T15:37:08Z</time>
      </trkpt>
      <trkpt lat="43.94002" lon="7.51633">
        <ele>271.6325</ele>
        <time>2014-09-30T15:37:13Z</time>
      </trkpt>
      <trkpt lat="43.93999" lon="7.51633">
        <ele>271.6325</ele>
        <time>2014-09-30T15:37:18Z</time>
      </trkpt>
      <trkpt lat="43.93996" lon="7.51637">
        <ele>271.6325</ele>
        <time>2014-09-30T15:37:23Z</time>
      </trkpt>
      <trkpt lat="43.93992" lon="7.51639">
        <ele>271.29538</ele>
        <time>2014-09-30T15:37:28Z</time>
      </trkpt>
      <trkpt lat="43.93987" lon="7.51642">
        <ele>271.29538</ele>
        <time>2014-09-30T15:37:33Z</time>
      </trkpt>
      <trkpt lat="43.93981" lon="7.51644">
        <ele>271.17032</ele>
        <time>2014-09-30T15:37:38Z</time>
      </trkpt>
      <trkpt lat="43.93977" lon="7.51639">
        <ele>271.17032</ele>
        <time>2014-09-30T15:37:43Z</time>
      </trkpt>
      <trkpt lat="43.93973" lon="7.51636">
        <ele>271.21268</ele>
        <time>2014-09-30T15:37:48Z</time>
      </trkpt>
      <trkpt lat="43.93971" lon="7.51631">
        <ele>271.21268</ele>
        <time>2014-09-30T15:37:53Z</time>
      </trkpt>
      <trkpt lat="43.93971" lon="7.5163">
        <ele>271.21268</ele>
        <time>2014-09-30T15:37:58Z</time>
      </trkpt>
      <trkpt lat="43.93968" lon="7.51628">
        <ele>271.21268</ele>
        <time>2014-09-30T15:38:03Z</time>
      </trkpt>
      <trkpt lat="43.93968" lon="7.51628">
        <ele>271.21268</ele>
        <time>2014-09-30T15:38:08Z</time>
      </trkpt>
      <trkpt lat="43.93964" lon="7.51627">
        <ele>271.14996</ele>
        <time>2014-09-30T15:38:23Z</time>
      </trkpt>
      <trkpt lat="43.93961" lon="7.51624">
        <ele>271.14996</ele>
        <time>2014-09-30T15:38:28Z</time>
      </trkpt>
      <trkpt lat="43.93959" lon="7.51616">
        <ele>271.2775</ele>
        <time>2014-09-30T15:38:33Z</time>
      </trkpt>
      <trkpt lat="43.93961" lon="7.51607">
        <ele>271.2775</ele>
        <time>2014-09-30T15:38:38Z</time>
      </trkpt>
      <trkpt lat="43.93959" lon="7.51602">
        <ele>271.37842</ele>
        <time>2014-09-30T15:38:43Z</time>
      </trkpt>
      <trkpt lat="43.93956" lon="7.51599">
        <ele>271.37842</ele>
        <time>2014-09-30T15:38:48Z</time>
      </trkpt>
      <trkpt lat="43.93952" lon="7.51595">
        <ele>271.37842</ele>
        <time>2014-09-30T15:38:53Z</time>
      </trkpt>
      <trkpt lat="43.93949" lon="7.5159">
        <ele>271.41022</ele>
        <time>2014-09-30T15:38:58Z</time>
      </trkpt>
      <trkpt lat="43.93946" lon="7.51587">
        <ele>271.41022</ele>
        <time>2014-09-30T15:39:03Z</time>
      </trkpt>
      <trkpt lat="43.93945" lon="7.51584">
        <ele>271.41022</ele>
        <time>2014-09-30T15:39:08Z</time>
      </trkpt>
      <trkpt lat="43.93942" lon="7.51579">
        <ele>271.4202</ele>
        <time>2014-09-30T15:39:13Z</time>
      </trkpt>
      <trkpt lat="43.9394" lon="7.51575">
        <ele>271.4202</ele>
        <time>2014-09-30T15:39:18Z</time>
      </trkpt>
      <trkpt lat="43.93937" lon="7.5157">
        <ele>271.4202</ele>
        <time>2014-09-30T15:39:23Z</time>
      </trkpt>
      <trkpt lat="43.93932" lon="7.51565">
        <ele>271.39456</ele>
        <time>2014-09-30T15:39:28Z</time>
      </trkpt>
      <trkpt lat="43.93927" lon="7.51558">
        <ele>271.39456</ele>
        <time>2014-09-30T15:39:33Z</time>
      </trkpt>
      <trkpt lat="43.93923" lon="7.51552">
        <ele>271.56552</ele>
        <time>2014-09-30T15:39:38Z</time>
      </trkpt>
      <trkpt lat="43.93922" lon="7.51545">
        <ele>271.56552</ele>
        <time>2014-09-30T15:39:43Z</time>
      </trkpt>
      <trkpt lat="43.93919" lon="7.51538">
        <ele>271.8307</ele>
        <time>2014-09-30T15:39:48Z</time>
      </trkpt>
      <trkpt lat="43.93918" lon="7.51531">
        <ele>271.8307</ele>
        <time>2014-09-30T15:39:53Z</time>
      </trkpt>
      <trkpt lat="43.93916" lon="7.51526">
        <ele>272.23892</ele>
        <time>2014-09-30T15:39:58Z</time>
      </trkpt>
      <trkpt lat="43.93916" lon="7.51526">
        <ele>272.23892</ele>
        <time>2014-09-30T15:40:03Z</time>
      </trkpt>
      <trkpt lat="43.93917" lon="7.51521">
        <ele>272.23892</ele>
        <time>2014-09-30T15:40:08Z</time>
      </trkpt>
      <trkpt lat="43.93915" lon="7.51512">
        <ele>272.691</ele>
        <time>2014-09-30T15:40:13Z</time>
      </trkpt>
      <trkpt lat="43.93914" lon="7.51504">
        <ele>272.691</ele>
        <time>2014-09-30T15:40:18Z</time>
      </trkpt>
      <trkpt lat="43.9391" lon="7.51498">
        <ele>273.36874</ele>
        <time>2014-09-30T15:40:23Z</time>
      </trkpt>
      <trkpt lat="43.93909" lon="7.51492">
        <ele>273.36874</ele>
        <time>2014-09-30T15:40:28Z</time>
      </trkpt>
      <trkpt lat="43.93907" lon="7.51487">
        <ele>273.36874</ele>
        <time>2014-09-30T15:40:33Z</time>
      </trkpt>
      <trkpt lat="43.93905" lon="7.51485">
        <ele>274.06516</ele>
        <time>2014-09-30T15:40:38Z</time>
      </trkpt>
      <trkpt lat="43.93903" lon="7.51483">
        <ele>274.06516</ele>
        <time>2014-09-30T15:40:43Z</time>
      </trkpt>
      <trkpt lat="43.93905" lon="7.51482">
        <ele>274.06516</ele>
        <time>2014-09-30T15:40:48Z</time>
      </trkpt>
      <trkpt lat="43.93905" lon="7.51481">
        <ele>274.06516</ele>
        <time>2014-09-30T15:40:53Z</time>
      </trkpt>
      <trkpt lat="43.93908" lon="7.51482">
        <ele>274.06516</ele>
        <time>2014-09-30T15:40:58Z</time>
      </trkpt>
      <trkpt lat="43.93914" lon="7.51484">
        <ele>274.45883</ele>
        <time>2014-09-30T15:41:03Z</time>
      </trkpt>
      <trkpt lat="43.93915" lon="7.51485">
        <ele>274.45883</ele>
        <time>2014-09-30T15:41:08Z</time>
      </trkpt>
      <trkpt lat="43.93915" lon="7.51485">
        <ele>274.45883</ele>
        <time>2014-09-30T15:41:13Z</time>
      </trkpt>
    </trkseg>
  </trk>
</gpx>